<?xml version="1.0" encoding="UTF-8" standalone="no" ?>
<gpx xmlns="http://www.topografix.com/GPX/1/1" xmlns:xsi="http://www.w3.org/2001/XMLSchema-instance" xsi:schemaLocation="http://www.topografix.com/GPX/1/1 http://www.topografix.com/GPX/1/1/gpx.xsd" version="1.1" creator="VisuGPX - https://www.visugpx.com">
  <metadata>
    <name>Tournefeuille Gravel bike</name>
  </metadata>
  <trk>
    <name><![CDATA[Tournefeuille Gravel bike_1]]></name>
    <trkseg>
      <trkpt lat="43.58687" lon="1.32225">
        <ele>185.4</ele>
        <time>2024-03-27T05:47:01Z</time>
      </trkpt>
      <trkpt lat="43.58682" lon="1.32231">
        <ele>186</ele>
        <time>2024-03-27T05:47:45Z</time>
      </trkpt>
      <trkpt lat="43.58682" lon="1.32235">
        <ele>186</ele>
        <time>2024-03-27T05:47:46Z</time>
      </trkpt>
      <trkpt lat="43.58682" lon="1.32238">
        <ele>185.6</ele>
        <time>2024-03-27T05:47:47Z</time>
      </trkpt>
      <trkpt lat="43.58683" lon="1.32242">
        <ele>185.6</ele>
        <time>2024-03-27T05:47:48Z</time>
      </trkpt>
      <trkpt lat="43.58684" lon="1.32247">
        <ele>185.6</ele>
        <time>2024-03-27T05:47:49Z</time>
      </trkpt>
      <trkpt lat="43.58684" lon="1.32252">
        <ele>185.6</ele>
        <time>2024-03-27T05:47:50Z</time>
      </trkpt>
      <trkpt lat="43.58684" lon="1.32258">
        <ele>185.6</ele>
        <time>2024-03-27T05:47:51Z</time>
      </trkpt>
      <trkpt lat="43.58684" lon="1.32264">
        <ele>185.4</ele>
        <time>2024-03-27T05:47:52Z</time>
      </trkpt>
      <trkpt lat="43.58684" lon="1.3227">
        <ele>185.4</ele>
        <time>2024-03-27T05:47:53Z</time>
      </trkpt>
      <trkpt lat="43.58684" lon="1.32275">
        <ele>185.4</ele>
        <time>2024-03-27T05:47:54Z</time>
      </trkpt>
      <trkpt lat="43.58686" lon="1.32278">
        <ele>185.4</ele>
        <time>2024-03-27T05:47:55Z</time>
      </trkpt>
      <trkpt lat="43.58689" lon="1.3228">
        <ele>185.2</ele>
        <time>2024-03-27T05:47:56Z</time>
      </trkpt>
      <trkpt lat="43.58693" lon="1.3228">
        <ele>185.2</ele>
        <time>2024-03-27T05:47:57Z</time>
      </trkpt>
      <trkpt lat="43.58696" lon="1.32278">
        <ele>185.2</ele>
        <time>2024-03-27T05:47:58Z</time>
      </trkpt>
      <trkpt lat="43.58698" lon="1.32276">
        <ele>185.2</ele>
        <time>2024-03-27T05:47:59Z</time>
      </trkpt>
      <trkpt lat="43.58701" lon="1.32273">
        <ele>185.2</ele>
        <time>2024-03-27T05:48:00Z</time>
      </trkpt>
      <trkpt lat="43.58703" lon="1.3227">
        <ele>185.2</ele>
        <time>2024-03-27T05:48:01Z</time>
      </trkpt>
      <trkpt lat="43.58706" lon="1.32267">
        <ele>185.2</ele>
        <time>2024-03-27T05:48:02Z</time>
      </trkpt>
      <trkpt lat="43.58709" lon="1.32264">
        <ele>185.2</ele>
        <time>2024-03-27T05:48:03Z</time>
      </trkpt>
      <trkpt lat="43.58711" lon="1.3226">
        <ele>185.4</ele>
        <time>2024-03-27T05:48:04Z</time>
      </trkpt>
      <trkpt lat="43.58714" lon="1.32257">
        <ele>185.6</ele>
        <time>2024-03-27T05:48:05Z</time>
      </trkpt>
      <trkpt lat="43.58718" lon="1.32254">
        <ele>186</ele>
        <time>2024-03-27T05:48:06Z</time>
      </trkpt>
      <trkpt lat="43.58721" lon="1.3225">
        <ele>186.4</ele>
        <time>2024-03-27T05:48:07Z</time>
      </trkpt>
      <trkpt lat="43.58724" lon="1.32247">
        <ele>186.6</ele>
        <time>2024-03-27T05:48:08Z</time>
      </trkpt>
      <trkpt lat="43.58728" lon="1.32244">
        <ele>186.6</ele>
        <time>2024-03-27T05:48:09Z</time>
      </trkpt>
      <trkpt lat="43.58731" lon="1.3224">
        <ele>187</ele>
        <time>2024-03-27T05:48:10Z</time>
      </trkpt>
      <trkpt lat="43.58734" lon="1.32237">
        <ele>187</ele>
        <time>2024-03-27T05:48:11Z</time>
      </trkpt>
      <trkpt lat="43.58738" lon="1.32234">
        <ele>187.2</ele>
        <time>2024-03-27T05:48:12Z</time>
      </trkpt>
      <trkpt lat="43.58742" lon="1.3223">
        <ele>187.2</ele>
        <time>2024-03-27T05:48:13Z</time>
      </trkpt>
      <trkpt lat="43.58746" lon="1.32226">
        <ele>187.2</ele>
        <time>2024-03-27T05:48:14Z</time>
      </trkpt>
      <trkpt lat="43.58749" lon="1.32223">
        <ele>187.2</ele>
        <time>2024-03-27T05:48:15Z</time>
      </trkpt>
      <trkpt lat="43.58753" lon="1.32219">
        <ele>187.4</ele>
        <time>2024-03-27T05:48:16Z</time>
      </trkpt>
      <trkpt lat="43.58757" lon="1.32215">
        <ele>187.4</ele>
        <time>2024-03-27T05:48:17Z</time>
      </trkpt>
      <trkpt lat="43.58761" lon="1.32211">
        <ele>187.8</ele>
        <time>2024-03-27T05:48:18Z</time>
      </trkpt>
      <trkpt lat="43.58765" lon="1.32206">
        <ele>187.8</ele>
        <time>2024-03-27T05:48:19Z</time>
      </trkpt>
      <trkpt lat="43.58768" lon="1.32202">
        <ele>188.2</ele>
        <time>2024-03-27T05:48:20Z</time>
      </trkpt>
      <trkpt lat="43.58772" lon="1.32197">
        <ele>188.2</ele>
        <time>2024-03-27T05:48:21Z</time>
      </trkpt>
      <trkpt lat="43.58775" lon="1.32193">
        <ele>188.4</ele>
        <time>2024-03-27T05:48:22Z</time>
      </trkpt>
      <trkpt lat="43.58779" lon="1.3219">
        <ele>188.4</ele>
        <time>2024-03-27T05:48:23Z</time>
      </trkpt>
      <trkpt lat="43.58783" lon="1.32186">
        <ele>188.4</ele>
        <time>2024-03-27T05:48:24Z</time>
      </trkpt>
      <trkpt lat="43.58787" lon="1.32182">
        <ele>188.4</ele>
        <time>2024-03-27T05:48:25Z</time>
      </trkpt>
      <trkpt lat="43.58791" lon="1.32178">
        <ele>188.4</ele>
        <time>2024-03-27T05:48:26Z</time>
      </trkpt>
      <trkpt lat="43.58795" lon="1.32174">
        <ele>188.8</ele>
        <time>2024-03-27T05:48:27Z</time>
      </trkpt>
      <trkpt lat="43.58799" lon="1.3217">
        <ele>188.8</ele>
        <time>2024-03-27T05:48:28Z</time>
      </trkpt>
      <trkpt lat="43.58803" lon="1.32166">
        <ele>188.8</ele>
        <time>2024-03-27T05:48:29Z</time>
      </trkpt>
      <trkpt lat="43.58807" lon="1.32162">
        <ele>188.8</ele>
        <time>2024-03-27T05:48:30Z</time>
      </trkpt>
      <trkpt lat="43.5881" lon="1.32158">
        <ele>188.8</ele>
        <time>2024-03-27T05:48:31Z</time>
      </trkpt>
      <trkpt lat="43.58813" lon="1.32154">
        <ele>188.8</ele>
        <time>2024-03-27T05:48:32Z</time>
      </trkpt>
      <trkpt lat="43.58815" lon="1.32151">
        <ele>188.8</ele>
        <time>2024-03-27T05:48:33Z</time>
      </trkpt>
      <trkpt lat="43.58815" lon="1.32148">
        <ele>188.8</ele>
        <time>2024-03-27T05:48:34Z</time>
      </trkpt>
      <trkpt lat="43.58815" lon="1.32146">
        <ele>188.8</ele>
        <time>2024-03-27T05:48:35Z</time>
      </trkpt>
      <trkpt lat="43.58816" lon="1.32142">
        <ele>189.2</ele>
        <time>2024-03-27T05:48:36Z</time>
      </trkpt>
      <trkpt lat="43.58817" lon="1.32138">
        <ele>189.2</ele>
        <time>2024-03-27T05:48:37Z</time>
      </trkpt>
      <trkpt lat="43.58818" lon="1.32134">
        <ele>189.2</ele>
        <time>2024-03-27T05:48:38Z</time>
      </trkpt>
      <trkpt lat="43.58819" lon="1.32129">
        <ele>189.2</ele>
        <time>2024-03-27T05:48:39Z</time>
      </trkpt>
      <trkpt lat="43.5882" lon="1.32125">
        <ele>189.2</ele>
        <time>2024-03-27T05:48:40Z</time>
      </trkpt>
      <trkpt lat="43.58821" lon="1.3212">
        <ele>189.2</ele>
        <time>2024-03-27T05:48:41Z</time>
      </trkpt>
      <trkpt lat="43.58824" lon="1.32115">
        <ele>189.2</ele>
        <time>2024-03-27T05:48:42Z</time>
      </trkpt>
      <trkpt lat="43.58827" lon="1.32112">
        <ele>189.2</ele>
        <time>2024-03-27T05:48:43Z</time>
      </trkpt>
      <trkpt lat="43.5883" lon="1.32109">
        <ele>189.2</ele>
        <time>2024-03-27T05:48:44Z</time>
      </trkpt>
      <trkpt lat="43.58834" lon="1.32105">
        <ele>189.2</ele>
        <time>2024-03-27T05:48:45Z</time>
      </trkpt>
      <trkpt lat="43.58838" lon="1.32102">
        <ele>189.2</ele>
        <time>2024-03-27T05:48:46Z</time>
      </trkpt>
      <trkpt lat="43.58842" lon="1.32098">
        <ele>189.2</ele>
        <time>2024-03-27T05:48:47Z</time>
      </trkpt>
      <trkpt lat="43.58846" lon="1.32095">
        <ele>189.4</ele>
        <time>2024-03-27T05:48:48Z</time>
      </trkpt>
      <trkpt lat="43.5885" lon="1.32091">
        <ele>189.4</ele>
        <time>2024-03-27T05:48:49Z</time>
      </trkpt>
      <trkpt lat="43.58854" lon="1.32087">
        <ele>189.4</ele>
        <time>2024-03-27T05:48:50Z</time>
      </trkpt>
      <trkpt lat="43.58858" lon="1.32083">
        <ele>189.6</ele>
        <time>2024-03-27T05:48:51Z</time>
      </trkpt>
      <trkpt lat="43.58861" lon="1.32079">
        <ele>189.8</ele>
        <time>2024-03-27T05:48:52Z</time>
      </trkpt>
      <trkpt lat="43.58865" lon="1.32075">
        <ele>189.8</ele>
        <time>2024-03-27T05:48:53Z</time>
      </trkpt>
      <trkpt lat="43.58869" lon="1.32071">
        <ele>190</ele>
        <time>2024-03-27T05:48:54Z</time>
      </trkpt>
      <trkpt lat="43.58873" lon="1.32068">
        <ele>190</ele>
        <time>2024-03-27T05:48:55Z</time>
      </trkpt>
      <trkpt lat="43.58877" lon="1.32064">
        <ele>189.8</ele>
        <time>2024-03-27T05:48:56Z</time>
      </trkpt>
      <trkpt lat="43.58881" lon="1.3206">
        <ele>190</ele>
        <time>2024-03-27T05:48:57Z</time>
      </trkpt>
      <trkpt lat="43.58884" lon="1.32057">
        <ele>190.2</ele>
        <time>2024-03-27T05:48:58Z</time>
      </trkpt>
      <trkpt lat="43.58889" lon="1.32052">
        <ele>190.2</ele>
        <time>2024-03-27T05:48:59Z</time>
      </trkpt>
      <trkpt lat="43.58892" lon="1.32048">
        <ele>190.2</ele>
        <time>2024-03-27T05:49:00Z</time>
      </trkpt>
      <trkpt lat="43.58896" lon="1.32044">
        <ele>190.2</ele>
        <time>2024-03-27T05:49:01Z</time>
      </trkpt>
      <trkpt lat="43.58899" lon="1.3204">
        <ele>190.2</ele>
        <time>2024-03-27T05:49:02Z</time>
      </trkpt>
      <trkpt lat="43.58903" lon="1.32036">
        <ele>190.2</ele>
        <time>2024-03-27T05:49:03Z</time>
      </trkpt>
      <trkpt lat="43.58908" lon="1.32031">
        <ele>190.2</ele>
        <time>2024-03-27T05:49:04Z</time>
      </trkpt>
      <trkpt lat="43.58911" lon="1.32028">
        <ele>190.2</ele>
        <time>2024-03-27T05:49:05Z</time>
      </trkpt>
      <trkpt lat="43.58915" lon="1.32024">
        <ele>190.2</ele>
        <time>2024-03-27T05:49:06Z</time>
      </trkpt>
      <trkpt lat="43.58919" lon="1.3202">
        <ele>190.2</ele>
        <time>2024-03-27T05:49:07Z</time>
      </trkpt>
      <trkpt lat="43.58923" lon="1.32016">
        <ele>190.2</ele>
        <time>2024-03-27T05:49:08Z</time>
      </trkpt>
      <trkpt lat="43.58926" lon="1.32012">
        <ele>190.2</ele>
        <time>2024-03-27T05:49:09Z</time>
      </trkpt>
      <trkpt lat="43.5893" lon="1.32008">
        <ele>190.2</ele>
        <time>2024-03-27T05:49:10Z</time>
      </trkpt>
      <trkpt lat="43.58933" lon="1.32006">
        <ele>190.2</ele>
        <time>2024-03-27T05:49:11Z</time>
      </trkpt>
      <trkpt lat="43.58937" lon="1.32006">
        <ele>190.4</ele>
        <time>2024-03-27T05:49:12Z</time>
      </trkpt>
      <trkpt lat="43.5894" lon="1.32006">
        <ele>190.4</ele>
        <time>2024-03-27T05:49:13Z</time>
      </trkpt>
      <trkpt lat="43.58944" lon="1.32006">
        <ele>190.2</ele>
        <time>2024-03-27T05:49:14Z</time>
      </trkpt>
      <trkpt lat="43.58949" lon="1.32005">
        <ele>190.2</ele>
        <time>2024-03-27T05:49:15Z</time>
      </trkpt>
      <trkpt lat="43.58953" lon="1.32003">
        <ele>190.2</ele>
        <time>2024-03-27T05:49:16Z</time>
      </trkpt>
      <trkpt lat="43.58957" lon="1.32">
        <ele>190.2</ele>
        <time>2024-03-27T05:49:17Z</time>
      </trkpt>
      <trkpt lat="43.58962" lon="1.31998">
        <ele>190.2</ele>
        <time>2024-03-27T05:49:18Z</time>
      </trkpt>
      <trkpt lat="43.58966" lon="1.31996">
        <ele>190.2</ele>
        <time>2024-03-27T05:49:19Z</time>
      </trkpt>
      <trkpt lat="43.58971" lon="1.31994">
        <ele>190</ele>
        <time>2024-03-27T05:49:20Z</time>
      </trkpt>
      <trkpt lat="43.58976" lon="1.31991">
        <ele>190</ele>
        <time>2024-03-27T05:49:21Z</time>
      </trkpt>
      <trkpt lat="43.58981" lon="1.31987">
        <ele>189.8</ele>
        <time>2024-03-27T05:49:22Z</time>
      </trkpt>
      <trkpt lat="43.58985" lon="1.31983">
        <ele>189.8</ele>
        <time>2024-03-27T05:49:23Z</time>
      </trkpt>
      <trkpt lat="43.58989" lon="1.31979">
        <ele>189.8</ele>
        <time>2024-03-27T05:49:24Z</time>
      </trkpt>
      <trkpt lat="43.58994" lon="1.31974">
        <ele>189.8</ele>
        <time>2024-03-27T05:49:25Z</time>
      </trkpt>
      <trkpt lat="43.58998" lon="1.31969">
        <ele>189.8</ele>
        <time>2024-03-27T05:49:26Z</time>
      </trkpt>
      <trkpt lat="43.59002" lon="1.31964">
        <ele>189.8</ele>
        <time>2024-03-27T05:49:27Z</time>
      </trkpt>
      <trkpt lat="43.59006" lon="1.31959">
        <ele>190</ele>
        <time>2024-03-27T05:49:28Z</time>
      </trkpt>
      <trkpt lat="43.59011" lon="1.31954">
        <ele>190</ele>
        <time>2024-03-27T05:49:29Z</time>
      </trkpt>
      <trkpt lat="43.59015" lon="1.3195">
        <ele>190</ele>
        <time>2024-03-27T05:49:30Z</time>
      </trkpt>
      <trkpt lat="43.5902" lon="1.31945">
        <ele>190</ele>
        <time>2024-03-27T05:49:31Z</time>
      </trkpt>
      <trkpt lat="43.59024" lon="1.31941">
        <ele>190</ele>
        <time>2024-03-27T05:49:32Z</time>
      </trkpt>
      <trkpt lat="43.59028" lon="1.31936">
        <ele>190</ele>
        <time>2024-03-27T05:49:33Z</time>
      </trkpt>
      <trkpt lat="43.59032" lon="1.3193">
        <ele>190</ele>
        <time>2024-03-27T05:49:34Z</time>
      </trkpt>
      <trkpt lat="43.59035" lon="1.31923">
        <ele>190</ele>
        <time>2024-03-27T05:49:35Z</time>
      </trkpt>
      <trkpt lat="43.59039" lon="1.31917">
        <ele>190</ele>
        <time>2024-03-27T05:49:36Z</time>
      </trkpt>
      <trkpt lat="43.59042" lon="1.31911">
        <ele>190</ele>
        <time>2024-03-27T05:49:37Z</time>
      </trkpt>
      <trkpt lat="43.59046" lon="1.31905">
        <ele>190</ele>
        <time>2024-03-27T05:49:38Z</time>
      </trkpt>
      <trkpt lat="43.5905" lon="1.31899">
        <ele>190</ele>
        <time>2024-03-27T05:49:39Z</time>
      </trkpt>
      <trkpt lat="43.59055" lon="1.31895">
        <ele>190</ele>
        <time>2024-03-27T05:49:40Z</time>
      </trkpt>
      <trkpt lat="43.5906" lon="1.31892">
        <ele>190.2</ele>
        <time>2024-03-27T05:49:41Z</time>
      </trkpt>
      <trkpt lat="43.59065" lon="1.31888">
        <ele>190.2</ele>
        <time>2024-03-27T05:49:42Z</time>
      </trkpt>
      <trkpt lat="43.59069" lon="1.31884">
        <ele>190.2</ele>
        <time>2024-03-27T05:49:43Z</time>
      </trkpt>
      <trkpt lat="43.59073" lon="1.31878">
        <ele>190.2</ele>
        <time>2024-03-27T05:49:44Z</time>
      </trkpt>
      <trkpt lat="43.59077" lon="1.31872">
        <ele>190.2</ele>
        <time>2024-03-27T05:49:45Z</time>
      </trkpt>
      <trkpt lat="43.59081" lon="1.31865">
        <ele>190.2</ele>
        <time>2024-03-27T05:49:46Z</time>
      </trkpt>
      <trkpt lat="43.59085" lon="1.31859">
        <ele>190.2</ele>
        <time>2024-03-27T05:49:47Z</time>
      </trkpt>
      <trkpt lat="43.5909" lon="1.31854">
        <ele>190.2</ele>
        <time>2024-03-27T05:49:48Z</time>
      </trkpt>
      <trkpt lat="43.59095" lon="1.3185">
        <ele>190.2</ele>
        <time>2024-03-27T05:49:49Z</time>
      </trkpt>
      <trkpt lat="43.591" lon="1.31845">
        <ele>190.2</ele>
        <time>2024-03-27T05:49:50Z</time>
      </trkpt>
      <trkpt lat="43.59104" lon="1.3184">
        <ele>190.2</ele>
        <time>2024-03-27T05:49:51Z</time>
      </trkpt>
      <trkpt lat="43.59109" lon="1.31835">
        <ele>190.2</ele>
        <time>2024-03-27T05:49:52Z</time>
      </trkpt>
      <trkpt lat="43.59114" lon="1.3183">
        <ele>190.2</ele>
        <time>2024-03-27T05:49:53Z</time>
      </trkpt>
      <trkpt lat="43.59119" lon="1.31825">
        <ele>190.2</ele>
        <time>2024-03-27T05:49:54Z</time>
      </trkpt>
      <trkpt lat="43.59124" lon="1.31821">
        <ele>190.2</ele>
        <time>2024-03-27T05:49:55Z</time>
      </trkpt>
      <trkpt lat="43.59129" lon="1.31816">
        <ele>190.2</ele>
        <time>2024-03-27T05:49:56Z</time>
      </trkpt>
      <trkpt lat="43.59134" lon="1.31812">
        <ele>190.2</ele>
        <time>2024-03-27T05:49:57Z</time>
      </trkpt>
      <trkpt lat="43.59139" lon="1.31807">
        <ele>190</ele>
        <time>2024-03-27T05:49:58Z</time>
      </trkpt>
      <trkpt lat="43.59143" lon="1.31804">
        <ele>190</ele>
        <time>2024-03-27T05:49:59Z</time>
      </trkpt>
      <trkpt lat="43.59146" lon="1.31801">
        <ele>190</ele>
        <time>2024-03-27T05:50:00Z</time>
      </trkpt>
      <trkpt lat="43.59148" lon="1.318">
        <ele>189.8</ele>
        <time>2024-03-27T05:50:01Z</time>
      </trkpt>
      <trkpt lat="43.5915" lon="1.31798">
        <ele>189.8</ele>
        <time>2024-03-27T05:50:02Z</time>
      </trkpt>
      <trkpt lat="43.59151" lon="1.31795">
        <ele>189.8</ele>
        <time>2024-03-27T05:50:03Z</time>
      </trkpt>
      <trkpt lat="43.59152" lon="1.3179">
        <ele>189.8</ele>
        <time>2024-03-27T05:50:04Z</time>
      </trkpt>
      <trkpt lat="43.59153" lon="1.31785">
        <ele>189.8</ele>
        <time>2024-03-27T05:50:05Z</time>
      </trkpt>
      <trkpt lat="43.59152" lon="1.3178">
        <ele>189.6</ele>
        <time>2024-03-27T05:50:06Z</time>
      </trkpt>
      <trkpt lat="43.59151" lon="1.31773">
        <ele>189.6</ele>
        <time>2024-03-27T05:50:07Z</time>
      </trkpt>
      <trkpt lat="43.59149" lon="1.31766">
        <ele>189.6</ele>
        <time>2024-03-27T05:50:08Z</time>
      </trkpt>
      <trkpt lat="43.59148" lon="1.3176">
        <ele>189.4</ele>
        <time>2024-03-27T05:50:09Z</time>
      </trkpt>
      <trkpt lat="43.59147" lon="1.31753">
        <ele>189.4</ele>
        <time>2024-03-27T05:50:10Z</time>
      </trkpt>
      <trkpt lat="43.59145" lon="1.31746">
        <ele>189.4</ele>
        <time>2024-03-27T05:50:11Z</time>
      </trkpt>
      <trkpt lat="43.59143" lon="1.31739">
        <ele>189.4</ele>
        <time>2024-03-27T05:50:12Z</time>
      </trkpt>
      <trkpt lat="43.59141" lon="1.31732">
        <ele>189.4</ele>
        <time>2024-03-27T05:50:13Z</time>
      </trkpt>
      <trkpt lat="43.59139" lon="1.31725">
        <ele>189.4</ele>
        <time>2024-03-27T05:50:14Z</time>
      </trkpt>
      <trkpt lat="43.59137" lon="1.31718">
        <ele>189.2</ele>
        <time>2024-03-27T05:50:15Z</time>
      </trkpt>
      <trkpt lat="43.59135" lon="1.31711">
        <ele>189.2</ele>
        <time>2024-03-27T05:50:16Z</time>
      </trkpt>
      <trkpt lat="43.59134" lon="1.31703">
        <ele>189.2</ele>
        <time>2024-03-27T05:50:17Z</time>
      </trkpt>
      <trkpt lat="43.59133" lon="1.31695">
        <ele>189.2</ele>
        <time>2024-03-27T05:50:18Z</time>
      </trkpt>
      <trkpt lat="43.59132" lon="1.31688">
        <ele>189.2</ele>
        <time>2024-03-27T05:50:19Z</time>
      </trkpt>
      <trkpt lat="43.5913" lon="1.3168">
        <ele>189.2</ele>
        <time>2024-03-27T05:50:20Z</time>
      </trkpt>
      <trkpt lat="43.59129" lon="1.31673">
        <ele>189.2</ele>
        <time>2024-03-27T05:50:21Z</time>
      </trkpt>
      <trkpt lat="43.59127" lon="1.31665">
        <ele>189.2</ele>
        <time>2024-03-27T05:50:22Z</time>
      </trkpt>
      <trkpt lat="43.59126" lon="1.31658">
        <ele>189.2</ele>
        <time>2024-03-27T05:50:23Z</time>
      </trkpt>
      <trkpt lat="43.59124" lon="1.31651">
        <ele>189.4</ele>
        <time>2024-03-27T05:50:24Z</time>
      </trkpt>
      <trkpt lat="43.59123" lon="1.31644">
        <ele>189.4</ele>
        <time>2024-03-27T05:50:25Z</time>
      </trkpt>
      <trkpt lat="43.59121" lon="1.31638">
        <ele>189.4</ele>
        <time>2024-03-27T05:50:26Z</time>
      </trkpt>
      <trkpt lat="43.59122" lon="1.31632">
        <ele>189.4</ele>
        <time>2024-03-27T05:50:27Z</time>
      </trkpt>
      <trkpt lat="43.59125" lon="1.31627">
        <ele>189.4</ele>
        <time>2024-03-27T05:50:28Z</time>
      </trkpt>
      <trkpt lat="43.59129" lon="1.31625">
        <ele>189.8</ele>
        <time>2024-03-27T05:50:29Z</time>
      </trkpt>
      <trkpt lat="43.59133" lon="1.31622">
        <ele>189.8</ele>
        <time>2024-03-27T05:50:30Z</time>
      </trkpt>
      <trkpt lat="43.59138" lon="1.3162">
        <ele>189.8</ele>
        <time>2024-03-27T05:50:31Z</time>
      </trkpt>
      <trkpt lat="43.59142" lon="1.31617">
        <ele>189.8</ele>
        <time>2024-03-27T05:50:32Z</time>
      </trkpt>
      <trkpt lat="43.59147" lon="1.31614">
        <ele>189.8</ele>
        <time>2024-03-27T05:50:33Z</time>
      </trkpt>
      <trkpt lat="43.59152" lon="1.31611">
        <ele>189.8</ele>
        <time>2024-03-27T05:50:34Z</time>
      </trkpt>
      <trkpt lat="43.59157" lon="1.31608">
        <ele>189.6</ele>
        <time>2024-03-27T05:50:35Z</time>
      </trkpt>
      <trkpt lat="43.59162" lon="1.31605">
        <ele>189.6</ele>
        <time>2024-03-27T05:50:36Z</time>
      </trkpt>
      <trkpt lat="43.59167" lon="1.31603">
        <ele>189.6</ele>
        <time>2024-03-27T05:50:37Z</time>
      </trkpt>
      <trkpt lat="43.59173" lon="1.316">
        <ele>189.8</ele>
        <time>2024-03-27T05:50:38Z</time>
      </trkpt>
      <trkpt lat="43.59179" lon="1.31597">
        <ele>189.6</ele>
        <time>2024-03-27T05:50:39Z</time>
      </trkpt>
      <trkpt lat="43.59184" lon="1.31594">
        <ele>189.6</ele>
        <time>2024-03-27T05:50:40Z</time>
      </trkpt>
      <trkpt lat="43.5919" lon="1.31591">
        <ele>189.8</ele>
        <time>2024-03-27T05:50:41Z</time>
      </trkpt>
      <trkpt lat="43.59196" lon="1.31588">
        <ele>189.6</ele>
        <time>2024-03-27T05:50:42Z</time>
      </trkpt>
      <trkpt lat="43.59201" lon="1.31585">
        <ele>189.6</ele>
        <time>2024-03-27T05:50:43Z</time>
      </trkpt>
      <trkpt lat="43.59207" lon="1.31581">
        <ele>189.6</ele>
        <time>2024-03-27T05:50:44Z</time>
      </trkpt>
      <trkpt lat="43.59212" lon="1.31578">
        <ele>189.6</ele>
        <time>2024-03-27T05:50:45Z</time>
      </trkpt>
      <trkpt lat="43.59217" lon="1.31575">
        <ele>189.6</ele>
        <time>2024-03-27T05:50:46Z</time>
      </trkpt>
      <trkpt lat="43.59223" lon="1.31572">
        <ele>189.6</ele>
        <time>2024-03-27T05:50:47Z</time>
      </trkpt>
      <trkpt lat="43.59228" lon="1.31569">
        <ele>189.6</ele>
        <time>2024-03-27T05:50:48Z</time>
      </trkpt>
      <trkpt lat="43.59234" lon="1.31567">
        <ele>189.6</ele>
        <time>2024-03-27T05:50:49Z</time>
      </trkpt>
      <trkpt lat="43.59239" lon="1.31568">
        <ele>189.6</ele>
        <time>2024-03-27T05:50:50Z</time>
      </trkpt>
      <trkpt lat="43.59244" lon="1.31571">
        <ele>189.6</ele>
        <time>2024-03-27T05:50:51Z</time>
      </trkpt>
      <trkpt lat="43.59248" lon="1.31576">
        <ele>189.6</ele>
        <time>2024-03-27T05:50:52Z</time>
      </trkpt>
      <trkpt lat="43.59251" lon="1.31582">
        <ele>189.6</ele>
        <time>2024-03-27T05:50:53Z</time>
      </trkpt>
      <trkpt lat="43.59254" lon="1.31589">
        <ele>189.6</ele>
        <time>2024-03-27T05:50:54Z</time>
      </trkpt>
      <trkpt lat="43.59258" lon="1.31596">
        <ele>189.8</ele>
        <time>2024-03-27T05:50:55Z</time>
      </trkpt>
      <trkpt lat="43.59261" lon="1.31602">
        <ele>189.8</ele>
        <time>2024-03-27T05:50:56Z</time>
      </trkpt>
      <trkpt lat="43.59264" lon="1.31609">
        <ele>189.8</ele>
        <time>2024-03-27T05:50:57Z</time>
      </trkpt>
      <trkpt lat="43.59268" lon="1.31616">
        <ele>189.8</ele>
        <time>2024-03-27T05:50:58Z</time>
      </trkpt>
      <trkpt lat="43.59271" lon="1.31623">
        <ele>189.8</ele>
        <time>2024-03-27T05:50:59Z</time>
      </trkpt>
      <trkpt lat="43.59274" lon="1.3163">
        <ele>189.8</ele>
        <time>2024-03-27T05:51:00Z</time>
      </trkpt>
      <trkpt lat="43.59278" lon="1.31637">
        <ele>189.8</ele>
        <time>2024-03-27T05:51:01Z</time>
      </trkpt>
      <trkpt lat="43.59281" lon="1.31644">
        <ele>189.8</ele>
        <time>2024-03-27T05:51:02Z</time>
      </trkpt>
      <trkpt lat="43.59284" lon="1.3165">
        <ele>189.8</ele>
        <time>2024-03-27T05:51:03Z</time>
      </trkpt>
      <trkpt lat="43.59287" lon="1.31657">
        <ele>189.8</ele>
        <time>2024-03-27T05:51:04Z</time>
      </trkpt>
      <trkpt lat="43.5929" lon="1.31664">
        <ele>189.8</ele>
        <time>2024-03-27T05:51:05Z</time>
      </trkpt>
      <trkpt lat="43.59294" lon="1.31671">
        <ele>189.8</ele>
        <time>2024-03-27T05:51:06Z</time>
      </trkpt>
      <trkpt lat="43.59297" lon="1.31678">
        <ele>189.6</ele>
        <time>2024-03-27T05:51:07Z</time>
      </trkpt>
      <trkpt lat="43.593" lon="1.31685">
        <ele>189.6</ele>
        <time>2024-03-27T05:51:08Z</time>
      </trkpt>
      <trkpt lat="43.59303" lon="1.31692">
        <ele>189.6</ele>
        <time>2024-03-27T05:51:09Z</time>
      </trkpt>
      <trkpt lat="43.59307" lon="1.31699">
        <ele>189.6</ele>
        <time>2024-03-27T05:51:10Z</time>
      </trkpt>
      <trkpt lat="43.5931" lon="1.31706">
        <ele>189.6</ele>
        <time>2024-03-27T05:51:11Z</time>
      </trkpt>
      <trkpt lat="43.59314" lon="1.31713">
        <ele>189.6</ele>
        <time>2024-03-27T05:51:12Z</time>
      </trkpt>
      <trkpt lat="43.59317" lon="1.3172">
        <ele>189.6</ele>
        <time>2024-03-27T05:51:13Z</time>
      </trkpt>
      <trkpt lat="43.59321" lon="1.31727">
        <ele>189.6</ele>
        <time>2024-03-27T05:51:14Z</time>
      </trkpt>
      <trkpt lat="43.59324" lon="1.31734">
        <ele>189.6</ele>
        <time>2024-03-27T05:51:15Z</time>
      </trkpt>
      <trkpt lat="43.59328" lon="1.31741">
        <ele>189.6</ele>
        <time>2024-03-27T05:51:16Z</time>
      </trkpt>
      <trkpt lat="43.59331" lon="1.31748">
        <ele>189.6</ele>
        <time>2024-03-27T05:51:17Z</time>
      </trkpt>
      <trkpt lat="43.59334" lon="1.31756">
        <ele>189.6</ele>
        <time>2024-03-27T05:51:18Z</time>
      </trkpt>
      <trkpt lat="43.59337" lon="1.31763">
        <ele>189.6</ele>
        <time>2024-03-27T05:51:19Z</time>
      </trkpt>
      <trkpt lat="43.5934" lon="1.31771">
        <ele>189.6</ele>
        <time>2024-03-27T05:51:20Z</time>
      </trkpt>
      <trkpt lat="43.59343" lon="1.31778">
        <ele>189.6</ele>
        <time>2024-03-27T05:51:21Z</time>
      </trkpt>
      <trkpt lat="43.59347" lon="1.31787">
        <ele>189.6</ele>
        <time>2024-03-27T05:51:22Z</time>
      </trkpt>
      <trkpt lat="43.59349" lon="1.31792">
        <ele>189.6</ele>
        <time>2024-03-27T05:51:23Z</time>
      </trkpt>
      <trkpt lat="43.59352" lon="1.31799">
        <ele>189.4</ele>
        <time>2024-03-27T05:51:24Z</time>
      </trkpt>
      <trkpt lat="43.59355" lon="1.31806">
        <ele>189.4</ele>
        <time>2024-03-27T05:51:25Z</time>
      </trkpt>
      <trkpt lat="43.59359" lon="1.31813">
        <ele>189.4</ele>
        <time>2024-03-27T05:51:26Z</time>
      </trkpt>
      <trkpt lat="43.59362" lon="1.3182">
        <ele>189.4</ele>
        <time>2024-03-27T05:51:27Z</time>
      </trkpt>
      <trkpt lat="43.59366" lon="1.31827">
        <ele>189.4</ele>
        <time>2024-03-27T05:51:28Z</time>
      </trkpt>
      <trkpt lat="43.5937" lon="1.31834">
        <ele>189.4</ele>
        <time>2024-03-27T05:51:29Z</time>
      </trkpt>
      <trkpt lat="43.59374" lon="1.31841">
        <ele>189.2</ele>
        <time>2024-03-27T05:51:30Z</time>
      </trkpt>
      <trkpt lat="43.59378" lon="1.31847">
        <ele>189.2</ele>
        <time>2024-03-27T05:51:31Z</time>
      </trkpt>
      <trkpt lat="43.59381" lon="1.31854">
        <ele>189</ele>
        <time>2024-03-27T05:51:32Z</time>
      </trkpt>
      <trkpt lat="43.59385" lon="1.3186">
        <ele>189</ele>
        <time>2024-03-27T05:51:33Z</time>
      </trkpt>
      <trkpt lat="43.5939" lon="1.31864">
        <ele>189</ele>
        <time>2024-03-27T05:51:34Z</time>
      </trkpt>
      <trkpt lat="43.59395" lon="1.31866">
        <ele>188.8</ele>
        <time>2024-03-27T05:51:35Z</time>
      </trkpt>
      <trkpt lat="43.59401" lon="1.31866">
        <ele>188.8</ele>
        <time>2024-03-27T05:51:36Z</time>
      </trkpt>
      <trkpt lat="43.59406" lon="1.31863">
        <ele>188.6</ele>
        <time>2024-03-27T05:51:37Z</time>
      </trkpt>
      <trkpt lat="43.59411" lon="1.3186">
        <ele>188.6</ele>
        <time>2024-03-27T05:51:38Z</time>
      </trkpt>
      <trkpt lat="43.59416" lon="1.31856">
        <ele>188.6</ele>
        <time>2024-03-27T05:51:39Z</time>
      </trkpt>
      <trkpt lat="43.5942" lon="1.31851">
        <ele>188.6</ele>
        <time>2024-03-27T05:51:40Z</time>
      </trkpt>
      <trkpt lat="43.59425" lon="1.31847">
        <ele>188.6</ele>
        <time>2024-03-27T05:51:41Z</time>
      </trkpt>
      <trkpt lat="43.5943" lon="1.31843">
        <ele>188.6</ele>
        <time>2024-03-27T05:51:42Z</time>
      </trkpt>
      <trkpt lat="43.59435" lon="1.31838">
        <ele>188.6</ele>
        <time>2024-03-27T05:51:43Z</time>
      </trkpt>
      <trkpt lat="43.5944" lon="1.31834">
        <ele>188.6</ele>
        <time>2024-03-27T05:51:44Z</time>
      </trkpt>
      <trkpt lat="43.59445" lon="1.3183">
        <ele>188.6</ele>
        <time>2024-03-27T05:51:45Z</time>
      </trkpt>
      <trkpt lat="43.5945" lon="1.31827">
        <ele>188.6</ele>
        <time>2024-03-27T05:51:46Z</time>
      </trkpt>
      <trkpt lat="43.59455" lon="1.31823">
        <ele>188.6</ele>
        <time>2024-03-27T05:51:47Z</time>
      </trkpt>
      <trkpt lat="43.59459" lon="1.31821">
        <ele>188.6</ele>
        <time>2024-03-27T05:51:48Z</time>
      </trkpt>
      <trkpt lat="43.59462" lon="1.3182">
        <ele>188.6</ele>
        <time>2024-03-27T05:51:49Z</time>
      </trkpt>
      <trkpt lat="43.59466" lon="1.31823">
        <ele>188.6</ele>
        <time>2024-03-27T05:51:50Z</time>
      </trkpt>
      <trkpt lat="43.59469" lon="1.31827">
        <ele>188.6</ele>
        <time>2024-03-27T05:51:51Z</time>
      </trkpt>
      <trkpt lat="43.59472" lon="1.31832">
        <ele>188.8</ele>
        <time>2024-03-27T05:51:52Z</time>
      </trkpt>
      <trkpt lat="43.59475" lon="1.31836">
        <ele>188.8</ele>
        <time>2024-03-27T05:51:53Z</time>
      </trkpt>
      <trkpt lat="43.59478" lon="1.31841">
        <ele>188.8</ele>
        <time>2024-03-27T05:51:54Z</time>
      </trkpt>
      <trkpt lat="43.59482" lon="1.31847">
        <ele>189</ele>
        <time>2024-03-27T05:51:55Z</time>
      </trkpt>
      <trkpt lat="43.59485" lon="1.31852">
        <ele>189</ele>
        <time>2024-03-27T05:51:56Z</time>
      </trkpt>
      <trkpt lat="43.59486" lon="1.31859">
        <ele>189</ele>
        <time>2024-03-27T05:51:57Z</time>
      </trkpt>
      <trkpt lat="43.59487" lon="1.31868">
        <ele>189</ele>
        <time>2024-03-27T05:51:58Z</time>
      </trkpt>
      <trkpt lat="43.59488" lon="1.31875">
        <ele>189</ele>
        <time>2024-03-27T05:51:59Z</time>
      </trkpt>
      <trkpt lat="43.59488" lon="1.3188">
        <ele>189</ele>
        <time>2024-03-27T05:52:00Z</time>
      </trkpt>
      <trkpt lat="43.59487" lon="1.31888">
        <ele>189</ele>
        <time>2024-03-27T05:52:01Z</time>
      </trkpt>
      <trkpt lat="43.59487" lon="1.31895">
        <ele>189</ele>
        <time>2024-03-27T05:52:02Z</time>
      </trkpt>
      <trkpt lat="43.59487" lon="1.31903">
        <ele>189</ele>
        <time>2024-03-27T05:52:03Z</time>
      </trkpt>
      <trkpt lat="43.59486" lon="1.3191">
        <ele>189</ele>
        <time>2024-03-27T05:52:04Z</time>
      </trkpt>
      <trkpt lat="43.59485" lon="1.31918">
        <ele>189</ele>
        <time>2024-03-27T05:52:05Z</time>
      </trkpt>
      <trkpt lat="43.59484" lon="1.31925">
        <ele>189</ele>
        <time>2024-03-27T05:52:06Z</time>
      </trkpt>
      <trkpt lat="43.59483" lon="1.31932">
        <ele>189</ele>
        <time>2024-03-27T05:52:07Z</time>
      </trkpt>
      <trkpt lat="43.59483" lon="1.31939">
        <ele>189</ele>
        <time>2024-03-27T05:52:08Z</time>
      </trkpt>
      <trkpt lat="43.59486" lon="1.31945">
        <ele>189</ele>
        <time>2024-03-27T05:52:09Z</time>
      </trkpt>
      <trkpt lat="43.59489" lon="1.31949">
        <ele>189</ele>
        <time>2024-03-27T05:52:10Z</time>
      </trkpt>
      <trkpt lat="43.59494" lon="1.31952">
        <ele>189</ele>
        <time>2024-03-27T05:52:11Z</time>
      </trkpt>
      <trkpt lat="43.59498" lon="1.31955">
        <ele>189</ele>
        <time>2024-03-27T05:52:12Z</time>
      </trkpt>
      <trkpt lat="43.59503" lon="1.31958">
        <ele>189</ele>
        <time>2024-03-27T05:52:13Z</time>
      </trkpt>
      <trkpt lat="43.59507" lon="1.31961">
        <ele>188.8</ele>
        <time>2024-03-27T05:52:14Z</time>
      </trkpt>
      <trkpt lat="43.59512" lon="1.31965">
        <ele>188.8</ele>
        <time>2024-03-27T05:52:15Z</time>
      </trkpt>
      <trkpt lat="43.59517" lon="1.31969">
        <ele>188.8</ele>
        <time>2024-03-27T05:52:16Z</time>
      </trkpt>
      <trkpt lat="43.59522" lon="1.31973">
        <ele>188.8</ele>
        <time>2024-03-27T05:52:17Z</time>
      </trkpt>
      <trkpt lat="43.59527" lon="1.31976">
        <ele>188.8</ele>
        <time>2024-03-27T05:52:18Z</time>
      </trkpt>
      <trkpt lat="43.59532" lon="1.31979">
        <ele>188.6</ele>
        <time>2024-03-27T05:52:19Z</time>
      </trkpt>
      <trkpt lat="43.59537" lon="1.31981">
        <ele>188.6</ele>
        <time>2024-03-27T05:52:20Z</time>
      </trkpt>
      <trkpt lat="43.59542" lon="1.31984">
        <ele>188.4</ele>
        <time>2024-03-27T05:52:21Z</time>
      </trkpt>
      <trkpt lat="43.59547" lon="1.31988">
        <ele>188.4</ele>
        <time>2024-03-27T05:52:22Z</time>
      </trkpt>
      <trkpt lat="43.59551" lon="1.3199">
        <ele>188.4</ele>
        <time>2024-03-27T05:52:23Z</time>
      </trkpt>
      <trkpt lat="43.59557" lon="1.31993">
        <ele>188.4</ele>
        <time>2024-03-27T05:52:24Z</time>
      </trkpt>
      <trkpt lat="43.59562" lon="1.31992">
        <ele>188.4</ele>
        <time>2024-03-27T05:52:25Z</time>
      </trkpt>
      <trkpt lat="43.59567" lon="1.31991">
        <ele>188.4</ele>
        <time>2024-03-27T05:52:26Z</time>
      </trkpt>
      <trkpt lat="43.59572" lon="1.31991">
        <ele>188.4</ele>
        <time>2024-03-27T05:52:27Z</time>
      </trkpt>
      <trkpt lat="43.59577" lon="1.31992">
        <ele>188.4</ele>
        <time>2024-03-27T05:52:28Z</time>
      </trkpt>
      <trkpt lat="43.59582" lon="1.31995">
        <ele>188.4</ele>
        <time>2024-03-27T05:52:29Z</time>
      </trkpt>
      <trkpt lat="43.59585" lon="1.31999">
        <ele>188.4</ele>
        <time>2024-03-27T05:52:30Z</time>
      </trkpt>
      <trkpt lat="43.59588" lon="1.32005">
        <ele>188.4</ele>
        <time>2024-03-27T05:52:31Z</time>
      </trkpt>
      <trkpt lat="43.5959" lon="1.32012">
        <ele>188.4</ele>
        <time>2024-03-27T05:52:32Z</time>
      </trkpt>
      <trkpt lat="43.59592" lon="1.32018">
        <ele>188.4</ele>
        <time>2024-03-27T05:52:33Z</time>
      </trkpt>
      <trkpt lat="43.59597" lon="1.32024">
        <ele>188.4</ele>
        <time>2024-03-27T05:52:34Z</time>
      </trkpt>
      <trkpt lat="43.59601" lon="1.32027">
        <ele>188.4</ele>
        <time>2024-03-27T05:52:35Z</time>
      </trkpt>
      <trkpt lat="43.59606" lon="1.32031">
        <ele>188.2</ele>
        <time>2024-03-27T05:52:36Z</time>
      </trkpt>
      <trkpt lat="43.59611" lon="1.32035">
        <ele>188.2</ele>
        <time>2024-03-27T05:52:37Z</time>
      </trkpt>
      <trkpt lat="43.59616" lon="1.32038">
        <ele>188.2</ele>
        <time>2024-03-27T05:52:38Z</time>
      </trkpt>
      <trkpt lat="43.59622" lon="1.32043">
        <ele>188.2</ele>
        <time>2024-03-27T05:52:39Z</time>
      </trkpt>
      <trkpt lat="43.59626" lon="1.32046">
        <ele>188.2</ele>
        <time>2024-03-27T05:52:40Z</time>
      </trkpt>
      <trkpt lat="43.59631" lon="1.3205">
        <ele>188.2</ele>
        <time>2024-03-27T05:52:41Z</time>
      </trkpt>
      <trkpt lat="43.59638" lon="1.32054">
        <ele>188.4</ele>
        <time>2024-03-27T05:52:42Z</time>
      </trkpt>
      <trkpt lat="43.59642" lon="1.32057">
        <ele>188.4</ele>
        <time>2024-03-27T05:52:43Z</time>
      </trkpt>
      <trkpt lat="43.59647" lon="1.32061">
        <ele>188.4</ele>
        <time>2024-03-27T05:52:44Z</time>
      </trkpt>
      <trkpt lat="43.59652" lon="1.32066">
        <ele>188.4</ele>
        <time>2024-03-27T05:52:45Z</time>
      </trkpt>
      <trkpt lat="43.59659" lon="1.3207">
        <ele>188.4</ele>
        <time>2024-03-27T05:52:46Z</time>
      </trkpt>
      <trkpt lat="43.59664" lon="1.32073">
        <ele>188.4</ele>
        <time>2024-03-27T05:52:47Z</time>
      </trkpt>
      <trkpt lat="43.59669" lon="1.32076">
        <ele>188.4</ele>
        <time>2024-03-27T05:52:48Z</time>
      </trkpt>
      <trkpt lat="43.59674" lon="1.3208">
        <ele>188.4</ele>
        <time>2024-03-27T05:52:49Z</time>
      </trkpt>
      <trkpt lat="43.59679" lon="1.32084">
        <ele>188.4</ele>
        <time>2024-03-27T05:52:50Z</time>
      </trkpt>
      <trkpt lat="43.59684" lon="1.32088">
        <ele>188.4</ele>
        <time>2024-03-27T05:52:51Z</time>
      </trkpt>
      <trkpt lat="43.59691" lon="1.32093">
        <ele>188.4</ele>
        <time>2024-03-27T05:52:52Z</time>
      </trkpt>
      <trkpt lat="43.59696" lon="1.32097">
        <ele>188.4</ele>
        <time>2024-03-27T05:52:53Z</time>
      </trkpt>
      <trkpt lat="43.59701" lon="1.32101">
        <ele>188.4</ele>
        <time>2024-03-27T05:52:54Z</time>
      </trkpt>
      <trkpt lat="43.59707" lon="1.32106">
        <ele>188.2</ele>
        <time>2024-03-27T05:52:55Z</time>
      </trkpt>
      <trkpt lat="43.59712" lon="1.32109">
        <ele>188.2</ele>
        <time>2024-03-27T05:52:56Z</time>
      </trkpt>
      <trkpt lat="43.59717" lon="1.32113">
        <ele>188.2</ele>
        <time>2024-03-27T05:52:57Z</time>
      </trkpt>
      <trkpt lat="43.59722" lon="1.32116">
        <ele>188.2</ele>
        <time>2024-03-27T05:52:58Z</time>
      </trkpt>
      <trkpt lat="43.59728" lon="1.3212">
        <ele>188.2</ele>
        <time>2024-03-27T05:52:59Z</time>
      </trkpt>
      <trkpt lat="43.59733" lon="1.32123">
        <ele>188</ele>
        <time>2024-03-27T05:53:00Z</time>
      </trkpt>
      <trkpt lat="43.59739" lon="1.32127">
        <ele>188</ele>
        <time>2024-03-27T05:53:01Z</time>
      </trkpt>
      <trkpt lat="43.59744" lon="1.3213">
        <ele>188</ele>
        <time>2024-03-27T05:53:02Z</time>
      </trkpt>
      <trkpt lat="43.59748" lon="1.32133">
        <ele>188</ele>
        <time>2024-03-27T05:53:03Z</time>
      </trkpt>
      <trkpt lat="43.59753" lon="1.32137">
        <ele>188</ele>
        <time>2024-03-27T05:53:04Z</time>
      </trkpt>
      <trkpt lat="43.59758" lon="1.32141">
        <ele>188.2</ele>
        <time>2024-03-27T05:53:05Z</time>
      </trkpt>
      <trkpt lat="43.59763" lon="1.32144">
        <ele>188.2</ele>
        <time>2024-03-27T05:53:06Z</time>
      </trkpt>
      <trkpt lat="43.59768" lon="1.32145">
        <ele>188.2</ele>
        <time>2024-03-27T05:53:07Z</time>
      </trkpt>
      <trkpt lat="43.59772" lon="1.32146">
        <ele>188.2</ele>
        <time>2024-03-27T05:53:08Z</time>
      </trkpt>
      <trkpt lat="43.59775" lon="1.32146">
        <ele>188.2</ele>
        <time>2024-03-27T05:53:09Z</time>
      </trkpt>
      <trkpt lat="43.59779" lon="1.32146">
        <ele>188.2</ele>
        <time>2024-03-27T05:53:10Z</time>
      </trkpt>
      <trkpt lat="43.59782" lon="1.32147">
        <ele>188.2</ele>
        <time>2024-03-27T05:53:11Z</time>
      </trkpt>
      <trkpt lat="43.59785" lon="1.3215">
        <ele>188.2</ele>
        <time>2024-03-27T05:53:12Z</time>
      </trkpt>
      <trkpt lat="43.59788" lon="1.32154">
        <ele>188.2</ele>
        <time>2024-03-27T05:53:13Z</time>
      </trkpt>
      <trkpt lat="43.5979" lon="1.32161">
        <ele>188.2</ele>
        <time>2024-03-27T05:53:14Z</time>
      </trkpt>
      <trkpt lat="43.59792" lon="1.32165">
        <ele>188.2</ele>
        <time>2024-03-27T05:53:15Z</time>
      </trkpt>
      <trkpt lat="43.59796" lon="1.3217">
        <ele>188.2</ele>
        <time>2024-03-27T05:53:16Z</time>
      </trkpt>
      <trkpt lat="43.598" lon="1.32174">
        <ele>188.2</ele>
        <time>2024-03-27T05:53:17Z</time>
      </trkpt>
      <trkpt lat="43.59805" lon="1.32178">
        <ele>188.2</ele>
        <time>2024-03-27T05:53:18Z</time>
      </trkpt>
      <trkpt lat="43.5981" lon="1.32183">
        <ele>188</ele>
        <time>2024-03-27T05:53:19Z</time>
      </trkpt>
      <trkpt lat="43.59813" lon="1.32187">
        <ele>188</ele>
        <time>2024-03-27T05:53:20Z</time>
      </trkpt>
      <trkpt lat="43.59817" lon="1.32192">
        <ele>188</ele>
        <time>2024-03-27T05:53:21Z</time>
      </trkpt>
      <trkpt lat="43.59821" lon="1.32197">
        <ele>188</ele>
        <time>2024-03-27T05:53:22Z</time>
      </trkpt>
      <trkpt lat="43.59826" lon="1.32201">
        <ele>188</ele>
        <time>2024-03-27T05:53:23Z</time>
      </trkpt>
      <trkpt lat="43.59831" lon="1.32205">
        <ele>188</ele>
        <time>2024-03-27T05:53:24Z</time>
      </trkpt>
      <trkpt lat="43.59836" lon="1.32208">
        <ele>188</ele>
        <time>2024-03-27T05:53:25Z</time>
      </trkpt>
      <trkpt lat="43.59842" lon="1.3221">
        <ele>188</ele>
        <time>2024-03-27T05:53:26Z</time>
      </trkpt>
      <trkpt lat="43.59848" lon="1.32211">
        <ele>188</ele>
        <time>2024-03-27T05:53:27Z</time>
      </trkpt>
      <trkpt lat="43.59855" lon="1.32212">
        <ele>188</ele>
        <time>2024-03-27T05:53:28Z</time>
      </trkpt>
      <trkpt lat="43.5986" lon="1.32212">
        <ele>188</ele>
        <time>2024-03-27T05:53:29Z</time>
      </trkpt>
      <trkpt lat="43.59866" lon="1.32213">
        <ele>187.8</ele>
        <time>2024-03-27T05:53:30Z</time>
      </trkpt>
      <trkpt lat="43.59871" lon="1.32214">
        <ele>187.8</ele>
        <time>2024-03-27T05:53:31Z</time>
      </trkpt>
      <trkpt lat="43.59877" lon="1.32216">
        <ele>187.8</ele>
        <time>2024-03-27T05:53:32Z</time>
      </trkpt>
      <trkpt lat="43.59883" lon="1.32217">
        <ele>187.8</ele>
        <time>2024-03-27T05:53:33Z</time>
      </trkpt>
      <trkpt lat="43.59889" lon="1.32218">
        <ele>187.6</ele>
        <time>2024-03-27T05:53:34Z</time>
      </trkpt>
      <trkpt lat="43.59895" lon="1.32219">
        <ele>187.6</ele>
        <time>2024-03-27T05:53:35Z</time>
      </trkpt>
      <trkpt lat="43.59901" lon="1.3222">
        <ele>187.6</ele>
        <time>2024-03-27T05:53:36Z</time>
      </trkpt>
      <trkpt lat="43.59907" lon="1.32221">
        <ele>187.4</ele>
        <time>2024-03-27T05:53:37Z</time>
      </trkpt>
      <trkpt lat="43.59913" lon="1.32222">
        <ele>187.4</ele>
        <time>2024-03-27T05:53:38Z</time>
      </trkpt>
      <trkpt lat="43.5992" lon="1.32223">
        <ele>187.4</ele>
        <time>2024-03-27T05:53:39Z</time>
      </trkpt>
      <trkpt lat="43.59924" lon="1.32223">
        <ele>187.4</ele>
        <time>2024-03-27T05:53:40Z</time>
      </trkpt>
      <trkpt lat="43.5993" lon="1.32224">
        <ele>187.4</ele>
        <time>2024-03-27T05:53:41Z</time>
      </trkpt>
      <trkpt lat="43.59936" lon="1.32224">
        <ele>187.4</ele>
        <time>2024-03-27T05:53:42Z</time>
      </trkpt>
      <trkpt lat="43.59941" lon="1.32225">
        <ele>187.4</ele>
        <time>2024-03-27T05:53:43Z</time>
      </trkpt>
      <trkpt lat="43.59948" lon="1.32226">
        <ele>187.6</ele>
        <time>2024-03-27T05:53:44Z</time>
      </trkpt>
      <trkpt lat="43.59952" lon="1.32227">
        <ele>187.6</ele>
        <time>2024-03-27T05:53:45Z</time>
      </trkpt>
      <trkpt lat="43.59958" lon="1.3223">
        <ele>187.6</ele>
        <time>2024-03-27T05:53:46Z</time>
      </trkpt>
      <trkpt lat="43.59964" lon="1.32233">
        <ele>187.6</ele>
        <time>2024-03-27T05:53:47Z</time>
      </trkpt>
      <trkpt lat="43.59969" lon="1.32236">
        <ele>187.6</ele>
        <time>2024-03-27T05:53:48Z</time>
      </trkpt>
      <trkpt lat="43.59973" lon="1.3224">
        <ele>187.6</ele>
        <time>2024-03-27T05:53:49Z</time>
      </trkpt>
      <trkpt lat="43.59977" lon="1.32244">
        <ele>187.6</ele>
        <time>2024-03-27T05:53:50Z</time>
      </trkpt>
      <trkpt lat="43.59982" lon="1.3225">
        <ele>187.6</ele>
        <time>2024-03-27T05:53:51Z</time>
      </trkpt>
      <trkpt lat="43.59986" lon="1.32255">
        <ele>187.8</ele>
        <time>2024-03-27T05:53:52Z</time>
      </trkpt>
      <trkpt lat="43.59988" lon="1.32259">
        <ele>187.8</ele>
        <time>2024-03-27T05:53:53Z</time>
      </trkpt>
      <trkpt lat="43.59992" lon="1.32264">
        <ele>187.8</ele>
        <time>2024-03-27T05:53:54Z</time>
      </trkpt>
      <trkpt lat="43.59995" lon="1.32267">
        <ele>188</ele>
        <time>2024-03-27T05:53:55Z</time>
      </trkpt>
      <trkpt lat="43.6" lon="1.32269">
        <ele>188</ele>
        <time>2024-03-27T05:53:56Z</time>
      </trkpt>
      <trkpt lat="43.60006" lon="1.32269">
        <ele>188</ele>
        <time>2024-03-27T05:53:57Z</time>
      </trkpt>
      <trkpt lat="43.6001" lon="1.32269">
        <ele>188</ele>
        <time>2024-03-27T05:53:58Z</time>
      </trkpt>
      <trkpt lat="43.60015" lon="1.32268">
        <ele>188</ele>
        <time>2024-03-27T05:53:59Z</time>
      </trkpt>
      <trkpt lat="43.6002" lon="1.32267">
        <ele>188</ele>
        <time>2024-03-27T05:54:00Z</time>
      </trkpt>
      <trkpt lat="43.60026" lon="1.32266">
        <ele>188</ele>
        <time>2024-03-27T05:54:01Z</time>
      </trkpt>
      <trkpt lat="43.60031" lon="1.32263">
        <ele>188</ele>
        <time>2024-03-27T05:54:02Z</time>
      </trkpt>
      <trkpt lat="43.60035" lon="1.32261">
        <ele>187.8</ele>
        <time>2024-03-27T05:54:03Z</time>
      </trkpt>
      <trkpt lat="43.60038" lon="1.32259">
        <ele>187.8</ele>
        <time>2024-03-27T05:54:04Z</time>
      </trkpt>
      <trkpt lat="43.6004" lon="1.32257">
        <ele>187.8</ele>
        <time>2024-03-27T05:54:05Z</time>
      </trkpt>
      <trkpt lat="43.60041" lon="1.32256">
        <ele>187.8</ele>
        <time>2024-03-27T05:54:06Z</time>
      </trkpt>
      <trkpt lat="43.60043" lon="1.32257">
        <ele>187.6</ele>
        <time>2024-03-27T05:54:07Z</time>
      </trkpt>
      <trkpt lat="43.60045" lon="1.32258">
        <ele>187.6</ele>
        <time>2024-03-27T05:54:08Z</time>
      </trkpt>
      <trkpt lat="43.60047" lon="1.32261">
        <ele>187.6</ele>
        <time>2024-03-27T05:54:09Z</time>
      </trkpt>
      <trkpt lat="43.60048" lon="1.32264">
        <ele>187.4</ele>
        <time>2024-03-27T05:54:10Z</time>
      </trkpt>
      <trkpt lat="43.60048" lon="1.32269">
        <ele>187.4</ele>
        <time>2024-03-27T05:54:11Z</time>
      </trkpt>
      <trkpt lat="43.60048" lon="1.32273">
        <ele>187.4</ele>
        <time>2024-03-27T05:54:12Z</time>
      </trkpt>
      <trkpt lat="43.60047" lon="1.32278">
        <ele>187.4</ele>
        <time>2024-03-27T05:54:13Z</time>
      </trkpt>
      <trkpt lat="43.60047" lon="1.32284">
        <ele>187.4</ele>
        <time>2024-03-27T05:54:14Z</time>
      </trkpt>
      <trkpt lat="43.60048" lon="1.3229">
        <ele>187.4</ele>
        <time>2024-03-27T05:54:15Z</time>
      </trkpt>
      <trkpt lat="43.60048" lon="1.32296">
        <ele>187.4</ele>
        <time>2024-03-27T05:54:16Z</time>
      </trkpt>
      <trkpt lat="43.60049" lon="1.32303">
        <ele>187.4</ele>
        <time>2024-03-27T05:54:17Z</time>
      </trkpt>
      <trkpt lat="43.60049" lon="1.32309">
        <ele>187.4</ele>
        <time>2024-03-27T05:54:18Z</time>
      </trkpt>
      <trkpt lat="43.6005" lon="1.32317">
        <ele>187.4</ele>
        <time>2024-03-27T05:54:19Z</time>
      </trkpt>
      <trkpt lat="43.60052" lon="1.32323">
        <ele>187.4</ele>
        <time>2024-03-27T05:54:20Z</time>
      </trkpt>
      <trkpt lat="43.60054" lon="1.32327">
        <ele>187.4</ele>
        <time>2024-03-27T05:54:21Z</time>
      </trkpt>
      <trkpt lat="43.60057" lon="1.32332">
        <ele>187.2</ele>
        <time>2024-03-27T05:54:22Z</time>
      </trkpt>
      <trkpt lat="43.6006" lon="1.32337">
        <ele>187.2</ele>
        <time>2024-03-27T05:54:23Z</time>
      </trkpt>
      <trkpt lat="43.60064" lon="1.32344">
        <ele>187.2</ele>
        <time>2024-03-27T05:54:24Z</time>
      </trkpt>
      <trkpt lat="43.60068" lon="1.32349">
        <ele>187.2</ele>
        <time>2024-03-27T05:54:25Z</time>
      </trkpt>
      <trkpt lat="43.60072" lon="1.32354">
        <ele>187.2</ele>
        <time>2024-03-27T05:54:26Z</time>
      </trkpt>
      <trkpt lat="43.60076" lon="1.32358">
        <ele>187.2</ele>
        <time>2024-03-27T05:54:27Z</time>
      </trkpt>
      <trkpt lat="43.6008" lon="1.32363">
        <ele>187.2</ele>
        <time>2024-03-27T05:54:28Z</time>
      </trkpt>
      <trkpt lat="43.60085" lon="1.3237">
        <ele>187.2</ele>
        <time>2024-03-27T05:54:29Z</time>
      </trkpt>
      <trkpt lat="43.6009" lon="1.32375">
        <ele>187.2</ele>
        <time>2024-03-27T05:54:30Z</time>
      </trkpt>
      <trkpt lat="43.60094" lon="1.32379">
        <ele>187.2</ele>
        <time>2024-03-27T05:54:31Z</time>
      </trkpt>
      <trkpt lat="43.60098" lon="1.32384">
        <ele>187</ele>
        <time>2024-03-27T05:54:32Z</time>
      </trkpt>
      <trkpt lat="43.60103" lon="1.3239">
        <ele>186.8</ele>
        <time>2024-03-27T05:54:33Z</time>
      </trkpt>
      <trkpt lat="43.60108" lon="1.32395">
        <ele>186.8</ele>
        <time>2024-03-27T05:54:34Z</time>
      </trkpt>
      <trkpt lat="43.60112" lon="1.32401">
        <ele>186.8</ele>
        <time>2024-03-27T05:54:35Z</time>
      </trkpt>
      <trkpt lat="43.60117" lon="1.32407">
        <ele>186.6</ele>
        <time>2024-03-27T05:54:36Z</time>
      </trkpt>
      <trkpt lat="43.60122" lon="1.32412">
        <ele>186.6</ele>
        <time>2024-03-27T05:54:37Z</time>
      </trkpt>
      <trkpt lat="43.60127" lon="1.32417">
        <ele>186.4</ele>
        <time>2024-03-27T05:54:38Z</time>
      </trkpt>
      <trkpt lat="43.60131" lon="1.32423">
        <ele>186.4</ele>
        <time>2024-03-27T05:54:39Z</time>
      </trkpt>
      <trkpt lat="43.60136" lon="1.32428">
        <ele>186.2</ele>
        <time>2024-03-27T05:54:40Z</time>
      </trkpt>
      <trkpt lat="43.60141" lon="1.32434">
        <ele>186.2</ele>
        <time>2024-03-27T05:54:41Z</time>
      </trkpt>
      <trkpt lat="43.60146" lon="1.32439">
        <ele>186.2</ele>
        <time>2024-03-27T05:54:42Z</time>
      </trkpt>
      <trkpt lat="43.6015" lon="1.32445">
        <ele>186.2</ele>
        <time>2024-03-27T05:54:43Z</time>
      </trkpt>
      <trkpt lat="43.60155" lon="1.3245">
        <ele>186</ele>
        <time>2024-03-27T05:54:44Z</time>
      </trkpt>
      <trkpt lat="43.6016" lon="1.32456">
        <ele>186</ele>
        <time>2024-03-27T05:54:45Z</time>
      </trkpt>
      <trkpt lat="43.60165" lon="1.32461">
        <ele>186</ele>
        <time>2024-03-27T05:54:46Z</time>
      </trkpt>
      <trkpt lat="43.60171" lon="1.32468">
        <ele>185.8</ele>
        <time>2024-03-27T05:54:47Z</time>
      </trkpt>
      <trkpt lat="43.60175" lon="1.32473">
        <ele>185.8</ele>
        <time>2024-03-27T05:54:48Z</time>
      </trkpt>
      <trkpt lat="43.60179" lon="1.32477">
        <ele>185.8</ele>
        <time>2024-03-27T05:54:49Z</time>
      </trkpt>
      <trkpt lat="43.60183" lon="1.32483">
        <ele>185.8</ele>
        <time>2024-03-27T05:54:50Z</time>
      </trkpt>
      <trkpt lat="43.60188" lon="1.32488">
        <ele>185.8</ele>
        <time>2024-03-27T05:54:51Z</time>
      </trkpt>
      <trkpt lat="43.60192" lon="1.32494">
        <ele>185.8</ele>
        <time>2024-03-27T05:54:52Z</time>
      </trkpt>
      <trkpt lat="43.60198" lon="1.325">
        <ele>186</ele>
        <time>2024-03-27T05:54:53Z</time>
      </trkpt>
      <trkpt lat="43.60201" lon="1.32505">
        <ele>186.2</ele>
        <time>2024-03-27T05:54:54Z</time>
      </trkpt>
      <trkpt lat="43.60206" lon="1.3251">
        <ele>186.2</ele>
        <time>2024-03-27T05:54:55Z</time>
      </trkpt>
      <trkpt lat="43.6021" lon="1.32516">
        <ele>186</ele>
        <time>2024-03-27T05:54:56Z</time>
      </trkpt>
      <trkpt lat="43.60215" lon="1.32521">
        <ele>186</ele>
        <time>2024-03-27T05:54:57Z</time>
      </trkpt>
      <trkpt lat="43.6022" lon="1.32527">
        <ele>186.2</ele>
        <time>2024-03-27T05:54:58Z</time>
      </trkpt>
      <trkpt lat="43.60224" lon="1.32532">
        <ele>186</ele>
        <time>2024-03-27T05:54:59Z</time>
      </trkpt>
      <trkpt lat="43.60229" lon="1.32537">
        <ele>186</ele>
        <time>2024-03-27T05:55:00Z</time>
      </trkpt>
      <trkpt lat="43.60233" lon="1.32542">
        <ele>186</ele>
        <time>2024-03-27T05:55:01Z</time>
      </trkpt>
      <trkpt lat="43.60238" lon="1.32548">
        <ele>186.2</ele>
        <time>2024-03-27T05:55:02Z</time>
      </trkpt>
      <trkpt lat="43.60242" lon="1.32553">
        <ele>186.2</ele>
        <time>2024-03-27T05:55:03Z</time>
      </trkpt>
      <trkpt lat="43.60247" lon="1.32558">
        <ele>186.4</ele>
        <time>2024-03-27T05:55:04Z</time>
      </trkpt>
      <trkpt lat="43.60251" lon="1.32563">
        <ele>186.4</ele>
        <time>2024-03-27T05:55:05Z</time>
      </trkpt>
      <trkpt lat="43.60256" lon="1.3257">
        <ele>186.6</ele>
        <time>2024-03-27T05:55:06Z</time>
      </trkpt>
      <trkpt lat="43.60261" lon="1.32575">
        <ele>186.6</ele>
        <time>2024-03-27T05:55:07Z</time>
      </trkpt>
      <trkpt lat="43.60265" lon="1.32579">
        <ele>186.6</ele>
        <time>2024-03-27T05:55:08Z</time>
      </trkpt>
      <trkpt lat="43.6027" lon="1.32584">
        <ele>186.6</ele>
        <time>2024-03-27T05:55:09Z</time>
      </trkpt>
      <trkpt lat="43.60275" lon="1.3259">
        <ele>186.6</ele>
        <time>2024-03-27T05:55:10Z</time>
      </trkpt>
      <trkpt lat="43.60279" lon="1.32595">
        <ele>186.6</ele>
        <time>2024-03-27T05:55:11Z</time>
      </trkpt>
      <trkpt lat="43.60285" lon="1.32601">
        <ele>186.6</ele>
        <time>2024-03-27T05:55:12Z</time>
      </trkpt>
      <trkpt lat="43.60288" lon="1.32606">
        <ele>186.6</ele>
        <time>2024-03-27T05:55:13Z</time>
      </trkpt>
      <trkpt lat="43.60293" lon="1.3261">
        <ele>186.6</ele>
        <time>2024-03-27T05:55:14Z</time>
      </trkpt>
      <trkpt lat="43.603" lon="1.32614">
        <ele>186.8</ele>
        <time>2024-03-27T05:55:15Z</time>
      </trkpt>
      <trkpt lat="43.60305" lon="1.32615">
        <ele>186.8</ele>
        <time>2024-03-27T05:55:16Z</time>
      </trkpt>
      <trkpt lat="43.60311" lon="1.32615">
        <ele>186.8</ele>
        <time>2024-03-27T05:55:17Z</time>
      </trkpt>
      <trkpt lat="43.60317" lon="1.32613">
        <ele>186.8</ele>
        <time>2024-03-27T05:55:18Z</time>
      </trkpt>
      <trkpt lat="43.60323" lon="1.32612">
        <ele>186.8</ele>
        <time>2024-03-27T05:55:19Z</time>
      </trkpt>
      <trkpt lat="43.60329" lon="1.3261">
        <ele>186.8</ele>
        <time>2024-03-27T05:55:20Z</time>
      </trkpt>
      <trkpt lat="43.60335" lon="1.32609">
        <ele>186.8</ele>
        <time>2024-03-27T05:55:21Z</time>
      </trkpt>
      <trkpt lat="43.60342" lon="1.32608">
        <ele>186.8</ele>
        <time>2024-03-27T05:55:22Z</time>
      </trkpt>
      <trkpt lat="43.60346" lon="1.32607">
        <ele>186.8</ele>
        <time>2024-03-27T05:55:23Z</time>
      </trkpt>
      <trkpt lat="43.60352" lon="1.32606">
        <ele>186.8</ele>
        <time>2024-03-27T05:55:24Z</time>
      </trkpt>
      <trkpt lat="43.60358" lon="1.32603">
        <ele>186.8</ele>
        <time>2024-03-27T05:55:25Z</time>
      </trkpt>
      <trkpt lat="43.60363" lon="1.32598">
        <ele>186.8</ele>
        <time>2024-03-27T05:55:26Z</time>
      </trkpt>
      <trkpt lat="43.60367" lon="1.32592">
        <ele>186.8</ele>
        <time>2024-03-27T05:55:27Z</time>
      </trkpt>
      <trkpt lat="43.60369" lon="1.32586">
        <ele>186.8</ele>
        <time>2024-03-27T05:55:28Z</time>
      </trkpt>
      <trkpt lat="43.60372" lon="1.3258">
        <ele>186.8</ele>
        <time>2024-03-27T05:55:29Z</time>
      </trkpt>
      <trkpt lat="43.60376" lon="1.32573">
        <ele>186.8</ele>
        <time>2024-03-27T05:55:30Z</time>
      </trkpt>
      <trkpt lat="43.6038" lon="1.32565">
        <ele>187</ele>
        <time>2024-03-27T05:55:31Z</time>
      </trkpt>
      <trkpt lat="43.60383" lon="1.32559">
        <ele>187</ele>
        <time>2024-03-27T05:55:32Z</time>
      </trkpt>
      <trkpt lat="43.60386" lon="1.32552">
        <ele>187</ele>
        <time>2024-03-27T05:55:33Z</time>
      </trkpt>
      <trkpt lat="43.60389" lon="1.32546">
        <ele>187</ele>
        <time>2024-03-27T05:55:34Z</time>
      </trkpt>
      <trkpt lat="43.60392" lon="1.32539">
        <ele>187</ele>
        <time>2024-03-27T05:55:35Z</time>
      </trkpt>
      <trkpt lat="43.60396" lon="1.32531">
        <ele>187</ele>
        <time>2024-03-27T05:55:36Z</time>
      </trkpt>
      <trkpt lat="43.60398" lon="1.32526">
        <ele>187</ele>
        <time>2024-03-27T05:55:37Z</time>
      </trkpt>
      <trkpt lat="43.60402" lon="1.32519">
        <ele>186.8</ele>
        <time>2024-03-27T05:55:38Z</time>
      </trkpt>
      <trkpt lat="43.60406" lon="1.32513">
        <ele>186.8</ele>
        <time>2024-03-27T05:55:39Z</time>
      </trkpt>
      <trkpt lat="43.60409" lon="1.32506">
        <ele>186.8</ele>
        <time>2024-03-27T05:55:40Z</time>
      </trkpt>
      <trkpt lat="43.60412" lon="1.325">
        <ele>186.8</ele>
        <time>2024-03-27T05:55:41Z</time>
      </trkpt>
      <trkpt lat="43.60415" lon="1.32493">
        <ele>186.8</ele>
        <time>2024-03-27T05:55:42Z</time>
      </trkpt>
      <trkpt lat="43.60418" lon="1.32486">
        <ele>186.8</ele>
        <time>2024-03-27T05:55:43Z</time>
      </trkpt>
      <trkpt lat="43.60422" lon="1.32479">
        <ele>186.8</ele>
        <time>2024-03-27T05:55:44Z</time>
      </trkpt>
      <trkpt lat="43.60426" lon="1.32471">
        <ele>186.8</ele>
        <time>2024-03-27T05:55:45Z</time>
      </trkpt>
      <trkpt lat="43.60428" lon="1.32466">
        <ele>186.8</ele>
        <time>2024-03-27T05:55:46Z</time>
      </trkpt>
      <trkpt lat="43.60432" lon="1.3246">
        <ele>186.8</ele>
        <time>2024-03-27T05:55:47Z</time>
      </trkpt>
      <trkpt lat="43.60435" lon="1.32452">
        <ele>186.8</ele>
        <time>2024-03-27T05:55:48Z</time>
      </trkpt>
      <trkpt lat="43.60439" lon="1.32445">
        <ele>187</ele>
        <time>2024-03-27T05:55:49Z</time>
      </trkpt>
      <trkpt lat="43.60441" lon="1.3244">
        <ele>187</ele>
        <time>2024-03-27T05:55:50Z</time>
      </trkpt>
      <trkpt lat="43.60445" lon="1.32433">
        <ele>187</ele>
        <time>2024-03-27T05:55:51Z</time>
      </trkpt>
      <trkpt lat="43.60449" lon="1.32427">
        <ele>187</ele>
        <time>2024-03-27T05:55:52Z</time>
      </trkpt>
      <trkpt lat="43.60453" lon="1.32419">
        <ele>187</ele>
        <time>2024-03-27T05:55:53Z</time>
      </trkpt>
      <trkpt lat="43.60457" lon="1.32412">
        <ele>187</ele>
        <time>2024-03-27T05:55:54Z</time>
      </trkpt>
      <trkpt lat="43.6046" lon="1.32405">
        <ele>187</ele>
        <time>2024-03-27T05:55:55Z</time>
      </trkpt>
      <trkpt lat="43.60463" lon="1.324">
        <ele>187</ele>
        <time>2024-03-27T05:55:56Z</time>
      </trkpt>
      <trkpt lat="43.60467" lon="1.32394">
        <ele>187</ele>
        <time>2024-03-27T05:55:57Z</time>
      </trkpt>
      <trkpt lat="43.60472" lon="1.32389">
        <ele>187</ele>
        <time>2024-03-27T05:55:58Z</time>
      </trkpt>
      <trkpt lat="43.60477" lon="1.32385">
        <ele>187</ele>
        <time>2024-03-27T05:55:59Z</time>
      </trkpt>
      <trkpt lat="43.60482" lon="1.32381">
        <ele>187</ele>
        <time>2024-03-27T05:56:00Z</time>
      </trkpt>
      <trkpt lat="43.60488" lon="1.32378">
        <ele>187</ele>
        <time>2024-03-27T05:56:01Z</time>
      </trkpt>
      <trkpt lat="43.60493" lon="1.32376">
        <ele>187</ele>
        <time>2024-03-27T05:56:02Z</time>
      </trkpt>
      <trkpt lat="43.60498" lon="1.32375">
        <ele>187</ele>
        <time>2024-03-27T05:56:03Z</time>
      </trkpt>
      <trkpt lat="43.60504" lon="1.32375">
        <ele>187</ele>
        <time>2024-03-27T05:56:04Z</time>
      </trkpt>
      <trkpt lat="43.60507" lon="1.32377">
        <ele>186.8</ele>
        <time>2024-03-27T05:56:05Z</time>
      </trkpt>
      <trkpt lat="43.60511" lon="1.32379">
        <ele>186.8</ele>
        <time>2024-03-27T05:56:06Z</time>
      </trkpt>
      <trkpt lat="43.60515" lon="1.32383">
        <ele>186.8</ele>
        <time>2024-03-27T05:56:07Z</time>
      </trkpt>
      <trkpt lat="43.60519" lon="1.32386">
        <ele>186.8</ele>
        <time>2024-03-27T05:56:08Z</time>
      </trkpt>
      <trkpt lat="43.60523" lon="1.32389">
        <ele>187</ele>
        <time>2024-03-27T05:56:09Z</time>
      </trkpt>
      <trkpt lat="43.60527" lon="1.32392">
        <ele>187</ele>
        <time>2024-03-27T05:56:10Z</time>
      </trkpt>
      <trkpt lat="43.60531" lon="1.32393">
        <ele>187</ele>
        <time>2024-03-27T05:56:11Z</time>
      </trkpt>
      <trkpt lat="43.60535" lon="1.32392">
        <ele>187</ele>
        <time>2024-03-27T05:56:12Z</time>
      </trkpt>
      <trkpt lat="43.60539" lon="1.32389">
        <ele>187</ele>
        <time>2024-03-27T05:56:13Z</time>
      </trkpt>
      <trkpt lat="43.60542" lon="1.32385">
        <ele>187</ele>
        <time>2024-03-27T05:56:14Z</time>
      </trkpt>
      <trkpt lat="43.60545" lon="1.3238">
        <ele>187.2</ele>
        <time>2024-03-27T05:56:15Z</time>
      </trkpt>
      <trkpt lat="43.6055" lon="1.32374">
        <ele>187.2</ele>
        <time>2024-03-27T05:56:16Z</time>
      </trkpt>
      <trkpt lat="43.60554" lon="1.32371">
        <ele>187.2</ele>
        <time>2024-03-27T05:56:17Z</time>
      </trkpt>
      <trkpt lat="43.60559" lon="1.32368">
        <ele>187.2</ele>
        <time>2024-03-27T05:56:18Z</time>
      </trkpt>
      <trkpt lat="43.60564" lon="1.32366">
        <ele>187.2</ele>
        <time>2024-03-27T05:56:19Z</time>
      </trkpt>
      <trkpt lat="43.6057" lon="1.32366">
        <ele>187.2</ele>
        <time>2024-03-27T05:56:20Z</time>
      </trkpt>
      <trkpt lat="43.60577" lon="1.32365">
        <ele>187.2</ele>
        <time>2024-03-27T05:56:21Z</time>
      </trkpt>
      <trkpt lat="43.60583" lon="1.32364">
        <ele>187.2</ele>
        <time>2024-03-27T05:56:22Z</time>
      </trkpt>
      <trkpt lat="43.60589" lon="1.32365">
        <ele>187.2</ele>
        <time>2024-03-27T05:56:23Z</time>
      </trkpt>
      <trkpt lat="43.60594" lon="1.32368">
        <ele>187</ele>
        <time>2024-03-27T05:56:24Z</time>
      </trkpt>
      <trkpt lat="43.60599" lon="1.32373">
        <ele>186.8</ele>
        <time>2024-03-27T05:56:25Z</time>
      </trkpt>
      <trkpt lat="43.60604" lon="1.32378">
        <ele>186.6</ele>
        <time>2024-03-27T05:56:26Z</time>
      </trkpt>
      <trkpt lat="43.60609" lon="1.32384">
        <ele>186.6</ele>
        <time>2024-03-27T05:56:27Z</time>
      </trkpt>
      <trkpt lat="43.60613" lon="1.32389">
        <ele>186.4</ele>
        <time>2024-03-27T05:56:28Z</time>
      </trkpt>
      <trkpt lat="43.60618" lon="1.32394">
        <ele>186.4</ele>
        <time>2024-03-27T05:56:29Z</time>
      </trkpt>
      <trkpt lat="43.60624" lon="1.324">
        <ele>186.4</ele>
        <time>2024-03-27T05:56:30Z</time>
      </trkpt>
      <trkpt lat="43.60628" lon="1.32405">
        <ele>186.2</ele>
        <time>2024-03-27T05:56:31Z</time>
      </trkpt>
      <trkpt lat="43.60633" lon="1.3241">
        <ele>186.2</ele>
        <time>2024-03-27T05:56:32Z</time>
      </trkpt>
      <trkpt lat="43.60638" lon="1.32415">
        <ele>186.2</ele>
        <time>2024-03-27T05:56:33Z</time>
      </trkpt>
      <trkpt lat="43.60642" lon="1.3242">
        <ele>186.2</ele>
        <time>2024-03-27T05:56:34Z</time>
      </trkpt>
      <trkpt lat="43.60647" lon="1.32425">
        <ele>186.2</ele>
        <time>2024-03-27T05:56:35Z</time>
      </trkpt>
      <trkpt lat="43.60653" lon="1.32429">
        <ele>186.2</ele>
        <time>2024-03-27T05:56:36Z</time>
      </trkpt>
      <trkpt lat="43.60658" lon="1.32432">
        <ele>186</ele>
        <time>2024-03-27T05:56:37Z</time>
      </trkpt>
      <trkpt lat="43.60664" lon="1.32433">
        <ele>186</ele>
        <time>2024-03-27T05:56:38Z</time>
      </trkpt>
      <trkpt lat="43.6067" lon="1.32433">
        <ele>186</ele>
        <time>2024-03-27T05:56:39Z</time>
      </trkpt>
      <trkpt lat="43.60676" lon="1.32433">
        <ele>186</ele>
        <time>2024-03-27T05:56:40Z</time>
      </trkpt>
      <trkpt lat="43.60682" lon="1.32431">
        <ele>186</ele>
        <time>2024-03-27T05:56:41Z</time>
      </trkpt>
      <trkpt lat="43.60687" lon="1.3243">
        <ele>186</ele>
        <time>2024-03-27T05:56:42Z</time>
      </trkpt>
      <trkpt lat="43.60692" lon="1.32427">
        <ele>186</ele>
        <time>2024-03-27T05:56:43Z</time>
      </trkpt>
      <trkpt lat="43.60699" lon="1.32424">
        <ele>186.2</ele>
        <time>2024-03-27T05:56:44Z</time>
      </trkpt>
      <trkpt lat="43.60705" lon="1.32422">
        <ele>186.2</ele>
        <time>2024-03-27T05:56:45Z</time>
      </trkpt>
      <trkpt lat="43.60721" lon="1.32411">
        <ele>186.2</ele>
        <time>2024-03-27T05:56:48Z</time>
      </trkpt>
      <trkpt lat="43.60726" lon="1.32408">
        <ele>186.2</ele>
        <time>2024-03-27T05:56:49Z</time>
      </trkpt>
      <trkpt lat="43.60733" lon="1.32405">
        <ele>186.2</ele>
        <time>2024-03-27T05:56:50Z</time>
      </trkpt>
      <trkpt lat="43.60737" lon="1.324">
        <ele>186.2</ele>
        <time>2024-03-27T05:56:51Z</time>
      </trkpt>
      <trkpt lat="43.60741" lon="1.32395">
        <ele>186.2</ele>
        <time>2024-03-27T05:56:52Z</time>
      </trkpt>
      <trkpt lat="43.60743" lon="1.32388">
        <ele>186.2</ele>
        <time>2024-03-27T05:56:53Z</time>
      </trkpt>
      <trkpt lat="43.60746" lon="1.32381">
        <ele>186</ele>
        <time>2024-03-27T05:56:54Z</time>
      </trkpt>
      <trkpt lat="43.6075" lon="1.32373">
        <ele>186</ele>
        <time>2024-03-27T05:56:55Z</time>
      </trkpt>
      <trkpt lat="43.60753" lon="1.32368">
        <ele>186</ele>
        <time>2024-03-27T05:56:56Z</time>
      </trkpt>
      <trkpt lat="43.60757" lon="1.32362">
        <ele>186</ele>
        <time>2024-03-27T05:56:57Z</time>
      </trkpt>
      <trkpt lat="43.60761" lon="1.32357">
        <ele>186</ele>
        <time>2024-03-27T05:56:58Z</time>
      </trkpt>
      <trkpt lat="43.60766" lon="1.32351">
        <ele>186</ele>
        <time>2024-03-27T05:56:59Z</time>
      </trkpt>
      <trkpt lat="43.60769" lon="1.32348">
        <ele>186.2</ele>
        <time>2024-03-27T05:57:00Z</time>
      </trkpt>
      <trkpt lat="43.60772" lon="1.32344">
        <ele>186.2</ele>
        <time>2024-03-27T05:57:01Z</time>
      </trkpt>
      <trkpt lat="43.60776" lon="1.32341">
        <ele>186.2</ele>
        <time>2024-03-27T05:57:02Z</time>
      </trkpt>
      <trkpt lat="43.60778" lon="1.3234">
        <ele>186.2</ele>
        <time>2024-03-27T05:57:03Z</time>
      </trkpt>
      <trkpt lat="43.60781" lon="1.3234">
        <ele>186.2</ele>
        <time>2024-03-27T05:57:04Z</time>
      </trkpt>
      <trkpt lat="43.60784" lon="1.32341">
        <ele>186.2</ele>
        <time>2024-03-27T05:57:05Z</time>
      </trkpt>
      <trkpt lat="43.60788" lon="1.32343">
        <ele>186.2</ele>
        <time>2024-03-27T05:57:06Z</time>
      </trkpt>
      <trkpt lat="43.60793" lon="1.32344">
        <ele>186.2</ele>
        <time>2024-03-27T05:57:07Z</time>
      </trkpt>
      <trkpt lat="43.60797" lon="1.32345">
        <ele>186.2</ele>
        <time>2024-03-27T05:57:08Z</time>
      </trkpt>
      <trkpt lat="43.60802" lon="1.32345">
        <ele>186.2</ele>
        <time>2024-03-27T05:57:09Z</time>
      </trkpt>
      <trkpt lat="43.60807" lon="1.32345">
        <ele>186.2</ele>
        <time>2024-03-27T05:57:10Z</time>
      </trkpt>
      <trkpt lat="43.60812" lon="1.32344">
        <ele>186.2</ele>
        <time>2024-03-27T05:57:11Z</time>
      </trkpt>
      <trkpt lat="43.60817" lon="1.32343">
        <ele>186.2</ele>
        <time>2024-03-27T05:57:12Z</time>
      </trkpt>
      <trkpt lat="43.60823" lon="1.32342">
        <ele>186.2</ele>
        <time>2024-03-27T05:57:13Z</time>
      </trkpt>
      <trkpt lat="43.60829" lon="1.32339">
        <ele>186.2</ele>
        <time>2024-03-27T05:57:14Z</time>
      </trkpt>
      <trkpt lat="43.60833" lon="1.32337">
        <ele>186.2</ele>
        <time>2024-03-27T05:57:15Z</time>
      </trkpt>
      <trkpt lat="43.60838" lon="1.32334">
        <ele>186.2</ele>
        <time>2024-03-27T05:57:16Z</time>
      </trkpt>
      <trkpt lat="43.60842" lon="1.32332">
        <ele>186.2</ele>
        <time>2024-03-27T05:57:17Z</time>
      </trkpt>
      <trkpt lat="43.60847" lon="1.32329">
        <ele>186.2</ele>
        <time>2024-03-27T05:57:18Z</time>
      </trkpt>
      <trkpt lat="43.60853" lon="1.32325">
        <ele>186.2</ele>
        <time>2024-03-27T05:57:19Z</time>
      </trkpt>
      <trkpt lat="43.60857" lon="1.32322">
        <ele>186.4</ele>
        <time>2024-03-27T05:57:20Z</time>
      </trkpt>
      <trkpt lat="43.60862" lon="1.32319">
        <ele>186.4</ele>
        <time>2024-03-27T05:57:21Z</time>
      </trkpt>
      <trkpt lat="43.60867" lon="1.32317">
        <ele>186.4</ele>
        <time>2024-03-27T05:57:22Z</time>
      </trkpt>
      <trkpt lat="43.60874" lon="1.32317">
        <ele>186.4</ele>
        <time>2024-03-27T05:57:23Z</time>
      </trkpt>
      <trkpt lat="43.60878" lon="1.32317">
        <ele>186.6</ele>
        <time>2024-03-27T05:57:24Z</time>
      </trkpt>
      <trkpt lat="43.60884" lon="1.32318">
        <ele>186.6</ele>
        <time>2024-03-27T05:57:25Z</time>
      </trkpt>
      <trkpt lat="43.6089" lon="1.32318">
        <ele>186.6</ele>
        <time>2024-03-27T05:57:26Z</time>
      </trkpt>
      <trkpt lat="43.60896" lon="1.32318">
        <ele>186.4</ele>
        <time>2024-03-27T05:57:27Z</time>
      </trkpt>
      <trkpt lat="43.60902" lon="1.32316">
        <ele>186.4</ele>
        <time>2024-03-27T05:57:28Z</time>
      </trkpt>
      <trkpt lat="43.60907" lon="1.32314">
        <ele>186.6</ele>
        <time>2024-03-27T05:57:29Z</time>
      </trkpt>
      <trkpt lat="43.60912" lon="1.32311">
        <ele>186.6</ele>
        <time>2024-03-27T05:57:30Z</time>
      </trkpt>
      <trkpt lat="43.60917" lon="1.32308">
        <ele>186.6</ele>
        <time>2024-03-27T05:57:31Z</time>
      </trkpt>
      <trkpt lat="43.60922" lon="1.32306">
        <ele>186.8</ele>
        <time>2024-03-27T05:57:32Z</time>
      </trkpt>
      <trkpt lat="43.60925" lon="1.32304">
        <ele>186.8</ele>
        <time>2024-03-27T05:57:33Z</time>
      </trkpt>
      <trkpt lat="43.60929" lon="1.32302">
        <ele>186.8</ele>
        <time>2024-03-27T05:57:34Z</time>
      </trkpt>
      <trkpt lat="43.60933" lon="1.323">
        <ele>187</ele>
        <time>2024-03-27T05:57:35Z</time>
      </trkpt>
      <trkpt lat="43.60936" lon="1.32298">
        <ele>187.2</ele>
        <time>2024-03-27T05:57:36Z</time>
      </trkpt>
      <trkpt lat="43.60939" lon="1.32299">
        <ele>187.8</ele>
        <time>2024-03-27T05:57:37Z</time>
      </trkpt>
      <trkpt lat="43.6094" lon="1.32302">
        <ele>188.2</ele>
        <time>2024-03-27T05:57:38Z</time>
      </trkpt>
      <trkpt lat="43.60941" lon="1.32306">
        <ele>189</ele>
        <time>2024-03-27T05:57:39Z</time>
      </trkpt>
      <trkpt lat="43.60943" lon="1.3231">
        <ele>189.4</ele>
        <time>2024-03-27T05:57:40Z</time>
      </trkpt>
      <trkpt lat="43.60944" lon="1.32314">
        <ele>190</ele>
        <time>2024-03-27T05:57:41Z</time>
      </trkpt>
      <trkpt lat="43.60945" lon="1.32318">
        <ele>190.4</ele>
        <time>2024-03-27T05:57:42Z</time>
      </trkpt>
      <trkpt lat="43.60944" lon="1.32322">
        <ele>190.6</ele>
        <time>2024-03-27T05:57:43Z</time>
      </trkpt>
      <trkpt lat="43.60943" lon="1.32323">
        <ele>190.8</ele>
        <time>2024-03-27T05:57:44Z</time>
      </trkpt>
      <trkpt lat="43.6094" lon="1.32325">
        <ele>190.8</ele>
        <time>2024-03-27T05:57:45Z</time>
      </trkpt>
      <trkpt lat="43.60935" lon="1.32327">
        <ele>190.8</ele>
        <time>2024-03-27T05:57:46Z</time>
      </trkpt>
      <trkpt lat="43.6093" lon="1.32329">
        <ele>190.8</ele>
        <time>2024-03-27T05:57:47Z</time>
      </trkpt>
      <trkpt lat="43.60924" lon="1.32332">
        <ele>190.8</ele>
        <time>2024-03-27T05:57:48Z</time>
      </trkpt>
      <trkpt lat="43.60918" lon="1.32336">
        <ele>190.8</ele>
        <time>2024-03-27T05:57:49Z</time>
      </trkpt>
      <trkpt lat="43.6091" lon="1.3234">
        <ele>190.8</ele>
        <time>2024-03-27T05:57:50Z</time>
      </trkpt>
      <trkpt lat="43.60903" lon="1.32344">
        <ele>190.6</ele>
        <time>2024-03-27T05:57:51Z</time>
      </trkpt>
      <trkpt lat="43.60895" lon="1.32347">
        <ele>190.2</ele>
        <time>2024-03-27T05:57:52Z</time>
      </trkpt>
      <trkpt lat="43.60888" lon="1.32351">
        <ele>190</ele>
        <time>2024-03-27T05:57:53Z</time>
      </trkpt>
      <trkpt lat="43.60882" lon="1.32354">
        <ele>189</ele>
        <time>2024-03-27T05:57:54Z</time>
      </trkpt>
      <trkpt lat="43.60876" lon="1.32358">
        <ele>187.6</ele>
        <time>2024-03-27T05:57:55Z</time>
      </trkpt>
      <trkpt lat="43.60873" lon="1.32364">
        <ele>187.2</ele>
        <time>2024-03-27T05:57:56Z</time>
      </trkpt>
      <trkpt lat="43.60872" lon="1.3237">
        <ele>186.6</ele>
        <time>2024-03-27T05:57:57Z</time>
      </trkpt>
      <trkpt lat="43.60872" lon="1.32378">
        <ele>186.4</ele>
        <time>2024-03-27T05:57:58Z</time>
      </trkpt>
      <trkpt lat="43.60874" lon="1.32385">
        <ele>186</ele>
        <time>2024-03-27T05:57:59Z</time>
      </trkpt>
      <trkpt lat="43.60876" lon="1.32393">
        <ele>186</ele>
        <time>2024-03-27T05:58:00Z</time>
      </trkpt>
      <trkpt lat="43.60877" lon="1.324">
        <ele>185.8</ele>
        <time>2024-03-27T05:58:01Z</time>
      </trkpt>
      <trkpt lat="43.60879" lon="1.32407">
        <ele>185.8</ele>
        <time>2024-03-27T05:58:02Z</time>
      </trkpt>
      <trkpt lat="43.60881" lon="1.32414">
        <ele>185.6</ele>
        <time>2024-03-27T05:58:03Z</time>
      </trkpt>
      <trkpt lat="43.60884" lon="1.3242">
        <ele>185.4</ele>
        <time>2024-03-27T05:58:04Z</time>
      </trkpt>
      <trkpt lat="43.60887" lon="1.32425">
        <ele>185.4</ele>
        <time>2024-03-27T05:58:05Z</time>
      </trkpt>
      <trkpt lat="43.60889" lon="1.32431">
        <ele>185.4</ele>
        <time>2024-03-27T05:58:06Z</time>
      </trkpt>
      <trkpt lat="43.60891" lon="1.32437">
        <ele>185.2</ele>
        <time>2024-03-27T05:58:07Z</time>
      </trkpt>
      <trkpt lat="43.60891" lon="1.32443">
        <ele>185.2</ele>
        <time>2024-03-27T05:58:08Z</time>
      </trkpt>
      <trkpt lat="43.60891" lon="1.3245">
        <ele>185.2</ele>
        <time>2024-03-27T05:58:09Z</time>
      </trkpt>
      <trkpt lat="43.60893" lon="1.32457">
        <ele>185.2</ele>
        <time>2024-03-27T05:58:10Z</time>
      </trkpt>
      <trkpt lat="43.60897" lon="1.32462">
        <ele>185.2</ele>
        <time>2024-03-27T05:58:11Z</time>
      </trkpt>
      <trkpt lat="43.60901" lon="1.32468">
        <ele>185.2</ele>
        <time>2024-03-27T05:58:12Z</time>
      </trkpt>
      <trkpt lat="43.60905" lon="1.32472">
        <ele>185.2</ele>
        <time>2024-03-27T05:58:13Z</time>
      </trkpt>
      <trkpt lat="43.60909" lon="1.32476">
        <ele>185.2</ele>
        <time>2024-03-27T05:58:14Z</time>
      </trkpt>
      <trkpt lat="43.60913" lon="1.32481">
        <ele>185.2</ele>
        <time>2024-03-27T05:58:15Z</time>
      </trkpt>
      <trkpt lat="43.60917" lon="1.32485">
        <ele>185.2</ele>
        <time>2024-03-27T05:58:16Z</time>
      </trkpt>
      <trkpt lat="43.6092" lon="1.3249">
        <ele>185.2</ele>
        <time>2024-03-27T05:58:17Z</time>
      </trkpt>
      <trkpt lat="43.60921" lon="1.32496">
        <ele>185.2</ele>
        <time>2024-03-27T05:58:18Z</time>
      </trkpt>
      <trkpt lat="43.6092" lon="1.32501">
        <ele>185.2</ele>
        <time>2024-03-27T05:58:19Z</time>
      </trkpt>
      <trkpt lat="43.60917" lon="1.32507">
        <ele>185</ele>
        <time>2024-03-27T05:58:20Z</time>
      </trkpt>
      <trkpt lat="43.60915" lon="1.32512">
        <ele>185</ele>
        <time>2024-03-27T05:58:21Z</time>
      </trkpt>
      <trkpt lat="43.60913" lon="1.32518">
        <ele>185</ele>
        <time>2024-03-27T05:58:22Z</time>
      </trkpt>
      <trkpt lat="43.60912" lon="1.32525">
        <ele>185</ele>
        <time>2024-03-27T05:58:23Z</time>
      </trkpt>
      <trkpt lat="43.60913" lon="1.32531">
        <ele>184.8</ele>
        <time>2024-03-27T05:58:24Z</time>
      </trkpt>
      <trkpt lat="43.60915" lon="1.32537">
        <ele>184.8</ele>
        <time>2024-03-27T05:58:25Z</time>
      </trkpt>
      <trkpt lat="43.60918" lon="1.32542">
        <ele>185</ele>
        <time>2024-03-27T05:58:26Z</time>
      </trkpt>
      <trkpt lat="43.60922" lon="1.32546">
        <ele>184.8</ele>
        <time>2024-03-27T05:58:27Z</time>
      </trkpt>
      <trkpt lat="43.60926" lon="1.3255">
        <ele>184.6</ele>
        <time>2024-03-27T05:58:28Z</time>
      </trkpt>
      <trkpt lat="43.6093" lon="1.32553">
        <ele>184.8</ele>
        <time>2024-03-27T05:58:29Z</time>
      </trkpt>
      <trkpt lat="43.60934" lon="1.32557">
        <ele>184.6</ele>
        <time>2024-03-27T05:58:30Z</time>
      </trkpt>
      <trkpt lat="43.60939" lon="1.32561">
        <ele>184.6</ele>
        <time>2024-03-27T05:58:31Z</time>
      </trkpt>
      <trkpt lat="43.60941" lon="1.32563">
        <ele>184.6</ele>
        <time>2024-03-27T05:58:32Z</time>
      </trkpt>
      <trkpt lat="43.60943" lon="1.32564">
        <ele>184.6</ele>
        <time>2024-03-27T05:58:33Z</time>
      </trkpt>
      <trkpt lat="43.60945" lon="1.32564">
        <ele>184.6</ele>
        <time>2024-03-27T05:58:34Z</time>
      </trkpt>
      <trkpt lat="43.60947" lon="1.32565">
        <ele>184.6</ele>
        <time>2024-03-27T05:58:35Z</time>
      </trkpt>
      <trkpt lat="43.60948" lon="1.32567">
        <ele>184.6</ele>
        <time>2024-03-27T05:58:36Z</time>
      </trkpt>
      <trkpt lat="43.60947" lon="1.32569">
        <ele>184.6</ele>
        <time>2024-03-27T05:58:37Z</time>
      </trkpt>
      <trkpt lat="43.60946" lon="1.32572">
        <ele>184.6</ele>
        <time>2024-03-27T05:58:38Z</time>
      </trkpt>
      <trkpt lat="43.60944" lon="1.32574">
        <ele>184.8</ele>
        <time>2024-03-27T05:58:39Z</time>
      </trkpt>
      <trkpt lat="43.60942" lon="1.32578">
        <ele>184.8</ele>
        <time>2024-03-27T05:58:40Z</time>
      </trkpt>
      <trkpt lat="43.6094" lon="1.32581">
        <ele>184.8</ele>
        <time>2024-03-27T05:58:41Z</time>
      </trkpt>
      <trkpt lat="43.60938" lon="1.32585">
        <ele>184.8</ele>
        <time>2024-03-27T05:58:42Z</time>
      </trkpt>
      <trkpt lat="43.60935" lon="1.3259">
        <ele>184.8</ele>
        <time>2024-03-27T05:58:43Z</time>
      </trkpt>
      <trkpt lat="43.60933" lon="1.32595">
        <ele>184.8</ele>
        <time>2024-03-27T05:58:44Z</time>
      </trkpt>
      <trkpt lat="43.6093" lon="1.326">
        <ele>184.8</ele>
        <time>2024-03-27T05:58:45Z</time>
      </trkpt>
      <trkpt lat="43.60927" lon="1.32606">
        <ele>184.8</ele>
        <time>2024-03-27T05:58:46Z</time>
      </trkpt>
      <trkpt lat="43.60924" lon="1.32611">
        <ele>184.8</ele>
        <time>2024-03-27T05:58:47Z</time>
      </trkpt>
      <trkpt lat="43.6092" lon="1.32616">
        <ele>184.8</ele>
        <time>2024-03-27T05:58:48Z</time>
      </trkpt>
      <trkpt lat="43.60917" lon="1.32621">
        <ele>184.8</ele>
        <time>2024-03-27T05:58:49Z</time>
      </trkpt>
      <trkpt lat="43.60913" lon="1.32626">
        <ele>184.8</ele>
        <time>2024-03-27T05:58:50Z</time>
      </trkpt>
      <trkpt lat="43.60909" lon="1.3263">
        <ele>184.6</ele>
        <time>2024-03-27T05:58:51Z</time>
      </trkpt>
      <trkpt lat="43.60903" lon="1.32633">
        <ele>184.8</ele>
        <time>2024-03-27T05:58:52Z</time>
      </trkpt>
      <trkpt lat="43.60898" lon="1.32635">
        <ele>185</ele>
        <time>2024-03-27T05:58:53Z</time>
      </trkpt>
      <trkpt lat="43.60893" lon="1.32639">
        <ele>185</ele>
        <time>2024-03-27T05:58:54Z</time>
      </trkpt>
      <trkpt lat="43.60888" lon="1.32642">
        <ele>184.8</ele>
        <time>2024-03-27T05:58:55Z</time>
      </trkpt>
      <trkpt lat="43.60883" lon="1.32646">
        <ele>184.8</ele>
        <time>2024-03-27T05:58:56Z</time>
      </trkpt>
      <trkpt lat="43.60879" lon="1.32651">
        <ele>184.8</ele>
        <time>2024-03-27T05:58:57Z</time>
      </trkpt>
      <trkpt lat="43.60874" lon="1.32656">
        <ele>184.8</ele>
        <time>2024-03-27T05:58:58Z</time>
      </trkpt>
      <trkpt lat="43.6087" lon="1.32662">
        <ele>184.8</ele>
        <time>2024-03-27T05:58:59Z</time>
      </trkpt>
      <trkpt lat="43.60867" lon="1.32668">
        <ele>184.8</ele>
        <time>2024-03-27T05:59:00Z</time>
      </trkpt>
      <trkpt lat="43.60863" lon="1.32675">
        <ele>184.8</ele>
        <time>2024-03-27T05:59:01Z</time>
      </trkpt>
      <trkpt lat="43.60861" lon="1.32682">
        <ele>184.8</ele>
        <time>2024-03-27T05:59:02Z</time>
      </trkpt>
      <trkpt lat="43.6086" lon="1.3269">
        <ele>185</ele>
        <time>2024-03-27T05:59:03Z</time>
      </trkpt>
      <trkpt lat="43.60859" lon="1.32699">
        <ele>185</ele>
        <time>2024-03-27T05:59:04Z</time>
      </trkpt>
      <trkpt lat="43.60859" lon="1.32707">
        <ele>185</ele>
        <time>2024-03-27T05:59:05Z</time>
      </trkpt>
      <trkpt lat="43.6086" lon="1.32715">
        <ele>185</ele>
        <time>2024-03-27T05:59:06Z</time>
      </trkpt>
      <trkpt lat="43.60863" lon="1.32722">
        <ele>185</ele>
        <time>2024-03-27T05:59:07Z</time>
      </trkpt>
      <trkpt lat="43.60866" lon="1.32729">
        <ele>185</ele>
        <time>2024-03-27T05:59:08Z</time>
      </trkpt>
      <trkpt lat="43.6087" lon="1.32735">
        <ele>185</ele>
        <time>2024-03-27T05:59:09Z</time>
      </trkpt>
      <trkpt lat="43.60875" lon="1.32741">
        <ele>185</ele>
        <time>2024-03-27T05:59:10Z</time>
      </trkpt>
      <trkpt lat="43.6088" lon="1.32745">
        <ele>185</ele>
        <time>2024-03-27T05:59:11Z</time>
      </trkpt>
      <trkpt lat="43.60886" lon="1.32748">
        <ele>185</ele>
        <time>2024-03-27T05:59:12Z</time>
      </trkpt>
      <trkpt lat="43.60892" lon="1.3275">
        <ele>185</ele>
        <time>2024-03-27T05:59:13Z</time>
      </trkpt>
      <trkpt lat="43.60898" lon="1.32751">
        <ele>185</ele>
        <time>2024-03-27T05:59:14Z</time>
      </trkpt>
      <trkpt lat="43.60904" lon="1.3275">
        <ele>185</ele>
        <time>2024-03-27T05:59:15Z</time>
      </trkpt>
      <trkpt lat="43.60911" lon="1.32749">
        <ele>185</ele>
        <time>2024-03-27T05:59:16Z</time>
      </trkpt>
      <trkpt lat="43.60917" lon="1.32748">
        <ele>185</ele>
        <time>2024-03-27T05:59:17Z</time>
      </trkpt>
      <trkpt lat="43.60923" lon="1.32749">
        <ele>185</ele>
        <time>2024-03-27T05:59:18Z</time>
      </trkpt>
      <trkpt lat="43.60929" lon="1.32751">
        <ele>185</ele>
        <time>2024-03-27T05:59:19Z</time>
      </trkpt>
      <trkpt lat="43.60934" lon="1.32755">
        <ele>185</ele>
        <time>2024-03-27T05:59:20Z</time>
      </trkpt>
      <trkpt lat="43.60939" lon="1.32761">
        <ele>185</ele>
        <time>2024-03-27T05:59:21Z</time>
      </trkpt>
      <trkpt lat="43.60944" lon="1.32766">
        <ele>185</ele>
        <time>2024-03-27T05:59:22Z</time>
      </trkpt>
      <trkpt lat="43.60948" lon="1.32772">
        <ele>185</ele>
        <time>2024-03-27T05:59:23Z</time>
      </trkpt>
      <trkpt lat="43.60953" lon="1.32778">
        <ele>185</ele>
        <time>2024-03-27T05:59:24Z</time>
      </trkpt>
      <trkpt lat="43.60958" lon="1.32784">
        <ele>185</ele>
        <time>2024-03-27T05:59:25Z</time>
      </trkpt>
      <trkpt lat="43.60962" lon="1.32789">
        <ele>185</ele>
        <time>2024-03-27T05:59:26Z</time>
      </trkpt>
      <trkpt lat="43.60967" lon="1.32795">
        <ele>185</ele>
        <time>2024-03-27T05:59:27Z</time>
      </trkpt>
      <trkpt lat="43.60971" lon="1.328">
        <ele>185</ele>
        <time>2024-03-27T05:59:28Z</time>
      </trkpt>
      <trkpt lat="43.60976" lon="1.32806">
        <ele>185</ele>
        <time>2024-03-27T05:59:29Z</time>
      </trkpt>
      <trkpt lat="43.6098" lon="1.32812">
        <ele>185.2</ele>
        <time>2024-03-27T05:59:30Z</time>
      </trkpt>
      <trkpt lat="43.60985" lon="1.32817">
        <ele>185.2</ele>
        <time>2024-03-27T05:59:31Z</time>
      </trkpt>
      <trkpt lat="43.6099" lon="1.32823">
        <ele>185.2</ele>
        <time>2024-03-27T05:59:32Z</time>
      </trkpt>
      <trkpt lat="43.60994" lon="1.32828">
        <ele>185.2</ele>
        <time>2024-03-27T05:59:33Z</time>
      </trkpt>
      <trkpt lat="43.60999" lon="1.32834">
        <ele>185.2</ele>
        <time>2024-03-27T05:59:34Z</time>
      </trkpt>
      <trkpt lat="43.61003" lon="1.3284">
        <ele>185.2</ele>
        <time>2024-03-27T05:59:35Z</time>
      </trkpt>
      <trkpt lat="43.61007" lon="1.32846">
        <ele>185.2</ele>
        <time>2024-03-27T05:59:36Z</time>
      </trkpt>
      <trkpt lat="43.61012" lon="1.32851">
        <ele>185.2</ele>
        <time>2024-03-27T05:59:37Z</time>
      </trkpt>
      <trkpt lat="43.61017" lon="1.32857">
        <ele>185.2</ele>
        <time>2024-03-27T05:59:38Z</time>
      </trkpt>
      <trkpt lat="43.61021" lon="1.32863">
        <ele>185.2</ele>
        <time>2024-03-27T05:59:39Z</time>
      </trkpt>
      <trkpt lat="43.61026" lon="1.32868">
        <ele>185.2</ele>
        <time>2024-03-27T05:59:40Z</time>
      </trkpt>
      <trkpt lat="43.61031" lon="1.32874">
        <ele>185.2</ele>
        <time>2024-03-27T05:59:41Z</time>
      </trkpt>
      <trkpt lat="43.61035" lon="1.32879">
        <ele>185.2</ele>
        <time>2024-03-27T05:59:42Z</time>
      </trkpt>
      <trkpt lat="43.6104" lon="1.32885">
        <ele>185.4</ele>
        <time>2024-03-27T05:59:43Z</time>
      </trkpt>
      <trkpt lat="43.61044" lon="1.3289">
        <ele>185.4</ele>
        <time>2024-03-27T05:59:44Z</time>
      </trkpt>
      <trkpt lat="43.61048" lon="1.32896">
        <ele>185.4</ele>
        <time>2024-03-27T05:59:45Z</time>
      </trkpt>
      <trkpt lat="43.61053" lon="1.32901">
        <ele>185.4</ele>
        <time>2024-03-27T05:59:46Z</time>
      </trkpt>
      <trkpt lat="43.61058" lon="1.32907">
        <ele>185.4</ele>
        <time>2024-03-27T05:59:47Z</time>
      </trkpt>
      <trkpt lat="43.61062" lon="1.32912">
        <ele>185.4</ele>
        <time>2024-03-27T05:59:48Z</time>
      </trkpt>
      <trkpt lat="43.61066" lon="1.32919">
        <ele>185.6</ele>
        <time>2024-03-27T05:59:49Z</time>
      </trkpt>
      <trkpt lat="43.61068" lon="1.32926">
        <ele>185.6</ele>
        <time>2024-03-27T05:59:50Z</time>
      </trkpt>
      <trkpt lat="43.61071" lon="1.32933">
        <ele>185.6</ele>
        <time>2024-03-27T05:59:51Z</time>
      </trkpt>
      <trkpt lat="43.61076" lon="1.32938">
        <ele>185.6</ele>
        <time>2024-03-27T05:59:52Z</time>
      </trkpt>
      <trkpt lat="43.61081" lon="1.32944">
        <ele>185.6</ele>
        <time>2024-03-27T05:59:53Z</time>
      </trkpt>
      <trkpt lat="43.61086" lon="1.32948">
        <ele>185.6</ele>
        <time>2024-03-27T05:59:54Z</time>
      </trkpt>
      <trkpt lat="43.61092" lon="1.32951">
        <ele>185.6</ele>
        <time>2024-03-27T05:59:55Z</time>
      </trkpt>
      <trkpt lat="43.61098" lon="1.32956">
        <ele>185.6</ele>
        <time>2024-03-27T05:59:56Z</time>
      </trkpt>
      <trkpt lat="43.61104" lon="1.32961">
        <ele>185.6</ele>
        <time>2024-03-27T05:59:57Z</time>
      </trkpt>
      <trkpt lat="43.6111" lon="1.32966">
        <ele>185.6</ele>
        <time>2024-03-27T05:59:58Z</time>
      </trkpt>
      <trkpt lat="43.61115" lon="1.32973">
        <ele>185.6</ele>
        <time>2024-03-27T05:59:59Z</time>
      </trkpt>
      <trkpt lat="43.61121" lon="1.3298">
        <ele>185.6</ele>
        <time>2024-03-27T06:00:00Z</time>
      </trkpt>
      <trkpt lat="43.61126" lon="1.32987">
        <ele>185.2</ele>
        <time>2024-03-27T06:00:01Z</time>
      </trkpt>
      <trkpt lat="43.61132" lon="1.32994">
        <ele>185</ele>
        <time>2024-03-27T06:00:02Z</time>
      </trkpt>
      <trkpt lat="43.61138" lon="1.33">
        <ele>184.8</ele>
        <time>2024-03-27T06:00:03Z</time>
      </trkpt>
      <trkpt lat="43.61143" lon="1.33007">
        <ele>184.4</ele>
        <time>2024-03-27T06:00:04Z</time>
      </trkpt>
      <trkpt lat="43.61147" lon="1.33013">
        <ele>184.2</ele>
        <time>2024-03-27T06:00:05Z</time>
      </trkpt>
      <trkpt lat="43.61152" lon="1.33019">
        <ele>184</ele>
        <time>2024-03-27T06:00:06Z</time>
      </trkpt>
      <trkpt lat="43.61157" lon="1.33025">
        <ele>183.8</ele>
        <time>2024-03-27T06:00:07Z</time>
      </trkpt>
      <trkpt lat="43.61162" lon="1.33031">
        <ele>183.4</ele>
        <time>2024-03-27T06:00:08Z</time>
      </trkpt>
      <trkpt lat="43.61167" lon="1.33037">
        <ele>183.4</ele>
        <time>2024-03-27T06:00:09Z</time>
      </trkpt>
      <trkpt lat="43.61172" lon="1.33043">
        <ele>183.2</ele>
        <time>2024-03-27T06:00:10Z</time>
      </trkpt>
      <trkpt lat="43.61177" lon="1.33049">
        <ele>183.2</ele>
        <time>2024-03-27T06:00:11Z</time>
      </trkpt>
      <trkpt lat="43.61182" lon="1.33055">
        <ele>183</ele>
        <time>2024-03-27T06:00:12Z</time>
      </trkpt>
      <trkpt lat="43.61187" lon="1.3306">
        <ele>183</ele>
        <time>2024-03-27T06:00:13Z</time>
      </trkpt>
      <trkpt lat="43.61192" lon="1.33065">
        <ele>183</ele>
        <time>2024-03-27T06:00:14Z</time>
      </trkpt>
      <trkpt lat="43.61197" lon="1.3307">
        <ele>183</ele>
        <time>2024-03-27T06:00:15Z</time>
      </trkpt>
      <trkpt lat="43.61203" lon="1.33074">
        <ele>183</ele>
        <time>2024-03-27T06:00:16Z</time>
      </trkpt>
      <trkpt lat="43.61208" lon="1.33078">
        <ele>183</ele>
        <time>2024-03-27T06:00:17Z</time>
      </trkpt>
      <trkpt lat="43.61214" lon="1.33082">
        <ele>183</ele>
        <time>2024-03-27T06:00:18Z</time>
      </trkpt>
      <trkpt lat="43.61219" lon="1.33086">
        <ele>183.4</ele>
        <time>2024-03-27T06:00:19Z</time>
      </trkpt>
      <trkpt lat="43.61225" lon="1.33089">
        <ele>183.4</ele>
        <time>2024-03-27T06:00:20Z</time>
      </trkpt>
      <trkpt lat="43.6123" lon="1.33092">
        <ele>183.6</ele>
        <time>2024-03-27T06:00:21Z</time>
      </trkpt>
      <trkpt lat="43.61236" lon="1.33095">
        <ele>183.6</ele>
        <time>2024-03-27T06:00:22Z</time>
      </trkpt>
      <trkpt lat="43.61242" lon="1.33098">
        <ele>183.8</ele>
        <time>2024-03-27T06:00:23Z</time>
      </trkpt>
      <trkpt lat="43.61247" lon="1.33102">
        <ele>183.8</ele>
        <time>2024-03-27T06:00:24Z</time>
      </trkpt>
      <trkpt lat="43.61251" lon="1.33107">
        <ele>184</ele>
        <time>2024-03-27T06:00:25Z</time>
      </trkpt>
      <trkpt lat="43.61255" lon="1.33114">
        <ele>184</ele>
        <time>2024-03-27T06:00:26Z</time>
      </trkpt>
      <trkpt lat="43.61258" lon="1.33121">
        <ele>184</ele>
        <time>2024-03-27T06:00:27Z</time>
      </trkpt>
      <trkpt lat="43.61259" lon="1.33129">
        <ele>184</ele>
        <time>2024-03-27T06:00:28Z</time>
      </trkpt>
      <trkpt lat="43.61261" lon="1.33139">
        <ele>184.2</ele>
        <time>2024-03-27T06:00:29Z</time>
      </trkpt>
      <trkpt lat="43.61263" lon="1.33148">
        <ele>184.2</ele>
        <time>2024-03-27T06:00:30Z</time>
      </trkpt>
      <trkpt lat="43.61264" lon="1.33154">
        <ele>184.2</ele>
        <time>2024-03-27T06:00:31Z</time>
      </trkpt>
      <trkpt lat="43.61267" lon="1.33161">
        <ele>184.4</ele>
        <time>2024-03-27T06:00:32Z</time>
      </trkpt>
      <trkpt lat="43.61271" lon="1.3317">
        <ele>184.4</ele>
        <time>2024-03-27T06:00:33Z</time>
      </trkpt>
      <trkpt lat="43.61276" lon="1.33176">
        <ele>184.4</ele>
        <time>2024-03-27T06:00:34Z</time>
      </trkpt>
      <trkpt lat="43.6128" lon="1.3318">
        <ele>184.4</ele>
        <time>2024-03-27T06:00:35Z</time>
      </trkpt>
      <trkpt lat="43.61285" lon="1.33182">
        <ele>184.4</ele>
        <time>2024-03-27T06:00:36Z</time>
      </trkpt>
      <trkpt lat="43.61292" lon="1.33184">
        <ele>184.4</ele>
        <time>2024-03-27T06:00:37Z</time>
      </trkpt>
      <trkpt lat="43.61297" lon="1.33185">
        <ele>184.6</ele>
        <time>2024-03-27T06:00:38Z</time>
      </trkpt>
      <trkpt lat="43.61303" lon="1.33183">
        <ele>184.6</ele>
        <time>2024-03-27T06:00:39Z</time>
      </trkpt>
      <trkpt lat="43.61308" lon="1.3318">
        <ele>184.6</ele>
        <time>2024-03-27T06:00:40Z</time>
      </trkpt>
      <trkpt lat="43.61312" lon="1.33176">
        <ele>184.6</ele>
        <time>2024-03-27T06:00:41Z</time>
      </trkpt>
      <trkpt lat="43.61318" lon="1.33168">
        <ele>184.6</ele>
        <time>2024-03-27T06:00:42Z</time>
      </trkpt>
      <trkpt lat="43.61322" lon="1.33162">
        <ele>184.6</ele>
        <time>2024-03-27T06:00:43Z</time>
      </trkpt>
      <trkpt lat="43.61326" lon="1.33155">
        <ele>184.6</ele>
        <time>2024-03-27T06:00:44Z</time>
      </trkpt>
      <trkpt lat="43.61329" lon="1.3315">
        <ele>184.6</ele>
        <time>2024-03-27T06:00:45Z</time>
      </trkpt>
      <trkpt lat="43.61334" lon="1.33144">
        <ele>184.6</ele>
        <time>2024-03-27T06:00:46Z</time>
      </trkpt>
      <trkpt lat="43.61341" lon="1.33138">
        <ele>184.6</ele>
        <time>2024-03-27T06:00:47Z</time>
      </trkpt>
      <trkpt lat="43.61348" lon="1.33136">
        <ele>184.6</ele>
        <time>2024-03-27T06:00:48Z</time>
      </trkpt>
      <trkpt lat="43.61354" lon="1.33136">
        <ele>184.6</ele>
        <time>2024-03-27T06:00:49Z</time>
      </trkpt>
      <trkpt lat="43.61361" lon="1.33136">
        <ele>184.6</ele>
        <time>2024-03-27T06:00:50Z</time>
      </trkpt>
      <trkpt lat="43.61366" lon="1.33137">
        <ele>184.6</ele>
        <time>2024-03-27T06:00:51Z</time>
      </trkpt>
      <trkpt lat="43.61374" lon="1.33138">
        <ele>184.6</ele>
        <time>2024-03-27T06:00:52Z</time>
      </trkpt>
      <trkpt lat="43.6138" lon="1.33139">
        <ele>184.6</ele>
        <time>2024-03-27T06:00:53Z</time>
      </trkpt>
      <trkpt lat="43.61385" lon="1.3314">
        <ele>184.6</ele>
        <time>2024-03-27T06:00:54Z</time>
      </trkpt>
      <trkpt lat="43.61391" lon="1.33142">
        <ele>184.6</ele>
        <time>2024-03-27T06:00:55Z</time>
      </trkpt>
      <trkpt lat="43.61399" lon="1.33144">
        <ele>184.6</ele>
        <time>2024-03-27T06:00:56Z</time>
      </trkpt>
      <trkpt lat="43.61405" lon="1.33146">
        <ele>184.6</ele>
        <time>2024-03-27T06:00:57Z</time>
      </trkpt>
      <trkpt lat="43.61411" lon="1.33149">
        <ele>184.6</ele>
        <time>2024-03-27T06:00:58Z</time>
      </trkpt>
      <trkpt lat="43.61415" lon="1.33151">
        <ele>184.6</ele>
        <time>2024-03-27T06:00:59Z</time>
      </trkpt>
      <trkpt lat="43.61421" lon="1.33154">
        <ele>184.6</ele>
        <time>2024-03-27T06:01:00Z</time>
      </trkpt>
      <trkpt lat="43.61428" lon="1.33158">
        <ele>184.6</ele>
        <time>2024-03-27T06:01:01Z</time>
      </trkpt>
      <trkpt lat="43.61434" lon="1.33161">
        <ele>184.6</ele>
        <time>2024-03-27T06:01:02Z</time>
      </trkpt>
      <trkpt lat="43.6144" lon="1.33164">
        <ele>184.6</ele>
        <time>2024-03-27T06:01:03Z</time>
      </trkpt>
      <trkpt lat="43.61445" lon="1.33167">
        <ele>184.6</ele>
        <time>2024-03-27T06:01:04Z</time>
      </trkpt>
      <trkpt lat="43.61452" lon="1.33172">
        <ele>184.6</ele>
        <time>2024-03-27T06:01:05Z</time>
      </trkpt>
      <trkpt lat="43.61457" lon="1.33176">
        <ele>184.6</ele>
        <time>2024-03-27T06:01:06Z</time>
      </trkpt>
      <trkpt lat="43.61463" lon="1.33179">
        <ele>184.6</ele>
        <time>2024-03-27T06:01:07Z</time>
      </trkpt>
      <trkpt lat="43.61468" lon="1.33182">
        <ele>184.8</ele>
        <time>2024-03-27T06:01:08Z</time>
      </trkpt>
      <trkpt lat="43.61473" lon="1.33186">
        <ele>184.8</ele>
        <time>2024-03-27T06:01:09Z</time>
      </trkpt>
      <trkpt lat="43.6148" lon="1.33191">
        <ele>184.8</ele>
        <time>2024-03-27T06:01:10Z</time>
      </trkpt>
      <trkpt lat="43.61486" lon="1.33195">
        <ele>184.8</ele>
        <time>2024-03-27T06:01:11Z</time>
      </trkpt>
      <trkpt lat="43.61492" lon="1.33198">
        <ele>184.8</ele>
        <time>2024-03-27T06:01:12Z</time>
      </trkpt>
      <trkpt lat="43.61497" lon="1.33201">
        <ele>184.8</ele>
        <time>2024-03-27T06:01:13Z</time>
      </trkpt>
      <trkpt lat="43.61503" lon="1.33205">
        <ele>184.8</ele>
        <time>2024-03-27T06:01:14Z</time>
      </trkpt>
      <trkpt lat="43.6151" lon="1.3321">
        <ele>184.8</ele>
        <time>2024-03-27T06:01:15Z</time>
      </trkpt>
      <trkpt lat="43.61515" lon="1.33214">
        <ele>184.8</ele>
        <time>2024-03-27T06:01:16Z</time>
      </trkpt>
      <trkpt lat="43.61521" lon="1.33218">
        <ele>184.8</ele>
        <time>2024-03-27T06:01:17Z</time>
      </trkpt>
      <trkpt lat="43.61526" lon="1.33221">
        <ele>184.8</ele>
        <time>2024-03-27T06:01:18Z</time>
      </trkpt>
      <trkpt lat="43.61532" lon="1.33225">
        <ele>184.8</ele>
        <time>2024-03-27T06:01:19Z</time>
      </trkpt>
      <trkpt lat="43.61539" lon="1.33229">
        <ele>184.8</ele>
        <time>2024-03-27T06:01:20Z</time>
      </trkpt>
      <trkpt lat="43.61545" lon="1.33233">
        <ele>184.8</ele>
        <time>2024-03-27T06:01:21Z</time>
      </trkpt>
      <trkpt lat="43.61551" lon="1.33237">
        <ele>184.8</ele>
        <time>2024-03-27T06:01:22Z</time>
      </trkpt>
      <trkpt lat="43.61557" lon="1.3324">
        <ele>184.8</ele>
        <time>2024-03-27T06:01:23Z</time>
      </trkpt>
      <trkpt lat="43.61562" lon="1.33242">
        <ele>184.6</ele>
        <time>2024-03-27T06:01:24Z</time>
      </trkpt>
      <trkpt lat="43.6157" lon="1.33246">
        <ele>184.6</ele>
        <time>2024-03-27T06:01:25Z</time>
      </trkpt>
      <trkpt lat="43.61575" lon="1.3325">
        <ele>184.6</ele>
        <time>2024-03-27T06:01:26Z</time>
      </trkpt>
      <trkpt lat="43.61579" lon="1.33254">
        <ele>184.4</ele>
        <time>2024-03-27T06:01:27Z</time>
      </trkpt>
      <trkpt lat="43.61584" lon="1.3326">
        <ele>184.4</ele>
        <time>2024-03-27T06:01:28Z</time>
      </trkpt>
      <trkpt lat="43.61588" lon="1.33268">
        <ele>184.4</ele>
        <time>2024-03-27T06:01:29Z</time>
      </trkpt>
      <trkpt lat="43.61593" lon="1.33274">
        <ele>184.4</ele>
        <time>2024-03-27T06:01:30Z</time>
      </trkpt>
      <trkpt lat="43.61598" lon="1.33279">
        <ele>184.4</ele>
        <time>2024-03-27T06:01:31Z</time>
      </trkpt>
      <trkpt lat="43.61604" lon="1.33282">
        <ele>184.4</ele>
        <time>2024-03-27T06:01:32Z</time>
      </trkpt>
      <trkpt lat="43.61609" lon="1.33284">
        <ele>184.4</ele>
        <time>2024-03-27T06:01:33Z</time>
      </trkpt>
      <trkpt lat="43.61617" lon="1.33286">
        <ele>184.2</ele>
        <time>2024-03-27T06:01:34Z</time>
      </trkpt>
      <trkpt lat="43.61623" lon="1.33287">
        <ele>184.2</ele>
        <time>2024-03-27T06:01:35Z</time>
      </trkpt>
      <trkpt lat="43.6163" lon="1.33288">
        <ele>184.2</ele>
        <time>2024-03-27T06:01:36Z</time>
      </trkpt>
      <trkpt lat="43.61635" lon="1.33289">
        <ele>184.2</ele>
        <time>2024-03-27T06:01:37Z</time>
      </trkpt>
      <trkpt lat="43.61641" lon="1.33292">
        <ele>184.2</ele>
        <time>2024-03-27T06:01:38Z</time>
      </trkpt>
      <trkpt lat="43.61647" lon="1.33297">
        <ele>184.2</ele>
        <time>2024-03-27T06:01:39Z</time>
      </trkpt>
      <trkpt lat="43.61652" lon="1.33302">
        <ele>184.2</ele>
        <time>2024-03-27T06:01:40Z</time>
      </trkpt>
      <trkpt lat="43.61656" lon="1.33308">
        <ele>184.2</ele>
        <time>2024-03-27T06:01:41Z</time>
      </trkpt>
      <trkpt lat="43.6166" lon="1.3331">
        <ele>184.2</ele>
        <time>2024-03-27T06:01:42Z</time>
      </trkpt>
      <trkpt lat="43.61665" lon="1.33311">
        <ele>184.2</ele>
        <time>2024-03-27T06:01:43Z</time>
      </trkpt>
      <trkpt lat="43.61671" lon="1.33311">
        <ele>184.2</ele>
        <time>2024-03-27T06:01:44Z</time>
      </trkpt>
      <trkpt lat="43.61676" lon="1.33311">
        <ele>184.2</ele>
        <time>2024-03-27T06:01:45Z</time>
      </trkpt>
      <trkpt lat="43.61682" lon="1.33312">
        <ele>184.2</ele>
        <time>2024-03-27T06:01:46Z</time>
      </trkpt>
      <trkpt lat="43.61686" lon="1.33314">
        <ele>184.2</ele>
        <time>2024-03-27T06:01:47Z</time>
      </trkpt>
      <trkpt lat="43.61693" lon="1.33318">
        <ele>184.2</ele>
        <time>2024-03-27T06:01:48Z</time>
      </trkpt>
      <trkpt lat="43.61698" lon="1.33321">
        <ele>184.2</ele>
        <time>2024-03-27T06:01:49Z</time>
      </trkpt>
      <trkpt lat="43.61704" lon="1.33324">
        <ele>184.2</ele>
        <time>2024-03-27T06:01:50Z</time>
      </trkpt>
      <trkpt lat="43.61708" lon="1.33326">
        <ele>184.4</ele>
        <time>2024-03-27T06:01:51Z</time>
      </trkpt>
      <trkpt lat="43.61714" lon="1.33329">
        <ele>184.4</ele>
        <time>2024-03-27T06:01:52Z</time>
      </trkpt>
      <trkpt lat="43.61721" lon="1.33333">
        <ele>184.4</ele>
        <time>2024-03-27T06:01:53Z</time>
      </trkpt>
      <trkpt lat="43.61727" lon="1.33336">
        <ele>184.4</ele>
        <time>2024-03-27T06:01:54Z</time>
      </trkpt>
      <trkpt lat="43.61733" lon="1.33339">
        <ele>184.4</ele>
        <time>2024-03-27T06:01:55Z</time>
      </trkpt>
      <trkpt lat="43.61739" lon="1.33342">
        <ele>184.4</ele>
        <time>2024-03-27T06:01:56Z</time>
      </trkpt>
      <trkpt lat="43.61745" lon="1.33345">
        <ele>184.4</ele>
        <time>2024-03-27T06:01:57Z</time>
      </trkpt>
      <trkpt lat="43.6175" lon="1.33347">
        <ele>184.4</ele>
        <time>2024-03-27T06:01:58Z</time>
      </trkpt>
      <trkpt lat="43.61757" lon="1.33351">
        <ele>184.4</ele>
        <time>2024-03-27T06:01:59Z</time>
      </trkpt>
      <trkpt lat="43.61762" lon="1.33354">
        <ele>184.4</ele>
        <time>2024-03-27T06:02:00Z</time>
      </trkpt>
      <trkpt lat="43.61767" lon="1.33357">
        <ele>184.4</ele>
        <time>2024-03-27T06:02:01Z</time>
      </trkpt>
      <trkpt lat="43.61773" lon="1.3336">
        <ele>184.4</ele>
        <time>2024-03-27T06:02:02Z</time>
      </trkpt>
      <trkpt lat="43.61779" lon="1.33363">
        <ele>184.4</ele>
        <time>2024-03-27T06:02:03Z</time>
      </trkpt>
      <trkpt lat="43.61785" lon="1.33366">
        <ele>184.6</ele>
        <time>2024-03-27T06:02:04Z</time>
      </trkpt>
      <trkpt lat="43.61791" lon="1.33369">
        <ele>184.6</ele>
        <time>2024-03-27T06:02:05Z</time>
      </trkpt>
      <trkpt lat="43.61796" lon="1.33372">
        <ele>184.6</ele>
        <time>2024-03-27T06:02:06Z</time>
      </trkpt>
      <trkpt lat="43.61802" lon="1.33375">
        <ele>184.6</ele>
        <time>2024-03-27T06:02:07Z</time>
      </trkpt>
      <trkpt lat="43.61807" lon="1.33378">
        <ele>184.6</ele>
        <time>2024-03-27T06:02:08Z</time>
      </trkpt>
      <trkpt lat="43.61812" lon="1.33381">
        <ele>184.6</ele>
        <time>2024-03-27T06:02:09Z</time>
      </trkpt>
      <trkpt lat="43.61817" lon="1.33384">
        <ele>184.6</ele>
        <time>2024-03-27T06:02:10Z</time>
      </trkpt>
      <trkpt lat="43.61822" lon="1.33389">
        <ele>184.8</ele>
        <time>2024-03-27T06:02:11Z</time>
      </trkpt>
      <trkpt lat="43.61827" lon="1.33394">
        <ele>184.8</ele>
        <time>2024-03-27T06:02:12Z</time>
      </trkpt>
      <trkpt lat="43.61831" lon="1.334">
        <ele>184.8</ele>
        <time>2024-03-27T06:02:13Z</time>
      </trkpt>
      <trkpt lat="43.61834" lon="1.33407">
        <ele>184.8</ele>
        <time>2024-03-27T06:02:14Z</time>
      </trkpt>
      <trkpt lat="43.61837" lon="1.33414">
        <ele>184.6</ele>
        <time>2024-03-27T06:02:15Z</time>
      </trkpt>
      <trkpt lat="43.61839" lon="1.33422">
        <ele>184.6</ele>
        <time>2024-03-27T06:02:16Z</time>
      </trkpt>
      <trkpt lat="43.61842" lon="1.3343">
        <ele>184.4</ele>
        <time>2024-03-27T06:02:17Z</time>
      </trkpt>
      <trkpt lat="43.61846" lon="1.33438">
        <ele>184.4</ele>
        <time>2024-03-27T06:02:18Z</time>
      </trkpt>
      <trkpt lat="43.61851" lon="1.33445">
        <ele>184.4</ele>
        <time>2024-03-27T06:02:19Z</time>
      </trkpt>
      <trkpt lat="43.61855" lon="1.33451">
        <ele>184.4</ele>
        <time>2024-03-27T06:02:20Z</time>
      </trkpt>
      <trkpt lat="43.6186" lon="1.33458">
        <ele>184.2</ele>
        <time>2024-03-27T06:02:21Z</time>
      </trkpt>
      <trkpt lat="43.61864" lon="1.33466">
        <ele>184.2</ele>
        <time>2024-03-27T06:02:22Z</time>
      </trkpt>
      <trkpt lat="43.61868" lon="1.33473">
        <ele>183.8</ele>
        <time>2024-03-27T06:02:23Z</time>
      </trkpt>
      <trkpt lat="43.61873" lon="1.33481">
        <ele>183.8</ele>
        <time>2024-03-27T06:02:24Z</time>
      </trkpt>
      <trkpt lat="43.61877" lon="1.33488">
        <ele>183.8</ele>
        <time>2024-03-27T06:02:25Z</time>
      </trkpt>
      <trkpt lat="43.61881" lon="1.33496">
        <ele>183.6</ele>
        <time>2024-03-27T06:02:26Z</time>
      </trkpt>
      <trkpt lat="43.61885" lon="1.33503">
        <ele>183.6</ele>
        <time>2024-03-27T06:02:27Z</time>
      </trkpt>
      <trkpt lat="43.61889" lon="1.3351">
        <ele>183.6</ele>
        <time>2024-03-27T06:02:28Z</time>
      </trkpt>
      <trkpt lat="43.61894" lon="1.33516">
        <ele>183.4</ele>
        <time>2024-03-27T06:02:29Z</time>
      </trkpt>
      <trkpt lat="43.61898" lon="1.33522">
        <ele>183.4</ele>
        <time>2024-03-27T06:02:30Z</time>
      </trkpt>
      <trkpt lat="43.61903" lon="1.33527">
        <ele>183.2</ele>
        <time>2024-03-27T06:02:31Z</time>
      </trkpt>
      <trkpt lat="43.61907" lon="1.33532">
        <ele>183.2</ele>
        <time>2024-03-27T06:02:32Z</time>
      </trkpt>
      <trkpt lat="43.61912" lon="1.33536">
        <ele>183.2</ele>
        <time>2024-03-27T06:02:33Z</time>
      </trkpt>
      <trkpt lat="43.61915" lon="1.3354">
        <ele>183</ele>
        <time>2024-03-27T06:02:34Z</time>
      </trkpt>
      <trkpt lat="43.61918" lon="1.33544">
        <ele>183</ele>
        <time>2024-03-27T06:02:35Z</time>
      </trkpt>
      <trkpt lat="43.61918" lon="1.3355">
        <ele>183</ele>
        <time>2024-03-27T06:02:36Z</time>
      </trkpt>
      <trkpt lat="43.61918" lon="1.33556">
        <ele>183</ele>
        <time>2024-03-27T06:02:37Z</time>
      </trkpt>
      <trkpt lat="43.61917" lon="1.33562">
        <ele>182.8</ele>
        <time>2024-03-27T06:02:38Z</time>
      </trkpt>
      <trkpt lat="43.61918" lon="1.33568">
        <ele>182.8</ele>
        <time>2024-03-27T06:02:39Z</time>
      </trkpt>
      <trkpt lat="43.6192" lon="1.33574">
        <ele>182.8</ele>
        <time>2024-03-27T06:02:40Z</time>
      </trkpt>
      <trkpt lat="43.61924" lon="1.3358">
        <ele>182.6</ele>
        <time>2024-03-27T06:02:41Z</time>
      </trkpt>
      <trkpt lat="43.61928" lon="1.33585">
        <ele>182.6</ele>
        <time>2024-03-27T06:02:42Z</time>
      </trkpt>
      <trkpt lat="43.61933" lon="1.33589">
        <ele>182.6</ele>
        <time>2024-03-27T06:02:43Z</time>
      </trkpt>
      <trkpt lat="43.61937" lon="1.33593">
        <ele>182.6</ele>
        <time>2024-03-27T06:02:44Z</time>
      </trkpt>
      <trkpt lat="43.61943" lon="1.33597">
        <ele>182.6</ele>
        <time>2024-03-27T06:02:45Z</time>
      </trkpt>
      <trkpt lat="43.61947" lon="1.33601">
        <ele>182.6</ele>
        <time>2024-03-27T06:02:46Z</time>
      </trkpt>
      <trkpt lat="43.61952" lon="1.33606">
        <ele>182.6</ele>
        <time>2024-03-27T06:02:47Z</time>
      </trkpt>
      <trkpt lat="43.61956" lon="1.33611">
        <ele>182.6</ele>
        <time>2024-03-27T06:02:48Z</time>
      </trkpt>
      <trkpt lat="43.6196" lon="1.33617">
        <ele>182.6</ele>
        <time>2024-03-27T06:02:49Z</time>
      </trkpt>
      <trkpt lat="43.61964" lon="1.33623">
        <ele>182.4</ele>
        <time>2024-03-27T06:02:50Z</time>
      </trkpt>
      <trkpt lat="43.61967" lon="1.3363">
        <ele>182.4</ele>
        <time>2024-03-27T06:02:51Z</time>
      </trkpt>
      <trkpt lat="43.6197" lon="1.33636">
        <ele>182.4</ele>
        <time>2024-03-27T06:02:52Z</time>
      </trkpt>
      <trkpt lat="43.61972" lon="1.3364">
        <ele>182.4</ele>
        <time>2024-03-27T06:02:53Z</time>
      </trkpt>
      <trkpt lat="43.61974" lon="1.33644">
        <ele>182.4</ele>
        <time>2024-03-27T06:02:54Z</time>
      </trkpt>
      <trkpt lat="43.61975" lon="1.33647">
        <ele>182.4</ele>
        <time>2024-03-27T06:02:55Z</time>
      </trkpt>
      <trkpt lat="43.61976" lon="1.3365">
        <ele>182.4</ele>
        <time>2024-03-27T06:02:56Z</time>
      </trkpt>
      <trkpt lat="43.61975" lon="1.33654">
        <ele>182.4</ele>
        <time>2024-03-27T06:02:57Z</time>
      </trkpt>
      <trkpt lat="43.61974" lon="1.33659">
        <ele>182.4</ele>
        <time>2024-03-27T06:02:58Z</time>
      </trkpt>
      <trkpt lat="43.61973" lon="1.33664">
        <ele>182.4</ele>
        <time>2024-03-27T06:02:59Z</time>
      </trkpt>
      <trkpt lat="43.61973" lon="1.3367">
        <ele>182.2</ele>
        <time>2024-03-27T06:03:00Z</time>
      </trkpt>
      <trkpt lat="43.61973" lon="1.33676">
        <ele>182.2</ele>
        <time>2024-03-27T06:03:01Z</time>
      </trkpt>
      <trkpt lat="43.61972" lon="1.33683">
        <ele>182.2</ele>
        <time>2024-03-27T06:03:02Z</time>
      </trkpt>
      <trkpt lat="43.6197" lon="1.33688">
        <ele>182.2</ele>
        <time>2024-03-27T06:03:03Z</time>
      </trkpt>
      <trkpt lat="43.61967" lon="1.33692">
        <ele>182.2</ele>
        <time>2024-03-27T06:03:04Z</time>
      </trkpt>
      <trkpt lat="43.61962" lon="1.33695">
        <ele>182.2</ele>
        <time>2024-03-27T06:03:05Z</time>
      </trkpt>
      <trkpt lat="43.61958" lon="1.33698">
        <ele>182.2</ele>
        <time>2024-03-27T06:03:06Z</time>
      </trkpt>
      <trkpt lat="43.61953" lon="1.33702">
        <ele>182.2</ele>
        <time>2024-03-27T06:03:07Z</time>
      </trkpt>
      <trkpt lat="43.61949" lon="1.33706">
        <ele>182.2</ele>
        <time>2024-03-27T06:03:08Z</time>
      </trkpt>
      <trkpt lat="43.61944" lon="1.33711">
        <ele>182.2</ele>
        <time>2024-03-27T06:03:09Z</time>
      </trkpt>
      <trkpt lat="43.6194" lon="1.33716">
        <ele>182.2</ele>
        <time>2024-03-27T06:03:10Z</time>
      </trkpt>
      <trkpt lat="43.61937" lon="1.33723">
        <ele>182.2</ele>
        <time>2024-03-27T06:03:11Z</time>
      </trkpt>
      <trkpt lat="43.61934" lon="1.3373">
        <ele>182.2</ele>
        <time>2024-03-27T06:03:12Z</time>
      </trkpt>
      <trkpt lat="43.61931" lon="1.33737">
        <ele>182.2</ele>
        <time>2024-03-27T06:03:13Z</time>
      </trkpt>
      <trkpt lat="43.61928" lon="1.33745">
        <ele>182.2</ele>
        <time>2024-03-27T06:03:14Z</time>
      </trkpt>
      <trkpt lat="43.61925" lon="1.33753">
        <ele>182</ele>
        <time>2024-03-27T06:03:15Z</time>
      </trkpt>
      <trkpt lat="43.61922" lon="1.33761">
        <ele>182</ele>
        <time>2024-03-27T06:03:16Z</time>
      </trkpt>
      <trkpt lat="43.61919" lon="1.33769">
        <ele>182</ele>
        <time>2024-03-27T06:03:17Z</time>
      </trkpt>
      <trkpt lat="43.61916" lon="1.33776">
        <ele>182</ele>
        <time>2024-03-27T06:03:18Z</time>
      </trkpt>
      <trkpt lat="43.61913" lon="1.33784">
        <ele>182</ele>
        <time>2024-03-27T06:03:19Z</time>
      </trkpt>
      <trkpt lat="43.61909" lon="1.33791">
        <ele>182</ele>
        <time>2024-03-27T06:03:20Z</time>
      </trkpt>
      <trkpt lat="43.61905" lon="1.33798">
        <ele>182</ele>
        <time>2024-03-27T06:03:21Z</time>
      </trkpt>
      <trkpt lat="43.61901" lon="1.33804">
        <ele>182</ele>
        <time>2024-03-27T06:03:22Z</time>
      </trkpt>
      <trkpt lat="43.61897" lon="1.3381">
        <ele>182</ele>
        <time>2024-03-27T06:03:23Z</time>
      </trkpt>
      <trkpt lat="43.61892" lon="1.33817">
        <ele>181.8</ele>
        <time>2024-03-27T06:03:24Z</time>
      </trkpt>
      <trkpt lat="43.61887" lon="1.33823">
        <ele>181.8</ele>
        <time>2024-03-27T06:03:25Z</time>
      </trkpt>
      <trkpt lat="43.61883" lon="1.33829">
        <ele>181.8</ele>
        <time>2024-03-27T06:03:26Z</time>
      </trkpt>
      <trkpt lat="43.61878" lon="1.33836">
        <ele>181.8</ele>
        <time>2024-03-27T06:03:27Z</time>
      </trkpt>
      <trkpt lat="43.61873" lon="1.33842">
        <ele>181.6</ele>
        <time>2024-03-27T06:03:28Z</time>
      </trkpt>
      <trkpt lat="43.61868" lon="1.33849">
        <ele>181.6</ele>
        <time>2024-03-27T06:03:29Z</time>
      </trkpt>
      <trkpt lat="43.61864" lon="1.33855">
        <ele>181.6</ele>
        <time>2024-03-27T06:03:30Z</time>
      </trkpt>
      <trkpt lat="43.61859" lon="1.33861">
        <ele>181.6</ele>
        <time>2024-03-27T06:03:31Z</time>
      </trkpt>
      <trkpt lat="43.61856" lon="1.33868">
        <ele>181.4</ele>
        <time>2024-03-27T06:03:32Z</time>
      </trkpt>
      <trkpt lat="43.61852" lon="1.33876">
        <ele>181.2</ele>
        <time>2024-03-27T06:03:33Z</time>
      </trkpt>
      <trkpt lat="43.61849" lon="1.33883">
        <ele>181.2</ele>
        <time>2024-03-27T06:03:34Z</time>
      </trkpt>
      <trkpt lat="43.61846" lon="1.33892">
        <ele>181</ele>
        <time>2024-03-27T06:03:35Z</time>
      </trkpt>
      <trkpt lat="43.61845" lon="1.33898">
        <ele>181</ele>
        <time>2024-03-27T06:03:36Z</time>
      </trkpt>
      <trkpt lat="43.61844" lon="1.33906">
        <ele>180.8</ele>
        <time>2024-03-27T06:03:37Z</time>
      </trkpt>
      <trkpt lat="43.61843" lon="1.33914">
        <ele>180.8</ele>
        <time>2024-03-27T06:03:38Z</time>
      </trkpt>
      <trkpt lat="43.61841" lon="1.33921">
        <ele>180.6</ele>
        <time>2024-03-27T06:03:39Z</time>
      </trkpt>
      <trkpt lat="43.61838" lon="1.33927">
        <ele>180.4</ele>
        <time>2024-03-27T06:03:40Z</time>
      </trkpt>
      <trkpt lat="43.61833" lon="1.33931">
        <ele>180.2</ele>
        <time>2024-03-27T06:03:41Z</time>
      </trkpt>
      <trkpt lat="43.61829" lon="1.33933">
        <ele>180</ele>
        <time>2024-03-27T06:03:42Z</time>
      </trkpt>
      <trkpt lat="43.61824" lon="1.33934">
        <ele>179.8</ele>
        <time>2024-03-27T06:03:43Z</time>
      </trkpt>
      <trkpt lat="43.61819" lon="1.33936">
        <ele>179.8</ele>
        <time>2024-03-27T06:03:44Z</time>
      </trkpt>
      <trkpt lat="43.61816" lon="1.33941">
        <ele>179.6</ele>
        <time>2024-03-27T06:03:45Z</time>
      </trkpt>
      <trkpt lat="43.61812" lon="1.33946">
        <ele>179.4</ele>
        <time>2024-03-27T06:03:46Z</time>
      </trkpt>
      <trkpt lat="43.61807" lon="1.33953">
        <ele>179.2</ele>
        <time>2024-03-27T06:03:47Z</time>
      </trkpt>
      <trkpt lat="43.61802" lon="1.3396">
        <ele>179</ele>
        <time>2024-03-27T06:03:48Z</time>
      </trkpt>
      <trkpt lat="43.61796" lon="1.33967">
        <ele>179</ele>
        <time>2024-03-27T06:03:49Z</time>
      </trkpt>
      <trkpt lat="43.6179" lon="1.33973">
        <ele>178.6</ele>
        <time>2024-03-27T06:03:50Z</time>
      </trkpt>
      <trkpt lat="43.61784" lon="1.3398">
        <ele>178.4</ele>
        <time>2024-03-27T06:03:51Z</time>
      </trkpt>
      <trkpt lat="43.61778" lon="1.33985">
        <ele>178</ele>
        <time>2024-03-27T06:03:52Z</time>
      </trkpt>
      <trkpt lat="43.61774" lon="1.33989">
        <ele>177.6</ele>
        <time>2024-03-27T06:03:53Z</time>
      </trkpt>
      <trkpt lat="43.6177" lon="1.33992">
        <ele>176.8</ele>
        <time>2024-03-27T06:03:54Z</time>
      </trkpt>
      <trkpt lat="43.61766" lon="1.33993">
        <ele>176.4</ele>
        <time>2024-03-27T06:03:55Z</time>
      </trkpt>
      <trkpt lat="43.61764" lon="1.33994">
        <ele>175.2</ele>
        <time>2024-03-27T06:03:56Z</time>
      </trkpt>
      <trkpt lat="43.61763" lon="1.33996">
        <ele>174.8</ele>
        <time>2024-03-27T06:03:57Z</time>
      </trkpt>
      <trkpt lat="43.61763" lon="1.34">
        <ele>173.6</ele>
        <time>2024-03-27T06:03:58Z</time>
      </trkpt>
      <trkpt lat="43.61763" lon="1.34006">
        <ele>173.2</ele>
        <time>2024-03-27T06:03:59Z</time>
      </trkpt>
      <trkpt lat="43.61765" lon="1.34012">
        <ele>172.2</ele>
        <time>2024-03-27T06:04:00Z</time>
      </trkpt>
      <trkpt lat="43.61767" lon="1.3402">
        <ele>171.6</ele>
        <time>2024-03-27T06:04:01Z</time>
      </trkpt>
      <trkpt lat="43.61769" lon="1.34027">
        <ele>171.4</ele>
        <time>2024-03-27T06:04:02Z</time>
      </trkpt>
      <trkpt lat="43.61771" lon="1.34036">
        <ele>170.8</ele>
        <time>2024-03-27T06:04:03Z</time>
      </trkpt>
      <trkpt lat="43.61774" lon="1.34046">
        <ele>170.8</ele>
        <time>2024-03-27T06:04:04Z</time>
      </trkpt>
      <trkpt lat="43.61777" lon="1.34056">
        <ele>170.4</ele>
        <time>2024-03-27T06:04:05Z</time>
      </trkpt>
      <trkpt lat="43.6178" lon="1.34067">
        <ele>170.2</ele>
        <time>2024-03-27T06:04:06Z</time>
      </trkpt>
      <trkpt lat="43.61783" lon="1.34078">
        <ele>169.6</ele>
        <time>2024-03-27T06:04:07Z</time>
      </trkpt>
      <trkpt lat="43.61787" lon="1.34091">
        <ele>169.4</ele>
        <time>2024-03-27T06:04:08Z</time>
      </trkpt>
      <trkpt lat="43.61789" lon="1.34101">
        <ele>168.8</ele>
        <time>2024-03-27T06:04:09Z</time>
      </trkpt>
      <trkpt lat="43.61793" lon="1.34113">
        <ele>168.4</ele>
        <time>2024-03-27T06:04:10Z</time>
      </trkpt>
      <trkpt lat="43.61796" lon="1.34125">
        <ele>167.6</ele>
        <time>2024-03-27T06:04:11Z</time>
      </trkpt>
      <trkpt lat="43.61798" lon="1.34137">
        <ele>167.2</ele>
        <time>2024-03-27T06:04:12Z</time>
      </trkpt>
      <trkpt lat="43.61802" lon="1.34148">
        <ele>166.6</ele>
        <time>2024-03-27T06:04:13Z</time>
      </trkpt>
      <trkpt lat="43.61806" lon="1.34157">
        <ele>166.2</ele>
        <time>2024-03-27T06:04:14Z</time>
      </trkpt>
      <trkpt lat="43.61812" lon="1.34166">
        <ele>165.8</ele>
        <time>2024-03-27T06:04:15Z</time>
      </trkpt>
      <trkpt lat="43.61818" lon="1.34173">
        <ele>165</ele>
        <time>2024-03-27T06:04:16Z</time>
      </trkpt>
      <trkpt lat="43.61824" lon="1.34181">
        <ele>164.6</ele>
        <time>2024-03-27T06:04:17Z</time>
      </trkpt>
      <trkpt lat="43.6183" lon="1.34189">
        <ele>164.2</ele>
        <time>2024-03-27T06:04:18Z</time>
      </trkpt>
      <trkpt lat="43.61836" lon="1.34197">
        <ele>164</ele>
        <time>2024-03-27T06:04:19Z</time>
      </trkpt>
      <trkpt lat="43.61842" lon="1.34205">
        <ele>163.6</ele>
        <time>2024-03-27T06:04:20Z</time>
      </trkpt>
      <trkpt lat="43.61848" lon="1.34212">
        <ele>163.2</ele>
        <time>2024-03-27T06:04:21Z</time>
      </trkpt>
      <trkpt lat="43.61854" lon="1.34219">
        <ele>163</ele>
        <time>2024-03-27T06:04:22Z</time>
      </trkpt>
      <trkpt lat="43.6186" lon="1.34226">
        <ele>162.8</ele>
        <time>2024-03-27T06:04:23Z</time>
      </trkpt>
      <trkpt lat="43.61867" lon="1.34233">
        <ele>162.6</ele>
        <time>2024-03-27T06:04:24Z</time>
      </trkpt>
      <trkpt lat="43.61873" lon="1.34239">
        <ele>162.4</ele>
        <time>2024-03-27T06:04:25Z</time>
      </trkpt>
      <trkpt lat="43.6188" lon="1.34246">
        <ele>162.4</ele>
        <time>2024-03-27T06:04:26Z</time>
      </trkpt>
      <trkpt lat="43.61886" lon="1.34253">
        <ele>162.2</ele>
        <time>2024-03-27T06:04:27Z</time>
      </trkpt>
      <trkpt lat="43.61892" lon="1.34261">
        <ele>162</ele>
        <time>2024-03-27T06:04:28Z</time>
      </trkpt>
      <trkpt lat="43.61897" lon="1.34268">
        <ele>162</ele>
        <time>2024-03-27T06:04:29Z</time>
      </trkpt>
      <trkpt lat="43.61903" lon="1.34276">
        <ele>161.8</ele>
        <time>2024-03-27T06:04:30Z</time>
      </trkpt>
      <trkpt lat="43.61909" lon="1.34283">
        <ele>161.4</ele>
        <time>2024-03-27T06:04:31Z</time>
      </trkpt>
      <trkpt lat="43.61914" lon="1.3429">
        <ele>161.4</ele>
        <time>2024-03-27T06:04:32Z</time>
      </trkpt>
      <trkpt lat="43.61921" lon="1.34297">
        <ele>161.2</ele>
        <time>2024-03-27T06:04:33Z</time>
      </trkpt>
      <trkpt lat="43.61927" lon="1.34303">
        <ele>161.2</ele>
        <time>2024-03-27T06:04:34Z</time>
      </trkpt>
      <trkpt lat="43.61933" lon="1.34309">
        <ele>161.2</ele>
        <time>2024-03-27T06:04:35Z</time>
      </trkpt>
      <trkpt lat="43.61939" lon="1.34315">
        <ele>161</ele>
        <time>2024-03-27T06:04:36Z</time>
      </trkpt>
      <trkpt lat="43.61945" lon="1.34322">
        <ele>161</ele>
        <time>2024-03-27T06:04:37Z</time>
      </trkpt>
      <trkpt lat="43.61951" lon="1.34328">
        <ele>160.8</ele>
        <time>2024-03-27T06:04:38Z</time>
      </trkpt>
      <trkpt lat="43.61957" lon="1.34334">
        <ele>160.8</ele>
        <time>2024-03-27T06:04:39Z</time>
      </trkpt>
      <trkpt lat="43.61963" lon="1.3434">
        <ele>160.8</ele>
        <time>2024-03-27T06:04:40Z</time>
      </trkpt>
      <trkpt lat="43.61968" lon="1.34345">
        <ele>160.6</ele>
        <time>2024-03-27T06:04:41Z</time>
      </trkpt>
      <trkpt lat="43.61974" lon="1.3435">
        <ele>160.6</ele>
        <time>2024-03-27T06:04:42Z</time>
      </trkpt>
      <trkpt lat="43.61979" lon="1.34355">
        <ele>160.2</ele>
        <time>2024-03-27T06:04:43Z</time>
      </trkpt>
      <trkpt lat="43.61984" lon="1.34361">
        <ele>160</ele>
        <time>2024-03-27T06:04:44Z</time>
      </trkpt>
      <trkpt lat="43.6199" lon="1.34366">
        <ele>159.8</ele>
        <time>2024-03-27T06:04:45Z</time>
      </trkpt>
      <trkpt lat="43.61994" lon="1.34372">
        <ele>159.6</ele>
        <time>2024-03-27T06:04:46Z</time>
      </trkpt>
      <trkpt lat="43.61999" lon="1.34378">
        <ele>159.6</ele>
        <time>2024-03-27T06:04:47Z</time>
      </trkpt>
      <trkpt lat="43.62004" lon="1.34385">
        <ele>159.6</ele>
        <time>2024-03-27T06:04:48Z</time>
      </trkpt>
      <trkpt lat="43.62008" lon="1.34391">
        <ele>159.4</ele>
        <time>2024-03-27T06:04:49Z</time>
      </trkpt>
      <trkpt lat="43.62013" lon="1.34397">
        <ele>159.4</ele>
        <time>2024-03-27T06:04:50Z</time>
      </trkpt>
      <trkpt lat="43.62018" lon="1.34403">
        <ele>159.2</ele>
        <time>2024-03-27T06:04:51Z</time>
      </trkpt>
      <trkpt lat="43.62022" lon="1.3441">
        <ele>159.2</ele>
        <time>2024-03-27T06:04:52Z</time>
      </trkpt>
      <trkpt lat="43.62026" lon="1.34416">
        <ele>159.2</ele>
        <time>2024-03-27T06:04:53Z</time>
      </trkpt>
      <trkpt lat="43.62029" lon="1.34424">
        <ele>159.2</ele>
        <time>2024-03-27T06:04:54Z</time>
      </trkpt>
      <trkpt lat="43.62031" lon="1.34432">
        <ele>159</ele>
        <time>2024-03-27T06:04:55Z</time>
      </trkpt>
      <trkpt lat="43.62031" lon="1.3444">
        <ele>159</ele>
        <time>2024-03-27T06:04:56Z</time>
      </trkpt>
      <trkpt lat="43.62029" lon="1.34446">
        <ele>159</ele>
        <time>2024-03-27T06:04:57Z</time>
      </trkpt>
      <trkpt lat="43.62027" lon="1.34451">
        <ele>159</ele>
        <time>2024-03-27T06:04:58Z</time>
      </trkpt>
      <trkpt lat="43.62025" lon="1.34455">
        <ele>158.8</ele>
        <time>2024-03-27T06:04:59Z</time>
      </trkpt>
      <trkpt lat="43.62024" lon="1.34458">
        <ele>158.8</ele>
        <time>2024-03-27T06:05:00Z</time>
      </trkpt>
      <trkpt lat="43.62023" lon="1.34461">
        <ele>158.6</ele>
        <time>2024-03-27T06:05:01Z</time>
      </trkpt>
      <trkpt lat="43.62024" lon="1.34464">
        <ele>158.6</ele>
        <time>2024-03-27T06:05:02Z</time>
      </trkpt>
      <trkpt lat="43.62026" lon="1.34466">
        <ele>158.2</ele>
        <time>2024-03-27T06:05:03Z</time>
      </trkpt>
      <trkpt lat="43.62028" lon="1.34466">
        <ele>158.2</ele>
        <time>2024-03-27T06:05:04Z</time>
      </trkpt>
      <trkpt lat="43.62031" lon="1.34464">
        <ele>158</ele>
        <time>2024-03-27T06:05:05Z</time>
      </trkpt>
      <trkpt lat="43.62034" lon="1.34461">
        <ele>157.8</ele>
        <time>2024-03-27T06:05:06Z</time>
      </trkpt>
      <trkpt lat="43.62037" lon="1.34458">
        <ele>157.8</ele>
        <time>2024-03-27T06:05:07Z</time>
      </trkpt>
      <trkpt lat="43.62041" lon="1.34457">
        <ele>157.6</ele>
        <time>2024-03-27T06:05:08Z</time>
      </trkpt>
      <trkpt lat="43.62045" lon="1.34457">
        <ele>157.6</ele>
        <time>2024-03-27T06:05:09Z</time>
      </trkpt>
      <trkpt lat="43.6205" lon="1.34457">
        <ele>157.6</ele>
        <time>2024-03-27T06:05:10Z</time>
      </trkpt>
      <trkpt lat="43.62055" lon="1.34457">
        <ele>157.6</ele>
        <time>2024-03-27T06:05:11Z</time>
      </trkpt>
      <trkpt lat="43.6206" lon="1.34458">
        <ele>157.6</ele>
        <time>2024-03-27T06:05:12Z</time>
      </trkpt>
      <trkpt lat="43.62065" lon="1.34459">
        <ele>157.6</ele>
        <time>2024-03-27T06:05:13Z</time>
      </trkpt>
      <trkpt lat="43.62071" lon="1.34462">
        <ele>157.6</ele>
        <time>2024-03-27T06:05:14Z</time>
      </trkpt>
      <trkpt lat="43.62075" lon="1.34465">
        <ele>157.6</ele>
        <time>2024-03-27T06:05:15Z</time>
      </trkpt>
      <trkpt lat="43.6208" lon="1.3447">
        <ele>157.6</ele>
        <time>2024-03-27T06:05:16Z</time>
      </trkpt>
      <trkpt lat="43.62085" lon="1.34474">
        <ele>157.6</ele>
        <time>2024-03-27T06:05:17Z</time>
      </trkpt>
      <trkpt lat="43.6209" lon="1.34479">
        <ele>157.6</ele>
        <time>2024-03-27T06:05:18Z</time>
      </trkpt>
      <trkpt lat="43.62094" lon="1.34485">
        <ele>157.6</ele>
        <time>2024-03-27T06:05:19Z</time>
      </trkpt>
      <trkpt lat="43.62099" lon="1.3449">
        <ele>157.6</ele>
        <time>2024-03-27T06:05:20Z</time>
      </trkpt>
      <trkpt lat="43.62103" lon="1.34495">
        <ele>157.6</ele>
        <time>2024-03-27T06:05:21Z</time>
      </trkpt>
      <trkpt lat="43.62108" lon="1.345">
        <ele>157.6</ele>
        <time>2024-03-27T06:05:22Z</time>
      </trkpt>
      <trkpt lat="43.62113" lon="1.34505">
        <ele>157.6</ele>
        <time>2024-03-27T06:05:23Z</time>
      </trkpt>
      <trkpt lat="43.62118" lon="1.3451">
        <ele>157.6</ele>
        <time>2024-03-27T06:05:24Z</time>
      </trkpt>
      <trkpt lat="43.62124" lon="1.34516">
        <ele>157.6</ele>
        <time>2024-03-27T06:05:25Z</time>
      </trkpt>
      <trkpt lat="43.62129" lon="1.34521">
        <ele>157.6</ele>
        <time>2024-03-27T06:05:26Z</time>
      </trkpt>
      <trkpt lat="43.62136" lon="1.34527">
        <ele>157.6</ele>
        <time>2024-03-27T06:05:27Z</time>
      </trkpt>
      <trkpt lat="43.6214" lon="1.34531">
        <ele>157.6</ele>
        <time>2024-03-27T06:05:28Z</time>
      </trkpt>
      <trkpt lat="43.62146" lon="1.34536">
        <ele>157.6</ele>
        <time>2024-03-27T06:05:29Z</time>
      </trkpt>
      <trkpt lat="43.62151" lon="1.34541">
        <ele>157.6</ele>
        <time>2024-03-27T06:05:30Z</time>
      </trkpt>
      <trkpt lat="43.62157" lon="1.34546">
        <ele>157.4</ele>
        <time>2024-03-27T06:05:31Z</time>
      </trkpt>
      <trkpt lat="43.62163" lon="1.34551">
        <ele>157.4</ele>
        <time>2024-03-27T06:05:32Z</time>
      </trkpt>
      <trkpt lat="43.62168" lon="1.34556">
        <ele>157.6</ele>
        <time>2024-03-27T06:05:33Z</time>
      </trkpt>
      <trkpt lat="43.62174" lon="1.3456">
        <ele>157.6</ele>
        <time>2024-03-27T06:05:34Z</time>
      </trkpt>
      <trkpt lat="43.6218" lon="1.34565">
        <ele>157.6</ele>
        <time>2024-03-27T06:05:35Z</time>
      </trkpt>
      <trkpt lat="43.62187" lon="1.34569">
        <ele>157.6</ele>
        <time>2024-03-27T06:05:36Z</time>
      </trkpt>
      <trkpt lat="43.62193" lon="1.34574">
        <ele>157.4</ele>
        <time>2024-03-27T06:05:37Z</time>
      </trkpt>
      <trkpt lat="43.62199" lon="1.34578">
        <ele>157.4</ele>
        <time>2024-03-27T06:05:38Z</time>
      </trkpt>
      <trkpt lat="43.62205" lon="1.34582">
        <ele>157.6</ele>
        <time>2024-03-27T06:05:39Z</time>
      </trkpt>
      <trkpt lat="43.62211" lon="1.34586">
        <ele>157.4</ele>
        <time>2024-03-27T06:05:40Z</time>
      </trkpt>
      <trkpt lat="43.62218" lon="1.3459">
        <ele>157.2</ele>
        <time>2024-03-27T06:05:41Z</time>
      </trkpt>
      <trkpt lat="43.62224" lon="1.34594">
        <ele>157.4</ele>
        <time>2024-03-27T06:05:42Z</time>
      </trkpt>
      <trkpt lat="43.6223" lon="1.34598">
        <ele>157.4</ele>
        <time>2024-03-27T06:05:43Z</time>
      </trkpt>
      <trkpt lat="43.62236" lon="1.34602">
        <ele>157.4</ele>
        <time>2024-03-27T06:05:44Z</time>
      </trkpt>
      <trkpt lat="43.62242" lon="1.34606">
        <ele>157.2</ele>
        <time>2024-03-27T06:05:45Z</time>
      </trkpt>
      <trkpt lat="43.62249" lon="1.34611">
        <ele>157.2</ele>
        <time>2024-03-27T06:05:46Z</time>
      </trkpt>
      <trkpt lat="43.62255" lon="1.34615">
        <ele>157.2</ele>
        <time>2024-03-27T06:05:47Z</time>
      </trkpt>
      <trkpt lat="43.62261" lon="1.34618">
        <ele>157.2</ele>
        <time>2024-03-27T06:05:48Z</time>
      </trkpt>
      <trkpt lat="43.62268" lon="1.34622">
        <ele>157.2</ele>
        <time>2024-03-27T06:05:49Z</time>
      </trkpt>
      <trkpt lat="43.62274" lon="1.34625">
        <ele>157</ele>
        <time>2024-03-27T06:05:50Z</time>
      </trkpt>
      <trkpt lat="43.62281" lon="1.34628">
        <ele>157</ele>
        <time>2024-03-27T06:05:51Z</time>
      </trkpt>
      <trkpt lat="43.62287" lon="1.34632">
        <ele>157</ele>
        <time>2024-03-27T06:05:52Z</time>
      </trkpt>
      <trkpt lat="43.62293" lon="1.34635">
        <ele>157</ele>
        <time>2024-03-27T06:05:53Z</time>
      </trkpt>
      <trkpt lat="43.62299" lon="1.34638">
        <ele>157</ele>
        <time>2024-03-27T06:05:54Z</time>
      </trkpt>
      <trkpt lat="43.62306" lon="1.3464">
        <ele>156.8</ele>
        <time>2024-03-27T06:05:55Z</time>
      </trkpt>
      <trkpt lat="43.62312" lon="1.34643">
        <ele>156.8</ele>
        <time>2024-03-27T06:05:56Z</time>
      </trkpt>
      <trkpt lat="43.62319" lon="1.34646">
        <ele>156.8</ele>
        <time>2024-03-27T06:05:57Z</time>
      </trkpt>
      <trkpt lat="43.62325" lon="1.34648">
        <ele>156.8</ele>
        <time>2024-03-27T06:05:58Z</time>
      </trkpt>
      <trkpt lat="43.62331" lon="1.34651">
        <ele>156.8</ele>
        <time>2024-03-27T06:05:59Z</time>
      </trkpt>
      <trkpt lat="43.62338" lon="1.34653">
        <ele>156.8</ele>
        <time>2024-03-27T06:06:00Z</time>
      </trkpt>
      <trkpt lat="43.62344" lon="1.34656">
        <ele>156.8</ele>
        <time>2024-03-27T06:06:01Z</time>
      </trkpt>
      <trkpt lat="43.6235" lon="1.34659">
        <ele>156.8</ele>
        <time>2024-03-27T06:06:02Z</time>
      </trkpt>
      <trkpt lat="43.62356" lon="1.34662">
        <ele>156.8</ele>
        <time>2024-03-27T06:06:03Z</time>
      </trkpt>
      <trkpt lat="43.62361" lon="1.34665">
        <ele>156.8</ele>
        <time>2024-03-27T06:06:04Z</time>
      </trkpt>
      <trkpt lat="43.62367" lon="1.34669">
        <ele>156.8</ele>
        <time>2024-03-27T06:06:05Z</time>
      </trkpt>
      <trkpt lat="43.62371" lon="1.34674">
        <ele>156.8</ele>
        <time>2024-03-27T06:06:06Z</time>
      </trkpt>
      <trkpt lat="43.62375" lon="1.34681">
        <ele>157</ele>
        <time>2024-03-27T06:06:07Z</time>
      </trkpt>
      <trkpt lat="43.62379" lon="1.34688">
        <ele>157</ele>
        <time>2024-03-27T06:06:08Z</time>
      </trkpt>
      <trkpt lat="43.62384" lon="1.34693">
        <ele>157</ele>
        <time>2024-03-27T06:06:09Z</time>
      </trkpt>
      <trkpt lat="43.62389" lon="1.34695">
        <ele>157</ele>
        <time>2024-03-27T06:06:10Z</time>
      </trkpt>
      <trkpt lat="43.62395" lon="1.34694">
        <ele>157</ele>
        <time>2024-03-27T06:06:11Z</time>
      </trkpt>
      <trkpt lat="43.62401" lon="1.34692">
        <ele>157</ele>
        <time>2024-03-27T06:06:12Z</time>
      </trkpt>
      <trkpt lat="43.62406" lon="1.3469">
        <ele>157</ele>
        <time>2024-03-27T06:06:13Z</time>
      </trkpt>
      <trkpt lat="43.62411" lon="1.34688">
        <ele>157</ele>
        <time>2024-03-27T06:06:14Z</time>
      </trkpt>
      <trkpt lat="43.62417" lon="1.34685">
        <ele>157</ele>
        <time>2024-03-27T06:06:15Z</time>
      </trkpt>
      <trkpt lat="43.62423" lon="1.34684">
        <ele>157</ele>
        <time>2024-03-27T06:06:16Z</time>
      </trkpt>
      <trkpt lat="43.6243" lon="1.34684">
        <ele>157</ele>
        <time>2024-03-27T06:06:17Z</time>
      </trkpt>
      <trkpt lat="43.62436" lon="1.34684">
        <ele>157</ele>
        <time>2024-03-27T06:06:18Z</time>
      </trkpt>
      <trkpt lat="43.62443" lon="1.34684">
        <ele>156.8</ele>
        <time>2024-03-27T06:06:19Z</time>
      </trkpt>
      <trkpt lat="43.62449" lon="1.34684">
        <ele>156.8</ele>
        <time>2024-03-27T06:06:20Z</time>
      </trkpt>
      <trkpt lat="43.62456" lon="1.34684">
        <ele>156.8</ele>
        <time>2024-03-27T06:06:21Z</time>
      </trkpt>
      <trkpt lat="43.62462" lon="1.34685">
        <ele>156.8</ele>
        <time>2024-03-27T06:06:22Z</time>
      </trkpt>
      <trkpt lat="43.62468" lon="1.34685">
        <ele>156.8</ele>
        <time>2024-03-27T06:06:23Z</time>
      </trkpt>
      <trkpt lat="43.62475" lon="1.34685">
        <ele>156.8</ele>
        <time>2024-03-27T06:06:24Z</time>
      </trkpt>
      <trkpt lat="43.62481" lon="1.34686">
        <ele>156.8</ele>
        <time>2024-03-27T06:06:25Z</time>
      </trkpt>
      <trkpt lat="43.62487" lon="1.34688">
        <ele>156.8</ele>
        <time>2024-03-27T06:06:26Z</time>
      </trkpt>
      <trkpt lat="43.62493" lon="1.34691">
        <ele>156.8</ele>
        <time>2024-03-27T06:06:27Z</time>
      </trkpt>
      <trkpt lat="43.62498" lon="1.34697">
        <ele>156.8</ele>
        <time>2024-03-27T06:06:28Z</time>
      </trkpt>
      <trkpt lat="43.62502" lon="1.34704">
        <ele>156.8</ele>
        <time>2024-03-27T06:06:29Z</time>
      </trkpt>
      <trkpt lat="43.62504" lon="1.34711">
        <ele>156.6</ele>
        <time>2024-03-27T06:06:30Z</time>
      </trkpt>
      <trkpt lat="43.62506" lon="1.34718">
        <ele>156.6</ele>
        <time>2024-03-27T06:06:31Z</time>
      </trkpt>
      <trkpt lat="43.62507" lon="1.34724">
        <ele>156.6</ele>
        <time>2024-03-27T06:06:32Z</time>
      </trkpt>
      <trkpt lat="43.62508" lon="1.34729">
        <ele>156.6</ele>
        <time>2024-03-27T06:06:33Z</time>
      </trkpt>
      <trkpt lat="43.62508" lon="1.34734">
        <ele>156.6</ele>
        <time>2024-03-27T06:06:34Z</time>
      </trkpt>
      <trkpt lat="43.62508" lon="1.34738">
        <ele>156.6</ele>
        <time>2024-03-27T06:06:35Z</time>
      </trkpt>
      <trkpt lat="43.62509" lon="1.3474">
        <ele>156.4</ele>
        <time>2024-03-27T06:06:36Z</time>
      </trkpt>
      <trkpt lat="43.62509" lon="1.34742">
        <ele>156.4</ele>
        <time>2024-03-27T06:06:37Z</time>
      </trkpt>
      <trkpt lat="43.62509" lon="1.34743">
        <ele>156.4</ele>
        <time>2024-03-27T06:06:38Z</time>
      </trkpt>
      <trkpt lat="43.62509" lon="1.34743">
        <ele>156.4</ele>
        <time>2024-03-27T06:06:39Z</time>
      </trkpt>
      <trkpt lat="43.6251" lon="1.34748">
        <ele>155.8</ele>
        <time>2024-03-27T06:06:54Z</time>
      </trkpt>
      <trkpt lat="43.6251" lon="1.34751">
        <ele>155.8</ele>
        <time>2024-03-27T06:06:55Z</time>
      </trkpt>
      <trkpt lat="43.6251" lon="1.34755">
        <ele>155.8</ele>
        <time>2024-03-27T06:06:56Z</time>
      </trkpt>
      <trkpt lat="43.62509" lon="1.34759">
        <ele>155.6</ele>
        <time>2024-03-27T06:06:57Z</time>
      </trkpt>
      <trkpt lat="43.62508" lon="1.34763">
        <ele>155.6</ele>
        <time>2024-03-27T06:06:58Z</time>
      </trkpt>
      <trkpt lat="43.62504" lon="1.34767">
        <ele>155.6</ele>
        <time>2024-03-27T06:06:59Z</time>
      </trkpt>
      <trkpt lat="43.62501" lon="1.34768">
        <ele>155.6</ele>
        <time>2024-03-27T06:07:00Z</time>
      </trkpt>
      <trkpt lat="43.62497" lon="1.34769">
        <ele>155.6</ele>
        <time>2024-03-27T06:07:01Z</time>
      </trkpt>
      <trkpt lat="43.62492" lon="1.3477">
        <ele>155.6</ele>
        <time>2024-03-27T06:07:02Z</time>
      </trkpt>
      <trkpt lat="43.62488" lon="1.34771">
        <ele>155.6</ele>
        <time>2024-03-27T06:07:03Z</time>
      </trkpt>
      <trkpt lat="43.62484" lon="1.34771">
        <ele>155.6</ele>
        <time>2024-03-27T06:07:04Z</time>
      </trkpt>
      <trkpt lat="43.6248" lon="1.34771">
        <ele>155.6</ele>
        <time>2024-03-27T06:07:05Z</time>
      </trkpt>
      <trkpt lat="43.62476" lon="1.34771">
        <ele>155.6</ele>
        <time>2024-03-27T06:07:06Z</time>
      </trkpt>
      <trkpt lat="43.62472" lon="1.34772">
        <ele>155.6</ele>
        <time>2024-03-27T06:07:07Z</time>
      </trkpt>
      <trkpt lat="43.62469" lon="1.34775">
        <ele>155.6</ele>
        <time>2024-03-27T06:07:08Z</time>
      </trkpt>
      <trkpt lat="43.62466" lon="1.34776">
        <ele>155.6</ele>
        <time>2024-03-27T06:07:09Z</time>
      </trkpt>
      <trkpt lat="43.62464" lon="1.34778">
        <ele>155.8</ele>
        <time>2024-03-27T06:07:10Z</time>
      </trkpt>
      <trkpt lat="43.62463" lon="1.34779">
        <ele>155.8</ele>
        <time>2024-03-27T06:07:11Z</time>
      </trkpt>
      <trkpt lat="43.62462" lon="1.34781">
        <ele>155.8</ele>
        <time>2024-03-27T06:07:12Z</time>
      </trkpt>
      <trkpt lat="43.62461" lon="1.34782">
        <ele>155.8</ele>
        <time>2024-03-27T06:07:13Z</time>
      </trkpt>
      <trkpt lat="43.62457" lon="1.34783">
        <ele>156</ele>
        <time>2024-03-27T06:07:14Z</time>
      </trkpt>
      <trkpt lat="43.62453" lon="1.34784">
        <ele>156</ele>
        <time>2024-03-27T06:07:15Z</time>
      </trkpt>
      <trkpt lat="43.62448" lon="1.34785">
        <ele>156</ele>
        <time>2024-03-27T06:07:16Z</time>
      </trkpt>
      <trkpt lat="43.62443" lon="1.34786">
        <ele>156.2</ele>
        <time>2024-03-27T06:07:17Z</time>
      </trkpt>
      <trkpt lat="43.62438" lon="1.34786">
        <ele>156.2</ele>
        <time>2024-03-27T06:07:18Z</time>
      </trkpt>
      <trkpt lat="43.62431" lon="1.34785">
        <ele>156.4</ele>
        <time>2024-03-27T06:07:19Z</time>
      </trkpt>
      <trkpt lat="43.62424" lon="1.34785">
        <ele>156.4</ele>
        <time>2024-03-27T06:07:20Z</time>
      </trkpt>
      <trkpt lat="43.62416" lon="1.34782">
        <ele>156.6</ele>
        <time>2024-03-27T06:07:21Z</time>
      </trkpt>
      <trkpt lat="43.62409" lon="1.34781">
        <ele>156.6</ele>
        <time>2024-03-27T06:07:22Z</time>
      </trkpt>
      <trkpt lat="43.62399" lon="1.34781">
        <ele>156.8</ele>
        <time>2024-03-27T06:07:23Z</time>
      </trkpt>
      <trkpt lat="43.62392" lon="1.34781">
        <ele>156.8</ele>
        <time>2024-03-27T06:07:24Z</time>
      </trkpt>
      <trkpt lat="43.62385" lon="1.3478">
        <ele>157</ele>
        <time>2024-03-27T06:07:25Z</time>
      </trkpt>
      <trkpt lat="43.62381" lon="1.3478">
        <ele>157</ele>
        <time>2024-03-27T06:07:26Z</time>
      </trkpt>
      <trkpt lat="43.62375" lon="1.34781">
        <ele>156.8</ele>
        <time>2024-03-27T06:07:27Z</time>
      </trkpt>
      <trkpt lat="43.62368" lon="1.34781">
        <ele>156.8</ele>
        <time>2024-03-27T06:07:28Z</time>
      </trkpt>
      <trkpt lat="43.62362" lon="1.34782">
        <ele>157</ele>
        <time>2024-03-27T06:07:29Z</time>
      </trkpt>
      <trkpt lat="43.62356" lon="1.34784">
        <ele>157</ele>
        <time>2024-03-27T06:07:30Z</time>
      </trkpt>
      <trkpt lat="43.6235" lon="1.34786">
        <ele>157</ele>
        <time>2024-03-27T06:07:31Z</time>
      </trkpt>
      <trkpt lat="43.62344" lon="1.34789">
        <ele>157</ele>
        <time>2024-03-27T06:07:32Z</time>
      </trkpt>
      <trkpt lat="43.62338" lon="1.34793">
        <ele>157</ele>
        <time>2024-03-27T06:07:33Z</time>
      </trkpt>
      <trkpt lat="43.62332" lon="1.34797">
        <ele>157</ele>
        <time>2024-03-27T06:07:34Z</time>
      </trkpt>
      <trkpt lat="43.62326" lon="1.34802">
        <ele>157</ele>
        <time>2024-03-27T06:07:35Z</time>
      </trkpt>
      <trkpt lat="43.62321" lon="1.34807">
        <ele>157</ele>
        <time>2024-03-27T06:07:36Z</time>
      </trkpt>
      <trkpt lat="43.62315" lon="1.34812">
        <ele>157</ele>
        <time>2024-03-27T06:07:37Z</time>
      </trkpt>
      <trkpt lat="43.62309" lon="1.34816">
        <ele>157</ele>
        <time>2024-03-27T06:07:38Z</time>
      </trkpt>
      <trkpt lat="43.62304" lon="1.34822">
        <ele>157</ele>
        <time>2024-03-27T06:07:39Z</time>
      </trkpt>
      <trkpt lat="43.62299" lon="1.34827">
        <ele>156.8</ele>
        <time>2024-03-27T06:07:40Z</time>
      </trkpt>
      <trkpt lat="43.62293" lon="1.34833">
        <ele>156.8</ele>
        <time>2024-03-27T06:07:41Z</time>
      </trkpt>
      <trkpt lat="43.62288" lon="1.34838">
        <ele>156.6</ele>
        <time>2024-03-27T06:07:42Z</time>
      </trkpt>
      <trkpt lat="43.62282" lon="1.34844">
        <ele>156.6</ele>
        <time>2024-03-27T06:07:43Z</time>
      </trkpt>
      <trkpt lat="43.62278" lon="1.3485">
        <ele>156.4</ele>
        <time>2024-03-27T06:07:44Z</time>
      </trkpt>
      <trkpt lat="43.62273" lon="1.34855">
        <ele>156.4</ele>
        <time>2024-03-27T06:07:45Z</time>
      </trkpt>
      <trkpt lat="43.62269" lon="1.3486">
        <ele>156.4</ele>
        <time>2024-03-27T06:07:46Z</time>
      </trkpt>
      <trkpt lat="43.62264" lon="1.34865">
        <ele>156</ele>
        <time>2024-03-27T06:07:47Z</time>
      </trkpt>
      <trkpt lat="43.62261" lon="1.34869">
        <ele>156</ele>
        <time>2024-03-27T06:07:48Z</time>
      </trkpt>
      <trkpt lat="43.62259" lon="1.34873">
        <ele>155.8</ele>
        <time>2024-03-27T06:07:49Z</time>
      </trkpt>
      <trkpt lat="43.62258" lon="1.34877">
        <ele>155.6</ele>
        <time>2024-03-27T06:07:50Z</time>
      </trkpt>
      <trkpt lat="43.62258" lon="1.34882">
        <ele>155.6</ele>
        <time>2024-03-27T06:07:51Z</time>
      </trkpt>
      <trkpt lat="43.62257" lon="1.34888">
        <ele>155.6</ele>
        <time>2024-03-27T06:07:52Z</time>
      </trkpt>
      <trkpt lat="43.62257" lon="1.34894">
        <ele>155.4</ele>
        <time>2024-03-27T06:07:53Z</time>
      </trkpt>
      <trkpt lat="43.62257" lon="1.349">
        <ele>155.4</ele>
        <time>2024-03-27T06:07:54Z</time>
      </trkpt>
      <trkpt lat="43.62258" lon="1.34907">
        <ele>155.2</ele>
        <time>2024-03-27T06:07:55Z</time>
      </trkpt>
      <trkpt lat="43.62258" lon="1.34913">
        <ele>155.2</ele>
        <time>2024-03-27T06:07:56Z</time>
      </trkpt>
      <trkpt lat="43.62258" lon="1.3492">
        <ele>155</ele>
        <time>2024-03-27T06:07:57Z</time>
      </trkpt>
      <trkpt lat="43.62258" lon="1.34927">
        <ele>155</ele>
        <time>2024-03-27T06:07:58Z</time>
      </trkpt>
      <trkpt lat="43.62258" lon="1.34933">
        <ele>154.8</ele>
        <time>2024-03-27T06:07:59Z</time>
      </trkpt>
      <trkpt lat="43.62258" lon="1.3494">
        <ele>154.8</ele>
        <time>2024-03-27T06:08:00Z</time>
      </trkpt>
      <trkpt lat="43.62258" lon="1.34948">
        <ele>154.6</ele>
        <time>2024-03-27T06:08:01Z</time>
      </trkpt>
      <trkpt lat="43.62258" lon="1.34955">
        <ele>154.6</ele>
        <time>2024-03-27T06:08:02Z</time>
      </trkpt>
      <trkpt lat="43.62258" lon="1.34962">
        <ele>154.6</ele>
        <time>2024-03-27T06:08:03Z</time>
      </trkpt>
      <trkpt lat="43.62259" lon="1.34969">
        <ele>154.6</ele>
        <time>2024-03-27T06:08:04Z</time>
      </trkpt>
      <trkpt lat="43.62259" lon="1.34976">
        <ele>154.4</ele>
        <time>2024-03-27T06:08:05Z</time>
      </trkpt>
      <trkpt lat="43.6226" lon="1.34983">
        <ele>154.4</ele>
        <time>2024-03-27T06:08:06Z</time>
      </trkpt>
      <trkpt lat="43.6226" lon="1.3499">
        <ele>154.4</ele>
        <time>2024-03-27T06:08:07Z</time>
      </trkpt>
      <trkpt lat="43.62261" lon="1.34996">
        <ele>154.4</ele>
        <time>2024-03-27T06:08:08Z</time>
      </trkpt>
      <trkpt lat="43.62261" lon="1.35003">
        <ele>154.4</ele>
        <time>2024-03-27T06:08:09Z</time>
      </trkpt>
      <trkpt lat="43.62261" lon="1.3501">
        <ele>154.4</ele>
        <time>2024-03-27T06:08:10Z</time>
      </trkpt>
      <trkpt lat="43.62261" lon="1.35017">
        <ele>154.4</ele>
        <time>2024-03-27T06:08:11Z</time>
      </trkpt>
      <trkpt lat="43.62261" lon="1.35023">
        <ele>154.4</ele>
        <time>2024-03-27T06:08:12Z</time>
      </trkpt>
      <trkpt lat="43.62262" lon="1.3503">
        <ele>154.4</ele>
        <time>2024-03-27T06:08:13Z</time>
      </trkpt>
      <trkpt lat="43.62262" lon="1.35037">
        <ele>154.4</ele>
        <time>2024-03-27T06:08:14Z</time>
      </trkpt>
      <trkpt lat="43.62262" lon="1.35045">
        <ele>154.4</ele>
        <time>2024-03-27T06:08:15Z</time>
      </trkpt>
      <trkpt lat="43.62263" lon="1.35052">
        <ele>154.4</ele>
        <time>2024-03-27T06:08:16Z</time>
      </trkpt>
      <trkpt lat="43.62263" lon="1.35059">
        <ele>154.4</ele>
        <time>2024-03-27T06:08:17Z</time>
      </trkpt>
      <trkpt lat="43.62263" lon="1.35066">
        <ele>154.4</ele>
        <time>2024-03-27T06:08:18Z</time>
      </trkpt>
      <trkpt lat="43.62263" lon="1.35073">
        <ele>154.4</ele>
        <time>2024-03-27T06:08:19Z</time>
      </trkpt>
      <trkpt lat="43.62263" lon="1.3508">
        <ele>154.4</ele>
        <time>2024-03-27T06:08:20Z</time>
      </trkpt>
      <trkpt lat="43.62264" lon="1.35087">
        <ele>154.4</ele>
        <time>2024-03-27T06:08:21Z</time>
      </trkpt>
      <trkpt lat="43.62264" lon="1.35094">
        <ele>154.4</ele>
        <time>2024-03-27T06:08:22Z</time>
      </trkpt>
      <trkpt lat="43.62264" lon="1.35101">
        <ele>154.4</ele>
        <time>2024-03-27T06:08:23Z</time>
      </trkpt>
      <trkpt lat="43.62264" lon="1.35108">
        <ele>154.4</ele>
        <time>2024-03-27T06:08:24Z</time>
      </trkpt>
      <trkpt lat="43.62265" lon="1.35114">
        <ele>154.4</ele>
        <time>2024-03-27T06:08:25Z</time>
      </trkpt>
      <trkpt lat="43.62266" lon="1.35121">
        <ele>154.4</ele>
        <time>2024-03-27T06:08:26Z</time>
      </trkpt>
      <trkpt lat="43.62266" lon="1.35127">
        <ele>154.4</ele>
        <time>2024-03-27T06:08:27Z</time>
      </trkpt>
      <trkpt lat="43.62267" lon="1.35132">
        <ele>154.4</ele>
        <time>2024-03-27T06:08:28Z</time>
      </trkpt>
      <trkpt lat="43.62268" lon="1.35138">
        <ele>154.4</ele>
        <time>2024-03-27T06:08:29Z</time>
      </trkpt>
      <trkpt lat="43.62268" lon="1.35143">
        <ele>154.4</ele>
        <time>2024-03-27T06:08:30Z</time>
      </trkpt>
      <trkpt lat="43.62268" lon="1.35148">
        <ele>154.4</ele>
        <time>2024-03-27T06:08:31Z</time>
      </trkpt>
      <trkpt lat="43.62269" lon="1.3515">
        <ele>154.4</ele>
        <time>2024-03-27T06:08:32Z</time>
      </trkpt>
      <trkpt lat="43.6227" lon="1.3515">
        <ele>154.4</ele>
        <time>2024-03-27T06:08:33Z</time>
      </trkpt>
      <trkpt lat="43.6227" lon="1.3515">
        <ele>154.2</ele>
        <time>2024-03-27T06:08:34Z</time>
      </trkpt>
      <trkpt lat="43.6227" lon="1.3515">
        <ele>154.2</ele>
        <time>2024-03-27T06:08:35Z</time>
      </trkpt>
      <trkpt lat="43.62218" lon="1.3515">
        <ele>152</ele>
        <time>2024-03-27T15:48:54Z</time>
      </trkpt>
      <trkpt lat="43.62216" lon="1.35154">
        <ele>157.4</ele>
        <time>2024-03-27T15:48:56Z</time>
      </trkpt>
      <trkpt lat="43.62266" lon="1.35148">
        <ele>158.8</ele>
        <time>2024-03-27T15:49:29Z</time>
      </trkpt>
      <trkpt lat="43.62267" lon="1.3515">
        <ele>158.8</ele>
        <time>2024-03-27T15:49:30Z</time>
      </trkpt>
      <trkpt lat="43.62266" lon="1.35152">
        <ele>158.8</ele>
        <time>2024-03-27T15:49:31Z</time>
      </trkpt>
      <trkpt lat="43.62266" lon="1.35155">
        <ele>158.8</ele>
        <time>2024-03-27T15:49:32Z</time>
      </trkpt>
      <trkpt lat="43.62264" lon="1.35157">
        <ele>158.8</ele>
        <time>2024-03-27T15:49:33Z</time>
      </trkpt>
      <trkpt lat="43.62262" lon="1.35161">
        <ele>158.8</ele>
        <time>2024-03-27T15:49:34Z</time>
      </trkpt>
      <trkpt lat="43.6226" lon="1.35164">
        <ele>158.8</ele>
        <time>2024-03-27T15:49:35Z</time>
      </trkpt>
      <trkpt lat="43.62258" lon="1.35168">
        <ele>159</ele>
        <time>2024-03-27T15:49:36Z</time>
      </trkpt>
      <trkpt lat="43.62255" lon="1.3517">
        <ele>159</ele>
        <time>2024-03-27T15:49:37Z</time>
      </trkpt>
      <trkpt lat="43.62252" lon="1.35173">
        <ele>159</ele>
        <time>2024-03-27T15:49:38Z</time>
      </trkpt>
      <trkpt lat="43.62249" lon="1.35174">
        <ele>159</ele>
        <time>2024-03-27T15:49:39Z</time>
      </trkpt>
      <trkpt lat="43.62245" lon="1.35175">
        <ele>159</ele>
        <time>2024-03-27T15:49:40Z</time>
      </trkpt>
      <trkpt lat="43.62242" lon="1.35174">
        <ele>159</ele>
        <time>2024-03-27T15:49:41Z</time>
      </trkpt>
      <trkpt lat="43.62239" lon="1.35172">
        <ele>159</ele>
        <time>2024-03-27T15:49:42Z</time>
      </trkpt>
      <trkpt lat="43.62236" lon="1.35169">
        <ele>159</ele>
        <time>2024-03-27T15:49:43Z</time>
      </trkpt>
      <trkpt lat="43.62233" lon="1.35167">
        <ele>159.2</ele>
        <time>2024-03-27T15:49:44Z</time>
      </trkpt>
      <trkpt lat="43.62229" lon="1.35164">
        <ele>159.2</ele>
        <time>2024-03-27T15:49:45Z</time>
      </trkpt>
      <trkpt lat="43.62226" lon="1.35161">
        <ele>159.4</ele>
        <time>2024-03-27T15:49:46Z</time>
      </trkpt>
      <trkpt lat="43.62223" lon="1.35158">
        <ele>159.6</ele>
        <time>2024-03-27T15:49:47Z</time>
      </trkpt>
      <trkpt lat="43.6222" lon="1.35155">
        <ele>159.6</ele>
        <time>2024-03-27T15:49:48Z</time>
      </trkpt>
      <trkpt lat="43.62216" lon="1.35153">
        <ele>159.8</ele>
        <time>2024-03-27T15:49:49Z</time>
      </trkpt>
      <trkpt lat="43.62212" lon="1.35151">
        <ele>160</ele>
        <time>2024-03-27T15:49:50Z</time>
      </trkpt>
      <trkpt lat="43.62208" lon="1.35151">
        <ele>160.2</ele>
        <time>2024-03-27T15:49:51Z</time>
      </trkpt>
      <trkpt lat="43.62204" lon="1.35152">
        <ele>160.6</ele>
        <time>2024-03-27T15:49:52Z</time>
      </trkpt>
      <trkpt lat="43.622" lon="1.35152">
        <ele>160.6</ele>
        <time>2024-03-27T15:49:53Z</time>
      </trkpt>
      <trkpt lat="43.62195" lon="1.35154">
        <ele>160.8</ele>
        <time>2024-03-27T15:49:54Z</time>
      </trkpt>
      <trkpt lat="43.62191" lon="1.35156">
        <ele>161</ele>
        <time>2024-03-27T15:49:55Z</time>
      </trkpt>
      <trkpt lat="43.62187" lon="1.35158">
        <ele>161</ele>
        <time>2024-03-27T15:49:56Z</time>
      </trkpt>
      <trkpt lat="43.62183" lon="1.35161">
        <ele>161</ele>
        <time>2024-03-27T15:49:57Z</time>
      </trkpt>
      <trkpt lat="43.62179" lon="1.35163">
        <ele>161.2</ele>
        <time>2024-03-27T15:49:58Z</time>
      </trkpt>
      <trkpt lat="43.62174" lon="1.35165">
        <ele>161.2</ele>
        <time>2024-03-27T15:49:59Z</time>
      </trkpt>
      <trkpt lat="43.6217" lon="1.35167">
        <ele>161.2</ele>
        <time>2024-03-27T15:50:00Z</time>
      </trkpt>
      <trkpt lat="43.62166" lon="1.35168">
        <ele>161.4</ele>
        <time>2024-03-27T15:50:01Z</time>
      </trkpt>
      <trkpt lat="43.62161" lon="1.35168">
        <ele>161.4</ele>
        <time>2024-03-27T15:50:02Z</time>
      </trkpt>
      <trkpt lat="43.62158" lon="1.35166">
        <ele>161.4</ele>
        <time>2024-03-27T15:50:03Z</time>
      </trkpt>
      <trkpt lat="43.62156" lon="1.35162">
        <ele>161.4</ele>
        <time>2024-03-27T15:50:04Z</time>
      </trkpt>
      <trkpt lat="43.62154" lon="1.35157">
        <ele>161.4</ele>
        <time>2024-03-27T15:50:05Z</time>
      </trkpt>
      <trkpt lat="43.62153" lon="1.35151">
        <ele>161.4</ele>
        <time>2024-03-27T15:50:06Z</time>
      </trkpt>
      <trkpt lat="43.62151" lon="1.35145">
        <ele>161.4</ele>
        <time>2024-03-27T15:50:07Z</time>
      </trkpt>
      <trkpt lat="43.62148" lon="1.35138">
        <ele>161.4</ele>
        <time>2024-03-27T15:50:08Z</time>
      </trkpt>
      <trkpt lat="43.62146" lon="1.35134">
        <ele>161.4</ele>
        <time>2024-03-27T15:50:09Z</time>
      </trkpt>
      <trkpt lat="43.62144" lon="1.35127">
        <ele>161.4</ele>
        <time>2024-03-27T15:50:10Z</time>
      </trkpt>
      <trkpt lat="43.62142" lon="1.35121">
        <ele>161.4</ele>
        <time>2024-03-27T15:50:11Z</time>
      </trkpt>
      <trkpt lat="43.6214" lon="1.35115">
        <ele>161.6</ele>
        <time>2024-03-27T15:50:12Z</time>
      </trkpt>
      <trkpt lat="43.62138" lon="1.35109">
        <ele>161.6</ele>
        <time>2024-03-27T15:50:13Z</time>
      </trkpt>
      <trkpt lat="43.62136" lon="1.35102">
        <ele>161.6</ele>
        <time>2024-03-27T15:50:14Z</time>
      </trkpt>
      <trkpt lat="43.62134" lon="1.35095">
        <ele>161.6</ele>
        <time>2024-03-27T15:50:15Z</time>
      </trkpt>
      <trkpt lat="43.62133" lon="1.35088">
        <ele>161.8</ele>
        <time>2024-03-27T15:50:16Z</time>
      </trkpt>
      <trkpt lat="43.62132" lon="1.35081">
        <ele>161.8</ele>
        <time>2024-03-27T15:50:17Z</time>
      </trkpt>
      <trkpt lat="43.62132" lon="1.35074">
        <ele>162</ele>
        <time>2024-03-27T15:50:18Z</time>
      </trkpt>
      <trkpt lat="43.62133" lon="1.35067">
        <ele>162</ele>
        <time>2024-03-27T15:50:19Z</time>
      </trkpt>
      <trkpt lat="43.62135" lon="1.35059">
        <ele>162</ele>
        <time>2024-03-27T15:50:20Z</time>
      </trkpt>
      <trkpt lat="43.62137" lon="1.35052">
        <ele>162</ele>
        <time>2024-03-27T15:50:21Z</time>
      </trkpt>
      <trkpt lat="43.62138" lon="1.35045">
        <ele>162.2</ele>
        <time>2024-03-27T15:50:22Z</time>
      </trkpt>
      <trkpt lat="43.62139" lon="1.35037">
        <ele>162.2</ele>
        <time>2024-03-27T15:50:23Z</time>
      </trkpt>
      <trkpt lat="43.6214" lon="1.3503">
        <ele>162.2</ele>
        <time>2024-03-27T15:50:24Z</time>
      </trkpt>
      <trkpt lat="43.6214" lon="1.35023">
        <ele>162.4</ele>
        <time>2024-03-27T15:50:25Z</time>
      </trkpt>
      <trkpt lat="43.62141" lon="1.35017">
        <ele>162.4</ele>
        <time>2024-03-27T15:50:26Z</time>
      </trkpt>
      <trkpt lat="43.62142" lon="1.35013">
        <ele>162.4</ele>
        <time>2024-03-27T15:50:27Z</time>
      </trkpt>
      <trkpt lat="43.62143" lon="1.35009">
        <ele>162.4</ele>
        <time>2024-03-27T15:50:28Z</time>
      </trkpt>
      <trkpt lat="43.62144" lon="1.35004">
        <ele>162.4</ele>
        <time>2024-03-27T15:50:29Z</time>
      </trkpt>
      <trkpt lat="43.62146" lon="1.35">
        <ele>162.4</ele>
        <time>2024-03-27T15:50:30Z</time>
      </trkpt>
      <trkpt lat="43.62149" lon="1.34996">
        <ele>162.4</ele>
        <time>2024-03-27T15:50:31Z</time>
      </trkpt>
      <trkpt lat="43.62152" lon="1.34991">
        <ele>162.4</ele>
        <time>2024-03-27T15:50:32Z</time>
      </trkpt>
      <trkpt lat="43.62156" lon="1.34986">
        <ele>162.4</ele>
        <time>2024-03-27T15:50:33Z</time>
      </trkpt>
      <trkpt lat="43.62159" lon="1.34981">
        <ele>162.4</ele>
        <time>2024-03-27T15:50:34Z</time>
      </trkpt>
      <trkpt lat="43.62163" lon="1.34976">
        <ele>162.4</ele>
        <time>2024-03-27T15:50:35Z</time>
      </trkpt>
      <trkpt lat="43.62167" lon="1.34971">
        <ele>162.2</ele>
        <time>2024-03-27T15:50:36Z</time>
      </trkpt>
      <trkpt lat="43.62172" lon="1.34966">
        <ele>162.2</ele>
        <time>2024-03-27T15:50:37Z</time>
      </trkpt>
      <trkpt lat="43.62176" lon="1.34961">
        <ele>162.2</ele>
        <time>2024-03-27T15:50:38Z</time>
      </trkpt>
      <trkpt lat="43.62181" lon="1.34956">
        <ele>162</ele>
        <time>2024-03-27T15:50:39Z</time>
      </trkpt>
      <trkpt lat="43.62185" lon="1.34951">
        <ele>162</ele>
        <time>2024-03-27T15:50:40Z</time>
      </trkpt>
      <trkpt lat="43.6219" lon="1.34946">
        <ele>162</ele>
        <time>2024-03-27T15:50:41Z</time>
      </trkpt>
      <trkpt lat="43.62195" lon="1.34941">
        <ele>162</ele>
        <time>2024-03-27T15:50:42Z</time>
      </trkpt>
      <trkpt lat="43.622" lon="1.34936">
        <ele>162</ele>
        <time>2024-03-27T15:50:43Z</time>
      </trkpt>
      <trkpt lat="43.62205" lon="1.34931">
        <ele>162</ele>
        <time>2024-03-27T15:50:44Z</time>
      </trkpt>
      <trkpt lat="43.6221" lon="1.34926">
        <ele>162</ele>
        <time>2024-03-27T15:50:45Z</time>
      </trkpt>
      <trkpt lat="43.62215" lon="1.34921">
        <ele>162</ele>
        <time>2024-03-27T15:50:46Z</time>
      </trkpt>
      <trkpt lat="43.6222" lon="1.34915">
        <ele>162.2</ele>
        <time>2024-03-27T15:50:47Z</time>
      </trkpt>
      <trkpt lat="43.62225" lon="1.3491">
        <ele>162.2</ele>
        <time>2024-03-27T15:50:48Z</time>
      </trkpt>
      <trkpt lat="43.6223" lon="1.34905">
        <ele>162.2</ele>
        <time>2024-03-27T15:50:49Z</time>
      </trkpt>
      <trkpt lat="43.62235" lon="1.34899">
        <ele>162.2</ele>
        <time>2024-03-27T15:50:50Z</time>
      </trkpt>
      <trkpt lat="43.62241" lon="1.34894">
        <ele>162.2</ele>
        <time>2024-03-27T15:50:51Z</time>
      </trkpt>
      <trkpt lat="43.62246" lon="1.34889">
        <ele>162.2</ele>
        <time>2024-03-27T15:50:52Z</time>
      </trkpt>
      <trkpt lat="43.62251" lon="1.34884">
        <ele>162.2</ele>
        <time>2024-03-27T15:50:53Z</time>
      </trkpt>
      <trkpt lat="43.62256" lon="1.34879">
        <ele>162.2</ele>
        <time>2024-03-27T15:50:54Z</time>
      </trkpt>
      <trkpt lat="43.62261" lon="1.34874">
        <ele>162.2</ele>
        <time>2024-03-27T15:50:55Z</time>
      </trkpt>
      <trkpt lat="43.62266" lon="1.34869">
        <ele>162.2</ele>
        <time>2024-03-27T15:50:56Z</time>
      </trkpt>
      <trkpt lat="43.62271" lon="1.34865">
        <ele>162.2</ele>
        <time>2024-03-27T15:50:57Z</time>
      </trkpt>
      <trkpt lat="43.62276" lon="1.34859">
        <ele>162.2</ele>
        <time>2024-03-27T15:50:58Z</time>
      </trkpt>
      <trkpt lat="43.6228" lon="1.34855">
        <ele>162.2</ele>
        <time>2024-03-27T15:50:59Z</time>
      </trkpt>
      <trkpt lat="43.62285" lon="1.3485">
        <ele>162.2</ele>
        <time>2024-03-27T15:51:00Z</time>
      </trkpt>
      <trkpt lat="43.6229" lon="1.34846">
        <ele>162.2</ele>
        <time>2024-03-27T15:51:01Z</time>
      </trkpt>
      <trkpt lat="43.62294" lon="1.34841">
        <ele>162.4</ele>
        <time>2024-03-27T15:51:02Z</time>
      </trkpt>
      <trkpt lat="43.62299" lon="1.34836">
        <ele>162.4</ele>
        <time>2024-03-27T15:51:03Z</time>
      </trkpt>
      <trkpt lat="43.62303" lon="1.34832">
        <ele>162.4</ele>
        <time>2024-03-27T15:51:04Z</time>
      </trkpt>
      <trkpt lat="43.62309" lon="1.34826">
        <ele>162.6</ele>
        <time>2024-03-27T15:51:05Z</time>
      </trkpt>
      <trkpt lat="43.62313" lon="1.34822">
        <ele>162.6</ele>
        <time>2024-03-27T15:51:06Z</time>
      </trkpt>
      <trkpt lat="43.62318" lon="1.34818">
        <ele>162.6</ele>
        <time>2024-03-27T15:51:07Z</time>
      </trkpt>
      <trkpt lat="43.62322" lon="1.34813">
        <ele>162.6</ele>
        <time>2024-03-27T15:51:08Z</time>
      </trkpt>
      <trkpt lat="43.62327" lon="1.34808">
        <ele>162.8</ele>
        <time>2024-03-27T15:51:09Z</time>
      </trkpt>
      <trkpt lat="43.62331" lon="1.34804">
        <ele>163</ele>
        <time>2024-03-27T15:51:10Z</time>
      </trkpt>
      <trkpt lat="43.62336" lon="1.348">
        <ele>163</ele>
        <time>2024-03-27T15:51:11Z</time>
      </trkpt>
      <trkpt lat="43.6234" lon="1.34797">
        <ele>163.2</ele>
        <time>2024-03-27T15:51:12Z</time>
      </trkpt>
      <trkpt lat="43.62345" lon="1.34794">
        <ele>163.2</ele>
        <time>2024-03-27T15:51:13Z</time>
      </trkpt>
      <trkpt lat="43.62352" lon="1.3479">
        <ele>163.4</ele>
        <time>2024-03-27T15:51:14Z</time>
      </trkpt>
      <trkpt lat="43.62358" lon="1.34788">
        <ele>163.4</ele>
        <time>2024-03-27T15:51:15Z</time>
      </trkpt>
      <trkpt lat="43.62363" lon="1.34786">
        <ele>163.4</ele>
        <time>2024-03-27T15:51:16Z</time>
      </trkpt>
      <trkpt lat="43.62368" lon="1.34786">
        <ele>163.6</ele>
        <time>2024-03-27T15:51:17Z</time>
      </trkpt>
      <trkpt lat="43.62374" lon="1.34785">
        <ele>163.6</ele>
        <time>2024-03-27T15:51:18Z</time>
      </trkpt>
      <trkpt lat="43.62382" lon="1.34785">
        <ele>163.6</ele>
        <time>2024-03-27T15:51:19Z</time>
      </trkpt>
      <trkpt lat="43.62388" lon="1.34784">
        <ele>163.6</ele>
        <time>2024-03-27T15:51:20Z</time>
      </trkpt>
      <trkpt lat="43.62393" lon="1.34784">
        <ele>163.6</ele>
        <time>2024-03-27T15:51:21Z</time>
      </trkpt>
      <trkpt lat="43.62399" lon="1.34784">
        <ele>163.6</ele>
        <time>2024-03-27T15:51:22Z</time>
      </trkpt>
      <trkpt lat="43.62406" lon="1.34783">
        <ele>163.6</ele>
        <time>2024-03-27T15:51:23Z</time>
      </trkpt>
      <trkpt lat="43.62412" lon="1.34782">
        <ele>163.8</ele>
        <time>2024-03-27T15:51:24Z</time>
      </trkpt>
      <trkpt lat="43.62416" lon="1.34782">
        <ele>163.8</ele>
        <time>2024-03-27T15:51:25Z</time>
      </trkpt>
      <trkpt lat="43.62421" lon="1.34781">
        <ele>163.8</ele>
        <time>2024-03-27T15:51:26Z</time>
      </trkpt>
      <trkpt lat="43.62427" lon="1.34781">
        <ele>163.8</ele>
        <time>2024-03-27T15:51:27Z</time>
      </trkpt>
      <trkpt lat="43.62435" lon="1.34781">
        <ele>163.8</ele>
        <time>2024-03-27T15:51:28Z</time>
      </trkpt>
      <trkpt lat="43.62441" lon="1.34781">
        <ele>163.8</ele>
        <time>2024-03-27T15:51:29Z</time>
      </trkpt>
      <trkpt lat="43.62446" lon="1.34781">
        <ele>163.8</ele>
        <time>2024-03-27T15:51:30Z</time>
      </trkpt>
      <trkpt lat="43.62452" lon="1.3478">
        <ele>163.8</ele>
        <time>2024-03-27T15:51:31Z</time>
      </trkpt>
      <trkpt lat="43.6246" lon="1.34779">
        <ele>163.8</ele>
        <time>2024-03-27T15:51:32Z</time>
      </trkpt>
      <trkpt lat="43.62466" lon="1.34779">
        <ele>163.8</ele>
        <time>2024-03-27T15:51:33Z</time>
      </trkpt>
      <trkpt lat="43.62473" lon="1.3478">
        <ele>163.8</ele>
        <time>2024-03-27T15:51:34Z</time>
      </trkpt>
      <trkpt lat="43.62478" lon="1.3478">
        <ele>163.6</ele>
        <time>2024-03-27T15:51:35Z</time>
      </trkpt>
      <trkpt lat="43.62485" lon="1.3478">
        <ele>163.6</ele>
        <time>2024-03-27T15:51:36Z</time>
      </trkpt>
      <trkpt lat="43.62491" lon="1.3478">
        <ele>163.6</ele>
        <time>2024-03-27T15:51:37Z</time>
      </trkpt>
      <trkpt lat="43.62498" lon="1.3478">
        <ele>163.6</ele>
        <time>2024-03-27T15:51:38Z</time>
      </trkpt>
      <trkpt lat="43.62503" lon="1.34782">
        <ele>163.6</ele>
        <time>2024-03-27T15:51:39Z</time>
      </trkpt>
      <trkpt lat="43.62509" lon="1.34784">
        <ele>163.6</ele>
        <time>2024-03-27T15:51:40Z</time>
      </trkpt>
      <trkpt lat="43.62515" lon="1.34787">
        <ele>163.6</ele>
        <time>2024-03-27T15:51:41Z</time>
      </trkpt>
      <trkpt lat="43.62522" lon="1.34788">
        <ele>163.6</ele>
        <time>2024-03-27T15:51:42Z</time>
      </trkpt>
      <trkpt lat="43.62526" lon="1.34786">
        <ele>163.6</ele>
        <time>2024-03-27T15:51:43Z</time>
      </trkpt>
      <trkpt lat="43.6253" lon="1.3478">
        <ele>163.4</ele>
        <time>2024-03-27T15:51:44Z</time>
      </trkpt>
      <trkpt lat="43.62533" lon="1.34774">
        <ele>163.4</ele>
        <time>2024-03-27T15:51:45Z</time>
      </trkpt>
      <trkpt lat="43.62535" lon="1.34767">
        <ele>163.4</ele>
        <time>2024-03-27T15:51:46Z</time>
      </trkpt>
      <trkpt lat="43.62535" lon="1.34759">
        <ele>163.2</ele>
        <time>2024-03-27T15:51:47Z</time>
      </trkpt>
      <trkpt lat="43.62535" lon="1.34754">
        <ele>163</ele>
        <time>2024-03-27T15:51:48Z</time>
      </trkpt>
      <trkpt lat="43.62535" lon="1.34751">
        <ele>163</ele>
        <time>2024-03-27T15:51:49Z</time>
      </trkpt>
      <trkpt lat="43.62535" lon="1.34748">
        <ele>162.8</ele>
        <time>2024-03-27T15:51:50Z</time>
      </trkpt>
      <trkpt lat="43.62536" lon="1.34745">
        <ele>162.8</ele>
        <time>2024-03-27T15:51:51Z</time>
      </trkpt>
      <trkpt lat="43.62535" lon="1.34743">
        <ele>162.8</ele>
        <time>2024-03-27T15:51:52Z</time>
      </trkpt>
      <trkpt lat="43.62535" lon="1.34742">
        <ele>162.6</ele>
        <time>2024-03-27T15:51:53Z</time>
      </trkpt>
      <trkpt lat="43.62535" lon="1.34742">
        <ele>162.6</ele>
        <time>2024-03-27T15:51:54Z</time>
      </trkpt>
      <trkpt lat="43.62535" lon="1.34742">
        <ele>162.6</ele>
        <time>2024-03-27T15:51:55Z</time>
      </trkpt>
      <trkpt lat="43.62535" lon="1.34736">
        <ele>162.6</ele>
        <time>2024-03-27T15:51:59Z</time>
      </trkpt>
      <trkpt lat="43.62535" lon="1.34733">
        <ele>162.4</ele>
        <time>2024-03-27T15:52:00Z</time>
      </trkpt>
      <trkpt lat="43.62535" lon="1.3473">
        <ele>162.4</ele>
        <time>2024-03-27T15:52:01Z</time>
      </trkpt>
      <trkpt lat="43.62536" lon="1.34727">
        <ele>162.2</ele>
        <time>2024-03-27T15:52:02Z</time>
      </trkpt>
      <trkpt lat="43.62536" lon="1.34724">
        <ele>162.2</ele>
        <time>2024-03-27T15:52:03Z</time>
      </trkpt>
      <trkpt lat="43.62537" lon="1.3472">
        <ele>162.2</ele>
        <time>2024-03-27T15:52:04Z</time>
      </trkpt>
      <trkpt lat="43.62538" lon="1.34716">
        <ele>162.2</ele>
        <time>2024-03-27T15:52:05Z</time>
      </trkpt>
      <trkpt lat="43.6254" lon="1.3471">
        <ele>162.2</ele>
        <time>2024-03-27T15:52:06Z</time>
      </trkpt>
      <trkpt lat="43.62541" lon="1.34706">
        <ele>162.2</ele>
        <time>2024-03-27T15:52:07Z</time>
      </trkpt>
      <trkpt lat="43.62542" lon="1.34702">
        <ele>162.2</ele>
        <time>2024-03-27T15:52:08Z</time>
      </trkpt>
      <trkpt lat="43.62543" lon="1.34696">
        <ele>162.2</ele>
        <time>2024-03-27T15:52:09Z</time>
      </trkpt>
      <trkpt lat="43.62544" lon="1.34692">
        <ele>162.2</ele>
        <time>2024-03-27T15:52:10Z</time>
      </trkpt>
      <trkpt lat="43.62545" lon="1.3469">
        <ele>162.2</ele>
        <time>2024-03-27T15:52:11Z</time>
      </trkpt>
      <trkpt lat="43.62545" lon="1.34688">
        <ele>162.2</ele>
        <time>2024-03-27T15:52:12Z</time>
      </trkpt>
      <trkpt lat="43.62545" lon="1.34686">
        <ele>162.4</ele>
        <time>2024-03-27T15:52:13Z</time>
      </trkpt>
      <trkpt lat="43.62545" lon="1.34685">
        <ele>162.4</ele>
        <time>2024-03-27T15:52:14Z</time>
      </trkpt>
      <trkpt lat="43.62545" lon="1.34683">
        <ele>162.6</ele>
        <time>2024-03-27T15:52:15Z</time>
      </trkpt>
      <trkpt lat="43.62546" lon="1.34682">
        <ele>162.6</ele>
        <time>2024-03-27T15:52:16Z</time>
      </trkpt>
      <trkpt lat="43.62546" lon="1.3468">
        <ele>162.6</ele>
        <time>2024-03-27T15:52:17Z</time>
      </trkpt>
      <trkpt lat="43.62547" lon="1.34677">
        <ele>162.6</ele>
        <time>2024-03-27T15:52:18Z</time>
      </trkpt>
      <trkpt lat="43.62547" lon="1.34674">
        <ele>162.6</ele>
        <time>2024-03-27T15:52:19Z</time>
      </trkpt>
      <trkpt lat="43.62547" lon="1.34671">
        <ele>162.8</ele>
        <time>2024-03-27T15:52:20Z</time>
      </trkpt>
      <trkpt lat="43.62547" lon="1.34667">
        <ele>162.8</ele>
        <time>2024-03-27T15:52:21Z</time>
      </trkpt>
      <trkpt lat="43.62549" lon="1.34665">
        <ele>162.8</ele>
        <time>2024-03-27T15:52:22Z</time>
      </trkpt>
      <trkpt lat="43.62552" lon="1.34664">
        <ele>162.8</ele>
        <time>2024-03-27T15:52:23Z</time>
      </trkpt>
      <trkpt lat="43.62555" lon="1.34664">
        <ele>162.8</ele>
        <time>2024-03-27T15:52:24Z</time>
      </trkpt>
      <trkpt lat="43.62558" lon="1.34665">
        <ele>163</ele>
        <time>2024-03-27T15:52:25Z</time>
      </trkpt>
      <trkpt lat="43.62561" lon="1.34665">
        <ele>163</ele>
        <time>2024-03-27T15:52:26Z</time>
      </trkpt>
      <trkpt lat="43.62565" lon="1.34664">
        <ele>163</ele>
        <time>2024-03-27T15:52:27Z</time>
      </trkpt>
      <trkpt lat="43.62569" lon="1.34664">
        <ele>163</ele>
        <time>2024-03-27T15:52:28Z</time>
      </trkpt>
      <trkpt lat="43.62573" lon="1.34664">
        <ele>162.8</ele>
        <time>2024-03-27T15:52:29Z</time>
      </trkpt>
      <trkpt lat="43.62577" lon="1.34664">
        <ele>162.8</ele>
        <time>2024-03-27T15:52:30Z</time>
      </trkpt>
      <trkpt lat="43.62582" lon="1.34664">
        <ele>162.8</ele>
        <time>2024-03-27T15:52:31Z</time>
      </trkpt>
      <trkpt lat="43.62587" lon="1.34664">
        <ele>162.8</ele>
        <time>2024-03-27T15:52:32Z</time>
      </trkpt>
      <trkpt lat="43.62593" lon="1.34664">
        <ele>162.8</ele>
        <time>2024-03-27T15:52:33Z</time>
      </trkpt>
      <trkpt lat="43.62598" lon="1.34664">
        <ele>162.6</ele>
        <time>2024-03-27T15:52:34Z</time>
      </trkpt>
      <trkpt lat="43.62602" lon="1.34663">
        <ele>162.6</ele>
        <time>2024-03-27T15:52:35Z</time>
      </trkpt>
      <trkpt lat="43.62607" lon="1.34663">
        <ele>162.6</ele>
        <time>2024-03-27T15:52:36Z</time>
      </trkpt>
      <trkpt lat="43.62614" lon="1.34662">
        <ele>162.6</ele>
        <time>2024-03-27T15:52:37Z</time>
      </trkpt>
      <trkpt lat="43.62619" lon="1.34662">
        <ele>162.6</ele>
        <time>2024-03-27T15:52:38Z</time>
      </trkpt>
      <trkpt lat="43.62625" lon="1.34661">
        <ele>162.6</ele>
        <time>2024-03-27T15:52:39Z</time>
      </trkpt>
      <trkpt lat="43.62629" lon="1.34661">
        <ele>162.6</ele>
        <time>2024-03-27T15:52:40Z</time>
      </trkpt>
      <trkpt lat="43.62636" lon="1.34661">
        <ele>162.6</ele>
        <time>2024-03-27T15:52:41Z</time>
      </trkpt>
      <trkpt lat="43.6264" lon="1.34661">
        <ele>162.6</ele>
        <time>2024-03-27T15:52:42Z</time>
      </trkpt>
      <trkpt lat="43.62646" lon="1.34661">
        <ele>162.6</ele>
        <time>2024-03-27T15:52:43Z</time>
      </trkpt>
      <trkpt lat="43.62652" lon="1.3466">
        <ele>162.6</ele>
        <time>2024-03-27T15:52:44Z</time>
      </trkpt>
      <trkpt lat="43.62657" lon="1.3466">
        <ele>162.6</ele>
        <time>2024-03-27T15:52:45Z</time>
      </trkpt>
      <trkpt lat="43.62663" lon="1.34659">
        <ele>162.6</ele>
        <time>2024-03-27T15:52:46Z</time>
      </trkpt>
      <trkpt lat="43.62669" lon="1.34659">
        <ele>162.4</ele>
        <time>2024-03-27T15:52:47Z</time>
      </trkpt>
      <trkpt lat="43.62675" lon="1.34658">
        <ele>162.4</ele>
        <time>2024-03-27T15:52:48Z</time>
      </trkpt>
      <trkpt lat="43.62681" lon="1.34658">
        <ele>162.4</ele>
        <time>2024-03-27T15:52:49Z</time>
      </trkpt>
      <trkpt lat="43.62686" lon="1.34657">
        <ele>162.4</ele>
        <time>2024-03-27T15:52:50Z</time>
      </trkpt>
      <trkpt lat="43.62694" lon="1.34657">
        <ele>162.4</ele>
        <time>2024-03-27T15:52:51Z</time>
      </trkpt>
      <trkpt lat="43.627" lon="1.34656">
        <ele>162.2</ele>
        <time>2024-03-27T15:52:52Z</time>
      </trkpt>
      <trkpt lat="43.62705" lon="1.34656">
        <ele>162.2</ele>
        <time>2024-03-27T15:52:53Z</time>
      </trkpt>
      <trkpt lat="43.6271" lon="1.34656">
        <ele>162.2</ele>
        <time>2024-03-27T15:52:54Z</time>
      </trkpt>
      <trkpt lat="43.62718" lon="1.34655">
        <ele>162.2</ele>
        <time>2024-03-27T15:52:55Z</time>
      </trkpt>
      <trkpt lat="43.62724" lon="1.34655">
        <ele>162.2</ele>
        <time>2024-03-27T15:52:56Z</time>
      </trkpt>
      <trkpt lat="43.62729" lon="1.34655">
        <ele>162.4</ele>
        <time>2024-03-27T15:52:57Z</time>
      </trkpt>
      <trkpt lat="43.62735" lon="1.34654">
        <ele>162.4</ele>
        <time>2024-03-27T15:52:58Z</time>
      </trkpt>
      <trkpt lat="43.62741" lon="1.34654">
        <ele>162.4</ele>
        <time>2024-03-27T15:52:59Z</time>
      </trkpt>
      <trkpt lat="43.62748" lon="1.34654">
        <ele>162.4</ele>
        <time>2024-03-27T15:53:00Z</time>
      </trkpt>
      <trkpt lat="43.62755" lon="1.34654">
        <ele>162.4</ele>
        <time>2024-03-27T15:53:01Z</time>
      </trkpt>
      <trkpt lat="43.6276" lon="1.34654">
        <ele>162.4</ele>
        <time>2024-03-27T15:53:02Z</time>
      </trkpt>
      <trkpt lat="43.62767" lon="1.34654">
        <ele>162.4</ele>
        <time>2024-03-27T15:53:03Z</time>
      </trkpt>
      <trkpt lat="43.62773" lon="1.34654">
        <ele>162.4</ele>
        <time>2024-03-27T15:53:04Z</time>
      </trkpt>
      <trkpt lat="43.62781" lon="1.34653">
        <ele>162.4</ele>
        <time>2024-03-27T15:53:05Z</time>
      </trkpt>
      <trkpt lat="43.62788" lon="1.34653">
        <ele>162.6</ele>
        <time>2024-03-27T15:53:06Z</time>
      </trkpt>
      <trkpt lat="43.62793" lon="1.34653">
        <ele>162.6</ele>
        <time>2024-03-27T15:53:07Z</time>
      </trkpt>
      <trkpt lat="43.628" lon="1.34653">
        <ele>162.6</ele>
        <time>2024-03-27T15:53:08Z</time>
      </trkpt>
      <trkpt lat="43.62807" lon="1.34652">
        <ele>162.4</ele>
        <time>2024-03-27T15:53:09Z</time>
      </trkpt>
      <trkpt lat="43.62814" lon="1.34652">
        <ele>162.4</ele>
        <time>2024-03-27T15:53:10Z</time>
      </trkpt>
      <trkpt lat="43.6282" lon="1.34652">
        <ele>162.4</ele>
        <time>2024-03-27T15:53:11Z</time>
      </trkpt>
      <trkpt lat="43.62825" lon="1.34651">
        <ele>162.4</ele>
        <time>2024-03-27T15:53:12Z</time>
      </trkpt>
      <trkpt lat="43.62832" lon="1.34651">
        <ele>162.4</ele>
        <time>2024-03-27T15:53:13Z</time>
      </trkpt>
      <trkpt lat="43.62838" lon="1.3465">
        <ele>162.4</ele>
        <time>2024-03-27T15:53:14Z</time>
      </trkpt>
      <trkpt lat="43.62845" lon="1.3465">
        <ele>162.4</ele>
        <time>2024-03-27T15:53:15Z</time>
      </trkpt>
      <trkpt lat="43.62851" lon="1.3465">
        <ele>162.4</ele>
        <time>2024-03-27T15:53:16Z</time>
      </trkpt>
      <trkpt lat="43.62858" lon="1.34649">
        <ele>162.4</ele>
        <time>2024-03-27T15:53:17Z</time>
      </trkpt>
      <trkpt lat="43.62864" lon="1.34649">
        <ele>162.4</ele>
        <time>2024-03-27T15:53:18Z</time>
      </trkpt>
      <trkpt lat="43.6287" lon="1.34648">
        <ele>162.4</ele>
        <time>2024-03-27T15:53:19Z</time>
      </trkpt>
      <trkpt lat="43.62877" lon="1.34648">
        <ele>162.4</ele>
        <time>2024-03-27T15:53:20Z</time>
      </trkpt>
      <trkpt lat="43.62883" lon="1.34647">
        <ele>162.4</ele>
        <time>2024-03-27T15:53:21Z</time>
      </trkpt>
      <trkpt lat="43.62889" lon="1.34646">
        <ele>162.4</ele>
        <time>2024-03-27T15:53:22Z</time>
      </trkpt>
      <trkpt lat="43.62897" lon="1.34645">
        <ele>162.4</ele>
        <time>2024-03-27T15:53:23Z</time>
      </trkpt>
      <trkpt lat="43.62903" lon="1.34643">
        <ele>162.4</ele>
        <time>2024-03-27T15:53:24Z</time>
      </trkpt>
      <trkpt lat="43.62908" lon="1.34641">
        <ele>162.2</ele>
        <time>2024-03-27T15:53:25Z</time>
      </trkpt>
      <trkpt lat="43.62914" lon="1.34639">
        <ele>162.2</ele>
        <time>2024-03-27T15:53:26Z</time>
      </trkpt>
      <trkpt lat="43.62921" lon="1.34637">
        <ele>162.2</ele>
        <time>2024-03-27T15:53:27Z</time>
      </trkpt>
      <trkpt lat="43.62928" lon="1.34634">
        <ele>162.2</ele>
        <time>2024-03-27T15:53:28Z</time>
      </trkpt>
      <trkpt lat="43.62934" lon="1.3463">
        <ele>162</ele>
        <time>2024-03-27T15:53:29Z</time>
      </trkpt>
      <trkpt lat="43.6294" lon="1.34627">
        <ele>162</ele>
        <time>2024-03-27T15:53:30Z</time>
      </trkpt>
      <trkpt lat="43.62946" lon="1.34623">
        <ele>162</ele>
        <time>2024-03-27T15:53:31Z</time>
      </trkpt>
      <trkpt lat="43.62951" lon="1.34618">
        <ele>162</ele>
        <time>2024-03-27T15:53:32Z</time>
      </trkpt>
      <trkpt lat="43.62955" lon="1.34615">
        <ele>162</ele>
        <time>2024-03-27T15:53:33Z</time>
      </trkpt>
      <trkpt lat="43.6296" lon="1.34612">
        <ele>162</ele>
        <time>2024-03-27T15:53:34Z</time>
      </trkpt>
      <trkpt lat="43.62965" lon="1.3461">
        <ele>162</ele>
        <time>2024-03-27T15:53:35Z</time>
      </trkpt>
      <trkpt lat="43.6297" lon="1.34609">
        <ele>162</ele>
        <time>2024-03-27T15:53:36Z</time>
      </trkpt>
      <trkpt lat="43.62974" lon="1.34607">
        <ele>162</ele>
        <time>2024-03-27T15:53:37Z</time>
      </trkpt>
      <trkpt lat="43.62977" lon="1.34603">
        <ele>161.8</ele>
        <time>2024-03-27T15:53:38Z</time>
      </trkpt>
      <trkpt lat="43.62978" lon="1.34597">
        <ele>161.8</ele>
        <time>2024-03-27T15:53:39Z</time>
      </trkpt>
      <trkpt lat="43.62979" lon="1.34591">
        <ele>161.8</ele>
        <time>2024-03-27T15:53:40Z</time>
      </trkpt>
      <trkpt lat="43.6298" lon="1.34583">
        <ele>161.6</ele>
        <time>2024-03-27T15:53:41Z</time>
      </trkpt>
      <trkpt lat="43.6298" lon="1.34576">
        <ele>161.4</ele>
        <time>2024-03-27T15:53:42Z</time>
      </trkpt>
      <trkpt lat="43.62981" lon="1.34569">
        <ele>161.4</ele>
        <time>2024-03-27T15:53:43Z</time>
      </trkpt>
      <trkpt lat="43.62981" lon="1.34562">
        <ele>161.2</ele>
        <time>2024-03-27T15:53:44Z</time>
      </trkpt>
      <trkpt lat="43.62982" lon="1.34554">
        <ele>161.4</ele>
        <time>2024-03-27T15:53:45Z</time>
      </trkpt>
      <trkpt lat="43.62982" lon="1.34546">
        <ele>161.4</ele>
        <time>2024-03-27T15:53:46Z</time>
      </trkpt>
      <trkpt lat="43.62982" lon="1.34538">
        <ele>161.4</ele>
        <time>2024-03-27T15:53:47Z</time>
      </trkpt>
      <trkpt lat="43.62982" lon="1.3453">
        <ele>161.4</ele>
        <time>2024-03-27T15:53:48Z</time>
      </trkpt>
      <trkpt lat="43.62983" lon="1.34522">
        <ele>161.4</ele>
        <time>2024-03-27T15:53:49Z</time>
      </trkpt>
      <trkpt lat="43.62983" lon="1.34515">
        <ele>161.6</ele>
        <time>2024-03-27T15:53:50Z</time>
      </trkpt>
      <trkpt lat="43.62984" lon="1.34507">
        <ele>161.6</ele>
        <time>2024-03-27T15:53:51Z</time>
      </trkpt>
      <trkpt lat="43.62984" lon="1.34499">
        <ele>161.8</ele>
        <time>2024-03-27T15:53:52Z</time>
      </trkpt>
      <trkpt lat="43.62985" lon="1.34491">
        <ele>161.8</ele>
        <time>2024-03-27T15:53:53Z</time>
      </trkpt>
      <trkpt lat="43.62986" lon="1.34483">
        <ele>161.8</ele>
        <time>2024-03-27T15:53:54Z</time>
      </trkpt>
      <trkpt lat="43.62987" lon="1.34475">
        <ele>162</ele>
        <time>2024-03-27T15:53:55Z</time>
      </trkpt>
      <trkpt lat="43.62987" lon="1.34468">
        <ele>162.2</ele>
        <time>2024-03-27T15:53:56Z</time>
      </trkpt>
      <trkpt lat="43.62988" lon="1.3446">
        <ele>162.2</ele>
        <time>2024-03-27T15:53:57Z</time>
      </trkpt>
      <trkpt lat="43.62989" lon="1.34452">
        <ele>162.2</ele>
        <time>2024-03-27T15:53:58Z</time>
      </trkpt>
      <trkpt lat="43.62989" lon="1.34444">
        <ele>162.2</ele>
        <time>2024-03-27T15:53:59Z</time>
      </trkpt>
      <trkpt lat="43.6299" lon="1.34436">
        <ele>162.4</ele>
        <time>2024-03-27T15:54:00Z</time>
      </trkpt>
      <trkpt lat="43.62991" lon="1.34428">
        <ele>162.4</ele>
        <time>2024-03-27T15:54:01Z</time>
      </trkpt>
      <trkpt lat="43.62992" lon="1.3442">
        <ele>162.6</ele>
        <time>2024-03-27T15:54:02Z</time>
      </trkpt>
      <trkpt lat="43.62994" lon="1.34413">
        <ele>162.8</ele>
        <time>2024-03-27T15:54:03Z</time>
      </trkpt>
      <trkpt lat="43.62997" lon="1.34406">
        <ele>162.8</ele>
        <time>2024-03-27T15:54:04Z</time>
      </trkpt>
      <trkpt lat="43.63" lon="1.344">
        <ele>163</ele>
        <time>2024-03-27T15:54:05Z</time>
      </trkpt>
      <trkpt lat="43.63005" lon="1.34395">
        <ele>163</ele>
        <time>2024-03-27T15:54:06Z</time>
      </trkpt>
      <trkpt lat="43.6301" lon="1.3439">
        <ele>163.2</ele>
        <time>2024-03-27T15:54:07Z</time>
      </trkpt>
      <trkpt lat="43.63015" lon="1.34387">
        <ele>163.2</ele>
        <time>2024-03-27T15:54:08Z</time>
      </trkpt>
      <trkpt lat="43.63021" lon="1.34384">
        <ele>163.4</ele>
        <time>2024-03-27T15:54:09Z</time>
      </trkpt>
      <trkpt lat="43.63027" lon="1.34383">
        <ele>163.4</ele>
        <time>2024-03-27T15:54:10Z</time>
      </trkpt>
      <trkpt lat="43.63033" lon="1.34383">
        <ele>163.6</ele>
        <time>2024-03-27T15:54:11Z</time>
      </trkpt>
      <trkpt lat="43.63039" lon="1.34383">
        <ele>163.6</ele>
        <time>2024-03-27T15:54:12Z</time>
      </trkpt>
      <trkpt lat="43.63045" lon="1.34383">
        <ele>163.6</ele>
        <time>2024-03-27T15:54:13Z</time>
      </trkpt>
      <trkpt lat="43.63051" lon="1.34383">
        <ele>163.8</ele>
        <time>2024-03-27T15:54:14Z</time>
      </trkpt>
      <trkpt lat="43.63057" lon="1.34384">
        <ele>163.8</ele>
        <time>2024-03-27T15:54:15Z</time>
      </trkpt>
      <trkpt lat="43.63063" lon="1.34384">
        <ele>164</ele>
        <time>2024-03-27T15:54:16Z</time>
      </trkpt>
      <trkpt lat="43.63069" lon="1.34384">
        <ele>164</ele>
        <time>2024-03-27T15:54:17Z</time>
      </trkpt>
      <trkpt lat="43.63075" lon="1.34385">
        <ele>164</ele>
        <time>2024-03-27T15:54:18Z</time>
      </trkpt>
      <trkpt lat="43.63082" lon="1.34385">
        <ele>164.2</ele>
        <time>2024-03-27T15:54:19Z</time>
      </trkpt>
      <trkpt lat="43.63088" lon="1.34385">
        <ele>164.2</ele>
        <time>2024-03-27T15:54:20Z</time>
      </trkpt>
      <trkpt lat="43.63094" lon="1.34385">
        <ele>164.2</ele>
        <time>2024-03-27T15:54:21Z</time>
      </trkpt>
      <trkpt lat="43.631" lon="1.34385">
        <ele>164.2</ele>
        <time>2024-03-27T15:54:22Z</time>
      </trkpt>
      <trkpt lat="43.63107" lon="1.34386">
        <ele>164.2</ele>
        <time>2024-03-27T15:54:23Z</time>
      </trkpt>
      <trkpt lat="43.63113" lon="1.34386">
        <ele>164.4</ele>
        <time>2024-03-27T15:54:24Z</time>
      </trkpt>
      <trkpt lat="43.63119" lon="1.34386">
        <ele>164.4</ele>
        <time>2024-03-27T15:54:25Z</time>
      </trkpt>
      <trkpt lat="43.63126" lon="1.34386">
        <ele>164.4</ele>
        <time>2024-03-27T15:54:26Z</time>
      </trkpt>
      <trkpt lat="43.63132" lon="1.34387">
        <ele>164.4</ele>
        <time>2024-03-27T15:54:27Z</time>
      </trkpt>
      <trkpt lat="43.63138" lon="1.34387">
        <ele>164.6</ele>
        <time>2024-03-27T15:54:28Z</time>
      </trkpt>
      <trkpt lat="43.63145" lon="1.34388">
        <ele>164.6</ele>
        <time>2024-03-27T15:54:29Z</time>
      </trkpt>
      <trkpt lat="43.63151" lon="1.34388">
        <ele>164.8</ele>
        <time>2024-03-27T15:54:30Z</time>
      </trkpt>
      <trkpt lat="43.63157" lon="1.34388">
        <ele>164.8</ele>
        <time>2024-03-27T15:54:31Z</time>
      </trkpt>
      <trkpt lat="43.63163" lon="1.34389">
        <ele>164.8</ele>
        <time>2024-03-27T15:54:32Z</time>
      </trkpt>
      <trkpt lat="43.6317" lon="1.34389">
        <ele>165</ele>
        <time>2024-03-27T15:54:33Z</time>
      </trkpt>
      <trkpt lat="43.63176" lon="1.34389">
        <ele>165</ele>
        <time>2024-03-27T15:54:34Z</time>
      </trkpt>
      <trkpt lat="43.63183" lon="1.34389">
        <ele>165</ele>
        <time>2024-03-27T15:54:35Z</time>
      </trkpt>
      <trkpt lat="43.63189" lon="1.34389">
        <ele>165.2</ele>
        <time>2024-03-27T15:54:36Z</time>
      </trkpt>
      <trkpt lat="43.63196" lon="1.3439">
        <ele>165.2</ele>
        <time>2024-03-27T15:54:37Z</time>
      </trkpt>
      <trkpt lat="43.63202" lon="1.3439">
        <ele>165.2</ele>
        <time>2024-03-27T15:54:38Z</time>
      </trkpt>
      <trkpt lat="43.63208" lon="1.3439">
        <ele>165.2</ele>
        <time>2024-03-27T15:54:39Z</time>
      </trkpt>
      <trkpt lat="43.63215" lon="1.3439">
        <ele>165.4</ele>
        <time>2024-03-27T15:54:40Z</time>
      </trkpt>
      <trkpt lat="43.63221" lon="1.34391">
        <ele>165.4</ele>
        <time>2024-03-27T15:54:41Z</time>
      </trkpt>
      <trkpt lat="43.63228" lon="1.34391">
        <ele>165.4</ele>
        <time>2024-03-27T15:54:42Z</time>
      </trkpt>
      <trkpt lat="43.63234" lon="1.34391">
        <ele>165.4</ele>
        <time>2024-03-27T15:54:43Z</time>
      </trkpt>
      <trkpt lat="43.63241" lon="1.34391">
        <ele>165.4</ele>
        <time>2024-03-27T15:54:44Z</time>
      </trkpt>
      <trkpt lat="43.63247" lon="1.3439">
        <ele>165.4</ele>
        <time>2024-03-27T15:54:45Z</time>
      </trkpt>
      <trkpt lat="43.63253" lon="1.3439">
        <ele>165.4</ele>
        <time>2024-03-27T15:54:46Z</time>
      </trkpt>
      <trkpt lat="43.6326" lon="1.34391">
        <ele>165.6</ele>
        <time>2024-03-27T15:54:47Z</time>
      </trkpt>
      <trkpt lat="43.63266" lon="1.34391">
        <ele>165.6</ele>
        <time>2024-03-27T15:54:48Z</time>
      </trkpt>
      <trkpt lat="43.63273" lon="1.34392">
        <ele>165.6</ele>
        <time>2024-03-27T15:54:49Z</time>
      </trkpt>
      <trkpt lat="43.63279" lon="1.34393">
        <ele>165.6</ele>
        <time>2024-03-27T15:54:50Z</time>
      </trkpt>
      <trkpt lat="43.63285" lon="1.34393">
        <ele>165.8</ele>
        <time>2024-03-27T15:54:51Z</time>
      </trkpt>
      <trkpt lat="43.63292" lon="1.34394">
        <ele>165.8</ele>
        <time>2024-03-27T15:54:52Z</time>
      </trkpt>
      <trkpt lat="43.63299" lon="1.34394">
        <ele>165.8</ele>
        <time>2024-03-27T15:54:53Z</time>
      </trkpt>
      <trkpt lat="43.63306" lon="1.34395">
        <ele>165.8</ele>
        <time>2024-03-27T15:54:54Z</time>
      </trkpt>
      <trkpt lat="43.63312" lon="1.34395">
        <ele>165.8</ele>
        <time>2024-03-27T15:54:55Z</time>
      </trkpt>
      <trkpt lat="43.63318" lon="1.34396">
        <ele>165.8</ele>
        <time>2024-03-27T15:54:56Z</time>
      </trkpt>
      <trkpt lat="43.63324" lon="1.34396">
        <ele>165.8</ele>
        <time>2024-03-27T15:54:57Z</time>
      </trkpt>
      <trkpt lat="43.63331" lon="1.34397">
        <ele>165.8</ele>
        <time>2024-03-27T15:54:58Z</time>
      </trkpt>
      <trkpt lat="43.63339" lon="1.34398">
        <ele>165.8</ele>
        <time>2024-03-27T15:54:59Z</time>
      </trkpt>
      <trkpt lat="43.63344" lon="1.344">
        <ele>165.8</ele>
        <time>2024-03-27T15:55:00Z</time>
      </trkpt>
      <trkpt lat="43.63351" lon="1.34402">
        <ele>165.8</ele>
        <time>2024-03-27T15:55:01Z</time>
      </trkpt>
      <trkpt lat="43.63359" lon="1.34404">
        <ele>165.8</ele>
        <time>2024-03-27T15:55:02Z</time>
      </trkpt>
      <trkpt lat="43.63366" lon="1.34406">
        <ele>165.8</ele>
        <time>2024-03-27T15:55:03Z</time>
      </trkpt>
      <trkpt lat="43.63373" lon="1.34409">
        <ele>165.8</ele>
        <time>2024-03-27T15:55:04Z</time>
      </trkpt>
      <trkpt lat="43.63379" lon="1.34411">
        <ele>165.8</ele>
        <time>2024-03-27T15:55:05Z</time>
      </trkpt>
      <trkpt lat="43.63385" lon="1.34413">
        <ele>165.8</ele>
        <time>2024-03-27T15:55:06Z</time>
      </trkpt>
      <trkpt lat="43.63391" lon="1.34416">
        <ele>165.8</ele>
        <time>2024-03-27T15:55:07Z</time>
      </trkpt>
      <trkpt lat="43.63399" lon="1.3442">
        <ele>165.6</ele>
        <time>2024-03-27T15:55:08Z</time>
      </trkpt>
      <trkpt lat="43.63404" lon="1.34422">
        <ele>165.6</ele>
        <time>2024-03-27T15:55:09Z</time>
      </trkpt>
      <trkpt lat="43.63411" lon="1.34425">
        <ele>165.4</ele>
        <time>2024-03-27T15:55:10Z</time>
      </trkpt>
      <trkpt lat="43.63418" lon="1.34429">
        <ele>165.4</ele>
        <time>2024-03-27T15:55:11Z</time>
      </trkpt>
      <trkpt lat="43.63424" lon="1.34432">
        <ele>165.4</ele>
        <time>2024-03-27T15:55:12Z</time>
      </trkpt>
      <trkpt lat="43.63432" lon="1.34436">
        <ele>165.4</ele>
        <time>2024-03-27T15:55:13Z</time>
      </trkpt>
      <trkpt lat="43.63438" lon="1.34439">
        <ele>165.4</ele>
        <time>2024-03-27T15:55:14Z</time>
      </trkpt>
      <trkpt lat="43.63444" lon="1.34443">
        <ele>165.4</ele>
        <time>2024-03-27T15:55:15Z</time>
      </trkpt>
      <trkpt lat="43.63451" lon="1.34447">
        <ele>165.2</ele>
        <time>2024-03-27T15:55:16Z</time>
      </trkpt>
      <trkpt lat="43.63459" lon="1.34452">
        <ele>165.2</ele>
        <time>2024-03-27T15:55:17Z</time>
      </trkpt>
      <trkpt lat="43.63465" lon="1.34457">
        <ele>165.2</ele>
        <time>2024-03-27T15:55:18Z</time>
      </trkpt>
      <trkpt lat="43.63469" lon="1.34462">
        <ele>165</ele>
        <time>2024-03-27T15:55:19Z</time>
      </trkpt>
      <trkpt lat="43.63472" lon="1.34472">
        <ele>165</ele>
        <time>2024-03-27T15:55:20Z</time>
      </trkpt>
      <trkpt lat="43.63474" lon="1.34484">
        <ele>164.8</ele>
        <time>2024-03-27T15:55:21Z</time>
      </trkpt>
      <trkpt lat="43.63474" lon="1.34493">
        <ele>164.6</ele>
        <time>2024-03-27T15:55:22Z</time>
      </trkpt>
      <trkpt lat="43.63472" lon="1.34501">
        <ele>164.4</ele>
        <time>2024-03-27T15:55:23Z</time>
      </trkpt>
      <trkpt lat="43.63471" lon="1.34511">
        <ele>164.2</ele>
        <time>2024-03-27T15:55:24Z</time>
      </trkpt>
      <trkpt lat="43.63468" lon="1.3452">
        <ele>164</ele>
        <time>2024-03-27T15:55:25Z</time>
      </trkpt>
      <trkpt lat="43.63464" lon="1.3453">
        <ele>163.8</ele>
        <time>2024-03-27T15:55:26Z</time>
      </trkpt>
      <trkpt lat="43.63462" lon="1.34536">
        <ele>163.6</ele>
        <time>2024-03-27T15:55:27Z</time>
      </trkpt>
      <trkpt lat="43.63458" lon="1.34543">
        <ele>163.2</ele>
        <time>2024-03-27T15:55:28Z</time>
      </trkpt>
      <trkpt lat="43.63453" lon="1.34551">
        <ele>163.2</ele>
        <time>2024-03-27T15:55:29Z</time>
      </trkpt>
      <trkpt lat="43.63449" lon="1.34561">
        <ele>163</ele>
        <time>2024-03-27T15:55:30Z</time>
      </trkpt>
      <trkpt lat="43.63446" lon="1.34569">
        <ele>162.8</ele>
        <time>2024-03-27T15:55:31Z</time>
      </trkpt>
      <trkpt lat="43.63446" lon="1.34577">
        <ele>162.8</ele>
        <time>2024-03-27T15:55:32Z</time>
      </trkpt>
      <trkpt lat="43.63446" lon="1.34586">
        <ele>162.6</ele>
        <time>2024-03-27T15:55:33Z</time>
      </trkpt>
      <trkpt lat="43.63446" lon="1.34595">
        <ele>162.6</ele>
        <time>2024-03-27T15:55:34Z</time>
      </trkpt>
      <trkpt lat="43.6345" lon="1.34604">
        <ele>162.6</ele>
        <time>2024-03-27T15:55:35Z</time>
      </trkpt>
      <trkpt lat="43.63455" lon="1.34613">
        <ele>162.6</ele>
        <time>2024-03-27T15:55:36Z</time>
      </trkpt>
      <trkpt lat="43.63459" lon="1.34619">
        <ele>162.4</ele>
        <time>2024-03-27T15:55:37Z</time>
      </trkpt>
      <trkpt lat="43.63465" lon="1.34623">
        <ele>162.4</ele>
        <time>2024-03-27T15:55:38Z</time>
      </trkpt>
      <trkpt lat="43.63474" lon="1.34625">
        <ele>162.2</ele>
        <time>2024-03-27T15:55:39Z</time>
      </trkpt>
      <trkpt lat="43.63481" lon="1.34625">
        <ele>162.2</ele>
        <time>2024-03-27T15:55:40Z</time>
      </trkpt>
      <trkpt lat="43.63488" lon="1.34625">
        <ele>162.2</ele>
        <time>2024-03-27T15:55:41Z</time>
      </trkpt>
      <trkpt lat="43.63494" lon="1.34625">
        <ele>162.2</ele>
        <time>2024-03-27T15:55:42Z</time>
      </trkpt>
      <trkpt lat="43.63501" lon="1.34624">
        <ele>162.2</ele>
        <time>2024-03-27T15:55:43Z</time>
      </trkpt>
      <trkpt lat="43.63508" lon="1.34624">
        <ele>162</ele>
        <time>2024-03-27T15:55:44Z</time>
      </trkpt>
      <trkpt lat="43.63517" lon="1.34624">
        <ele>162</ele>
        <time>2024-03-27T15:55:45Z</time>
      </trkpt>
      <trkpt lat="43.63523" lon="1.34624">
        <ele>162</ele>
        <time>2024-03-27T15:55:46Z</time>
      </trkpt>
      <trkpt lat="43.6353" lon="1.34623">
        <ele>162</ele>
        <time>2024-03-27T15:55:47Z</time>
      </trkpt>
      <trkpt lat="43.63538" lon="1.34623">
        <ele>161.8</ele>
        <time>2024-03-27T15:55:48Z</time>
      </trkpt>
      <trkpt lat="43.63547" lon="1.34622">
        <ele>161.8</ele>
        <time>2024-03-27T15:55:49Z</time>
      </trkpt>
      <trkpt lat="43.63552" lon="1.34622">
        <ele>161.8</ele>
        <time>2024-03-27T15:55:50Z</time>
      </trkpt>
      <trkpt lat="43.6356" lon="1.34622">
        <ele>161.6</ele>
        <time>2024-03-27T15:55:51Z</time>
      </trkpt>
      <trkpt lat="43.63569" lon="1.34621">
        <ele>161.6</ele>
        <time>2024-03-27T15:55:52Z</time>
      </trkpt>
      <trkpt lat="43.63576" lon="1.34621">
        <ele>161.6</ele>
        <time>2024-03-27T15:55:53Z</time>
      </trkpt>
      <trkpt lat="43.63582" lon="1.34621">
        <ele>161.6</ele>
        <time>2024-03-27T15:55:54Z</time>
      </trkpt>
      <trkpt lat="43.63589" lon="1.3462">
        <ele>161.6</ele>
        <time>2024-03-27T15:55:55Z</time>
      </trkpt>
      <trkpt lat="43.63597" lon="1.34621">
        <ele>161.6</ele>
        <time>2024-03-27T15:55:56Z</time>
      </trkpt>
      <trkpt lat="43.63604" lon="1.34621">
        <ele>161.6</ele>
        <time>2024-03-27T15:55:57Z</time>
      </trkpt>
      <trkpt lat="43.63612" lon="1.34621">
        <ele>161.4</ele>
        <time>2024-03-27T15:55:58Z</time>
      </trkpt>
      <trkpt lat="43.6362" lon="1.34621">
        <ele>161.4</ele>
        <time>2024-03-27T15:55:59Z</time>
      </trkpt>
      <trkpt lat="43.63628" lon="1.34621">
        <ele>161.4</ele>
        <time>2024-03-27T15:56:00Z</time>
      </trkpt>
      <trkpt lat="43.63636" lon="1.34621">
        <ele>161.4</ele>
        <time>2024-03-27T15:56:01Z</time>
      </trkpt>
      <trkpt lat="43.63645" lon="1.34621">
        <ele>161.4</ele>
        <time>2024-03-27T15:56:02Z</time>
      </trkpt>
      <trkpt lat="43.63653" lon="1.34622">
        <ele>161.4</ele>
        <time>2024-03-27T15:56:03Z</time>
      </trkpt>
      <trkpt lat="43.63661" lon="1.34622">
        <ele>161.4</ele>
        <time>2024-03-27T15:56:04Z</time>
      </trkpt>
      <trkpt lat="43.63667" lon="1.34622">
        <ele>161.4</ele>
        <time>2024-03-27T15:56:05Z</time>
      </trkpt>
      <trkpt lat="43.63674" lon="1.34622">
        <ele>161.2</ele>
        <time>2024-03-27T15:56:06Z</time>
      </trkpt>
      <trkpt lat="43.63683" lon="1.34623">
        <ele>161.2</ele>
        <time>2024-03-27T15:56:07Z</time>
      </trkpt>
      <trkpt lat="43.63691" lon="1.34623">
        <ele>161.2</ele>
        <time>2024-03-27T15:56:08Z</time>
      </trkpt>
      <trkpt lat="43.63697" lon="1.34624">
        <ele>161</ele>
        <time>2024-03-27T15:56:09Z</time>
      </trkpt>
      <trkpt lat="43.63705" lon="1.34624">
        <ele>161</ele>
        <time>2024-03-27T15:56:10Z</time>
      </trkpt>
      <trkpt lat="43.63714" lon="1.34624">
        <ele>161</ele>
        <time>2024-03-27T15:56:11Z</time>
      </trkpt>
      <trkpt lat="43.63721" lon="1.34625">
        <ele>160.8</ele>
        <time>2024-03-27T15:56:12Z</time>
      </trkpt>
      <trkpt lat="43.63729" lon="1.34625">
        <ele>160.8</ele>
        <time>2024-03-27T15:56:13Z</time>
      </trkpt>
      <trkpt lat="43.63735" lon="1.34625">
        <ele>160.8</ele>
        <time>2024-03-27T15:56:14Z</time>
      </trkpt>
      <trkpt lat="43.63742" lon="1.34626">
        <ele>160.8</ele>
        <time>2024-03-27T15:56:15Z</time>
      </trkpt>
      <trkpt lat="43.63751" lon="1.34626">
        <ele>160.8</ele>
        <time>2024-03-27T15:56:16Z</time>
      </trkpt>
      <trkpt lat="43.63759" lon="1.34625">
        <ele>160.8</ele>
        <time>2024-03-27T15:56:17Z</time>
      </trkpt>
      <trkpt lat="43.63765" lon="1.34625">
        <ele>160.8</ele>
        <time>2024-03-27T15:56:18Z</time>
      </trkpt>
      <trkpt lat="43.63773" lon="1.34624">
        <ele>160.8</ele>
        <time>2024-03-27T15:56:19Z</time>
      </trkpt>
      <trkpt lat="43.63782" lon="1.34623">
        <ele>160.8</ele>
        <time>2024-03-27T15:56:20Z</time>
      </trkpt>
      <trkpt lat="43.63789" lon="1.34622">
        <ele>160.8</ele>
        <time>2024-03-27T15:56:21Z</time>
      </trkpt>
      <trkpt lat="43.63797" lon="1.34621">
        <ele>160.8</ele>
        <time>2024-03-27T15:56:22Z</time>
      </trkpt>
      <trkpt lat="43.63803" lon="1.34619">
        <ele>160.8</ele>
        <time>2024-03-27T15:56:23Z</time>
      </trkpt>
      <trkpt lat="43.6381" lon="1.34617">
        <ele>160.8</ele>
        <time>2024-03-27T15:56:24Z</time>
      </trkpt>
      <trkpt lat="43.63817" lon="1.34615">
        <ele>160.8</ele>
        <time>2024-03-27T15:56:25Z</time>
      </trkpt>
      <trkpt lat="43.63826" lon="1.34612">
        <ele>160.8</ele>
        <time>2024-03-27T15:56:26Z</time>
      </trkpt>
      <trkpt lat="43.63832" lon="1.3461">
        <ele>160.8</ele>
        <time>2024-03-27T15:56:27Z</time>
      </trkpt>
      <trkpt lat="43.63839" lon="1.34607">
        <ele>160.8</ele>
        <time>2024-03-27T15:56:28Z</time>
      </trkpt>
      <trkpt lat="43.63847" lon="1.34603">
        <ele>160.8</ele>
        <time>2024-03-27T15:56:29Z</time>
      </trkpt>
      <trkpt lat="43.63854" lon="1.346">
        <ele>160.8</ele>
        <time>2024-03-27T15:56:30Z</time>
      </trkpt>
      <trkpt lat="43.63861" lon="1.34597">
        <ele>160.8</ele>
        <time>2024-03-27T15:56:31Z</time>
      </trkpt>
      <trkpt lat="43.63867" lon="1.34594">
        <ele>161</ele>
        <time>2024-03-27T15:56:32Z</time>
      </trkpt>
      <trkpt lat="43.63874" lon="1.34591">
        <ele>161</ele>
        <time>2024-03-27T15:56:33Z</time>
      </trkpt>
      <trkpt lat="43.6388" lon="1.34587">
        <ele>161</ele>
        <time>2024-03-27T15:56:34Z</time>
      </trkpt>
      <trkpt lat="43.63888" lon="1.34582">
        <ele>161.2</ele>
        <time>2024-03-27T15:56:35Z</time>
      </trkpt>
      <trkpt lat="43.63894" lon="1.34579">
        <ele>161.2</ele>
        <time>2024-03-27T15:56:36Z</time>
      </trkpt>
      <trkpt lat="43.639" lon="1.34574">
        <ele>161.4</ele>
        <time>2024-03-27T15:56:37Z</time>
      </trkpt>
      <trkpt lat="43.63907" lon="1.34569">
        <ele>161.4</ele>
        <time>2024-03-27T15:56:38Z</time>
      </trkpt>
      <trkpt lat="43.63912" lon="1.34565">
        <ele>161.6</ele>
        <time>2024-03-27T15:56:39Z</time>
      </trkpt>
      <trkpt lat="43.63919" lon="1.3456">
        <ele>161.6</ele>
        <time>2024-03-27T15:56:40Z</time>
      </trkpt>
      <trkpt lat="43.63924" lon="1.34556">
        <ele>161.6</ele>
        <time>2024-03-27T15:56:41Z</time>
      </trkpt>
      <trkpt lat="43.6393" lon="1.3455">
        <ele>161.8</ele>
        <time>2024-03-27T15:56:42Z</time>
      </trkpt>
      <trkpt lat="43.63936" lon="1.34545">
        <ele>161.8</ele>
        <time>2024-03-27T15:56:43Z</time>
      </trkpt>
      <trkpt lat="43.63942" lon="1.3454">
        <ele>161.8</ele>
        <time>2024-03-27T15:56:44Z</time>
      </trkpt>
      <trkpt lat="43.63947" lon="1.34534">
        <ele>161.8</ele>
        <time>2024-03-27T15:56:45Z</time>
      </trkpt>
      <trkpt lat="43.63953" lon="1.34528">
        <ele>162</ele>
        <time>2024-03-27T15:56:46Z</time>
      </trkpt>
      <trkpt lat="43.63958" lon="1.34523">
        <ele>162.2</ele>
        <time>2024-03-27T15:56:47Z</time>
      </trkpt>
      <trkpt lat="43.63964" lon="1.34517">
        <ele>162.2</ele>
        <time>2024-03-27T15:56:48Z</time>
      </trkpt>
      <trkpt lat="43.6397" lon="1.34511">
        <ele>162.2</ele>
        <time>2024-03-27T15:56:49Z</time>
      </trkpt>
      <trkpt lat="43.63975" lon="1.34505">
        <ele>162.4</ele>
        <time>2024-03-27T15:56:50Z</time>
      </trkpt>
      <trkpt lat="43.63981" lon="1.34498">
        <ele>162.4</ele>
        <time>2024-03-27T15:56:51Z</time>
      </trkpt>
      <trkpt lat="43.63986" lon="1.34492">
        <ele>162.4</ele>
        <time>2024-03-27T15:56:52Z</time>
      </trkpt>
      <trkpt lat="43.63992" lon="1.34485">
        <ele>162.6</ele>
        <time>2024-03-27T15:56:53Z</time>
      </trkpt>
      <trkpt lat="43.63997" lon="1.34479">
        <ele>162.6</ele>
        <time>2024-03-27T15:56:54Z</time>
      </trkpt>
      <trkpt lat="43.64003" lon="1.34472">
        <ele>162.8</ele>
        <time>2024-03-27T15:56:55Z</time>
      </trkpt>
      <trkpt lat="43.64008" lon="1.34466">
        <ele>162.8</ele>
        <time>2024-03-27T15:56:56Z</time>
      </trkpt>
      <trkpt lat="43.64014" lon="1.34459">
        <ele>162.8</ele>
        <time>2024-03-27T15:56:57Z</time>
      </trkpt>
      <trkpt lat="43.64019" lon="1.34453">
        <ele>163.2</ele>
        <time>2024-03-27T15:56:58Z</time>
      </trkpt>
      <trkpt lat="43.64025" lon="1.34446">
        <ele>163.2</ele>
        <time>2024-03-27T15:56:59Z</time>
      </trkpt>
      <trkpt lat="43.6403" lon="1.3444">
        <ele>163.2</ele>
        <time>2024-03-27T15:57:00Z</time>
      </trkpt>
      <trkpt lat="43.64036" lon="1.34433">
        <ele>163.4</ele>
        <time>2024-03-27T15:57:01Z</time>
      </trkpt>
      <trkpt lat="43.64042" lon="1.34426">
        <ele>163.4</ele>
        <time>2024-03-27T15:57:02Z</time>
      </trkpt>
      <trkpt lat="43.64047" lon="1.3442">
        <ele>163.4</ele>
        <time>2024-03-27T15:57:03Z</time>
      </trkpt>
      <trkpt lat="43.64052" lon="1.34413">
        <ele>163.4</ele>
        <time>2024-03-27T15:57:04Z</time>
      </trkpt>
      <trkpt lat="43.64056" lon="1.34407">
        <ele>163.6</ele>
        <time>2024-03-27T15:57:05Z</time>
      </trkpt>
      <trkpt lat="43.64056" lon="1.34407">
        <ele>163.6</ele>
        <time>2024-03-27T15:57:06Z</time>
      </trkpt>
      <trkpt lat="43.64068" lon="1.34393">
        <ele>163.6</ele>
        <time>2024-03-27T15:57:07Z</time>
      </trkpt>
      <trkpt lat="43.64074" lon="1.34386">
        <ele>163.6</ele>
        <time>2024-03-27T15:57:08Z</time>
      </trkpt>
      <trkpt lat="43.6408" lon="1.3438">
        <ele>163.6</ele>
        <time>2024-03-27T15:57:09Z</time>
      </trkpt>
      <trkpt lat="43.64084" lon="1.34375">
        <ele>163.8</ele>
        <time>2024-03-27T15:57:10Z</time>
      </trkpt>
      <trkpt lat="43.64091" lon="1.34368">
        <ele>163.8</ele>
        <time>2024-03-27T15:57:11Z</time>
      </trkpt>
      <trkpt lat="43.64096" lon="1.34362">
        <ele>164</ele>
        <time>2024-03-27T15:57:12Z</time>
      </trkpt>
      <trkpt lat="43.641" lon="1.34357">
        <ele>164</ele>
        <time>2024-03-27T15:57:13Z</time>
      </trkpt>
      <trkpt lat="43.64107" lon="1.34349">
        <ele>164</ele>
        <time>2024-03-27T15:57:14Z</time>
      </trkpt>
      <trkpt lat="43.64113" lon="1.34343">
        <ele>164</ele>
        <time>2024-03-27T15:57:15Z</time>
      </trkpt>
      <trkpt lat="43.64118" lon="1.34336">
        <ele>164.2</ele>
        <time>2024-03-27T15:57:16Z</time>
      </trkpt>
      <trkpt lat="43.64124" lon="1.3433">
        <ele>164.2</ele>
        <time>2024-03-27T15:57:17Z</time>
      </trkpt>
      <trkpt lat="43.6413" lon="1.34324">
        <ele>164.2</ele>
        <time>2024-03-27T15:57:18Z</time>
      </trkpt>
      <trkpt lat="43.64135" lon="1.34317">
        <ele>164.4</ele>
        <time>2024-03-27T15:57:19Z</time>
      </trkpt>
      <trkpt lat="43.64141" lon="1.34311">
        <ele>164.4</ele>
        <time>2024-03-27T15:57:20Z</time>
      </trkpt>
      <trkpt lat="43.64146" lon="1.34305">
        <ele>164.4</ele>
        <time>2024-03-27T15:57:21Z</time>
      </trkpt>
      <trkpt lat="43.64152" lon="1.34298">
        <ele>164.4</ele>
        <time>2024-03-27T15:57:22Z</time>
      </trkpt>
      <trkpt lat="43.64157" lon="1.34292">
        <ele>164.6</ele>
        <time>2024-03-27T15:57:23Z</time>
      </trkpt>
      <trkpt lat="43.64162" lon="1.34285">
        <ele>164.6</ele>
        <time>2024-03-27T15:57:24Z</time>
      </trkpt>
      <trkpt lat="43.64168" lon="1.34279">
        <ele>164.6</ele>
        <time>2024-03-27T15:57:25Z</time>
      </trkpt>
      <trkpt lat="43.64173" lon="1.34273">
        <ele>164.6</ele>
        <time>2024-03-27T15:57:26Z</time>
      </trkpt>
      <trkpt lat="43.6418" lon="1.34265">
        <ele>164.6</ele>
        <time>2024-03-27T15:57:27Z</time>
      </trkpt>
      <trkpt lat="43.64184" lon="1.3426">
        <ele>164.8</ele>
        <time>2024-03-27T15:57:28Z</time>
      </trkpt>
      <trkpt lat="43.6419" lon="1.34253">
        <ele>164.8</ele>
        <time>2024-03-27T15:57:29Z</time>
      </trkpt>
      <trkpt lat="43.64195" lon="1.34247">
        <ele>165</ele>
        <time>2024-03-27T15:57:30Z</time>
      </trkpt>
      <trkpt lat="43.642" lon="1.34241">
        <ele>165</ele>
        <time>2024-03-27T15:57:31Z</time>
      </trkpt>
      <trkpt lat="43.64205" lon="1.34234">
        <ele>165</ele>
        <time>2024-03-27T15:57:32Z</time>
      </trkpt>
      <trkpt lat="43.64211" lon="1.34228">
        <ele>165.2</ele>
        <time>2024-03-27T15:57:33Z</time>
      </trkpt>
      <trkpt lat="43.64216" lon="1.34221">
        <ele>165.2</ele>
        <time>2024-03-27T15:57:34Z</time>
      </trkpt>
      <trkpt lat="43.6422" lon="1.34214">
        <ele>165.2</ele>
        <time>2024-03-27T15:57:35Z</time>
      </trkpt>
      <trkpt lat="43.64225" lon="1.34207">
        <ele>165.2</ele>
        <time>2024-03-27T15:57:36Z</time>
      </trkpt>
      <trkpt lat="43.64232" lon="1.34196">
        <ele>165.2</ele>
        <time>2024-03-27T15:57:37Z</time>
      </trkpt>
      <trkpt lat="43.64234" lon="1.34191">
        <ele>165.4</ele>
        <time>2024-03-27T15:57:38Z</time>
      </trkpt>
      <trkpt lat="43.64239" lon="1.34182">
        <ele>165.4</ele>
        <time>2024-03-27T15:57:39Z</time>
      </trkpt>
      <trkpt lat="43.64243" lon="1.34174">
        <ele>165.4</ele>
        <time>2024-03-27T15:57:40Z</time>
      </trkpt>
      <trkpt lat="43.64247" lon="1.34165">
        <ele>165.4</ele>
        <time>2024-03-27T15:57:41Z</time>
      </trkpt>
      <trkpt lat="43.64251" lon="1.34157">
        <ele>165.4</ele>
        <time>2024-03-27T15:57:42Z</time>
      </trkpt>
      <trkpt lat="43.64255" lon="1.34148">
        <ele>165.4</ele>
        <time>2024-03-27T15:57:43Z</time>
      </trkpt>
      <trkpt lat="43.64259" lon="1.3414">
        <ele>165.4</ele>
        <time>2024-03-27T15:57:44Z</time>
      </trkpt>
      <trkpt lat="43.64263" lon="1.34131">
        <ele>165.2</ele>
        <time>2024-03-27T15:57:45Z</time>
      </trkpt>
      <trkpt lat="43.64267" lon="1.34123">
        <ele>165.2</ele>
        <time>2024-03-27T15:57:46Z</time>
      </trkpt>
      <trkpt lat="43.64271" lon="1.34114">
        <ele>165.2</ele>
        <time>2024-03-27T15:57:47Z</time>
      </trkpt>
      <trkpt lat="43.64276" lon="1.34106">
        <ele>165.2</ele>
        <time>2024-03-27T15:57:48Z</time>
      </trkpt>
      <trkpt lat="43.6428" lon="1.34097">
        <ele>165.2</ele>
        <time>2024-03-27T15:57:49Z</time>
      </trkpt>
      <trkpt lat="43.64284" lon="1.34089">
        <ele>165.2</ele>
        <time>2024-03-27T15:57:50Z</time>
      </trkpt>
      <trkpt lat="43.64288" lon="1.34081">
        <ele>165.2</ele>
        <time>2024-03-27T15:57:51Z</time>
      </trkpt>
      <trkpt lat="43.64292" lon="1.34072">
        <ele>165.2</ele>
        <time>2024-03-27T15:57:52Z</time>
      </trkpt>
      <trkpt lat="43.64297" lon="1.34064">
        <ele>165.2</ele>
        <time>2024-03-27T15:57:53Z</time>
      </trkpt>
      <trkpt lat="43.64301" lon="1.34055">
        <ele>165.2</ele>
        <time>2024-03-27T15:57:54Z</time>
      </trkpt>
      <trkpt lat="43.64305" lon="1.34047">
        <ele>165.2</ele>
        <time>2024-03-27T15:57:55Z</time>
      </trkpt>
      <trkpt lat="43.64309" lon="1.34039">
        <ele>165.2</ele>
        <time>2024-03-27T15:57:56Z</time>
      </trkpt>
      <trkpt lat="43.64313" lon="1.34031">
        <ele>165.2</ele>
        <time>2024-03-27T15:57:57Z</time>
      </trkpt>
      <trkpt lat="43.64317" lon="1.34023">
        <ele>165.2</ele>
        <time>2024-03-27T15:57:58Z</time>
      </trkpt>
      <trkpt lat="43.64321" lon="1.34015">
        <ele>165.2</ele>
        <time>2024-03-27T15:57:59Z</time>
      </trkpt>
      <trkpt lat="43.64325" lon="1.34007">
        <ele>165.2</ele>
        <time>2024-03-27T15:58:00Z</time>
      </trkpt>
      <trkpt lat="43.64328" lon="1.34">
        <ele>165.2</ele>
        <time>2024-03-27T15:58:01Z</time>
      </trkpt>
      <trkpt lat="43.64331" lon="1.33993">
        <ele>165.2</ele>
        <time>2024-03-27T15:58:02Z</time>
      </trkpt>
      <trkpt lat="43.64335" lon="1.33985">
        <ele>165.2</ele>
        <time>2024-03-27T15:58:03Z</time>
      </trkpt>
      <trkpt lat="43.64338" lon="1.33977">
        <ele>165.2</ele>
        <time>2024-03-27T15:58:04Z</time>
      </trkpt>
      <trkpt lat="43.64342" lon="1.33969">
        <ele>165.2</ele>
        <time>2024-03-27T15:58:05Z</time>
      </trkpt>
      <trkpt lat="43.64346" lon="1.33961">
        <ele>165.4</ele>
        <time>2024-03-27T15:58:06Z</time>
      </trkpt>
      <trkpt lat="43.6435" lon="1.33953">
        <ele>165.4</ele>
        <time>2024-03-27T15:58:07Z</time>
      </trkpt>
      <trkpt lat="43.64354" lon="1.33945">
        <ele>165.4</ele>
        <time>2024-03-27T15:58:08Z</time>
      </trkpt>
      <trkpt lat="43.64359" lon="1.33938">
        <ele>165.4</ele>
        <time>2024-03-27T15:58:09Z</time>
      </trkpt>
      <trkpt lat="43.64363" lon="1.3393">
        <ele>165.4</ele>
        <time>2024-03-27T15:58:10Z</time>
      </trkpt>
      <trkpt lat="43.64367" lon="1.33923">
        <ele>165.4</ele>
        <time>2024-03-27T15:58:11Z</time>
      </trkpt>
      <trkpt lat="43.64371" lon="1.33915">
        <ele>165.4</ele>
        <time>2024-03-27T15:58:12Z</time>
      </trkpt>
      <trkpt lat="43.64375" lon="1.33907">
        <ele>165.4</ele>
        <time>2024-03-27T15:58:13Z</time>
      </trkpt>
      <trkpt lat="43.64379" lon="1.339">
        <ele>165.4</ele>
        <time>2024-03-27T15:58:14Z</time>
      </trkpt>
      <trkpt lat="43.64384" lon="1.33893">
        <ele>165.6</ele>
        <time>2024-03-27T15:58:15Z</time>
      </trkpt>
      <trkpt lat="43.64388" lon="1.33885">
        <ele>165.6</ele>
        <time>2024-03-27T15:58:16Z</time>
      </trkpt>
      <trkpt lat="43.64392" lon="1.33878">
        <ele>165.8</ele>
        <time>2024-03-27T15:58:17Z</time>
      </trkpt>
      <trkpt lat="43.64396" lon="1.3387">
        <ele>165.8</ele>
        <time>2024-03-27T15:58:18Z</time>
      </trkpt>
      <trkpt lat="43.644" lon="1.33863">
        <ele>165.8</ele>
        <time>2024-03-27T15:58:19Z</time>
      </trkpt>
      <trkpt lat="43.64404" lon="1.33855">
        <ele>165.8</ele>
        <time>2024-03-27T15:58:20Z</time>
      </trkpt>
      <trkpt lat="43.64408" lon="1.33846">
        <ele>165.8</ele>
        <time>2024-03-27T15:58:21Z</time>
      </trkpt>
      <trkpt lat="43.64412" lon="1.33838">
        <ele>165.8</ele>
        <time>2024-03-27T15:58:22Z</time>
      </trkpt>
      <trkpt lat="43.64415" lon="1.33829">
        <ele>166</ele>
        <time>2024-03-27T15:58:23Z</time>
      </trkpt>
      <trkpt lat="43.64419" lon="1.33821">
        <ele>166</ele>
        <time>2024-03-27T15:58:24Z</time>
      </trkpt>
      <trkpt lat="43.64423" lon="1.33814">
        <ele>166</ele>
        <time>2024-03-27T15:58:25Z</time>
      </trkpt>
      <trkpt lat="43.64427" lon="1.33807">
        <ele>166</ele>
        <time>2024-03-27T15:58:26Z</time>
      </trkpt>
      <trkpt lat="43.64432" lon="1.338">
        <ele>166.2</ele>
        <time>2024-03-27T15:58:27Z</time>
      </trkpt>
      <trkpt lat="43.64438" lon="1.33793">
        <ele>166.2</ele>
        <time>2024-03-27T15:58:28Z</time>
      </trkpt>
      <trkpt lat="43.64443" lon="1.33787">
        <ele>166.2</ele>
        <time>2024-03-27T15:58:29Z</time>
      </trkpt>
      <trkpt lat="43.64449" lon="1.33781">
        <ele>166.2</ele>
        <time>2024-03-27T15:58:30Z</time>
      </trkpt>
      <trkpt lat="43.64455" lon="1.33775">
        <ele>166.2</ele>
        <time>2024-03-27T15:58:31Z</time>
      </trkpt>
      <trkpt lat="43.64461" lon="1.3377">
        <ele>166.2</ele>
        <time>2024-03-27T15:58:32Z</time>
      </trkpt>
      <trkpt lat="43.64467" lon="1.33766">
        <ele>166.2</ele>
        <time>2024-03-27T15:58:33Z</time>
      </trkpt>
      <trkpt lat="43.64474" lon="1.33762">
        <ele>166.2</ele>
        <time>2024-03-27T15:58:34Z</time>
      </trkpt>
      <trkpt lat="43.64481" lon="1.33758">
        <ele>166.2</ele>
        <time>2024-03-27T15:58:35Z</time>
      </trkpt>
      <trkpt lat="43.64488" lon="1.33754">
        <ele>166.2</ele>
        <time>2024-03-27T15:58:36Z</time>
      </trkpt>
      <trkpt lat="43.64494" lon="1.33749">
        <ele>166</ele>
        <time>2024-03-27T15:58:37Z</time>
      </trkpt>
      <trkpt lat="43.64501" lon="1.33745">
        <ele>166</ele>
        <time>2024-03-27T15:58:38Z</time>
      </trkpt>
      <trkpt lat="43.64508" lon="1.33741">
        <ele>165.6</ele>
        <time>2024-03-27T15:58:39Z</time>
      </trkpt>
      <trkpt lat="43.64514" lon="1.33737">
        <ele>165.6</ele>
        <time>2024-03-27T15:58:40Z</time>
      </trkpt>
      <trkpt lat="43.64521" lon="1.33732">
        <ele>165.8</ele>
        <time>2024-03-27T15:58:41Z</time>
      </trkpt>
      <trkpt lat="43.64527" lon="1.33728">
        <ele>165.8</ele>
        <time>2024-03-27T15:58:42Z</time>
      </trkpt>
      <trkpt lat="43.64534" lon="1.33724">
        <ele>165.4</ele>
        <time>2024-03-27T15:58:43Z</time>
      </trkpt>
      <trkpt lat="43.6454" lon="1.3372">
        <ele>165.4</ele>
        <time>2024-03-27T15:58:44Z</time>
      </trkpt>
      <trkpt lat="43.64547" lon="1.33716">
        <ele>165.4</ele>
        <time>2024-03-27T15:58:45Z</time>
      </trkpt>
      <trkpt lat="43.64553" lon="1.33712">
        <ele>165.2</ele>
        <time>2024-03-27T15:58:46Z</time>
      </trkpt>
      <trkpt lat="43.6456" lon="1.33708">
        <ele>165.2</ele>
        <time>2024-03-27T15:58:47Z</time>
      </trkpt>
      <trkpt lat="43.64566" lon="1.33704">
        <ele>165</ele>
        <time>2024-03-27T15:58:48Z</time>
      </trkpt>
      <trkpt lat="43.64573" lon="1.337">
        <ele>165</ele>
        <time>2024-03-27T15:58:49Z</time>
      </trkpt>
      <trkpt lat="43.64579" lon="1.33697">
        <ele>165</ele>
        <time>2024-03-27T15:58:50Z</time>
      </trkpt>
      <trkpt lat="43.64586" lon="1.33693">
        <ele>164.6</ele>
        <time>2024-03-27T15:58:51Z</time>
      </trkpt>
      <trkpt lat="43.64592" lon="1.33689">
        <ele>164.8</ele>
        <time>2024-03-27T15:58:52Z</time>
      </trkpt>
      <trkpt lat="43.64599" lon="1.33687">
        <ele>164.8</ele>
        <time>2024-03-27T15:58:53Z</time>
      </trkpt>
      <trkpt lat="43.64606" lon="1.33685">
        <ele>164.8</ele>
        <time>2024-03-27T15:58:54Z</time>
      </trkpt>
      <trkpt lat="43.64612" lon="1.33682">
        <ele>164.6</ele>
        <time>2024-03-27T15:58:55Z</time>
      </trkpt>
      <trkpt lat="43.64619" lon="1.33679">
        <ele>164.4</ele>
        <time>2024-03-27T15:58:56Z</time>
      </trkpt>
      <trkpt lat="43.64625" lon="1.33674">
        <ele>164.4</ele>
        <time>2024-03-27T15:58:57Z</time>
      </trkpt>
      <trkpt lat="43.6463" lon="1.3367">
        <ele>164.4</ele>
        <time>2024-03-27T15:58:58Z</time>
      </trkpt>
      <trkpt lat="43.64636" lon="1.33665">
        <ele>164.2</ele>
        <time>2024-03-27T15:58:59Z</time>
      </trkpt>
      <trkpt lat="43.64641" lon="1.3366">
        <ele>164.2</ele>
        <time>2024-03-27T15:59:00Z</time>
      </trkpt>
      <trkpt lat="43.64647" lon="1.33656">
        <ele>164.2</ele>
        <time>2024-03-27T15:59:01Z</time>
      </trkpt>
      <trkpt lat="43.64653" lon="1.33652">
        <ele>164.2</ele>
        <time>2024-03-27T15:59:02Z</time>
      </trkpt>
      <trkpt lat="43.64659" lon="1.33649">
        <ele>164</ele>
        <time>2024-03-27T15:59:03Z</time>
      </trkpt>
      <trkpt lat="43.64665" lon="1.33647">
        <ele>164</ele>
        <time>2024-03-27T15:59:04Z</time>
      </trkpt>
      <trkpt lat="43.64672" lon="1.33645">
        <ele>164</ele>
        <time>2024-03-27T15:59:05Z</time>
      </trkpt>
      <trkpt lat="43.64679" lon="1.33646">
        <ele>163.8</ele>
        <time>2024-03-27T15:59:06Z</time>
      </trkpt>
      <trkpt lat="43.64686" lon="1.33645">
        <ele>163.8</ele>
        <time>2024-03-27T15:59:07Z</time>
      </trkpt>
      <trkpt lat="43.64693" lon="1.33644">
        <ele>163.8</ele>
        <time>2024-03-27T15:59:08Z</time>
      </trkpt>
      <trkpt lat="43.64699" lon="1.33644">
        <ele>163.8</ele>
        <time>2024-03-27T15:59:09Z</time>
      </trkpt>
      <trkpt lat="43.64706" lon="1.33648">
        <ele>163.6</ele>
        <time>2024-03-27T15:59:10Z</time>
      </trkpt>
      <trkpt lat="43.64712" lon="1.33653">
        <ele>163.4</ele>
        <time>2024-03-27T15:59:11Z</time>
      </trkpt>
      <trkpt lat="43.64719" lon="1.33658">
        <ele>163.4</ele>
        <time>2024-03-27T15:59:12Z</time>
      </trkpt>
      <trkpt lat="43.64725" lon="1.33664">
        <ele>163.2</ele>
        <time>2024-03-27T15:59:13Z</time>
      </trkpt>
      <trkpt lat="43.64732" lon="1.33669">
        <ele>163.2</ele>
        <time>2024-03-27T15:59:14Z</time>
      </trkpt>
      <trkpt lat="43.64739" lon="1.33675">
        <ele>163.2</ele>
        <time>2024-03-27T15:59:15Z</time>
      </trkpt>
      <trkpt lat="43.64746" lon="1.33681">
        <ele>163</ele>
        <time>2024-03-27T15:59:16Z</time>
      </trkpt>
      <trkpt lat="43.64753" lon="1.33687">
        <ele>162.6</ele>
        <time>2024-03-27T15:59:17Z</time>
      </trkpt>
      <trkpt lat="43.64761" lon="1.33693">
        <ele>162.4</ele>
        <time>2024-03-27T15:59:18Z</time>
      </trkpt>
      <trkpt lat="43.64768" lon="1.33699">
        <ele>162.2</ele>
        <time>2024-03-27T15:59:19Z</time>
      </trkpt>
      <trkpt lat="43.64776" lon="1.33706">
        <ele>162</ele>
        <time>2024-03-27T15:59:20Z</time>
      </trkpt>
      <trkpt lat="43.64783" lon="1.33712">
        <ele>162</ele>
        <time>2024-03-27T15:59:21Z</time>
      </trkpt>
      <trkpt lat="43.6479" lon="1.33718">
        <ele>161.8</ele>
        <time>2024-03-27T15:59:22Z</time>
      </trkpt>
      <trkpt lat="43.64797" lon="1.33724">
        <ele>161.6</ele>
        <time>2024-03-27T15:59:23Z</time>
      </trkpt>
      <trkpt lat="43.64804" lon="1.3373">
        <ele>161</ele>
        <time>2024-03-27T15:59:24Z</time>
      </trkpt>
      <trkpt lat="43.64812" lon="1.33736">
        <ele>160.8</ele>
        <time>2024-03-27T15:59:25Z</time>
      </trkpt>
      <trkpt lat="43.64819" lon="1.33741">
        <ele>160.4</ele>
        <time>2024-03-27T15:59:26Z</time>
      </trkpt>
      <trkpt lat="43.64826" lon="1.33747">
        <ele>160</ele>
        <time>2024-03-27T15:59:27Z</time>
      </trkpt>
      <trkpt lat="43.64833" lon="1.33753">
        <ele>160</ele>
        <time>2024-03-27T15:59:28Z</time>
      </trkpt>
      <trkpt lat="43.64839" lon="1.3376">
        <ele>159.8</ele>
        <time>2024-03-27T15:59:29Z</time>
      </trkpt>
      <trkpt lat="43.64846" lon="1.33766">
        <ele>159.6</ele>
        <time>2024-03-27T15:59:30Z</time>
      </trkpt>
      <trkpt lat="43.64853" lon="1.33772">
        <ele>159.4</ele>
        <time>2024-03-27T15:59:31Z</time>
      </trkpt>
      <trkpt lat="43.6486" lon="1.33778">
        <ele>159.4</ele>
        <time>2024-03-27T15:59:32Z</time>
      </trkpt>
      <trkpt lat="43.64867" lon="1.33784">
        <ele>159.2</ele>
        <time>2024-03-27T15:59:33Z</time>
      </trkpt>
      <trkpt lat="43.64874" lon="1.3379">
        <ele>159</ele>
        <time>2024-03-27T15:59:34Z</time>
      </trkpt>
      <trkpt lat="43.64881" lon="1.33796">
        <ele>158.8</ele>
        <time>2024-03-27T15:59:35Z</time>
      </trkpt>
      <trkpt lat="43.64888" lon="1.33802">
        <ele>158.6</ele>
        <time>2024-03-27T15:59:36Z</time>
      </trkpt>
      <trkpt lat="43.64895" lon="1.33808">
        <ele>158.6</ele>
        <time>2024-03-27T15:59:37Z</time>
      </trkpt>
      <trkpt lat="43.64902" lon="1.33813">
        <ele>158.6</ele>
        <time>2024-03-27T15:59:38Z</time>
      </trkpt>
      <trkpt lat="43.64908" lon="1.33819">
        <ele>158.4</ele>
        <time>2024-03-27T15:59:39Z</time>
      </trkpt>
      <trkpt lat="43.64915" lon="1.33825">
        <ele>158.4</ele>
        <time>2024-03-27T15:59:40Z</time>
      </trkpt>
      <trkpt lat="43.64922" lon="1.3383">
        <ele>158.2</ele>
        <time>2024-03-27T15:59:41Z</time>
      </trkpt>
      <trkpt lat="43.64928" lon="1.33836">
        <ele>158.2</ele>
        <time>2024-03-27T15:59:42Z</time>
      </trkpt>
      <trkpt lat="43.64935" lon="1.33841">
        <ele>158.2</ele>
        <time>2024-03-27T15:59:43Z</time>
      </trkpt>
      <trkpt lat="43.64942" lon="1.33847">
        <ele>158</ele>
        <time>2024-03-27T15:59:44Z</time>
      </trkpt>
      <trkpt lat="43.64948" lon="1.33853">
        <ele>158</ele>
        <time>2024-03-27T15:59:45Z</time>
      </trkpt>
      <trkpt lat="43.64954" lon="1.33858">
        <ele>158</ele>
        <time>2024-03-27T15:59:46Z</time>
      </trkpt>
      <trkpt lat="43.64961" lon="1.33864">
        <ele>158</ele>
        <time>2024-03-27T15:59:47Z</time>
      </trkpt>
      <trkpt lat="43.64967" lon="1.33869">
        <ele>158</ele>
        <time>2024-03-27T15:59:48Z</time>
      </trkpt>
      <trkpt lat="43.64973" lon="1.33874">
        <ele>158</ele>
        <time>2024-03-27T15:59:49Z</time>
      </trkpt>
      <trkpt lat="43.64979" lon="1.33879">
        <ele>158</ele>
        <time>2024-03-27T15:59:50Z</time>
      </trkpt>
      <trkpt lat="43.64985" lon="1.33885">
        <ele>158</ele>
        <time>2024-03-27T15:59:51Z</time>
      </trkpt>
      <trkpt lat="43.64991" lon="1.3389">
        <ele>158</ele>
        <time>2024-03-27T15:59:52Z</time>
      </trkpt>
      <trkpt lat="43.64998" lon="1.33895">
        <ele>158.2</ele>
        <time>2024-03-27T15:59:53Z</time>
      </trkpt>
      <trkpt lat="43.65003" lon="1.339">
        <ele>158.2</ele>
        <time>2024-03-27T15:59:54Z</time>
      </trkpt>
      <trkpt lat="43.6501" lon="1.33905">
        <ele>158.4</ele>
        <time>2024-03-27T15:59:55Z</time>
      </trkpt>
      <trkpt lat="43.65016" lon="1.3391">
        <ele>158.2</ele>
        <time>2024-03-27T15:59:56Z</time>
      </trkpt>
      <trkpt lat="43.65022" lon="1.33915">
        <ele>158.2</ele>
        <time>2024-03-27T15:59:57Z</time>
      </trkpt>
      <trkpt lat="43.65028" lon="1.3392">
        <ele>158.2</ele>
        <time>2024-03-27T15:59:58Z</time>
      </trkpt>
      <trkpt lat="43.65034" lon="1.33925">
        <ele>158.2</ele>
        <time>2024-03-27T15:59:59Z</time>
      </trkpt>
      <trkpt lat="43.6504" lon="1.3393">
        <ele>158.6</ele>
        <time>2024-03-27T16:00:00Z</time>
      </trkpt>
      <trkpt lat="43.65046" lon="1.33935">
        <ele>158.6</ele>
        <time>2024-03-27T16:00:01Z</time>
      </trkpt>
      <trkpt lat="43.65051" lon="1.3394">
        <ele>158.6</ele>
        <time>2024-03-27T16:00:02Z</time>
      </trkpt>
      <trkpt lat="43.65057" lon="1.33946">
        <ele>158.8</ele>
        <time>2024-03-27T16:00:03Z</time>
      </trkpt>
      <trkpt lat="43.65062" lon="1.33953">
        <ele>158.8</ele>
        <time>2024-03-27T16:00:04Z</time>
      </trkpt>
      <trkpt lat="43.65066" lon="1.33961">
        <ele>158.8</ele>
        <time>2024-03-27T16:00:05Z</time>
      </trkpt>
      <trkpt lat="43.6507" lon="1.33968">
        <ele>158.8</ele>
        <time>2024-03-27T16:00:06Z</time>
      </trkpt>
      <trkpt lat="43.65072" lon="1.33976">
        <ele>158.8</ele>
        <time>2024-03-27T16:00:07Z</time>
      </trkpt>
      <trkpt lat="43.65073" lon="1.33985">
        <ele>158.8</ele>
        <time>2024-03-27T16:00:08Z</time>
      </trkpt>
      <trkpt lat="43.65074" lon="1.33994">
        <ele>158.8</ele>
        <time>2024-03-27T16:00:09Z</time>
      </trkpt>
      <trkpt lat="43.65075" lon="1.34003">
        <ele>159</ele>
        <time>2024-03-27T16:00:10Z</time>
      </trkpt>
      <trkpt lat="43.65078" lon="1.34011">
        <ele>159</ele>
        <time>2024-03-27T16:00:11Z</time>
      </trkpt>
      <trkpt lat="43.6508" lon="1.3402">
        <ele>159</ele>
        <time>2024-03-27T16:00:12Z</time>
      </trkpt>
      <trkpt lat="43.65079" lon="1.34028">
        <ele>159</ele>
        <time>2024-03-27T16:00:13Z</time>
      </trkpt>
      <trkpt lat="43.65077" lon="1.34037">
        <ele>159</ele>
        <time>2024-03-27T16:00:14Z</time>
      </trkpt>
      <trkpt lat="43.65073" lon="1.34044">
        <ele>159</ele>
        <time>2024-03-27T16:00:15Z</time>
      </trkpt>
      <trkpt lat="43.65069" lon="1.34051">
        <ele>159</ele>
        <time>2024-03-27T16:00:16Z</time>
      </trkpt>
      <trkpt lat="43.65065" lon="1.34058">
        <ele>159</ele>
        <time>2024-03-27T16:00:17Z</time>
      </trkpt>
      <trkpt lat="43.65061" lon="1.34065">
        <ele>159</ele>
        <time>2024-03-27T16:00:18Z</time>
      </trkpt>
      <trkpt lat="43.65058" lon="1.34072">
        <ele>159.2</ele>
        <time>2024-03-27T16:00:19Z</time>
      </trkpt>
      <trkpt lat="43.65054" lon="1.34079">
        <ele>159.2</ele>
        <time>2024-03-27T16:00:20Z</time>
      </trkpt>
      <trkpt lat="43.65051" lon="1.34086">
        <ele>159.2</ele>
        <time>2024-03-27T16:00:21Z</time>
      </trkpt>
      <trkpt lat="43.65048" lon="1.34094">
        <ele>159.2</ele>
        <time>2024-03-27T16:00:22Z</time>
      </trkpt>
      <trkpt lat="43.65045" lon="1.34101">
        <ele>159.2</ele>
        <time>2024-03-27T16:00:23Z</time>
      </trkpt>
      <trkpt lat="43.65041" lon="1.34109">
        <ele>159.2</ele>
        <time>2024-03-27T16:00:24Z</time>
      </trkpt>
      <trkpt lat="43.65038" lon="1.34116">
        <ele>159.2</ele>
        <time>2024-03-27T16:00:25Z</time>
      </trkpt>
      <trkpt lat="43.65035" lon="1.34123">
        <ele>159.2</ele>
        <time>2024-03-27T16:00:26Z</time>
      </trkpt>
      <trkpt lat="43.65031" lon="1.3413">
        <ele>159.2</ele>
        <time>2024-03-27T16:00:27Z</time>
      </trkpt>
      <trkpt lat="43.65027" lon="1.34137">
        <ele>159.2</ele>
        <time>2024-03-27T16:00:28Z</time>
      </trkpt>
      <trkpt lat="43.65022" lon="1.34143">
        <ele>159.2</ele>
        <time>2024-03-27T16:00:29Z</time>
      </trkpt>
      <trkpt lat="43.65018" lon="1.3415">
        <ele>159</ele>
        <time>2024-03-27T16:00:30Z</time>
      </trkpt>
      <trkpt lat="43.65013" lon="1.34157">
        <ele>159</ele>
        <time>2024-03-27T16:00:31Z</time>
      </trkpt>
      <trkpt lat="43.65009" lon="1.34163">
        <ele>159</ele>
        <time>2024-03-27T16:00:32Z</time>
      </trkpt>
      <trkpt lat="43.65004" lon="1.34169">
        <ele>159</ele>
        <time>2024-03-27T16:00:33Z</time>
      </trkpt>
      <trkpt lat="43.65" lon="1.34176">
        <ele>159</ele>
        <time>2024-03-27T16:00:34Z</time>
      </trkpt>
      <trkpt lat="43.64996" lon="1.34182">
        <ele>159.2</ele>
        <time>2024-03-27T16:00:35Z</time>
      </trkpt>
      <trkpt lat="43.64992" lon="1.34189">
        <ele>159.2</ele>
        <time>2024-03-27T16:00:36Z</time>
      </trkpt>
      <trkpt lat="43.64988" lon="1.34195">
        <ele>159.2</ele>
        <time>2024-03-27T16:00:37Z</time>
      </trkpt>
      <trkpt lat="43.64983" lon="1.34203">
        <ele>159.2</ele>
        <time>2024-03-27T16:00:38Z</time>
      </trkpt>
      <trkpt lat="43.6498" lon="1.34208">
        <ele>159.4</ele>
        <time>2024-03-27T16:00:39Z</time>
      </trkpt>
      <trkpt lat="43.64976" lon="1.34215">
        <ele>159.4</ele>
        <time>2024-03-27T16:00:40Z</time>
      </trkpt>
      <trkpt lat="43.64972" lon="1.34222">
        <ele>159.4</ele>
        <time>2024-03-27T16:00:41Z</time>
      </trkpt>
      <trkpt lat="43.64968" lon="1.34228">
        <ele>159.6</ele>
        <time>2024-03-27T16:00:42Z</time>
      </trkpt>
      <trkpt lat="43.64964" lon="1.34235">
        <ele>159.6</ele>
        <time>2024-03-27T16:00:43Z</time>
      </trkpt>
      <trkpt lat="43.6496" lon="1.34242">
        <ele>159.6</ele>
        <time>2024-03-27T16:00:44Z</time>
      </trkpt>
      <trkpt lat="43.64956" lon="1.34248">
        <ele>159.6</ele>
        <time>2024-03-27T16:00:45Z</time>
      </trkpt>
      <trkpt lat="43.64952" lon="1.34255">
        <ele>159.6</ele>
        <time>2024-03-27T16:00:46Z</time>
      </trkpt>
      <trkpt lat="43.64949" lon="1.34262">
        <ele>159.6</ele>
        <time>2024-03-27T16:00:47Z</time>
      </trkpt>
      <trkpt lat="43.64945" lon="1.34268">
        <ele>159.8</ele>
        <time>2024-03-27T16:00:48Z</time>
      </trkpt>
      <trkpt lat="43.64941" lon="1.34275">
        <ele>159.6</ele>
        <time>2024-03-27T16:00:49Z</time>
      </trkpt>
      <trkpt lat="43.64937" lon="1.34282">
        <ele>159.6</ele>
        <time>2024-03-27T16:00:50Z</time>
      </trkpt>
      <trkpt lat="43.64934" lon="1.34289">
        <ele>159.6</ele>
        <time>2024-03-27T16:00:51Z</time>
      </trkpt>
      <trkpt lat="43.6493" lon="1.34296">
        <ele>159.6</ele>
        <time>2024-03-27T16:00:52Z</time>
      </trkpt>
      <trkpt lat="43.64926" lon="1.34302">
        <ele>159.4</ele>
        <time>2024-03-27T16:00:53Z</time>
      </trkpt>
      <trkpt lat="43.64922" lon="1.34309">
        <ele>159.4</ele>
        <time>2024-03-27T16:00:54Z</time>
      </trkpt>
      <trkpt lat="43.64918" lon="1.34316">
        <ele>159.4</ele>
        <time>2024-03-27T16:00:55Z</time>
      </trkpt>
      <trkpt lat="43.64915" lon="1.34323">
        <ele>159.4</ele>
        <time>2024-03-27T16:00:56Z</time>
      </trkpt>
      <trkpt lat="43.64911" lon="1.3433">
        <ele>159.4</ele>
        <time>2024-03-27T16:00:57Z</time>
      </trkpt>
      <trkpt lat="43.64907" lon="1.34337">
        <ele>159.4</ele>
        <time>2024-03-27T16:00:58Z</time>
      </trkpt>
      <trkpt lat="43.64903" lon="1.34344">
        <ele>159.4</ele>
        <time>2024-03-27T16:00:59Z</time>
      </trkpt>
      <trkpt lat="43.649" lon="1.34351">
        <ele>159.6</ele>
        <time>2024-03-27T16:01:00Z</time>
      </trkpt>
      <trkpt lat="43.64896" lon="1.34358">
        <ele>159.6</ele>
        <time>2024-03-27T16:01:01Z</time>
      </trkpt>
      <trkpt lat="43.64892" lon="1.34364">
        <ele>159.6</ele>
        <time>2024-03-27T16:01:02Z</time>
      </trkpt>
      <trkpt lat="43.64888" lon="1.34371">
        <ele>159.6</ele>
        <time>2024-03-27T16:01:03Z</time>
      </trkpt>
      <trkpt lat="43.64884" lon="1.34378">
        <ele>159.6</ele>
        <time>2024-03-27T16:01:04Z</time>
      </trkpt>
      <trkpt lat="43.64879" lon="1.34386">
        <ele>159.6</ele>
        <time>2024-03-27T16:01:05Z</time>
      </trkpt>
      <trkpt lat="43.64876" lon="1.34391">
        <ele>159.6</ele>
        <time>2024-03-27T16:01:06Z</time>
      </trkpt>
      <trkpt lat="43.64871" lon="1.34397">
        <ele>159.6</ele>
        <time>2024-03-27T16:01:07Z</time>
      </trkpt>
      <trkpt lat="43.64866" lon="1.34402">
        <ele>159.6</ele>
        <time>2024-03-27T16:01:08Z</time>
      </trkpt>
      <trkpt lat="43.64862" lon="1.34408">
        <ele>159.6</ele>
        <time>2024-03-27T16:01:09Z</time>
      </trkpt>
      <trkpt lat="43.64858" lon="1.34415">
        <ele>159.6</ele>
        <time>2024-03-27T16:01:10Z</time>
      </trkpt>
      <trkpt lat="43.64855" lon="1.34423">
        <ele>159.6</ele>
        <time>2024-03-27T16:01:11Z</time>
      </trkpt>
      <trkpt lat="43.64853" lon="1.34431">
        <ele>159.6</ele>
        <time>2024-03-27T16:01:12Z</time>
      </trkpt>
      <trkpt lat="43.64851" lon="1.34439">
        <ele>159.6</ele>
        <time>2024-03-27T16:01:13Z</time>
      </trkpt>
      <trkpt lat="43.64848" lon="1.34446">
        <ele>159.6</ele>
        <time>2024-03-27T16:01:14Z</time>
      </trkpt>
      <trkpt lat="43.64845" lon="1.34454">
        <ele>159.4</ele>
        <time>2024-03-27T16:01:15Z</time>
      </trkpt>
      <trkpt lat="43.64842" lon="1.34461">
        <ele>159.4</ele>
        <time>2024-03-27T16:01:16Z</time>
      </trkpt>
      <trkpt lat="43.64838" lon="1.34468">
        <ele>159.4</ele>
        <time>2024-03-27T16:01:17Z</time>
      </trkpt>
      <trkpt lat="43.64835" lon="1.34475">
        <ele>159.4</ele>
        <time>2024-03-27T16:01:18Z</time>
      </trkpt>
      <trkpt lat="43.64831" lon="1.34482">
        <ele>159.4</ele>
        <time>2024-03-27T16:01:19Z</time>
      </trkpt>
      <trkpt lat="43.64828" lon="1.34489">
        <ele>159.4</ele>
        <time>2024-03-27T16:01:20Z</time>
      </trkpt>
      <trkpt lat="43.64824" lon="1.34496">
        <ele>159.4</ele>
        <time>2024-03-27T16:01:21Z</time>
      </trkpt>
      <trkpt lat="43.64821" lon="1.34503">
        <ele>159.4</ele>
        <time>2024-03-27T16:01:22Z</time>
      </trkpt>
      <trkpt lat="43.64818" lon="1.3451">
        <ele>159.4</ele>
        <time>2024-03-27T16:01:23Z</time>
      </trkpt>
      <trkpt lat="43.64814" lon="1.34517">
        <ele>159.4</ele>
        <time>2024-03-27T16:01:24Z</time>
      </trkpt>
      <trkpt lat="43.6481" lon="1.34526">
        <ele>159.4</ele>
        <time>2024-03-27T16:01:25Z</time>
      </trkpt>
      <trkpt lat="43.64807" lon="1.34531">
        <ele>159.4</ele>
        <time>2024-03-27T16:01:26Z</time>
      </trkpt>
      <trkpt lat="43.64803" lon="1.34538">
        <ele>159.4</ele>
        <time>2024-03-27T16:01:27Z</time>
      </trkpt>
      <trkpt lat="43.648" lon="1.34546">
        <ele>159.4</ele>
        <time>2024-03-27T16:01:28Z</time>
      </trkpt>
      <trkpt lat="43.64796" lon="1.34553">
        <ele>159.4</ele>
        <time>2024-03-27T16:01:29Z</time>
      </trkpt>
      <trkpt lat="43.64792" lon="1.34562">
        <ele>159.4</ele>
        <time>2024-03-27T16:01:30Z</time>
      </trkpt>
      <trkpt lat="43.64789" lon="1.34567">
        <ele>159.4</ele>
        <time>2024-03-27T16:01:31Z</time>
      </trkpt>
      <trkpt lat="43.64786" lon="1.34575">
        <ele>159.4</ele>
        <time>2024-03-27T16:01:32Z</time>
      </trkpt>
      <trkpt lat="43.64783" lon="1.34582">
        <ele>159.4</ele>
        <time>2024-03-27T16:01:33Z</time>
      </trkpt>
      <trkpt lat="43.64779" lon="1.34589">
        <ele>159.4</ele>
        <time>2024-03-27T16:01:34Z</time>
      </trkpt>
      <trkpt lat="43.64775" lon="1.34597">
        <ele>159.4</ele>
        <time>2024-03-27T16:01:35Z</time>
      </trkpt>
      <trkpt lat="43.64772" lon="1.34603">
        <ele>159.2</ele>
        <time>2024-03-27T16:01:36Z</time>
      </trkpt>
      <trkpt lat="43.64768" lon="1.3461">
        <ele>159.2</ele>
        <time>2024-03-27T16:01:37Z</time>
      </trkpt>
      <trkpt lat="43.64765" lon="1.34617">
        <ele>159.2</ele>
        <time>2024-03-27T16:01:38Z</time>
      </trkpt>
      <trkpt lat="43.64761" lon="1.34626">
        <ele>159.2</ele>
        <time>2024-03-27T16:01:39Z</time>
      </trkpt>
      <trkpt lat="43.64757" lon="1.34634">
        <ele>159.2</ele>
        <time>2024-03-27T16:01:40Z</time>
      </trkpt>
      <trkpt lat="43.64754" lon="1.3464">
        <ele>159</ele>
        <time>2024-03-27T16:01:41Z</time>
      </trkpt>
      <trkpt lat="43.6475" lon="1.34647">
        <ele>159</ele>
        <time>2024-03-27T16:01:42Z</time>
      </trkpt>
      <trkpt lat="43.64747" lon="1.34655">
        <ele>159</ele>
        <time>2024-03-27T16:01:43Z</time>
      </trkpt>
      <trkpt lat="43.64742" lon="1.34663">
        <ele>159</ele>
        <time>2024-03-27T16:01:44Z</time>
      </trkpt>
      <trkpt lat="43.64738" lon="1.34668">
        <ele>158.8</ele>
        <time>2024-03-27T16:01:45Z</time>
      </trkpt>
      <trkpt lat="43.64733" lon="1.34675">
        <ele>158.8</ele>
        <time>2024-03-27T16:01:46Z</time>
      </trkpt>
      <trkpt lat="43.64728" lon="1.34681">
        <ele>158.8</ele>
        <time>2024-03-27T16:01:47Z</time>
      </trkpt>
      <trkpt lat="43.64723" lon="1.34687">
        <ele>158.8</ele>
        <time>2024-03-27T16:01:48Z</time>
      </trkpt>
      <trkpt lat="43.64718" lon="1.34693">
        <ele>158.6</ele>
        <time>2024-03-27T16:01:49Z</time>
      </trkpt>
      <trkpt lat="43.64713" lon="1.34699">
        <ele>158.6</ele>
        <time>2024-03-27T16:01:50Z</time>
      </trkpt>
      <trkpt lat="43.64708" lon="1.34705">
        <ele>158.6</ele>
        <time>2024-03-27T16:01:51Z</time>
      </trkpt>
      <trkpt lat="43.64704" lon="1.34712">
        <ele>158.4</ele>
        <time>2024-03-27T16:01:52Z</time>
      </trkpt>
      <trkpt lat="43.647" lon="1.34719">
        <ele>158.4</ele>
        <time>2024-03-27T16:01:53Z</time>
      </trkpt>
      <trkpt lat="43.64696" lon="1.34726">
        <ele>158.4</ele>
        <time>2024-03-27T16:01:54Z</time>
      </trkpt>
      <trkpt lat="43.64693" lon="1.34734">
        <ele>158.2</ele>
        <time>2024-03-27T16:01:55Z</time>
      </trkpt>
      <trkpt lat="43.6469" lon="1.34742">
        <ele>158.2</ele>
        <time>2024-03-27T16:01:56Z</time>
      </trkpt>
      <trkpt lat="43.64687" lon="1.34751">
        <ele>158</ele>
        <time>2024-03-27T16:01:57Z</time>
      </trkpt>
      <trkpt lat="43.64685" lon="1.34757">
        <ele>158</ele>
        <time>2024-03-27T16:01:58Z</time>
      </trkpt>
      <trkpt lat="43.64682" lon="1.34764">
        <ele>158</ele>
        <time>2024-03-27T16:01:59Z</time>
      </trkpt>
      <trkpt lat="43.6468" lon="1.34772">
        <ele>158</ele>
        <time>2024-03-27T16:02:00Z</time>
      </trkpt>
      <trkpt lat="43.64677" lon="1.34779">
        <ele>158</ele>
        <time>2024-03-27T16:02:01Z</time>
      </trkpt>
      <trkpt lat="43.64674" lon="1.34787">
        <ele>158</ele>
        <time>2024-03-27T16:02:02Z</time>
      </trkpt>
      <trkpt lat="43.64671" lon="1.34794">
        <ele>158</ele>
        <time>2024-03-27T16:02:03Z</time>
      </trkpt>
      <trkpt lat="43.64668" lon="1.34802">
        <ele>158</ele>
        <time>2024-03-27T16:02:04Z</time>
      </trkpt>
      <trkpt lat="43.64665" lon="1.34809">
        <ele>158</ele>
        <time>2024-03-27T16:02:05Z</time>
      </trkpt>
      <trkpt lat="43.64662" lon="1.34817">
        <ele>158.2</ele>
        <time>2024-03-27T16:02:06Z</time>
      </trkpt>
      <trkpt lat="43.6466" lon="1.34825">
        <ele>158.2</ele>
        <time>2024-03-27T16:02:07Z</time>
      </trkpt>
      <trkpt lat="43.64657" lon="1.34835">
        <ele>158.2</ele>
        <time>2024-03-27T16:02:08Z</time>
      </trkpt>
      <trkpt lat="43.64655" lon="1.34841">
        <ele>158.2</ele>
        <time>2024-03-27T16:02:09Z</time>
      </trkpt>
      <trkpt lat="43.64653" lon="1.3485">
        <ele>158.2</ele>
        <time>2024-03-27T16:02:10Z</time>
      </trkpt>
      <trkpt lat="43.64651" lon="1.34858">
        <ele>158.2</ele>
        <time>2024-03-27T16:02:11Z</time>
      </trkpt>
      <trkpt lat="43.64649" lon="1.34866">
        <ele>158.4</ele>
        <time>2024-03-27T16:02:12Z</time>
      </trkpt>
      <trkpt lat="43.64646" lon="1.34874">
        <ele>158.4</ele>
        <time>2024-03-27T16:02:13Z</time>
      </trkpt>
      <trkpt lat="43.64644" lon="1.34881">
        <ele>158.4</ele>
        <time>2024-03-27T16:02:14Z</time>
      </trkpt>
      <trkpt lat="43.64641" lon="1.34888">
        <ele>158.4</ele>
        <time>2024-03-27T16:02:15Z</time>
      </trkpt>
      <trkpt lat="43.64637" lon="1.34896">
        <ele>158.4</ele>
        <time>2024-03-27T16:02:16Z</time>
      </trkpt>
      <trkpt lat="43.64634" lon="1.34903">
        <ele>158.4</ele>
        <time>2024-03-27T16:02:17Z</time>
      </trkpt>
      <trkpt lat="43.6463" lon="1.3491">
        <ele>158.4</ele>
        <time>2024-03-27T16:02:18Z</time>
      </trkpt>
      <trkpt lat="43.64627" lon="1.34917">
        <ele>158.4</ele>
        <time>2024-03-27T16:02:19Z</time>
      </trkpt>
      <trkpt lat="43.64623" lon="1.34924">
        <ele>158.4</ele>
        <time>2024-03-27T16:02:20Z</time>
      </trkpt>
      <trkpt lat="43.6462" lon="1.34931">
        <ele>158.4</ele>
        <time>2024-03-27T16:02:21Z</time>
      </trkpt>
      <trkpt lat="43.64616" lon="1.34938">
        <ele>158.4</ele>
        <time>2024-03-27T16:02:22Z</time>
      </trkpt>
      <trkpt lat="43.64612" lon="1.34945">
        <ele>158.4</ele>
        <time>2024-03-27T16:02:23Z</time>
      </trkpt>
      <trkpt lat="43.64609" lon="1.34953">
        <ele>158.2</ele>
        <time>2024-03-27T16:02:24Z</time>
      </trkpt>
      <trkpt lat="43.64605" lon="1.3496">
        <ele>158.2</ele>
        <time>2024-03-27T16:02:25Z</time>
      </trkpt>
      <trkpt lat="43.646" lon="1.34968">
        <ele>158.2</ele>
        <time>2024-03-27T16:02:26Z</time>
      </trkpt>
      <trkpt lat="43.64597" lon="1.34976">
        <ele>158.2</ele>
        <time>2024-03-27T16:02:27Z</time>
      </trkpt>
      <trkpt lat="43.64594" lon="1.34981">
        <ele>158.2</ele>
        <time>2024-03-27T16:02:28Z</time>
      </trkpt>
      <trkpt lat="43.64591" lon="1.34989">
        <ele>158.2</ele>
        <time>2024-03-27T16:02:29Z</time>
      </trkpt>
      <trkpt lat="43.64587" lon="1.34996">
        <ele>158.2</ele>
        <time>2024-03-27T16:02:30Z</time>
      </trkpt>
      <trkpt lat="43.64583" lon="1.35003">
        <ele>158</ele>
        <time>2024-03-27T16:02:31Z</time>
      </trkpt>
      <trkpt lat="43.64579" lon="1.35011">
        <ele>158</ele>
        <time>2024-03-27T16:02:32Z</time>
      </trkpt>
      <trkpt lat="43.64576" lon="1.35017">
        <ele>158</ele>
        <time>2024-03-27T16:02:33Z</time>
      </trkpt>
      <trkpt lat="43.64573" lon="1.35023">
        <ele>158</ele>
        <time>2024-03-27T16:02:34Z</time>
      </trkpt>
      <trkpt lat="43.6457" lon="1.3503">
        <ele>158</ele>
        <time>2024-03-27T16:02:35Z</time>
      </trkpt>
      <trkpt lat="43.64566" lon="1.35039">
        <ele>158</ele>
        <time>2024-03-27T16:02:36Z</time>
      </trkpt>
      <trkpt lat="43.64564" lon="1.35045">
        <ele>158.2</ele>
        <time>2024-03-27T16:02:37Z</time>
      </trkpt>
      <trkpt lat="43.64562" lon="1.35051">
        <ele>158.2</ele>
        <time>2024-03-27T16:02:38Z</time>
      </trkpt>
      <trkpt lat="43.64561" lon="1.35057">
        <ele>158.2</ele>
        <time>2024-03-27T16:02:39Z</time>
      </trkpt>
      <trkpt lat="43.64561" lon="1.35062">
        <ele>158.2</ele>
        <time>2024-03-27T16:02:40Z</time>
      </trkpt>
      <trkpt lat="43.64562" lon="1.35065">
        <ele>158.2</ele>
        <time>2024-03-27T16:02:41Z</time>
      </trkpt>
      <trkpt lat="43.64564" lon="1.35066">
        <ele>158.2</ele>
        <time>2024-03-27T16:02:42Z</time>
      </trkpt>
      <trkpt lat="43.64566" lon="1.35067">
        <ele>158.2</ele>
        <time>2024-03-27T16:02:43Z</time>
      </trkpt>
      <trkpt lat="43.64569" lon="1.35067">
        <ele>158.2</ele>
        <time>2024-03-27T16:02:44Z</time>
      </trkpt>
      <trkpt lat="43.64572" lon="1.35067">
        <ele>158.2</ele>
        <time>2024-03-27T16:02:45Z</time>
      </trkpt>
      <trkpt lat="43.64577" lon="1.35067">
        <ele>158.2</ele>
        <time>2024-03-27T16:02:46Z</time>
      </trkpt>
      <trkpt lat="43.64581" lon="1.35068">
        <ele>158.2</ele>
        <time>2024-03-27T16:02:47Z</time>
      </trkpt>
      <trkpt lat="43.64585" lon="1.35071">
        <ele>158.2</ele>
        <time>2024-03-27T16:02:48Z</time>
      </trkpt>
      <trkpt lat="43.64589" lon="1.35075">
        <ele>158.2</ele>
        <time>2024-03-27T16:02:49Z</time>
      </trkpt>
      <trkpt lat="43.64593" lon="1.3508">
        <ele>158.2</ele>
        <time>2024-03-27T16:02:50Z</time>
      </trkpt>
      <trkpt lat="43.64595" lon="1.35086">
        <ele>158</ele>
        <time>2024-03-27T16:02:51Z</time>
      </trkpt>
      <trkpt lat="43.64597" lon="1.35094">
        <ele>158</ele>
        <time>2024-03-27T16:02:52Z</time>
      </trkpt>
      <trkpt lat="43.64596" lon="1.35102">
        <ele>157.8</ele>
        <time>2024-03-27T16:02:53Z</time>
      </trkpt>
      <trkpt lat="43.64595" lon="1.35109">
        <ele>157.8</ele>
        <time>2024-03-27T16:02:54Z</time>
      </trkpt>
      <trkpt lat="43.64591" lon="1.35115">
        <ele>157.6</ele>
        <time>2024-03-27T16:02:55Z</time>
      </trkpt>
      <trkpt lat="43.64588" lon="1.35121">
        <ele>157.4</ele>
        <time>2024-03-27T16:02:56Z</time>
      </trkpt>
      <trkpt lat="43.64583" lon="1.35125">
        <ele>157.2</ele>
        <time>2024-03-27T16:02:57Z</time>
      </trkpt>
      <trkpt lat="43.64579" lon="1.35131">
        <ele>157</ele>
        <time>2024-03-27T16:02:58Z</time>
      </trkpt>
      <trkpt lat="43.64576" lon="1.35137">
        <ele>157</ele>
        <time>2024-03-27T16:02:59Z</time>
      </trkpt>
      <trkpt lat="43.64574" lon="1.35146">
        <ele>156.8</ele>
        <time>2024-03-27T16:03:00Z</time>
      </trkpt>
      <trkpt lat="43.64574" lon="1.35153">
        <ele>156.8</ele>
        <time>2024-03-27T16:03:01Z</time>
      </trkpt>
      <trkpt lat="43.64573" lon="1.35161">
        <ele>156.8</ele>
        <time>2024-03-27T16:03:02Z</time>
      </trkpt>
      <trkpt lat="43.64572" lon="1.3517">
        <ele>156.8</ele>
        <time>2024-03-27T16:03:03Z</time>
      </trkpt>
      <trkpt lat="43.64571" lon="1.35179">
        <ele>156.6</ele>
        <time>2024-03-27T16:03:04Z</time>
      </trkpt>
      <trkpt lat="43.64571" lon="1.35189">
        <ele>156.4</ele>
        <time>2024-03-27T16:03:05Z</time>
      </trkpt>
      <trkpt lat="43.6457" lon="1.35199">
        <ele>156.4</ele>
        <time>2024-03-27T16:03:06Z</time>
      </trkpt>
      <trkpt lat="43.6457" lon="1.35209">
        <ele>156.4</ele>
        <time>2024-03-27T16:03:07Z</time>
      </trkpt>
      <trkpt lat="43.64569" lon="1.3522">
        <ele>156.2</ele>
        <time>2024-03-27T16:03:08Z</time>
      </trkpt>
      <trkpt lat="43.64568" lon="1.3523">
        <ele>156</ele>
        <time>2024-03-27T16:03:09Z</time>
      </trkpt>
      <trkpt lat="43.64567" lon="1.35241">
        <ele>155.8</ele>
        <time>2024-03-27T16:03:10Z</time>
      </trkpt>
      <trkpt lat="43.64566" lon="1.35252">
        <ele>155.6</ele>
        <time>2024-03-27T16:03:11Z</time>
      </trkpt>
      <trkpt lat="43.64565" lon="1.35263">
        <ele>155.6</ele>
        <time>2024-03-27T16:03:12Z</time>
      </trkpt>
      <trkpt lat="43.64564" lon="1.35277">
        <ele>154.8</ele>
        <time>2024-03-27T16:03:13Z</time>
      </trkpt>
      <trkpt lat="43.64563" lon="1.35288">
        <ele>154.4</ele>
        <time>2024-03-27T16:03:14Z</time>
      </trkpt>
      <trkpt lat="43.64562" lon="1.35297">
        <ele>154</ele>
        <time>2024-03-27T16:03:15Z</time>
      </trkpt>
      <trkpt lat="43.64561" lon="1.35307">
        <ele>153.6</ele>
        <time>2024-03-27T16:03:16Z</time>
      </trkpt>
      <trkpt lat="43.6456" lon="1.35318">
        <ele>153.2</ele>
        <time>2024-03-27T16:03:17Z</time>
      </trkpt>
      <trkpt lat="43.6456" lon="1.35329">
        <ele>152.8</ele>
        <time>2024-03-27T16:03:18Z</time>
      </trkpt>
      <trkpt lat="43.6456" lon="1.35339">
        <ele>152.4</ele>
        <time>2024-03-27T16:03:19Z</time>
      </trkpt>
      <trkpt lat="43.64561" lon="1.35352">
        <ele>151.8</ele>
        <time>2024-03-27T16:03:20Z</time>
      </trkpt>
      <trkpt lat="43.64561" lon="1.35363">
        <ele>151.8</ele>
        <time>2024-03-27T16:03:21Z</time>
      </trkpt>
      <trkpt lat="43.64554" lon="1.35425">
        <ele>151</ele>
        <time>2024-03-27T16:03:28Z</time>
      </trkpt>
      <trkpt lat="43.64552" lon="1.35433">
        <ele>151</ele>
        <time>2024-03-27T16:03:29Z</time>
      </trkpt>
      <trkpt lat="43.64551" lon="1.35444">
        <ele>151</ele>
        <time>2024-03-27T16:03:30Z</time>
      </trkpt>
      <trkpt lat="43.64549" lon="1.35454">
        <ele>151</ele>
        <time>2024-03-27T16:03:31Z</time>
      </trkpt>
      <trkpt lat="43.64548" lon="1.35463">
        <ele>151</ele>
        <time>2024-03-27T16:03:32Z</time>
      </trkpt>
      <trkpt lat="43.64547" lon="1.35474">
        <ele>151</ele>
        <time>2024-03-27T16:03:33Z</time>
      </trkpt>
      <trkpt lat="43.64546" lon="1.35485">
        <ele>150.8</ele>
        <time>2024-03-27T16:03:34Z</time>
      </trkpt>
      <trkpt lat="43.64545" lon="1.35495">
        <ele>150.8</ele>
        <time>2024-03-27T16:03:35Z</time>
      </trkpt>
      <trkpt lat="43.64543" lon="1.35504">
        <ele>150.8</ele>
        <time>2024-03-27T16:03:36Z</time>
      </trkpt>
      <trkpt lat="43.64542" lon="1.35514">
        <ele>150.6</ele>
        <time>2024-03-27T16:03:37Z</time>
      </trkpt>
      <trkpt lat="43.64541" lon="1.35523">
        <ele>150.6</ele>
        <time>2024-03-27T16:03:38Z</time>
      </trkpt>
      <trkpt lat="43.6454" lon="1.35533">
        <ele>150.6</ele>
        <time>2024-03-27T16:03:39Z</time>
      </trkpt>
      <trkpt lat="43.64538" lon="1.35543">
        <ele>150.6</ele>
        <time>2024-03-27T16:03:40Z</time>
      </trkpt>
      <trkpt lat="43.64537" lon="1.35552">
        <ele>150.6</ele>
        <time>2024-03-27T16:03:41Z</time>
      </trkpt>
      <trkpt lat="43.64535" lon="1.35561">
        <ele>150.4</ele>
        <time>2024-03-27T16:03:42Z</time>
      </trkpt>
      <trkpt lat="43.64533" lon="1.3557">
        <ele>150.4</ele>
        <time>2024-03-27T16:03:43Z</time>
      </trkpt>
      <trkpt lat="43.64531" lon="1.35579">
        <ele>150.4</ele>
        <time>2024-03-27T16:03:44Z</time>
      </trkpt>
      <trkpt lat="43.64529" lon="1.35588">
        <ele>150.4</ele>
        <time>2024-03-27T16:03:45Z</time>
      </trkpt>
      <trkpt lat="43.64527" lon="1.35597">
        <ele>150.4</ele>
        <time>2024-03-27T16:03:46Z</time>
      </trkpt>
      <trkpt lat="43.64526" lon="1.35606">
        <ele>150.4</ele>
        <time>2024-03-27T16:03:47Z</time>
      </trkpt>
      <trkpt lat="43.64524" lon="1.35614">
        <ele>150.4</ele>
        <time>2024-03-27T16:03:48Z</time>
      </trkpt>
      <trkpt lat="43.64522" lon="1.35623">
        <ele>150.4</ele>
        <time>2024-03-27T16:03:49Z</time>
      </trkpt>
      <trkpt lat="43.64521" lon="1.35632">
        <ele>150.4</ele>
        <time>2024-03-27T16:03:50Z</time>
      </trkpt>
      <trkpt lat="43.64519" lon="1.35641">
        <ele>150.4</ele>
        <time>2024-03-27T16:03:51Z</time>
      </trkpt>
      <trkpt lat="43.64517" lon="1.3565">
        <ele>150.4</ele>
        <time>2024-03-27T16:03:52Z</time>
      </trkpt>
      <trkpt lat="43.64515" lon="1.35659">
        <ele>150.6</ele>
        <time>2024-03-27T16:03:53Z</time>
      </trkpt>
      <trkpt lat="43.64513" lon="1.35667">
        <ele>150.6</ele>
        <time>2024-03-27T16:03:54Z</time>
      </trkpt>
      <trkpt lat="43.64512" lon="1.35676">
        <ele>150.6</ele>
        <time>2024-03-27T16:03:55Z</time>
      </trkpt>
      <trkpt lat="43.6451" lon="1.35685">
        <ele>150.6</ele>
        <time>2024-03-27T16:03:56Z</time>
      </trkpt>
      <trkpt lat="43.64509" lon="1.35694">
        <ele>150.6</ele>
        <time>2024-03-27T16:03:57Z</time>
      </trkpt>
      <trkpt lat="43.64507" lon="1.35703">
        <ele>150.6</ele>
        <time>2024-03-27T16:03:58Z</time>
      </trkpt>
      <trkpt lat="43.64506" lon="1.35711">
        <ele>150.8</ele>
        <time>2024-03-27T16:03:59Z</time>
      </trkpt>
      <trkpt lat="43.64504" lon="1.35719">
        <ele>150.8</ele>
        <time>2024-03-27T16:04:00Z</time>
      </trkpt>
      <trkpt lat="43.64502" lon="1.35727">
        <ele>150.8</ele>
        <time>2024-03-27T16:04:01Z</time>
      </trkpt>
      <trkpt lat="43.645" lon="1.35739">
        <ele>150.8</ele>
        <time>2024-03-27T16:04:02Z</time>
      </trkpt>
      <trkpt lat="43.64498" lon="1.35746">
        <ele>150.8</ele>
        <time>2024-03-27T16:04:03Z</time>
      </trkpt>
      <trkpt lat="43.64495" lon="1.35757">
        <ele>150.8</ele>
        <time>2024-03-27T16:04:04Z</time>
      </trkpt>
      <trkpt lat="43.64494" lon="1.35766">
        <ele>150.8</ele>
        <time>2024-03-27T16:04:05Z</time>
      </trkpt>
      <trkpt lat="43.64495" lon="1.35774">
        <ele>151</ele>
        <time>2024-03-27T16:04:06Z</time>
      </trkpt>
      <trkpt lat="43.64494" lon="1.35785">
        <ele>151</ele>
        <time>2024-03-27T16:04:07Z</time>
      </trkpt>
      <trkpt lat="43.64476" lon="1.35845">
        <ele>151.4</ele>
        <time>2024-03-27T16:04:16Z</time>
      </trkpt>
      <trkpt lat="43.64476" lon="1.35855">
        <ele>151.4</ele>
        <time>2024-03-27T16:04:17Z</time>
      </trkpt>
      <trkpt lat="43.64474" lon="1.35864">
        <ele>151.4</ele>
        <time>2024-03-27T16:04:18Z</time>
      </trkpt>
      <trkpt lat="43.64473" lon="1.35873">
        <ele>151.4</ele>
        <time>2024-03-27T16:04:19Z</time>
      </trkpt>
      <trkpt lat="43.64472" lon="1.35881">
        <ele>151.2</ele>
        <time>2024-03-27T16:04:20Z</time>
      </trkpt>
      <trkpt lat="43.64471" lon="1.35889">
        <ele>151.2</ele>
        <time>2024-03-27T16:04:21Z</time>
      </trkpt>
      <trkpt lat="43.64469" lon="1.35898">
        <ele>151.4</ele>
        <time>2024-03-27T16:04:22Z</time>
      </trkpt>
      <trkpt lat="43.64468" lon="1.35906">
        <ele>151.4</ele>
        <time>2024-03-27T16:04:23Z</time>
      </trkpt>
      <trkpt lat="43.64467" lon="1.35915">
        <ele>151.4</ele>
        <time>2024-03-27T16:04:24Z</time>
      </trkpt>
      <trkpt lat="43.64466" lon="1.35921">
        <ele>151.4</ele>
        <time>2024-03-27T16:04:25Z</time>
      </trkpt>
      <trkpt lat="43.64464" lon="1.35928">
        <ele>151.6</ele>
        <time>2024-03-27T16:04:26Z</time>
      </trkpt>
      <trkpt lat="43.64462" lon="1.35936">
        <ele>151.6</ele>
        <time>2024-03-27T16:04:27Z</time>
      </trkpt>
      <trkpt lat="43.64461" lon="1.35941">
        <ele>151.8</ele>
        <time>2024-03-27T16:04:28Z</time>
      </trkpt>
      <trkpt lat="43.64459" lon="1.35949">
        <ele>152</ele>
        <time>2024-03-27T16:04:29Z</time>
      </trkpt>
      <trkpt lat="43.64458" lon="1.35954">
        <ele>152.4</ele>
        <time>2024-03-27T16:04:30Z</time>
      </trkpt>
      <trkpt lat="43.64457" lon="1.3596">
        <ele>152.8</ele>
        <time>2024-03-27T16:04:31Z</time>
      </trkpt>
      <trkpt lat="43.64456" lon="1.35967">
        <ele>152.8</ele>
        <time>2024-03-27T16:04:32Z</time>
      </trkpt>
      <trkpt lat="43.64455" lon="1.35974">
        <ele>153</ele>
        <time>2024-03-27T16:04:33Z</time>
      </trkpt>
      <trkpt lat="43.64453" lon="1.35981">
        <ele>153.2</ele>
        <time>2024-03-27T16:04:34Z</time>
      </trkpt>
      <trkpt lat="43.64453" lon="1.35986">
        <ele>153.2</ele>
        <time>2024-03-27T16:04:35Z</time>
      </trkpt>
      <trkpt lat="43.64452" lon="1.35993">
        <ele>153.4</ele>
        <time>2024-03-27T16:04:36Z</time>
      </trkpt>
      <trkpt lat="43.64451" lon="1.35999">
        <ele>153.6</ele>
        <time>2024-03-27T16:04:37Z</time>
      </trkpt>
      <trkpt lat="43.64451" lon="1.36005">
        <ele>154</ele>
        <time>2024-03-27T16:04:38Z</time>
      </trkpt>
      <trkpt lat="43.6445" lon="1.36012">
        <ele>154.2</ele>
        <time>2024-03-27T16:04:39Z</time>
      </trkpt>
      <trkpt lat="43.64449" lon="1.36018">
        <ele>154.6</ele>
        <time>2024-03-27T16:04:40Z</time>
      </trkpt>
      <trkpt lat="43.64448" lon="1.36025">
        <ele>154.6</ele>
        <time>2024-03-27T16:04:41Z</time>
      </trkpt>
      <trkpt lat="43.64447" lon="1.36031">
        <ele>155</ele>
        <time>2024-03-27T16:04:42Z</time>
      </trkpt>
      <trkpt lat="43.64447" lon="1.36038">
        <ele>155.2</ele>
        <time>2024-03-27T16:04:43Z</time>
      </trkpt>
      <trkpt lat="43.64446" lon="1.36045">
        <ele>155.4</ele>
        <time>2024-03-27T16:04:44Z</time>
      </trkpt>
      <trkpt lat="43.64445" lon="1.36051">
        <ele>155.6</ele>
        <time>2024-03-27T16:04:45Z</time>
      </trkpt>
      <trkpt lat="43.64445" lon="1.36058">
        <ele>155.8</ele>
        <time>2024-03-27T16:04:46Z</time>
      </trkpt>
      <trkpt lat="43.64444" lon="1.36065">
        <ele>155.8</ele>
        <time>2024-03-27T16:04:47Z</time>
      </trkpt>
      <trkpt lat="43.64444" lon="1.36073">
        <ele>156</ele>
        <time>2024-03-27T16:04:48Z</time>
      </trkpt>
      <trkpt lat="43.64444" lon="1.36079">
        <ele>156</ele>
        <time>2024-03-27T16:04:49Z</time>
      </trkpt>
      <trkpt lat="43.64443" lon="1.36086">
        <ele>156.2</ele>
        <time>2024-03-27T16:04:50Z</time>
      </trkpt>
      <trkpt lat="43.64443" lon="1.36093">
        <ele>156.4</ele>
        <time>2024-03-27T16:04:51Z</time>
      </trkpt>
      <trkpt lat="43.64443" lon="1.36102">
        <ele>156.4</ele>
        <time>2024-03-27T16:04:52Z</time>
      </trkpt>
      <trkpt lat="43.64443" lon="1.36108">
        <ele>156.6</ele>
        <time>2024-03-27T16:04:53Z</time>
      </trkpt>
      <trkpt lat="43.64443" lon="1.36115">
        <ele>156.6</ele>
        <time>2024-03-27T16:04:54Z</time>
      </trkpt>
      <trkpt lat="43.64443" lon="1.36122">
        <ele>156.8</ele>
        <time>2024-03-27T16:04:55Z</time>
      </trkpt>
      <trkpt lat="43.64443" lon="1.36129">
        <ele>156.8</ele>
        <time>2024-03-27T16:04:56Z</time>
      </trkpt>
      <trkpt lat="43.64444" lon="1.36138">
        <ele>156.8</ele>
        <time>2024-03-27T16:04:57Z</time>
      </trkpt>
      <trkpt lat="43.64444" lon="1.36146">
        <ele>157</ele>
        <time>2024-03-27T16:04:58Z</time>
      </trkpt>
      <trkpt lat="43.64444" lon="1.36152">
        <ele>157</ele>
        <time>2024-03-27T16:04:59Z</time>
      </trkpt>
      <trkpt lat="43.64445" lon="1.36159">
        <ele>157.2</ele>
        <time>2024-03-27T16:05:00Z</time>
      </trkpt>
      <trkpt lat="43.64446" lon="1.36166">
        <ele>157.2</ele>
        <time>2024-03-27T16:05:01Z</time>
      </trkpt>
      <trkpt lat="43.64448" lon="1.36173">
        <ele>157.4</ele>
        <time>2024-03-27T16:05:02Z</time>
      </trkpt>
      <trkpt lat="43.64449" lon="1.3618">
        <ele>157.4</ele>
        <time>2024-03-27T16:05:03Z</time>
      </trkpt>
      <trkpt lat="43.64451" lon="1.36187">
        <ele>157.4</ele>
        <time>2024-03-27T16:05:04Z</time>
      </trkpt>
      <trkpt lat="43.64453" lon="1.36194">
        <ele>157.4</ele>
        <time>2024-03-27T16:05:05Z</time>
      </trkpt>
      <trkpt lat="43.64456" lon="1.362">
        <ele>157.4</ele>
        <time>2024-03-27T16:05:06Z</time>
      </trkpt>
      <trkpt lat="43.64461" lon="1.36206">
        <ele>157.6</ele>
        <time>2024-03-27T16:05:07Z</time>
      </trkpt>
      <trkpt lat="43.64465" lon="1.3621">
        <ele>157.6</ele>
        <time>2024-03-27T16:05:08Z</time>
      </trkpt>
      <trkpt lat="43.64468" lon="1.36213">
        <ele>157.6</ele>
        <time>2024-03-27T16:05:09Z</time>
      </trkpt>
      <trkpt lat="43.64472" lon="1.36218">
        <ele>157.6</ele>
        <time>2024-03-27T16:05:10Z</time>
      </trkpt>
      <trkpt lat="43.64476" lon="1.36224">
        <ele>157.6</ele>
        <time>2024-03-27T16:05:11Z</time>
      </trkpt>
      <trkpt lat="43.64479" lon="1.36228">
        <ele>157.6</ele>
        <time>2024-03-27T16:05:12Z</time>
      </trkpt>
      <trkpt lat="43.64481" lon="1.36233">
        <ele>157.6</ele>
        <time>2024-03-27T16:05:13Z</time>
      </trkpt>
      <trkpt lat="43.64484" lon="1.36237">
        <ele>157.6</ele>
        <time>2024-03-27T16:05:14Z</time>
      </trkpt>
      <trkpt lat="43.64487" lon="1.3624">
        <ele>157.6</ele>
        <time>2024-03-27T16:05:15Z</time>
      </trkpt>
      <trkpt lat="43.64489" lon="1.36246">
        <ele>157.6</ele>
        <time>2024-03-27T16:05:16Z</time>
      </trkpt>
      <trkpt lat="43.6449" lon="1.36251">
        <ele>157.6</ele>
        <time>2024-03-27T16:05:17Z</time>
      </trkpt>
      <trkpt lat="43.64491" lon="1.36256">
        <ele>157.4</ele>
        <time>2024-03-27T16:05:18Z</time>
      </trkpt>
      <trkpt lat="43.64492" lon="1.36262">
        <ele>157.4</ele>
        <time>2024-03-27T16:05:19Z</time>
      </trkpt>
      <trkpt lat="43.64493" lon="1.36269">
        <ele>157.4</ele>
        <time>2024-03-27T16:05:20Z</time>
      </trkpt>
      <trkpt lat="43.64494" lon="1.36277">
        <ele>157.4</ele>
        <time>2024-03-27T16:05:21Z</time>
      </trkpt>
      <trkpt lat="43.64496" lon="1.36285">
        <ele>157.2</ele>
        <time>2024-03-27T16:05:22Z</time>
      </trkpt>
      <trkpt lat="43.64497" lon="1.36291">
        <ele>157.2</ele>
        <time>2024-03-27T16:05:23Z</time>
      </trkpt>
      <trkpt lat="43.64499" lon="1.36299">
        <ele>157</ele>
        <time>2024-03-27T16:05:24Z</time>
      </trkpt>
      <trkpt lat="43.645" lon="1.36307">
        <ele>157</ele>
        <time>2024-03-27T16:05:25Z</time>
      </trkpt>
      <trkpt lat="43.64502" lon="1.36316">
        <ele>156.8</ele>
        <time>2024-03-27T16:05:26Z</time>
      </trkpt>
      <trkpt lat="43.64504" lon="1.36326">
        <ele>156.8</ele>
        <time>2024-03-27T16:05:27Z</time>
      </trkpt>
      <trkpt lat="43.64505" lon="1.36333">
        <ele>156.6</ele>
        <time>2024-03-27T16:05:28Z</time>
      </trkpt>
      <trkpt lat="43.64507" lon="1.36342">
        <ele>156.6</ele>
        <time>2024-03-27T16:05:29Z</time>
      </trkpt>
      <trkpt lat="43.64508" lon="1.3635">
        <ele>156.6</ele>
        <time>2024-03-27T16:05:30Z</time>
      </trkpt>
      <trkpt lat="43.64511" lon="1.3636">
        <ele>156.4</ele>
        <time>2024-03-27T16:05:31Z</time>
      </trkpt>
      <trkpt lat="43.64512" lon="1.36367">
        <ele>156.4</ele>
        <time>2024-03-27T16:05:32Z</time>
      </trkpt>
      <trkpt lat="43.64514" lon="1.36376">
        <ele>156.4</ele>
        <time>2024-03-27T16:05:33Z</time>
      </trkpt>
      <trkpt lat="43.64516" lon="1.36384">
        <ele>156.4</ele>
        <time>2024-03-27T16:05:34Z</time>
      </trkpt>
      <trkpt lat="43.64518" lon="1.36394">
        <ele>156.2</ele>
        <time>2024-03-27T16:05:35Z</time>
      </trkpt>
      <trkpt lat="43.64521" lon="1.36402">
        <ele>156.2</ele>
        <time>2024-03-27T16:05:36Z</time>
      </trkpt>
      <trkpt lat="43.64523" lon="1.36408">
        <ele>156.2</ele>
        <time>2024-03-27T16:05:37Z</time>
      </trkpt>
      <trkpt lat="43.64526" lon="1.36416">
        <ele>156.2</ele>
        <time>2024-03-27T16:05:38Z</time>
      </trkpt>
      <trkpt lat="43.6453" lon="1.36423">
        <ele>156.2</ele>
        <time>2024-03-27T16:05:39Z</time>
      </trkpt>
      <trkpt lat="43.64533" lon="1.36432">
        <ele>156.2</ele>
        <time>2024-03-27T16:05:40Z</time>
      </trkpt>
      <trkpt lat="43.64536" lon="1.3644">
        <ele>156.2</ele>
        <time>2024-03-27T16:05:41Z</time>
      </trkpt>
      <trkpt lat="43.64539" lon="1.36445">
        <ele>156.2</ele>
        <time>2024-03-27T16:05:42Z</time>
      </trkpt>
      <trkpt lat="43.64543" lon="1.36451">
        <ele>156.2</ele>
        <time>2024-03-27T16:05:43Z</time>
      </trkpt>
      <trkpt lat="43.64548" lon="1.36457">
        <ele>156.2</ele>
        <time>2024-03-27T16:05:44Z</time>
      </trkpt>
      <trkpt lat="43.64554" lon="1.36461">
        <ele>156.2</ele>
        <time>2024-03-27T16:05:45Z</time>
      </trkpt>
      <trkpt lat="43.64561" lon="1.36463">
        <ele>156.2</ele>
        <time>2024-03-27T16:05:46Z</time>
      </trkpt>
      <trkpt lat="43.64566" lon="1.36464">
        <ele>156.2</ele>
        <time>2024-03-27T16:05:47Z</time>
      </trkpt>
      <trkpt lat="43.64572" lon="1.36464">
        <ele>156.4</ele>
        <time>2024-03-27T16:05:48Z</time>
      </trkpt>
      <trkpt lat="43.64578" lon="1.36463">
        <ele>156.4</ele>
        <time>2024-03-27T16:05:49Z</time>
      </trkpt>
      <trkpt lat="43.64586" lon="1.36462">
        <ele>156.4</ele>
        <time>2024-03-27T16:05:50Z</time>
      </trkpt>
      <trkpt lat="43.64593" lon="1.36461">
        <ele>156.4</ele>
        <time>2024-03-27T16:05:51Z</time>
      </trkpt>
      <trkpt lat="43.64599" lon="1.36461">
        <ele>156.4</ele>
        <time>2024-03-27T16:05:52Z</time>
      </trkpt>
      <trkpt lat="43.64606" lon="1.3646">
        <ele>156.4</ele>
        <time>2024-03-27T16:05:53Z</time>
      </trkpt>
      <trkpt lat="43.64611" lon="1.36459">
        <ele>156.2</ele>
        <time>2024-03-27T16:05:54Z</time>
      </trkpt>
      <trkpt lat="43.6462" lon="1.36459">
        <ele>156.2</ele>
        <time>2024-03-27T16:05:55Z</time>
      </trkpt>
      <trkpt lat="43.64626" lon="1.36459">
        <ele>156.2</ele>
        <time>2024-03-27T16:05:56Z</time>
      </trkpt>
      <trkpt lat="43.64633" lon="1.3646">
        <ele>156.2</ele>
        <time>2024-03-27T16:05:57Z</time>
      </trkpt>
      <trkpt lat="43.64638" lon="1.36461">
        <ele>156.2</ele>
        <time>2024-03-27T16:05:58Z</time>
      </trkpt>
      <trkpt lat="43.64646" lon="1.36462">
        <ele>156.2</ele>
        <time>2024-03-27T16:05:59Z</time>
      </trkpt>
      <trkpt lat="43.64653" lon="1.36464">
        <ele>156.2</ele>
        <time>2024-03-27T16:06:00Z</time>
      </trkpt>
      <trkpt lat="43.6466" lon="1.36466">
        <ele>156.2</ele>
        <time>2024-03-27T16:06:01Z</time>
      </trkpt>
      <trkpt lat="43.64667" lon="1.36467">
        <ele>156.2</ele>
        <time>2024-03-27T16:06:02Z</time>
      </trkpt>
      <trkpt lat="43.64673" lon="1.36469">
        <ele>156.2</ele>
        <time>2024-03-27T16:06:03Z</time>
      </trkpt>
      <trkpt lat="43.6468" lon="1.3647">
        <ele>156</ele>
        <time>2024-03-27T16:06:04Z</time>
      </trkpt>
      <trkpt lat="43.64688" lon="1.36472">
        <ele>156</ele>
        <time>2024-03-27T16:06:05Z</time>
      </trkpt>
      <trkpt lat="43.64693" lon="1.36474">
        <ele>156</ele>
        <time>2024-03-27T16:06:06Z</time>
      </trkpt>
      <trkpt lat="43.647" lon="1.36475">
        <ele>156</ele>
        <time>2024-03-27T16:06:07Z</time>
      </trkpt>
      <trkpt lat="43.64707" lon="1.36477">
        <ele>156.2</ele>
        <time>2024-03-27T16:06:08Z</time>
      </trkpt>
      <trkpt lat="43.64716" lon="1.36478">
        <ele>156.2</ele>
        <time>2024-03-27T16:06:09Z</time>
      </trkpt>
      <trkpt lat="43.64722" lon="1.3648">
        <ele>156.2</ele>
        <time>2024-03-27T16:06:10Z</time>
      </trkpt>
      <trkpt lat="43.64728" lon="1.36481">
        <ele>156.2</ele>
        <time>2024-03-27T16:06:11Z</time>
      </trkpt>
      <trkpt lat="43.64735" lon="1.36483">
        <ele>156.2</ele>
        <time>2024-03-27T16:06:12Z</time>
      </trkpt>
      <trkpt lat="43.64743" lon="1.36485">
        <ele>156.2</ele>
        <time>2024-03-27T16:06:13Z</time>
      </trkpt>
      <trkpt lat="43.6475" lon="1.36486">
        <ele>156.2</ele>
        <time>2024-03-27T16:06:14Z</time>
      </trkpt>
      <trkpt lat="43.64757" lon="1.36487">
        <ele>156.2</ele>
        <time>2024-03-27T16:06:15Z</time>
      </trkpt>
      <trkpt lat="43.64763" lon="1.36487">
        <ele>156.2</ele>
        <time>2024-03-27T16:06:16Z</time>
      </trkpt>
      <trkpt lat="43.6477" lon="1.36487">
        <ele>156.2</ele>
        <time>2024-03-27T16:06:17Z</time>
      </trkpt>
      <trkpt lat="43.64779" lon="1.36486">
        <ele>156.4</ele>
        <time>2024-03-27T16:06:18Z</time>
      </trkpt>
      <trkpt lat="43.64786" lon="1.36485">
        <ele>156.4</ele>
        <time>2024-03-27T16:06:19Z</time>
      </trkpt>
      <trkpt lat="43.64792" lon="1.36484">
        <ele>156.4</ele>
        <time>2024-03-27T16:06:20Z</time>
      </trkpt>
      <trkpt lat="43.64801" lon="1.36483">
        <ele>156.4</ele>
        <time>2024-03-27T16:06:21Z</time>
      </trkpt>
      <trkpt lat="43.64808" lon="1.36482">
        <ele>156.4</ele>
        <time>2024-03-27T16:06:22Z</time>
      </trkpt>
      <trkpt lat="43.64815" lon="1.36481">
        <ele>156.4</ele>
        <time>2024-03-27T16:06:23Z</time>
      </trkpt>
      <trkpt lat="43.64823" lon="1.3648">
        <ele>156.6</ele>
        <time>2024-03-27T16:06:24Z</time>
      </trkpt>
      <trkpt lat="43.64831" lon="1.36479">
        <ele>156.6</ele>
        <time>2024-03-27T16:06:25Z</time>
      </trkpt>
      <trkpt lat="43.64837" lon="1.36478">
        <ele>156.6</ele>
        <time>2024-03-27T16:06:26Z</time>
      </trkpt>
      <trkpt lat="43.64846" lon="1.36477">
        <ele>156.6</ele>
        <time>2024-03-27T16:06:27Z</time>
      </trkpt>
      <trkpt lat="43.64853" lon="1.36475">
        <ele>156.4</ele>
        <time>2024-03-27T16:06:28Z</time>
      </trkpt>
      <trkpt lat="43.64861" lon="1.36472">
        <ele>156.4</ele>
        <time>2024-03-27T16:06:29Z</time>
      </trkpt>
      <trkpt lat="43.64868" lon="1.36468">
        <ele>156.4</ele>
        <time>2024-03-27T16:06:30Z</time>
      </trkpt>
      <trkpt lat="43.64874" lon="1.36465">
        <ele>156.4</ele>
        <time>2024-03-27T16:06:31Z</time>
      </trkpt>
      <trkpt lat="43.64882" lon="1.3646">
        <ele>156.4</ele>
        <time>2024-03-27T16:06:32Z</time>
      </trkpt>
      <trkpt lat="43.64889" lon="1.36457">
        <ele>156.4</ele>
        <time>2024-03-27T16:06:33Z</time>
      </trkpt>
      <trkpt lat="43.64896" lon="1.36453">
        <ele>156.4</ele>
        <time>2024-03-27T16:06:34Z</time>
      </trkpt>
      <trkpt lat="43.64902" lon="1.3645">
        <ele>156.2</ele>
        <time>2024-03-27T16:06:35Z</time>
      </trkpt>
      <trkpt lat="43.64909" lon="1.36446">
        <ele>156.2</ele>
        <time>2024-03-27T16:06:36Z</time>
      </trkpt>
      <trkpt lat="43.64917" lon="1.36443">
        <ele>156.2</ele>
        <time>2024-03-27T16:06:37Z</time>
      </trkpt>
      <trkpt lat="43.64924" lon="1.36439">
        <ele>156.2</ele>
        <time>2024-03-27T16:06:38Z</time>
      </trkpt>
      <trkpt lat="43.64931" lon="1.36435">
        <ele>156.2</ele>
        <time>2024-03-27T16:06:39Z</time>
      </trkpt>
      <trkpt lat="43.64938" lon="1.36431">
        <ele>156.2</ele>
        <time>2024-03-27T16:06:40Z</time>
      </trkpt>
      <trkpt lat="43.64946" lon="1.36427">
        <ele>156.2</ele>
        <time>2024-03-27T16:06:41Z</time>
      </trkpt>
      <trkpt lat="43.64953" lon="1.36423">
        <ele>156.2</ele>
        <time>2024-03-27T16:06:42Z</time>
      </trkpt>
      <trkpt lat="43.6496" lon="1.36419">
        <ele>156.2</ele>
        <time>2024-03-27T16:06:43Z</time>
      </trkpt>
      <trkpt lat="43.64967" lon="1.36415">
        <ele>156.2</ele>
        <time>2024-03-27T16:06:44Z</time>
      </trkpt>
      <trkpt lat="43.64975" lon="1.36412">
        <ele>156.2</ele>
        <time>2024-03-27T16:06:45Z</time>
      </trkpt>
      <trkpt lat="43.64982" lon="1.3641">
        <ele>156.2</ele>
        <time>2024-03-27T16:06:46Z</time>
      </trkpt>
      <trkpt lat="43.64989" lon="1.36407">
        <ele>156.2</ele>
        <time>2024-03-27T16:06:47Z</time>
      </trkpt>
      <trkpt lat="43.64996" lon="1.36407">
        <ele>156.2</ele>
        <time>2024-03-27T16:06:48Z</time>
      </trkpt>
      <trkpt lat="43.65003" lon="1.36408">
        <ele>156.2</ele>
        <time>2024-03-27T16:06:49Z</time>
      </trkpt>
      <trkpt lat="43.6501" lon="1.3641">
        <ele>156.2</ele>
        <time>2024-03-27T16:06:50Z</time>
      </trkpt>
      <trkpt lat="43.65017" lon="1.36412">
        <ele>156.2</ele>
        <time>2024-03-27T16:06:51Z</time>
      </trkpt>
      <trkpt lat="43.65024" lon="1.36413">
        <ele>156.2</ele>
        <time>2024-03-27T16:06:52Z</time>
      </trkpt>
      <trkpt lat="43.65031" lon="1.36415">
        <ele>156.2</ele>
        <time>2024-03-27T16:06:53Z</time>
      </trkpt>
      <trkpt lat="43.65038" lon="1.36416">
        <ele>156.2</ele>
        <time>2024-03-27T16:06:54Z</time>
      </trkpt>
      <trkpt lat="43.65045" lon="1.36417">
        <ele>156.2</ele>
        <time>2024-03-27T16:06:55Z</time>
      </trkpt>
      <trkpt lat="43.65051" lon="1.36419">
        <ele>156.2</ele>
        <time>2024-03-27T16:06:56Z</time>
      </trkpt>
      <trkpt lat="43.65058" lon="1.3642">
        <ele>156.4</ele>
        <time>2024-03-27T16:06:57Z</time>
      </trkpt>
      <trkpt lat="43.65065" lon="1.3642">
        <ele>156.4</ele>
        <time>2024-03-27T16:06:58Z</time>
      </trkpt>
      <trkpt lat="43.65072" lon="1.3642">
        <ele>156.6</ele>
        <time>2024-03-27T16:06:59Z</time>
      </trkpt>
      <trkpt lat="43.65079" lon="1.3642">
        <ele>156.6</ele>
        <time>2024-03-27T16:07:00Z</time>
      </trkpt>
      <trkpt lat="43.65086" lon="1.3642">
        <ele>156.6</ele>
        <time>2024-03-27T16:07:01Z</time>
      </trkpt>
      <trkpt lat="43.65093" lon="1.3642">
        <ele>156.8</ele>
        <time>2024-03-27T16:07:02Z</time>
      </trkpt>
      <trkpt lat="43.651" lon="1.3642">
        <ele>156.8</ele>
        <time>2024-03-27T16:07:03Z</time>
      </trkpt>
      <trkpt lat="43.65107" lon="1.36419">
        <ele>156.8</ele>
        <time>2024-03-27T16:07:04Z</time>
      </trkpt>
      <trkpt lat="43.65114" lon="1.3642">
        <ele>156.8</ele>
        <time>2024-03-27T16:07:05Z</time>
      </trkpt>
      <trkpt lat="43.65121" lon="1.3642">
        <ele>157</ele>
        <time>2024-03-27T16:07:06Z</time>
      </trkpt>
      <trkpt lat="43.65128" lon="1.36419">
        <ele>157</ele>
        <time>2024-03-27T16:07:07Z</time>
      </trkpt>
      <trkpt lat="43.65135" lon="1.36419">
        <ele>157.2</ele>
        <time>2024-03-27T16:07:08Z</time>
      </trkpt>
      <trkpt lat="43.65142" lon="1.36419">
        <ele>157.4</ele>
        <time>2024-03-27T16:07:09Z</time>
      </trkpt>
      <trkpt lat="43.65149" lon="1.36419">
        <ele>157.4</ele>
        <time>2024-03-27T16:07:10Z</time>
      </trkpt>
      <trkpt lat="43.65156" lon="1.36419">
        <ele>157.4</ele>
        <time>2024-03-27T16:07:11Z</time>
      </trkpt>
      <trkpt lat="43.65163" lon="1.36419">
        <ele>157.4</ele>
        <time>2024-03-27T16:07:12Z</time>
      </trkpt>
      <trkpt lat="43.65169" lon="1.36419">
        <ele>157.4</ele>
        <time>2024-03-27T16:07:13Z</time>
      </trkpt>
      <trkpt lat="43.65176" lon="1.36419">
        <ele>157.4</ele>
        <time>2024-03-27T16:07:14Z</time>
      </trkpt>
      <trkpt lat="43.65184" lon="1.36419">
        <ele>157.6</ele>
        <time>2024-03-27T16:07:15Z</time>
      </trkpt>
      <trkpt lat="43.6519" lon="1.36419">
        <ele>157.6</ele>
        <time>2024-03-27T16:07:16Z</time>
      </trkpt>
      <trkpt lat="43.65197" lon="1.36419">
        <ele>157.6</ele>
        <time>2024-03-27T16:07:17Z</time>
      </trkpt>
      <trkpt lat="43.65204" lon="1.3642">
        <ele>157.8</ele>
        <time>2024-03-27T16:07:18Z</time>
      </trkpt>
      <trkpt lat="43.6521" lon="1.3642">
        <ele>157.8</ele>
        <time>2024-03-27T16:07:19Z</time>
      </trkpt>
      <trkpt lat="43.65217" lon="1.3642">
        <ele>157.8</ele>
        <time>2024-03-27T16:07:20Z</time>
      </trkpt>
      <trkpt lat="43.65224" lon="1.36421">
        <ele>157.8</ele>
        <time>2024-03-27T16:07:21Z</time>
      </trkpt>
      <trkpt lat="43.65231" lon="1.36421">
        <ele>158</ele>
        <time>2024-03-27T16:07:22Z</time>
      </trkpt>
      <trkpt lat="43.65238" lon="1.36421">
        <ele>158</ele>
        <time>2024-03-27T16:07:23Z</time>
      </trkpt>
      <trkpt lat="43.65245" lon="1.36422">
        <ele>158</ele>
        <time>2024-03-27T16:07:24Z</time>
      </trkpt>
      <trkpt lat="43.65252" lon="1.36422">
        <ele>158</ele>
        <time>2024-03-27T16:07:25Z</time>
      </trkpt>
      <trkpt lat="43.65261" lon="1.36423">
        <ele>158</ele>
        <time>2024-03-27T16:07:26Z</time>
      </trkpt>
      <trkpt lat="43.65267" lon="1.36423">
        <ele>158</ele>
        <time>2024-03-27T16:07:27Z</time>
      </trkpt>
      <trkpt lat="43.65275" lon="1.36424">
        <ele>158.2</ele>
        <time>2024-03-27T16:07:28Z</time>
      </trkpt>
      <trkpt lat="43.65282" lon="1.36424">
        <ele>158.2</ele>
        <time>2024-03-27T16:07:29Z</time>
      </trkpt>
      <trkpt lat="43.65289" lon="1.36424">
        <ele>158.2</ele>
        <time>2024-03-27T16:07:30Z</time>
      </trkpt>
      <trkpt lat="43.65297" lon="1.36424">
        <ele>158.2</ele>
        <time>2024-03-27T16:07:31Z</time>
      </trkpt>
      <trkpt lat="43.65304" lon="1.36424">
        <ele>158.2</ele>
        <time>2024-03-27T16:07:32Z</time>
      </trkpt>
      <trkpt lat="43.65312" lon="1.36423">
        <ele>158.2</ele>
        <time>2024-03-27T16:07:33Z</time>
      </trkpt>
      <trkpt lat="43.65319" lon="1.36422">
        <ele>158.2</ele>
        <time>2024-03-27T16:07:34Z</time>
      </trkpt>
      <trkpt lat="43.65327" lon="1.36421">
        <ele>158.2</ele>
        <time>2024-03-27T16:07:35Z</time>
      </trkpt>
      <trkpt lat="43.65334" lon="1.3642">
        <ele>158.2</ele>
        <time>2024-03-27T16:07:36Z</time>
      </trkpt>
      <trkpt lat="43.65341" lon="1.36418">
        <ele>158.2</ele>
        <time>2024-03-27T16:07:37Z</time>
      </trkpt>
      <trkpt lat="43.65348" lon="1.36415">
        <ele>158.2</ele>
        <time>2024-03-27T16:07:38Z</time>
      </trkpt>
      <trkpt lat="43.65355" lon="1.36413">
        <ele>158.2</ele>
        <time>2024-03-27T16:07:39Z</time>
      </trkpt>
      <trkpt lat="43.65362" lon="1.3641">
        <ele>158.2</ele>
        <time>2024-03-27T16:07:40Z</time>
      </trkpt>
      <trkpt lat="43.65369" lon="1.36407">
        <ele>158.2</ele>
        <time>2024-03-27T16:07:41Z</time>
      </trkpt>
      <trkpt lat="43.65376" lon="1.36403">
        <ele>158.2</ele>
        <time>2024-03-27T16:07:42Z</time>
      </trkpt>
      <trkpt lat="43.65384" lon="1.364">
        <ele>158.2</ele>
        <time>2024-03-27T16:07:43Z</time>
      </trkpt>
      <trkpt lat="43.65391" lon="1.36397">
        <ele>158.2</ele>
        <time>2024-03-27T16:07:44Z</time>
      </trkpt>
      <trkpt lat="43.65399" lon="1.36392">
        <ele>158.2</ele>
        <time>2024-03-27T16:07:45Z</time>
      </trkpt>
      <trkpt lat="43.65405" lon="1.3639">
        <ele>158.2</ele>
        <time>2024-03-27T16:07:46Z</time>
      </trkpt>
      <trkpt lat="43.65412" lon="1.36386">
        <ele>158.2</ele>
        <time>2024-03-27T16:07:47Z</time>
      </trkpt>
      <trkpt lat="43.6542" lon="1.36383">
        <ele>158.2</ele>
        <time>2024-03-27T16:07:48Z</time>
      </trkpt>
      <trkpt lat="43.65427" lon="1.3638">
        <ele>158.4</ele>
        <time>2024-03-27T16:07:49Z</time>
      </trkpt>
      <trkpt lat="43.65434" lon="1.36376">
        <ele>158.4</ele>
        <time>2024-03-27T16:07:50Z</time>
      </trkpt>
      <trkpt lat="43.65441" lon="1.36373">
        <ele>158.4</ele>
        <time>2024-03-27T16:07:51Z</time>
      </trkpt>
      <trkpt lat="43.65448" lon="1.3637">
        <ele>158.2</ele>
        <time>2024-03-27T16:07:52Z</time>
      </trkpt>
      <trkpt lat="43.65455" lon="1.36367">
        <ele>158.2</ele>
        <time>2024-03-27T16:07:53Z</time>
      </trkpt>
      <trkpt lat="43.65461" lon="1.36363">
        <ele>158.2</ele>
        <time>2024-03-27T16:07:54Z</time>
      </trkpt>
      <trkpt lat="43.65468" lon="1.3636">
        <ele>158.2</ele>
        <time>2024-03-27T16:07:55Z</time>
      </trkpt>
      <trkpt lat="43.65475" lon="1.36356">
        <ele>158.2</ele>
        <time>2024-03-27T16:07:56Z</time>
      </trkpt>
      <trkpt lat="43.65481" lon="1.36351">
        <ele>158.2</ele>
        <time>2024-03-27T16:07:57Z</time>
      </trkpt>
      <trkpt lat="43.65486" lon="1.36344">
        <ele>158.2</ele>
        <time>2024-03-27T16:07:58Z</time>
      </trkpt>
      <trkpt lat="43.65488" lon="1.36334">
        <ele>158</ele>
        <time>2024-03-27T16:07:59Z</time>
      </trkpt>
      <trkpt lat="43.65488" lon="1.36324">
        <ele>158</ele>
        <time>2024-03-27T16:08:00Z</time>
      </trkpt>
      <trkpt lat="43.65487" lon="1.36314">
        <ele>158</ele>
        <time>2024-03-27T16:08:01Z</time>
      </trkpt>
      <trkpt lat="43.65486" lon="1.36303">
        <ele>158</ele>
        <time>2024-03-27T16:08:02Z</time>
      </trkpt>
      <trkpt lat="43.65485" lon="1.36293">
        <ele>158</ele>
        <time>2024-03-27T16:08:03Z</time>
      </trkpt>
      <trkpt lat="43.65485" lon="1.36282">
        <ele>158</ele>
        <time>2024-03-27T16:08:04Z</time>
      </trkpt>
      <trkpt lat="43.65484" lon="1.3627">
        <ele>158</ele>
        <time>2024-03-27T16:08:05Z</time>
      </trkpt>
      <trkpt lat="43.65483" lon="1.36259">
        <ele>158</ele>
        <time>2024-03-27T16:08:06Z</time>
      </trkpt>
      <trkpt lat="43.65482" lon="1.36248">
        <ele>157.8</ele>
        <time>2024-03-27T16:08:07Z</time>
      </trkpt>
      <trkpt lat="43.65482" lon="1.36237">
        <ele>157.8</ele>
        <time>2024-03-27T16:08:08Z</time>
      </trkpt>
      <trkpt lat="43.65481" lon="1.36226">
        <ele>157.6</ele>
        <time>2024-03-27T16:08:09Z</time>
      </trkpt>
      <trkpt lat="43.6548" lon="1.36215">
        <ele>157.4</ele>
        <time>2024-03-27T16:08:10Z</time>
      </trkpt>
      <trkpt lat="43.65479" lon="1.36204">
        <ele>157.4</ele>
        <time>2024-03-27T16:08:11Z</time>
      </trkpt>
      <trkpt lat="43.65478" lon="1.36194">
        <ele>157.2</ele>
        <time>2024-03-27T16:08:12Z</time>
      </trkpt>
      <trkpt lat="43.65477" lon="1.36185">
        <ele>157.2</ele>
        <time>2024-03-27T16:08:13Z</time>
      </trkpt>
      <trkpt lat="43.65476" lon="1.36172">
        <ele>157</ele>
        <time>2024-03-27T16:08:14Z</time>
      </trkpt>
      <trkpt lat="43.65476" lon="1.36162">
        <ele>156.8</ele>
        <time>2024-03-27T16:08:15Z</time>
      </trkpt>
      <trkpt lat="43.65475" lon="1.36152">
        <ele>156.6</ele>
        <time>2024-03-27T16:08:16Z</time>
      </trkpt>
      <trkpt lat="43.65474" lon="1.36142">
        <ele>156.4</ele>
        <time>2024-03-27T16:08:17Z</time>
      </trkpt>
      <trkpt lat="43.65474" lon="1.36133">
        <ele>156.2</ele>
        <time>2024-03-27T16:08:18Z</time>
      </trkpt>
      <trkpt lat="43.65473" lon="1.36123">
        <ele>156.2</ele>
        <time>2024-03-27T16:08:19Z</time>
      </trkpt>
      <trkpt lat="43.65472" lon="1.36116">
        <ele>156.2</ele>
        <time>2024-03-27T16:08:20Z</time>
      </trkpt>
      <trkpt lat="43.65471" lon="1.36107">
        <ele>156</ele>
        <time>2024-03-27T16:08:21Z</time>
      </trkpt>
      <trkpt lat="43.65471" lon="1.36102">
        <ele>156</ele>
        <time>2024-03-27T16:08:22Z</time>
      </trkpt>
      <trkpt lat="43.65473" lon="1.36098">
        <ele>156</ele>
        <time>2024-03-27T16:08:23Z</time>
      </trkpt>
      <trkpt lat="43.65476" lon="1.36094">
        <ele>155.8</ele>
        <time>2024-03-27T16:08:24Z</time>
      </trkpt>
      <trkpt lat="43.65481" lon="1.3609">
        <ele>155.8</ele>
        <time>2024-03-27T16:08:25Z</time>
      </trkpt>
      <trkpt lat="43.65487" lon="1.36087">
        <ele>155.8</ele>
        <time>2024-03-27T16:08:26Z</time>
      </trkpt>
      <trkpt lat="43.65492" lon="1.36086">
        <ele>155.8</ele>
        <time>2024-03-27T16:08:27Z</time>
      </trkpt>
      <trkpt lat="43.65497" lon="1.36084">
        <ele>155.8</ele>
        <time>2024-03-27T16:08:28Z</time>
      </trkpt>
      <trkpt lat="43.65501" lon="1.36083">
        <ele>155.8</ele>
        <time>2024-03-27T16:08:29Z</time>
      </trkpt>
      <trkpt lat="43.65507" lon="1.36081">
        <ele>155.6</ele>
        <time>2024-03-27T16:08:30Z</time>
      </trkpt>
      <trkpt lat="43.65511" lon="1.36077">
        <ele>155.6</ele>
        <time>2024-03-27T16:08:31Z</time>
      </trkpt>
      <trkpt lat="43.65514" lon="1.3607">
        <ele>155.6</ele>
        <time>2024-03-27T16:08:32Z</time>
      </trkpt>
      <trkpt lat="43.65515" lon="1.36065">
        <ele>155.6</ele>
        <time>2024-03-27T16:08:33Z</time>
      </trkpt>
      <trkpt lat="43.65516" lon="1.36058">
        <ele>155.4</ele>
        <time>2024-03-27T16:08:34Z</time>
      </trkpt>
      <trkpt lat="43.65519" lon="1.3605">
        <ele>155.4</ele>
        <time>2024-03-27T16:08:35Z</time>
      </trkpt>
      <trkpt lat="43.65524" lon="1.36044">
        <ele>155.4</ele>
        <time>2024-03-27T16:08:36Z</time>
      </trkpt>
      <trkpt lat="43.65529" lon="1.36039">
        <ele>155.4</ele>
        <time>2024-03-27T16:08:37Z</time>
      </trkpt>
      <trkpt lat="43.65534" lon="1.36034">
        <ele>155.4</ele>
        <time>2024-03-27T16:08:38Z</time>
      </trkpt>
      <trkpt lat="43.65539" lon="1.3603">
        <ele>155.2</ele>
        <time>2024-03-27T16:08:39Z</time>
      </trkpt>
      <trkpt lat="43.65545" lon="1.36024">
        <ele>155.2</ele>
        <time>2024-03-27T16:08:40Z</time>
      </trkpt>
      <trkpt lat="43.65551" lon="1.36019">
        <ele>155.2</ele>
        <time>2024-03-27T16:08:41Z</time>
      </trkpt>
      <trkpt lat="43.65556" lon="1.36014">
        <ele>155</ele>
        <time>2024-03-27T16:08:42Z</time>
      </trkpt>
      <trkpt lat="43.65561" lon="1.3601">
        <ele>155</ele>
        <time>2024-03-27T16:08:43Z</time>
      </trkpt>
      <trkpt lat="43.65566" lon="1.36005">
        <ele>155</ele>
        <time>2024-03-27T16:08:44Z</time>
      </trkpt>
      <trkpt lat="43.65573" lon="1.35998">
        <ele>155</ele>
        <time>2024-03-27T16:08:45Z</time>
      </trkpt>
      <trkpt lat="43.65579" lon="1.35992">
        <ele>155</ele>
        <time>2024-03-27T16:08:46Z</time>
      </trkpt>
      <trkpt lat="43.65584" lon="1.35987">
        <ele>155</ele>
        <time>2024-03-27T16:08:47Z</time>
      </trkpt>
      <trkpt lat="43.6559" lon="1.35981">
        <ele>155</ele>
        <time>2024-03-27T16:08:48Z</time>
      </trkpt>
      <trkpt lat="43.65595" lon="1.35975">
        <ele>155</ele>
        <time>2024-03-27T16:08:49Z</time>
      </trkpt>
      <trkpt lat="43.65601" lon="1.35969">
        <ele>155</ele>
        <time>2024-03-27T16:08:50Z</time>
      </trkpt>
      <trkpt lat="43.65607" lon="1.35963">
        <ele>155</ele>
        <time>2024-03-27T16:08:51Z</time>
      </trkpt>
      <trkpt lat="43.65613" lon="1.35957">
        <ele>155</ele>
        <time>2024-03-27T16:08:52Z</time>
      </trkpt>
      <trkpt lat="43.6562" lon="1.35952">
        <ele>155</ele>
        <time>2024-03-27T16:08:53Z</time>
      </trkpt>
      <trkpt lat="43.65626" lon="1.35946">
        <ele>155</ele>
        <time>2024-03-27T16:08:54Z</time>
      </trkpt>
      <trkpt lat="43.65632" lon="1.3594">
        <ele>154.8</ele>
        <time>2024-03-27T16:08:55Z</time>
      </trkpt>
      <trkpt lat="43.65638" lon="1.35934">
        <ele>154.8</ele>
        <time>2024-03-27T16:08:56Z</time>
      </trkpt>
      <trkpt lat="43.65645" lon="1.35927">
        <ele>154.8</ele>
        <time>2024-03-27T16:08:57Z</time>
      </trkpt>
      <trkpt lat="43.65651" lon="1.35921">
        <ele>154.8</ele>
        <time>2024-03-27T16:08:58Z</time>
      </trkpt>
      <trkpt lat="43.65658" lon="1.35915">
        <ele>154.8</ele>
        <time>2024-03-27T16:08:59Z</time>
      </trkpt>
      <trkpt lat="43.65664" lon="1.35909">
        <ele>154.8</ele>
        <time>2024-03-27T16:09:00Z</time>
      </trkpt>
      <trkpt lat="43.6567" lon="1.35903">
        <ele>154.8</ele>
        <time>2024-03-27T16:09:01Z</time>
      </trkpt>
      <trkpt lat="43.65675" lon="1.35899">
        <ele>154.8</ele>
        <time>2024-03-27T16:09:02Z</time>
      </trkpt>
      <trkpt lat="43.65683" lon="1.35893">
        <ele>154.8</ele>
        <time>2024-03-27T16:09:03Z</time>
      </trkpt>
      <trkpt lat="43.6569" lon="1.35888">
        <ele>154.8</ele>
        <time>2024-03-27T16:09:04Z</time>
      </trkpt>
      <trkpt lat="43.65695" lon="1.35884">
        <ele>154.8</ele>
        <time>2024-03-27T16:09:05Z</time>
      </trkpt>
      <trkpt lat="43.65703" lon="1.3588">
        <ele>154.8</ele>
        <time>2024-03-27T16:09:06Z</time>
      </trkpt>
      <trkpt lat="43.65711" lon="1.35877">
        <ele>154.8</ele>
        <time>2024-03-27T16:09:07Z</time>
      </trkpt>
      <trkpt lat="43.65718" lon="1.35875">
        <ele>154.8</ele>
        <time>2024-03-27T16:09:08Z</time>
      </trkpt>
      <trkpt lat="43.65725" lon="1.35873">
        <ele>154.8</ele>
        <time>2024-03-27T16:09:09Z</time>
      </trkpt>
      <trkpt lat="43.65733" lon="1.35872">
        <ele>154.8</ele>
        <time>2024-03-27T16:09:10Z</time>
      </trkpt>
      <trkpt lat="43.65739" lon="1.35872">
        <ele>155</ele>
        <time>2024-03-27T16:09:11Z</time>
      </trkpt>
      <trkpt lat="43.65746" lon="1.35871">
        <ele>155</ele>
        <time>2024-03-27T16:09:12Z</time>
      </trkpt>
      <trkpt lat="43.65756" lon="1.3587">
        <ele>155</ele>
        <time>2024-03-27T16:09:13Z</time>
      </trkpt>
      <trkpt lat="43.65763" lon="1.35869">
        <ele>155</ele>
        <time>2024-03-27T16:09:14Z</time>
      </trkpt>
      <trkpt lat="43.65771" lon="1.35869">
        <ele>155.2</ele>
        <time>2024-03-27T16:09:15Z</time>
      </trkpt>
      <trkpt lat="43.65777" lon="1.35868">
        <ele>155.2</ele>
        <time>2024-03-27T16:09:16Z</time>
      </trkpt>
      <trkpt lat="43.65786" lon="1.35867">
        <ele>155.2</ele>
        <time>2024-03-27T16:09:17Z</time>
      </trkpt>
      <trkpt lat="43.65793" lon="1.35866">
        <ele>155.2</ele>
        <time>2024-03-27T16:09:18Z</time>
      </trkpt>
      <trkpt lat="43.658" lon="1.35865">
        <ele>155.2</ele>
        <time>2024-03-27T16:09:19Z</time>
      </trkpt>
      <trkpt lat="43.65808" lon="1.35864">
        <ele>155.2</ele>
        <time>2024-03-27T16:09:20Z</time>
      </trkpt>
      <trkpt lat="43.65815" lon="1.35864">
        <ele>155.2</ele>
        <time>2024-03-27T16:09:21Z</time>
      </trkpt>
      <trkpt lat="43.65822" lon="1.35863">
        <ele>155</ele>
        <time>2024-03-27T16:09:22Z</time>
      </trkpt>
      <trkpt lat="43.65829" lon="1.35862">
        <ele>155</ele>
        <time>2024-03-27T16:09:23Z</time>
      </trkpt>
      <trkpt lat="43.65837" lon="1.35861">
        <ele>155</ele>
        <time>2024-03-27T16:09:24Z</time>
      </trkpt>
      <trkpt lat="43.65842" lon="1.3586">
        <ele>155</ele>
        <time>2024-03-27T16:09:25Z</time>
      </trkpt>
      <trkpt lat="43.6585" lon="1.35859">
        <ele>155</ele>
        <time>2024-03-27T16:09:26Z</time>
      </trkpt>
      <trkpt lat="43.65858" lon="1.35858">
        <ele>154.8</ele>
        <time>2024-03-27T16:09:27Z</time>
      </trkpt>
      <trkpt lat="43.65866" lon="1.35857">
        <ele>154.8</ele>
        <time>2024-03-27T16:09:28Z</time>
      </trkpt>
      <trkpt lat="43.65872" lon="1.35856">
        <ele>154.8</ele>
        <time>2024-03-27T16:09:29Z</time>
      </trkpt>
      <trkpt lat="43.65879" lon="1.35855">
        <ele>154.8</ele>
        <time>2024-03-27T16:09:30Z</time>
      </trkpt>
      <trkpt lat="43.65888" lon="1.35853">
        <ele>154.8</ele>
        <time>2024-03-27T16:09:31Z</time>
      </trkpt>
      <trkpt lat="43.65895" lon="1.35852">
        <ele>154.8</ele>
        <time>2024-03-27T16:09:32Z</time>
      </trkpt>
      <trkpt lat="43.65902" lon="1.35851">
        <ele>154.8</ele>
        <time>2024-03-27T16:09:33Z</time>
      </trkpt>
      <trkpt lat="43.65907" lon="1.3585">
        <ele>154.8</ele>
        <time>2024-03-27T16:09:34Z</time>
      </trkpt>
      <trkpt lat="43.65914" lon="1.35849">
        <ele>154.8</ele>
        <time>2024-03-27T16:09:35Z</time>
      </trkpt>
      <trkpt lat="43.65923" lon="1.35848">
        <ele>154.8</ele>
        <time>2024-03-27T16:09:36Z</time>
      </trkpt>
      <trkpt lat="43.6593" lon="1.35848">
        <ele>154.8</ele>
        <time>2024-03-27T16:09:37Z</time>
      </trkpt>
      <trkpt lat="43.65937" lon="1.35847">
        <ele>154.8</ele>
        <time>2024-03-27T16:09:38Z</time>
      </trkpt>
      <trkpt lat="43.65943" lon="1.35847">
        <ele>154.8</ele>
        <time>2024-03-27T16:09:39Z</time>
      </trkpt>
      <trkpt lat="43.6595" lon="1.35846">
        <ele>154.8</ele>
        <time>2024-03-27T16:09:40Z</time>
      </trkpt>
      <trkpt lat="43.65957" lon="1.35845">
        <ele>154.8</ele>
        <time>2024-03-27T16:09:41Z</time>
      </trkpt>
      <trkpt lat="43.65964" lon="1.35844">
        <ele>154.8</ele>
        <time>2024-03-27T16:09:42Z</time>
      </trkpt>
      <trkpt lat="43.65971" lon="1.35843">
        <ele>154.8</ele>
        <time>2024-03-27T16:09:43Z</time>
      </trkpt>
      <trkpt lat="43.65978" lon="1.35842">
        <ele>154.8</ele>
        <time>2024-03-27T16:09:44Z</time>
      </trkpt>
      <trkpt lat="43.65985" lon="1.35841">
        <ele>154.8</ele>
        <time>2024-03-27T16:09:45Z</time>
      </trkpt>
      <trkpt lat="43.65992" lon="1.3584">
        <ele>154.8</ele>
        <time>2024-03-27T16:09:46Z</time>
      </trkpt>
      <trkpt lat="43.65999" lon="1.35839">
        <ele>154.8</ele>
        <time>2024-03-27T16:09:47Z</time>
      </trkpt>
      <trkpt lat="43.66006" lon="1.35839">
        <ele>154.8</ele>
        <time>2024-03-27T16:09:48Z</time>
      </trkpt>
      <trkpt lat="43.66013" lon="1.35838">
        <ele>154.8</ele>
        <time>2024-03-27T16:09:49Z</time>
      </trkpt>
      <trkpt lat="43.6602" lon="1.35836">
        <ele>154.8</ele>
        <time>2024-03-27T16:09:50Z</time>
      </trkpt>
      <trkpt lat="43.66027" lon="1.35835">
        <ele>154.8</ele>
        <time>2024-03-27T16:09:51Z</time>
      </trkpt>
      <trkpt lat="43.66034" lon="1.35834">
        <ele>154.8</ele>
        <time>2024-03-27T16:09:52Z</time>
      </trkpt>
      <trkpt lat="43.66041" lon="1.35833">
        <ele>154.8</ele>
        <time>2024-03-27T16:09:53Z</time>
      </trkpt>
      <trkpt lat="43.66048" lon="1.35833">
        <ele>154.8</ele>
        <time>2024-03-27T16:09:54Z</time>
      </trkpt>
      <trkpt lat="43.66055" lon="1.35832">
        <ele>155</ele>
        <time>2024-03-27T16:09:55Z</time>
      </trkpt>
      <trkpt lat="43.66063" lon="1.35831">
        <ele>155</ele>
        <time>2024-03-27T16:09:56Z</time>
      </trkpt>
      <trkpt lat="43.66069" lon="1.3583">
        <ele>155</ele>
        <time>2024-03-27T16:09:57Z</time>
      </trkpt>
      <trkpt lat="43.66076" lon="1.35829">
        <ele>155</ele>
        <time>2024-03-27T16:09:58Z</time>
      </trkpt>
      <trkpt lat="43.66082" lon="1.35828">
        <ele>155</ele>
        <time>2024-03-27T16:09:59Z</time>
      </trkpt>
      <trkpt lat="43.66089" lon="1.35827">
        <ele>155</ele>
        <time>2024-03-27T16:10:00Z</time>
      </trkpt>
      <trkpt lat="43.66096" lon="1.35826">
        <ele>155</ele>
        <time>2024-03-27T16:10:01Z</time>
      </trkpt>
      <trkpt lat="43.66103" lon="1.35824">
        <ele>155</ele>
        <time>2024-03-27T16:10:02Z</time>
      </trkpt>
      <trkpt lat="43.66109" lon="1.35823">
        <ele>155</ele>
        <time>2024-03-27T16:10:03Z</time>
      </trkpt>
      <trkpt lat="43.66116" lon="1.3582">
        <ele>155</ele>
        <time>2024-03-27T16:10:04Z</time>
      </trkpt>
      <trkpt lat="43.66121" lon="1.35814">
        <ele>155</ele>
        <time>2024-03-27T16:10:05Z</time>
      </trkpt>
      <trkpt lat="43.66125" lon="1.35807">
        <ele>155</ele>
        <time>2024-03-27T16:10:06Z</time>
      </trkpt>
      <trkpt lat="43.66129" lon="1.358">
        <ele>155</ele>
        <time>2024-03-27T16:10:07Z</time>
      </trkpt>
      <trkpt lat="43.66131" lon="1.35792">
        <ele>155</ele>
        <time>2024-03-27T16:10:08Z</time>
      </trkpt>
      <trkpt lat="43.66134" lon="1.35783">
        <ele>155</ele>
        <time>2024-03-27T16:10:09Z</time>
      </trkpt>
      <trkpt lat="43.66137" lon="1.35775">
        <ele>155</ele>
        <time>2024-03-27T16:10:10Z</time>
      </trkpt>
      <trkpt lat="43.6614" lon="1.35766">
        <ele>155</ele>
        <time>2024-03-27T16:10:11Z</time>
      </trkpt>
      <trkpt lat="43.66144" lon="1.35758">
        <ele>155</ele>
        <time>2024-03-27T16:10:12Z</time>
      </trkpt>
      <trkpt lat="43.66147" lon="1.3575">
        <ele>155</ele>
        <time>2024-03-27T16:10:13Z</time>
      </trkpt>
      <trkpt lat="43.6615" lon="1.35742">
        <ele>155.2</ele>
        <time>2024-03-27T16:10:14Z</time>
      </trkpt>
      <trkpt lat="43.66154" lon="1.35734">
        <ele>155.2</ele>
        <time>2024-03-27T16:10:15Z</time>
      </trkpt>
      <trkpt lat="43.66158" lon="1.35727">
        <ele>155.2</ele>
        <time>2024-03-27T16:10:16Z</time>
      </trkpt>
      <trkpt lat="43.66162" lon="1.3572">
        <ele>155.2</ele>
        <time>2024-03-27T16:10:17Z</time>
      </trkpt>
      <trkpt lat="43.66165" lon="1.35713">
        <ele>155.4</ele>
        <time>2024-03-27T16:10:18Z</time>
      </trkpt>
      <trkpt lat="43.66167" lon="1.35707">
        <ele>155.4</ele>
        <time>2024-03-27T16:10:19Z</time>
      </trkpt>
      <trkpt lat="43.66167" lon="1.357">
        <ele>155.4</ele>
        <time>2024-03-27T16:10:20Z</time>
      </trkpt>
      <trkpt lat="43.66165" lon="1.35695">
        <ele>155.4</ele>
        <time>2024-03-27T16:10:21Z</time>
      </trkpt>
      <trkpt lat="43.66163" lon="1.3569">
        <ele>155.4</ele>
        <time>2024-03-27T16:10:22Z</time>
      </trkpt>
      <trkpt lat="43.66162" lon="1.35686">
        <ele>155.4</ele>
        <time>2024-03-27T16:10:23Z</time>
      </trkpt>
      <trkpt lat="43.66164" lon="1.35682">
        <ele>155.4</ele>
        <time>2024-03-27T16:10:24Z</time>
      </trkpt>
      <trkpt lat="43.66166" lon="1.35678">
        <ele>155.2</ele>
        <time>2024-03-27T16:10:25Z</time>
      </trkpt>
      <trkpt lat="43.6617" lon="1.35674">
        <ele>155.4</ele>
        <time>2024-03-27T16:10:26Z</time>
      </trkpt>
      <trkpt lat="43.66173" lon="1.35671">
        <ele>155.4</ele>
        <time>2024-03-27T16:10:27Z</time>
      </trkpt>
      <trkpt lat="43.66177" lon="1.35666">
        <ele>155.4</ele>
        <time>2024-03-27T16:10:28Z</time>
      </trkpt>
      <trkpt lat="43.66181" lon="1.35661">
        <ele>155.4</ele>
        <time>2024-03-27T16:10:29Z</time>
      </trkpt>
      <trkpt lat="43.66185" lon="1.35656">
        <ele>155.4</ele>
        <time>2024-03-27T16:10:30Z</time>
      </trkpt>
      <trkpt lat="43.66189" lon="1.35649">
        <ele>155.4</ele>
        <time>2024-03-27T16:10:31Z</time>
      </trkpt>
      <trkpt lat="43.66192" lon="1.35642">
        <ele>155.4</ele>
        <time>2024-03-27T16:10:32Z</time>
      </trkpt>
      <trkpt lat="43.66194" lon="1.35634">
        <ele>155.4</ele>
        <time>2024-03-27T16:10:33Z</time>
      </trkpt>
      <trkpt lat="43.66195" lon="1.35626">
        <ele>155.4</ele>
        <time>2024-03-27T16:10:34Z</time>
      </trkpt>
      <trkpt lat="43.66195" lon="1.35618">
        <ele>155.4</ele>
        <time>2024-03-27T16:10:35Z</time>
      </trkpt>
      <trkpt lat="43.66194" lon="1.35609">
        <ele>155.4</ele>
        <time>2024-03-27T16:10:36Z</time>
      </trkpt>
      <trkpt lat="43.66193" lon="1.35598">
        <ele>155.4</ele>
        <time>2024-03-27T16:10:37Z</time>
      </trkpt>
      <trkpt lat="43.6619" lon="1.35588">
        <ele>155.4</ele>
        <time>2024-03-27T16:10:38Z</time>
      </trkpt>
      <trkpt lat="43.66187" lon="1.35579">
        <ele>155.4</ele>
        <time>2024-03-27T16:10:39Z</time>
      </trkpt>
      <trkpt lat="43.66184" lon="1.35571">
        <ele>155.4</ele>
        <time>2024-03-27T16:10:40Z</time>
      </trkpt>
      <trkpt lat="43.66181" lon="1.35562">
        <ele>155.4</ele>
        <time>2024-03-27T16:10:41Z</time>
      </trkpt>
      <trkpt lat="43.66176" lon="1.35551">
        <ele>155.4</ele>
        <time>2024-03-27T16:10:42Z</time>
      </trkpt>
      <trkpt lat="43.66173" lon="1.35542">
        <ele>155.4</ele>
        <time>2024-03-27T16:10:43Z</time>
      </trkpt>
      <trkpt lat="43.66169" lon="1.35533">
        <ele>155.4</ele>
        <time>2024-03-27T16:10:44Z</time>
      </trkpt>
      <trkpt lat="43.66166" lon="1.35524">
        <ele>155.4</ele>
        <time>2024-03-27T16:10:45Z</time>
      </trkpt>
      <trkpt lat="43.66163" lon="1.35514">
        <ele>155.4</ele>
        <time>2024-03-27T16:10:46Z</time>
      </trkpt>
      <trkpt lat="43.66159" lon="1.35505">
        <ele>155.4</ele>
        <time>2024-03-27T16:10:47Z</time>
      </trkpt>
      <trkpt lat="43.66156" lon="1.35495">
        <ele>155.2</ele>
        <time>2024-03-27T16:10:48Z</time>
      </trkpt>
      <trkpt lat="43.66154" lon="1.35487">
        <ele>155.2</ele>
        <time>2024-03-27T16:10:49Z</time>
      </trkpt>
      <trkpt lat="43.66151" lon="1.35478">
        <ele>155.2</ele>
        <time>2024-03-27T16:10:50Z</time>
      </trkpt>
      <trkpt lat="43.66147" lon="1.35466">
        <ele>155.2</ele>
        <time>2024-03-27T16:10:51Z</time>
      </trkpt>
      <trkpt lat="43.66144" lon="1.35457">
        <ele>155.2</ele>
        <time>2024-03-27T16:10:52Z</time>
      </trkpt>
      <trkpt lat="43.66142" lon="1.35447">
        <ele>155.2</ele>
        <time>2024-03-27T16:10:53Z</time>
      </trkpt>
      <trkpt lat="43.6614" lon="1.35438">
        <ele>155.2</ele>
        <time>2024-03-27T16:10:54Z</time>
      </trkpt>
      <trkpt lat="43.66137" lon="1.35428">
        <ele>155.2</ele>
        <time>2024-03-27T16:10:55Z</time>
      </trkpt>
      <trkpt lat="43.66134" lon="1.35419">
        <ele>155.2</ele>
        <time>2024-03-27T16:10:56Z</time>
      </trkpt>
      <trkpt lat="43.66132" lon="1.35409">
        <ele>155.2</ele>
        <time>2024-03-27T16:10:57Z</time>
      </trkpt>
      <trkpt lat="43.6613" lon="1.35401">
        <ele>155.2</ele>
        <time>2024-03-27T16:10:58Z</time>
      </trkpt>
      <trkpt lat="43.66127" lon="1.35392">
        <ele>155.2</ele>
        <time>2024-03-27T16:10:59Z</time>
      </trkpt>
      <trkpt lat="43.66124" lon="1.3538">
        <ele>155.2</ele>
        <time>2024-03-27T16:11:00Z</time>
      </trkpt>
      <trkpt lat="43.66121" lon="1.35369">
        <ele>155.2</ele>
        <time>2024-03-27T16:11:01Z</time>
      </trkpt>
      <trkpt lat="43.66119" lon="1.35359">
        <ele>155.2</ele>
        <time>2024-03-27T16:11:02Z</time>
      </trkpt>
      <trkpt lat="43.66117" lon="1.3535">
        <ele>155.4</ele>
        <time>2024-03-27T16:11:03Z</time>
      </trkpt>
      <trkpt lat="43.66115" lon="1.35339">
        <ele>155.4</ele>
        <time>2024-03-27T16:11:04Z</time>
      </trkpt>
      <trkpt lat="43.66113" lon="1.35326">
        <ele>155.4</ele>
        <time>2024-03-27T16:11:05Z</time>
      </trkpt>
      <trkpt lat="43.66111" lon="1.35315">
        <ele>155.4</ele>
        <time>2024-03-27T16:11:06Z</time>
      </trkpt>
      <trkpt lat="43.6611" lon="1.35306">
        <ele>155.4</ele>
        <time>2024-03-27T16:11:07Z</time>
      </trkpt>
      <trkpt lat="43.66108" lon="1.35295">
        <ele>155.2</ele>
        <time>2024-03-27T16:11:08Z</time>
      </trkpt>
      <trkpt lat="43.66106" lon="1.35281">
        <ele>155.2</ele>
        <time>2024-03-27T16:11:09Z</time>
      </trkpt>
      <trkpt lat="43.66104" lon="1.3527">
        <ele>155.2</ele>
        <time>2024-03-27T16:11:10Z</time>
      </trkpt>
      <trkpt lat="43.66103" lon="1.3526">
        <ele>155.2</ele>
        <time>2024-03-27T16:11:11Z</time>
      </trkpt>
      <trkpt lat="43.66102" lon="1.35251">
        <ele>155.2</ele>
        <time>2024-03-27T16:11:12Z</time>
      </trkpt>
      <trkpt lat="43.661" lon="1.3524">
        <ele>155.2</ele>
        <time>2024-03-27T16:11:13Z</time>
      </trkpt>
      <trkpt lat="43.66099" lon="1.35229">
        <ele>155.2</ele>
        <time>2024-03-27T16:11:14Z</time>
      </trkpt>
      <trkpt lat="43.66098" lon="1.35217">
        <ele>155.4</ele>
        <time>2024-03-27T16:11:15Z</time>
      </trkpt>
      <trkpt lat="43.66096" lon="1.35204">
        <ele>155.4</ele>
        <time>2024-03-27T16:11:16Z</time>
      </trkpt>
      <trkpt lat="43.66095" lon="1.35196">
        <ele>155.4</ele>
        <time>2024-03-27T16:11:17Z</time>
      </trkpt>
      <trkpt lat="43.66094" lon="1.35182">
        <ele>155.4</ele>
        <time>2024-03-27T16:11:18Z</time>
      </trkpt>
      <trkpt lat="43.66092" lon="1.35171">
        <ele>155.6</ele>
        <time>2024-03-27T16:11:19Z</time>
      </trkpt>
      <trkpt lat="43.66091" lon="1.35161">
        <ele>155.6</ele>
        <time>2024-03-27T16:11:20Z</time>
      </trkpt>
      <trkpt lat="43.6609" lon="1.3515">
        <ele>155.6</ele>
        <time>2024-03-27T16:11:21Z</time>
      </trkpt>
      <trkpt lat="43.66089" lon="1.35141">
        <ele>155.6</ele>
        <time>2024-03-27T16:11:22Z</time>
      </trkpt>
      <trkpt lat="43.66087" lon="1.35129">
        <ele>155.8</ele>
        <time>2024-03-27T16:11:23Z</time>
      </trkpt>
      <trkpt lat="43.66086" lon="1.35119">
        <ele>155.8</ele>
        <time>2024-03-27T16:11:24Z</time>
      </trkpt>
      <trkpt lat="43.66084" lon="1.35109">
        <ele>155.8</ele>
        <time>2024-03-27T16:11:25Z</time>
      </trkpt>
      <trkpt lat="43.66083" lon="1.35101">
        <ele>155.8</ele>
        <time>2024-03-27T16:11:26Z</time>
      </trkpt>
      <trkpt lat="43.66082" lon="1.3509">
        <ele>155.8</ele>
        <time>2024-03-27T16:11:27Z</time>
      </trkpt>
      <trkpt lat="43.66081" lon="1.35078">
        <ele>156</ele>
        <time>2024-03-27T16:11:28Z</time>
      </trkpt>
      <trkpt lat="43.6608" lon="1.35068">
        <ele>156</ele>
        <time>2024-03-27T16:11:29Z</time>
      </trkpt>
      <trkpt lat="43.66078" lon="1.35058">
        <ele>156</ele>
        <time>2024-03-27T16:11:30Z</time>
      </trkpt>
      <trkpt lat="43.66077" lon="1.3505">
        <ele>156</ele>
        <time>2024-03-27T16:11:31Z</time>
      </trkpt>
      <trkpt lat="43.66076" lon="1.35038">
        <ele>156</ele>
        <time>2024-03-27T16:11:32Z</time>
      </trkpt>
      <trkpt lat="43.66075" lon="1.35028">
        <ele>156</ele>
        <time>2024-03-27T16:11:33Z</time>
      </trkpt>
      <trkpt lat="43.66074" lon="1.35018">
        <ele>156</ele>
        <time>2024-03-27T16:11:34Z</time>
      </trkpt>
      <trkpt lat="43.66073" lon="1.35011">
        <ele>156.2</ele>
        <time>2024-03-27T16:11:35Z</time>
      </trkpt>
      <trkpt lat="43.66072" lon="1.35001">
        <ele>156.2</ele>
        <time>2024-03-27T16:11:36Z</time>
      </trkpt>
      <trkpt lat="43.66071" lon="1.34989">
        <ele>156.2</ele>
        <time>2024-03-27T16:11:37Z</time>
      </trkpt>
      <trkpt lat="43.6607" lon="1.34979">
        <ele>156.2</ele>
        <time>2024-03-27T16:11:38Z</time>
      </trkpt>
      <trkpt lat="43.66069" lon="1.3497">
        <ele>156.2</ele>
        <time>2024-03-27T16:11:39Z</time>
      </trkpt>
      <trkpt lat="43.66068" lon="1.3496">
        <ele>156.2</ele>
        <time>2024-03-27T16:11:40Z</time>
      </trkpt>
      <trkpt lat="43.66067" lon="1.34951">
        <ele>156.4</ele>
        <time>2024-03-27T16:11:41Z</time>
      </trkpt>
      <trkpt lat="43.66065" lon="1.34942">
        <ele>156.4</ele>
        <time>2024-03-27T16:11:42Z</time>
      </trkpt>
      <trkpt lat="43.66065" lon="1.34932">
        <ele>156.6</ele>
        <time>2024-03-27T16:11:43Z</time>
      </trkpt>
      <trkpt lat="43.66064" lon="1.34925">
        <ele>156.6</ele>
        <time>2024-03-27T16:11:44Z</time>
      </trkpt>
      <trkpt lat="43.66063" lon="1.34915">
        <ele>156.6</ele>
        <time>2024-03-27T16:11:45Z</time>
      </trkpt>
      <trkpt lat="43.66061" lon="1.34904">
        <ele>156.6</ele>
        <time>2024-03-27T16:11:46Z</time>
      </trkpt>
      <trkpt lat="43.6606" lon="1.34894">
        <ele>156.8</ele>
        <time>2024-03-27T16:11:47Z</time>
      </trkpt>
      <trkpt lat="43.66059" lon="1.34885">
        <ele>156.8</ele>
        <time>2024-03-27T16:11:48Z</time>
      </trkpt>
      <trkpt lat="43.66058" lon="1.34875">
        <ele>156.8</ele>
        <time>2024-03-27T16:11:49Z</time>
      </trkpt>
      <trkpt lat="43.66057" lon="1.34868">
        <ele>156.8</ele>
        <time>2024-03-27T16:11:50Z</time>
      </trkpt>
      <trkpt lat="43.66055" lon="1.34858">
        <ele>156.8</ele>
        <time>2024-03-27T16:11:51Z</time>
      </trkpt>
      <trkpt lat="43.66053" lon="1.34851">
        <ele>156.8</ele>
        <time>2024-03-27T16:11:52Z</time>
      </trkpt>
      <trkpt lat="43.6605" lon="1.34845">
        <ele>157</ele>
        <time>2024-03-27T16:11:53Z</time>
      </trkpt>
      <trkpt lat="43.66047" lon="1.34841">
        <ele>157</ele>
        <time>2024-03-27T16:11:54Z</time>
      </trkpt>
      <trkpt lat="43.66043" lon="1.34835">
        <ele>157.2</ele>
        <time>2024-03-27T16:11:55Z</time>
      </trkpt>
      <trkpt lat="43.6604" lon="1.3483">
        <ele>157.2</ele>
        <time>2024-03-27T16:11:56Z</time>
      </trkpt>
      <trkpt lat="43.66038" lon="1.34825">
        <ele>157.2</ele>
        <time>2024-03-27T16:11:57Z</time>
      </trkpt>
      <trkpt lat="43.66035" lon="1.3482">
        <ele>157.4</ele>
        <time>2024-03-27T16:11:58Z</time>
      </trkpt>
      <trkpt lat="43.66033" lon="1.34814">
        <ele>157.4</ele>
        <time>2024-03-27T16:11:59Z</time>
      </trkpt>
      <trkpt lat="43.66031" lon="1.34807">
        <ele>157.6</ele>
        <time>2024-03-27T16:12:00Z</time>
      </trkpt>
      <trkpt lat="43.66029" lon="1.34801">
        <ele>157.6</ele>
        <time>2024-03-27T16:12:01Z</time>
      </trkpt>
      <trkpt lat="43.66027" lon="1.34795">
        <ele>157.6</ele>
        <time>2024-03-27T16:12:02Z</time>
      </trkpt>
      <trkpt lat="43.66026" lon="1.34788">
        <ele>157.6</ele>
        <time>2024-03-27T16:12:03Z</time>
      </trkpt>
      <trkpt lat="43.66027" lon="1.34782">
        <ele>157.6</ele>
        <time>2024-03-27T16:12:04Z</time>
      </trkpt>
      <trkpt lat="43.66028" lon="1.34775">
        <ele>157.8</ele>
        <time>2024-03-27T16:12:05Z</time>
      </trkpt>
      <trkpt lat="43.6603" lon="1.34768">
        <ele>157.8</ele>
        <time>2024-03-27T16:12:06Z</time>
      </trkpt>
      <trkpt lat="43.66032" lon="1.3476">
        <ele>157.8</ele>
        <time>2024-03-27T16:12:07Z</time>
      </trkpt>
      <trkpt lat="43.66034" lon="1.34753">
        <ele>157.8</ele>
        <time>2024-03-27T16:12:08Z</time>
      </trkpt>
      <trkpt lat="43.66037" lon="1.34744">
        <ele>158</ele>
        <time>2024-03-27T16:12:09Z</time>
      </trkpt>
      <trkpt lat="43.66038" lon="1.34737">
        <ele>158</ele>
        <time>2024-03-27T16:12:10Z</time>
      </trkpt>
      <trkpt lat="43.66039" lon="1.34729">
        <ele>158</ele>
        <time>2024-03-27T16:12:11Z</time>
      </trkpt>
      <trkpt lat="43.66039" lon="1.34721">
        <ele>158</ele>
        <time>2024-03-27T16:12:12Z</time>
      </trkpt>
      <trkpt lat="43.66038" lon="1.34713">
        <ele>158.2</ele>
        <time>2024-03-27T16:12:13Z</time>
      </trkpt>
      <trkpt lat="43.66037" lon="1.34705">
        <ele>158.2</ele>
        <time>2024-03-27T16:12:14Z</time>
      </trkpt>
      <trkpt lat="43.66035" lon="1.34696">
        <ele>158.2</ele>
        <time>2024-03-27T16:12:15Z</time>
      </trkpt>
      <trkpt lat="43.66034" lon="1.34688">
        <ele>158.4</ele>
        <time>2024-03-27T16:12:16Z</time>
      </trkpt>
      <trkpt lat="43.66033" lon="1.34679">
        <ele>158.4</ele>
        <time>2024-03-27T16:12:17Z</time>
      </trkpt>
      <trkpt lat="43.66032" lon="1.34671">
        <ele>158.6</ele>
        <time>2024-03-27T16:12:18Z</time>
      </trkpt>
      <trkpt lat="43.66032" lon="1.34662">
        <ele>158.6</ele>
        <time>2024-03-27T16:12:19Z</time>
      </trkpt>
      <trkpt lat="43.6603" lon="1.34653">
        <ele>158.6</ele>
        <time>2024-03-27T16:12:20Z</time>
      </trkpt>
      <trkpt lat="43.66029" lon="1.34645">
        <ele>158.8</ele>
        <time>2024-03-27T16:12:21Z</time>
      </trkpt>
      <trkpt lat="43.66027" lon="1.34636">
        <ele>158.8</ele>
        <time>2024-03-27T16:12:22Z</time>
      </trkpt>
      <trkpt lat="43.66026" lon="1.34627">
        <ele>159</ele>
        <time>2024-03-27T16:12:23Z</time>
      </trkpt>
      <trkpt lat="43.66024" lon="1.34618">
        <ele>159</ele>
        <time>2024-03-27T16:12:24Z</time>
      </trkpt>
      <trkpt lat="43.66022" lon="1.34609">
        <ele>159</ele>
        <time>2024-03-27T16:12:25Z</time>
      </trkpt>
      <trkpt lat="43.6602" lon="1.346">
        <ele>159</ele>
        <time>2024-03-27T16:12:26Z</time>
      </trkpt>
      <trkpt lat="43.66018" lon="1.34591">
        <ele>159</ele>
        <time>2024-03-27T16:12:27Z</time>
      </trkpt>
      <trkpt lat="43.66015" lon="1.34582">
        <ele>159</ele>
        <time>2024-03-27T16:12:28Z</time>
      </trkpt>
      <trkpt lat="43.66012" lon="1.34573">
        <ele>159</ele>
        <time>2024-03-27T16:12:29Z</time>
      </trkpt>
      <trkpt lat="43.66009" lon="1.34565">
        <ele>159</ele>
        <time>2024-03-27T16:12:30Z</time>
      </trkpt>
      <trkpt lat="43.66006" lon="1.34556">
        <ele>159</ele>
        <time>2024-03-27T16:12:31Z</time>
      </trkpt>
      <trkpt lat="43.66003" lon="1.34547">
        <ele>158.8</ele>
        <time>2024-03-27T16:12:32Z</time>
      </trkpt>
      <trkpt lat="43.66" lon="1.3454">
        <ele>158.8</ele>
        <time>2024-03-27T16:12:33Z</time>
      </trkpt>
      <trkpt lat="43.65997" lon="1.34532">
        <ele>158.8</ele>
        <time>2024-03-27T16:12:34Z</time>
      </trkpt>
      <trkpt lat="43.65993" lon="1.34523">
        <ele>158.8</ele>
        <time>2024-03-27T16:12:35Z</time>
      </trkpt>
      <trkpt lat="43.6599" lon="1.34515">
        <ele>158.8</ele>
        <time>2024-03-27T16:12:36Z</time>
      </trkpt>
      <trkpt lat="43.65985" lon="1.34507">
        <ele>158.8</ele>
        <time>2024-03-27T16:12:37Z</time>
      </trkpt>
      <trkpt lat="43.65981" lon="1.345">
        <ele>158.8</ele>
        <time>2024-03-27T16:12:38Z</time>
      </trkpt>
      <trkpt lat="43.65977" lon="1.34492">
        <ele>158.8</ele>
        <time>2024-03-27T16:12:39Z</time>
      </trkpt>
      <trkpt lat="43.65972" lon="1.34485">
        <ele>158.8</ele>
        <time>2024-03-27T16:12:40Z</time>
      </trkpt>
      <trkpt lat="43.65967" lon="1.34478">
        <ele>158.8</ele>
        <time>2024-03-27T16:12:41Z</time>
      </trkpt>
      <trkpt lat="43.65962" lon="1.34472">
        <ele>158.8</ele>
        <time>2024-03-27T16:12:42Z</time>
      </trkpt>
      <trkpt lat="43.65956" lon="1.34465">
        <ele>158.6</ele>
        <time>2024-03-27T16:12:43Z</time>
      </trkpt>
      <trkpt lat="43.65951" lon="1.3446">
        <ele>158.6</ele>
        <time>2024-03-27T16:12:44Z</time>
      </trkpt>
      <trkpt lat="43.65946" lon="1.34454">
        <ele>158.6</ele>
        <time>2024-03-27T16:12:45Z</time>
      </trkpt>
      <trkpt lat="43.6594" lon="1.34448">
        <ele>158.6</ele>
        <time>2024-03-27T16:12:46Z</time>
      </trkpt>
      <trkpt lat="43.65934" lon="1.34443">
        <ele>158.6</ele>
        <time>2024-03-27T16:12:47Z</time>
      </trkpt>
      <trkpt lat="43.65929" lon="1.34437">
        <ele>158.8</ele>
        <time>2024-03-27T16:12:48Z</time>
      </trkpt>
      <trkpt lat="43.65923" lon="1.34432">
        <ele>159</ele>
        <time>2024-03-27T16:12:49Z</time>
      </trkpt>
      <trkpt lat="43.65917" lon="1.34427">
        <ele>159</ele>
        <time>2024-03-27T16:12:50Z</time>
      </trkpt>
      <trkpt lat="43.6591" lon="1.34422">
        <ele>159</ele>
        <time>2024-03-27T16:12:51Z</time>
      </trkpt>
      <trkpt lat="43.65904" lon="1.34416">
        <ele>159</ele>
        <time>2024-03-27T16:12:52Z</time>
      </trkpt>
      <trkpt lat="43.65898" lon="1.34411">
        <ele>159</ele>
        <time>2024-03-27T16:12:53Z</time>
      </trkpt>
      <trkpt lat="43.65892" lon="1.34406">
        <ele>159</ele>
        <time>2024-03-27T16:12:54Z</time>
      </trkpt>
      <trkpt lat="43.65886" lon="1.344">
        <ele>159</ele>
        <time>2024-03-27T16:12:55Z</time>
      </trkpt>
      <trkpt lat="43.6588" lon="1.34395">
        <ele>158.8</ele>
        <time>2024-03-27T16:12:56Z</time>
      </trkpt>
      <trkpt lat="43.65874" lon="1.3439">
        <ele>158.8</ele>
        <time>2024-03-27T16:12:57Z</time>
      </trkpt>
      <trkpt lat="43.65868" lon="1.34384">
        <ele>158.6</ele>
        <time>2024-03-27T16:12:58Z</time>
      </trkpt>
      <trkpt lat="43.65861" lon="1.34378">
        <ele>158.6</ele>
        <time>2024-03-27T16:12:59Z</time>
      </trkpt>
      <trkpt lat="43.65855" lon="1.34372">
        <ele>158.6</ele>
        <time>2024-03-27T16:13:00Z</time>
      </trkpt>
      <trkpt lat="43.65849" lon="1.34366">
        <ele>158.4</ele>
        <time>2024-03-27T16:13:01Z</time>
      </trkpt>
      <trkpt lat="43.65844" lon="1.34359">
        <ele>158.4</ele>
        <time>2024-03-27T16:13:02Z</time>
      </trkpt>
      <trkpt lat="43.65839" lon="1.34352">
        <ele>158.2</ele>
        <time>2024-03-27T16:13:03Z</time>
      </trkpt>
      <trkpt lat="43.65834" lon="1.34344">
        <ele>158</ele>
        <time>2024-03-27T16:13:04Z</time>
      </trkpt>
      <trkpt lat="43.6583" lon="1.34336">
        <ele>158</ele>
        <time>2024-03-27T16:13:05Z</time>
      </trkpt>
      <trkpt lat="43.65826" lon="1.34327">
        <ele>157.8</ele>
        <time>2024-03-27T16:13:06Z</time>
      </trkpt>
      <trkpt lat="43.65822" lon="1.34319">
        <ele>157.8</ele>
        <time>2024-03-27T16:13:07Z</time>
      </trkpt>
      <trkpt lat="43.65818" lon="1.34311">
        <ele>157.6</ele>
        <time>2024-03-27T16:13:08Z</time>
      </trkpt>
      <trkpt lat="43.65814" lon="1.34301">
        <ele>157.6</ele>
        <time>2024-03-27T16:13:09Z</time>
      </trkpt>
      <trkpt lat="43.65811" lon="1.34292">
        <ele>157.6</ele>
        <time>2024-03-27T16:13:10Z</time>
      </trkpt>
      <trkpt lat="43.65808" lon="1.34284">
        <ele>157.6</ele>
        <time>2024-03-27T16:13:11Z</time>
      </trkpt>
      <trkpt lat="43.65805" lon="1.34275">
        <ele>157.6</ele>
        <time>2024-03-27T16:13:12Z</time>
      </trkpt>
      <trkpt lat="43.65803" lon="1.34266">
        <ele>157.6</ele>
        <time>2024-03-27T16:13:13Z</time>
      </trkpt>
      <trkpt lat="43.65801" lon="1.34257">
        <ele>157.6</ele>
        <time>2024-03-27T16:13:14Z</time>
      </trkpt>
      <trkpt lat="43.658" lon="1.34248">
        <ele>157.6</ele>
        <time>2024-03-27T16:13:15Z</time>
      </trkpt>
      <trkpt lat="43.65798" lon="1.34239">
        <ele>157.6</ele>
        <time>2024-03-27T16:13:16Z</time>
      </trkpt>
      <trkpt lat="43.65797" lon="1.3423">
        <ele>157.6</ele>
        <time>2024-03-27T16:13:17Z</time>
      </trkpt>
      <trkpt lat="43.65796" lon="1.34221">
        <ele>157.8</ele>
        <time>2024-03-27T16:13:18Z</time>
      </trkpt>
      <trkpt lat="43.65795" lon="1.34214">
        <ele>157.8</ele>
        <time>2024-03-27T16:13:19Z</time>
      </trkpt>
      <trkpt lat="43.65794" lon="1.34206">
        <ele>157.8</ele>
        <time>2024-03-27T16:13:20Z</time>
      </trkpt>
      <trkpt lat="43.65794" lon="1.34197">
        <ele>158</ele>
        <time>2024-03-27T16:13:21Z</time>
      </trkpt>
      <trkpt lat="43.65793" lon="1.34188">
        <ele>158</ele>
        <time>2024-03-27T16:13:22Z</time>
      </trkpt>
      <trkpt lat="43.65792" lon="1.34179">
        <ele>158</ele>
        <time>2024-03-27T16:13:23Z</time>
      </trkpt>
      <trkpt lat="43.65791" lon="1.3417">
        <ele>158.2</ele>
        <time>2024-03-27T16:13:24Z</time>
      </trkpt>
      <trkpt lat="43.6579" lon="1.34161">
        <ele>158.2</ele>
        <time>2024-03-27T16:13:25Z</time>
      </trkpt>
      <trkpt lat="43.65789" lon="1.34152">
        <ele>158.4</ele>
        <time>2024-03-27T16:13:26Z</time>
      </trkpt>
      <trkpt lat="43.65788" lon="1.34142">
        <ele>158.4</ele>
        <time>2024-03-27T16:13:27Z</time>
      </trkpt>
      <trkpt lat="43.65787" lon="1.34133">
        <ele>158.6</ele>
        <time>2024-03-27T16:13:28Z</time>
      </trkpt>
      <trkpt lat="43.65786" lon="1.34123">
        <ele>158.6</ele>
        <time>2024-03-27T16:13:29Z</time>
      </trkpt>
      <trkpt lat="43.65785" lon="1.34113">
        <ele>158.6</ele>
        <time>2024-03-27T16:13:30Z</time>
      </trkpt>
      <trkpt lat="43.65784" lon="1.34103">
        <ele>158.6</ele>
        <time>2024-03-27T16:13:31Z</time>
      </trkpt>
      <trkpt lat="43.65782" lon="1.34093">
        <ele>158.6</ele>
        <time>2024-03-27T16:13:32Z</time>
      </trkpt>
      <trkpt lat="43.65781" lon="1.34084">
        <ele>158.6</ele>
        <time>2024-03-27T16:13:33Z</time>
      </trkpt>
      <trkpt lat="43.6578" lon="1.34074">
        <ele>158.6</ele>
        <time>2024-03-27T16:13:34Z</time>
      </trkpt>
      <trkpt lat="43.65778" lon="1.34064">
        <ele>158.6</ele>
        <time>2024-03-27T16:13:35Z</time>
      </trkpt>
      <trkpt lat="43.65777" lon="1.34054">
        <ele>158.6</ele>
        <time>2024-03-27T16:13:36Z</time>
      </trkpt>
      <trkpt lat="43.65776" lon="1.34044">
        <ele>158.4</ele>
        <time>2024-03-27T16:13:37Z</time>
      </trkpt>
      <trkpt lat="43.65775" lon="1.34034">
        <ele>158.4</ele>
        <time>2024-03-27T16:13:38Z</time>
      </trkpt>
      <trkpt lat="43.65774" lon="1.34024">
        <ele>158.4</ele>
        <time>2024-03-27T16:13:39Z</time>
      </trkpt>
      <trkpt lat="43.65773" lon="1.34014">
        <ele>158.4</ele>
        <time>2024-03-27T16:13:40Z</time>
      </trkpt>
      <trkpt lat="43.65773" lon="1.34004">
        <ele>158.2</ele>
        <time>2024-03-27T16:13:41Z</time>
      </trkpt>
      <trkpt lat="43.65772" lon="1.33994">
        <ele>158.2</ele>
        <time>2024-03-27T16:13:42Z</time>
      </trkpt>
      <trkpt lat="43.65771" lon="1.33984">
        <ele>158.2</ele>
        <time>2024-03-27T16:13:43Z</time>
      </trkpt>
      <trkpt lat="43.6577" lon="1.33974">
        <ele>158</ele>
        <time>2024-03-27T16:13:44Z</time>
      </trkpt>
      <trkpt lat="43.65769" lon="1.33965">
        <ele>158</ele>
        <time>2024-03-27T16:13:45Z</time>
      </trkpt>
      <trkpt lat="43.65768" lon="1.33955">
        <ele>158</ele>
        <time>2024-03-27T16:13:46Z</time>
      </trkpt>
      <trkpt lat="43.65767" lon="1.33945">
        <ele>158</ele>
        <time>2024-03-27T16:13:47Z</time>
      </trkpt>
      <trkpt lat="43.65767" lon="1.33935">
        <ele>158</ele>
        <time>2024-03-27T16:13:48Z</time>
      </trkpt>
      <trkpt lat="43.65766" lon="1.33926">
        <ele>158</ele>
        <time>2024-03-27T16:13:49Z</time>
      </trkpt>
      <trkpt lat="43.65765" lon="1.33916">
        <ele>158</ele>
        <time>2024-03-27T16:13:50Z</time>
      </trkpt>
      <trkpt lat="43.65765" lon="1.33907">
        <ele>158.2</ele>
        <time>2024-03-27T16:13:51Z</time>
      </trkpt>
      <trkpt lat="43.65764" lon="1.33897">
        <ele>158.2</ele>
        <time>2024-03-27T16:13:52Z</time>
      </trkpt>
      <trkpt lat="43.65763" lon="1.33888">
        <ele>158.2</ele>
        <time>2024-03-27T16:13:53Z</time>
      </trkpt>
      <trkpt lat="43.65762" lon="1.33877">
        <ele>158.2</ele>
        <time>2024-03-27T16:13:54Z</time>
      </trkpt>
      <trkpt lat="43.65762" lon="1.3387">
        <ele>158.2</ele>
        <time>2024-03-27T16:13:55Z</time>
      </trkpt>
      <trkpt lat="43.65761" lon="1.33861">
        <ele>158.4</ele>
        <time>2024-03-27T16:13:56Z</time>
      </trkpt>
      <trkpt lat="43.65761" lon="1.33852">
        <ele>158.4</ele>
        <time>2024-03-27T16:13:57Z</time>
      </trkpt>
      <trkpt lat="43.6576" lon="1.33843">
        <ele>158.4</ele>
        <time>2024-03-27T16:13:58Z</time>
      </trkpt>
      <trkpt lat="43.6576" lon="1.33834">
        <ele>158.6</ele>
        <time>2024-03-27T16:13:59Z</time>
      </trkpt>
      <trkpt lat="43.6576" lon="1.33825">
        <ele>158.8</ele>
        <time>2024-03-27T16:14:00Z</time>
      </trkpt>
      <trkpt lat="43.6576" lon="1.33816">
        <ele>158.8</ele>
        <time>2024-03-27T16:14:01Z</time>
      </trkpt>
      <trkpt lat="43.65759" lon="1.33807">
        <ele>159</ele>
        <time>2024-03-27T16:14:02Z</time>
      </trkpt>
      <trkpt lat="43.6576" lon="1.33797">
        <ele>159</ele>
        <time>2024-03-27T16:14:03Z</time>
      </trkpt>
      <trkpt lat="43.6576" lon="1.33788">
        <ele>159</ele>
        <time>2024-03-27T16:14:04Z</time>
      </trkpt>
      <trkpt lat="43.65761" lon="1.33779">
        <ele>159</ele>
        <time>2024-03-27T16:14:05Z</time>
      </trkpt>
      <trkpt lat="43.65762" lon="1.33769">
        <ele>159.2</ele>
        <time>2024-03-27T16:14:06Z</time>
      </trkpt>
      <trkpt lat="43.65763" lon="1.3376">
        <ele>159.2</ele>
        <time>2024-03-27T16:14:07Z</time>
      </trkpt>
      <trkpt lat="43.65764" lon="1.3375">
        <ele>159.2</ele>
        <time>2024-03-27T16:14:08Z</time>
      </trkpt>
      <trkpt lat="43.65765" lon="1.3374">
        <ele>159.2</ele>
        <time>2024-03-27T16:14:09Z</time>
      </trkpt>
      <trkpt lat="43.65766" lon="1.33731">
        <ele>159.2</ele>
        <time>2024-03-27T16:14:10Z</time>
      </trkpt>
      <trkpt lat="43.65769" lon="1.33721">
        <ele>159.2</ele>
        <time>2024-03-27T16:14:11Z</time>
      </trkpt>
      <trkpt lat="43.65771" lon="1.33712">
        <ele>159.2</ele>
        <time>2024-03-27T16:14:12Z</time>
      </trkpt>
      <trkpt lat="43.65773" lon="1.33702">
        <ele>159.2</ele>
        <time>2024-03-27T16:14:13Z</time>
      </trkpt>
      <trkpt lat="43.65775" lon="1.33694">
        <ele>159.2</ele>
        <time>2024-03-27T16:14:14Z</time>
      </trkpt>
      <trkpt lat="43.65778" lon="1.33686">
        <ele>159.2</ele>
        <time>2024-03-27T16:14:15Z</time>
      </trkpt>
      <trkpt lat="43.65781" lon="1.33677">
        <ele>159.2</ele>
        <time>2024-03-27T16:14:16Z</time>
      </trkpt>
      <trkpt lat="43.65784" lon="1.33669">
        <ele>159.2</ele>
        <time>2024-03-27T16:14:17Z</time>
      </trkpt>
      <trkpt lat="43.65788" lon="1.3366">
        <ele>159.2</ele>
        <time>2024-03-27T16:14:18Z</time>
      </trkpt>
      <trkpt lat="43.65792" lon="1.33651">
        <ele>159.2</ele>
        <time>2024-03-27T16:14:19Z</time>
      </trkpt>
      <trkpt lat="43.65796" lon="1.33643">
        <ele>159.2</ele>
        <time>2024-03-27T16:14:20Z</time>
      </trkpt>
      <trkpt lat="43.658" lon="1.33635">
        <ele>159.2</ele>
        <time>2024-03-27T16:14:21Z</time>
      </trkpt>
      <trkpt lat="43.65805" lon="1.33627">
        <ele>159.4</ele>
        <time>2024-03-27T16:14:22Z</time>
      </trkpt>
      <trkpt lat="43.65811" lon="1.33617">
        <ele>159.4</ele>
        <time>2024-03-27T16:14:23Z</time>
      </trkpt>
      <trkpt lat="43.65814" lon="1.33611">
        <ele>159.4</ele>
        <time>2024-03-27T16:14:24Z</time>
      </trkpt>
      <trkpt lat="43.65819" lon="1.33603">
        <ele>159.4</ele>
        <time>2024-03-27T16:14:25Z</time>
      </trkpt>
      <trkpt lat="43.65823" lon="1.33595">
        <ele>159.4</ele>
        <time>2024-03-27T16:14:26Z</time>
      </trkpt>
      <trkpt lat="43.65827" lon="1.33587">
        <ele>159.4</ele>
        <time>2024-03-27T16:14:27Z</time>
      </trkpt>
      <trkpt lat="43.65831" lon="1.33579">
        <ele>159.4</ele>
        <time>2024-03-27T16:14:28Z</time>
      </trkpt>
      <trkpt lat="43.65835" lon="1.3357">
        <ele>159.4</ele>
        <time>2024-03-27T16:14:29Z</time>
      </trkpt>
      <trkpt lat="43.65839" lon="1.33562">
        <ele>159.4</ele>
        <time>2024-03-27T16:14:30Z</time>
      </trkpt>
      <trkpt lat="43.65842" lon="1.33554">
        <ele>159.2</ele>
        <time>2024-03-27T16:14:31Z</time>
      </trkpt>
      <trkpt lat="43.65846" lon="1.33546">
        <ele>159.2</ele>
        <time>2024-03-27T16:14:32Z</time>
      </trkpt>
      <trkpt lat="43.65849" lon="1.33538">
        <ele>159.2</ele>
        <time>2024-03-27T16:14:33Z</time>
      </trkpt>
      <trkpt lat="43.65851" lon="1.33531">
        <ele>159.2</ele>
        <time>2024-03-27T16:14:34Z</time>
      </trkpt>
      <trkpt lat="43.65852" lon="1.33526">
        <ele>159.2</ele>
        <time>2024-03-27T16:14:35Z</time>
      </trkpt>
      <trkpt lat="43.65854" lon="1.3352">
        <ele>159.2</ele>
        <time>2024-03-27T16:14:36Z</time>
      </trkpt>
      <trkpt lat="43.65855" lon="1.33515">
        <ele>159.2</ele>
        <time>2024-03-27T16:14:37Z</time>
      </trkpt>
      <trkpt lat="43.65857" lon="1.3351">
        <ele>159.2</ele>
        <time>2024-03-27T16:14:38Z</time>
      </trkpt>
      <trkpt lat="43.65859" lon="1.33504">
        <ele>159.2</ele>
        <time>2024-03-27T16:14:39Z</time>
      </trkpt>
      <trkpt lat="43.65862" lon="1.33497">
        <ele>159.2</ele>
        <time>2024-03-27T16:14:40Z</time>
      </trkpt>
      <trkpt lat="43.65864" lon="1.33491">
        <ele>159.2</ele>
        <time>2024-03-27T16:14:41Z</time>
      </trkpt>
      <trkpt lat="43.65867" lon="1.33484">
        <ele>159.2</ele>
        <time>2024-03-27T16:14:42Z</time>
      </trkpt>
      <trkpt lat="43.6587" lon="1.33477">
        <ele>159</ele>
        <time>2024-03-27T16:14:43Z</time>
      </trkpt>
      <trkpt lat="43.65874" lon="1.3347">
        <ele>159</ele>
        <time>2024-03-27T16:14:44Z</time>
      </trkpt>
      <trkpt lat="43.65878" lon="1.33464">
        <ele>159</ele>
        <time>2024-03-27T16:14:45Z</time>
      </trkpt>
      <trkpt lat="43.65882" lon="1.33458">
        <ele>159.2</ele>
        <time>2024-03-27T16:14:46Z</time>
      </trkpt>
      <trkpt lat="43.65886" lon="1.33452">
        <ele>159.2</ele>
        <time>2024-03-27T16:14:47Z</time>
      </trkpt>
      <trkpt lat="43.65891" lon="1.33446">
        <ele>159.2</ele>
        <time>2024-03-27T16:14:48Z</time>
      </trkpt>
      <trkpt lat="43.65896" lon="1.33439">
        <ele>159.2</ele>
        <time>2024-03-27T16:14:49Z</time>
      </trkpt>
      <trkpt lat="43.659" lon="1.33432">
        <ele>159.2</ele>
        <time>2024-03-27T16:14:50Z</time>
      </trkpt>
      <trkpt lat="43.65904" lon="1.33425">
        <ele>159.2</ele>
        <time>2024-03-27T16:14:51Z</time>
      </trkpt>
      <trkpt lat="43.65907" lon="1.33417">
        <ele>159.2</ele>
        <time>2024-03-27T16:14:52Z</time>
      </trkpt>
      <trkpt lat="43.65911" lon="1.33409">
        <ele>159.2</ele>
        <time>2024-03-27T16:14:53Z</time>
      </trkpt>
      <trkpt lat="43.65915" lon="1.33401">
        <ele>159</ele>
        <time>2024-03-27T16:14:54Z</time>
      </trkpt>
      <trkpt lat="43.65918" lon="1.33393">
        <ele>159</ele>
        <time>2024-03-27T16:14:55Z</time>
      </trkpt>
      <trkpt lat="43.65921" lon="1.33385">
        <ele>159.2</ele>
        <time>2024-03-27T16:14:56Z</time>
      </trkpt>
      <trkpt lat="43.65925" lon="1.33376">
        <ele>159.2</ele>
        <time>2024-03-27T16:14:57Z</time>
      </trkpt>
      <trkpt lat="43.65928" lon="1.33368">
        <ele>159.2</ele>
        <time>2024-03-27T16:14:58Z</time>
      </trkpt>
      <trkpt lat="43.65931" lon="1.33359">
        <ele>159.2</ele>
        <time>2024-03-27T16:14:59Z</time>
      </trkpt>
      <trkpt lat="43.65934" lon="1.33351">
        <ele>159.2</ele>
        <time>2024-03-27T16:15:00Z</time>
      </trkpt>
      <trkpt lat="43.65937" lon="1.33343">
        <ele>159.2</ele>
        <time>2024-03-27T16:15:01Z</time>
      </trkpt>
      <trkpt lat="43.6594" lon="1.33334">
        <ele>159.2</ele>
        <time>2024-03-27T16:15:02Z</time>
      </trkpt>
      <trkpt lat="43.65943" lon="1.33326">
        <ele>159.2</ele>
        <time>2024-03-27T16:15:03Z</time>
      </trkpt>
      <trkpt lat="43.65947" lon="1.33318">
        <ele>159.2</ele>
        <time>2024-03-27T16:15:04Z</time>
      </trkpt>
      <trkpt lat="43.6595" lon="1.33311">
        <ele>159.2</ele>
        <time>2024-03-27T16:15:05Z</time>
      </trkpt>
      <trkpt lat="43.65955" lon="1.33302">
        <ele>159.2</ele>
        <time>2024-03-27T16:15:06Z</time>
      </trkpt>
      <trkpt lat="43.65959" lon="1.33294">
        <ele>159.4</ele>
        <time>2024-03-27T16:15:07Z</time>
      </trkpt>
      <trkpt lat="43.65964" lon="1.33286">
        <ele>159.4</ele>
        <time>2024-03-27T16:15:08Z</time>
      </trkpt>
      <trkpt lat="43.65969" lon="1.33278">
        <ele>159.4</ele>
        <time>2024-03-27T16:15:09Z</time>
      </trkpt>
      <trkpt lat="43.65975" lon="1.33269">
        <ele>159.4</ele>
        <time>2024-03-27T16:15:10Z</time>
      </trkpt>
      <trkpt lat="43.65979" lon="1.3326">
        <ele>159.4</ele>
        <time>2024-03-27T16:15:11Z</time>
      </trkpt>
      <trkpt lat="43.65984" lon="1.33251">
        <ele>159.4</ele>
        <time>2024-03-27T16:15:12Z</time>
      </trkpt>
      <trkpt lat="43.65989" lon="1.33241">
        <ele>159.2</ele>
        <time>2024-03-27T16:15:13Z</time>
      </trkpt>
      <trkpt lat="43.65993" lon="1.33231">
        <ele>158.8</ele>
        <time>2024-03-27T16:15:14Z</time>
      </trkpt>
      <trkpt lat="43.65996" lon="1.33222">
        <ele>158.6</ele>
        <time>2024-03-27T16:15:15Z</time>
      </trkpt>
      <trkpt lat="43.66" lon="1.33212">
        <ele>158.4</ele>
        <time>2024-03-27T16:15:16Z</time>
      </trkpt>
      <trkpt lat="43.66004" lon="1.33203">
        <ele>158.2</ele>
        <time>2024-03-27T16:15:17Z</time>
      </trkpt>
      <trkpt lat="43.66008" lon="1.33193">
        <ele>158</ele>
        <time>2024-03-27T16:15:18Z</time>
      </trkpt>
      <trkpt lat="43.66012" lon="1.33183">
        <ele>157.8</ele>
        <time>2024-03-27T16:15:19Z</time>
      </trkpt>
      <trkpt lat="43.66015" lon="1.33173">
        <ele>157.8</ele>
        <time>2024-03-27T16:15:20Z</time>
      </trkpt>
      <trkpt lat="43.66018" lon="1.33162">
        <ele>157.6</ele>
        <time>2024-03-27T16:15:21Z</time>
      </trkpt>
      <trkpt lat="43.66022" lon="1.33152">
        <ele>157.4</ele>
        <time>2024-03-27T16:15:22Z</time>
      </trkpt>
      <trkpt lat="43.66025" lon="1.33142">
        <ele>157.2</ele>
        <time>2024-03-27T16:15:23Z</time>
      </trkpt>
      <trkpt lat="43.66028" lon="1.33131">
        <ele>157.2</ele>
        <time>2024-03-27T16:15:24Z</time>
      </trkpt>
      <trkpt lat="43.66032" lon="1.33121">
        <ele>157</ele>
        <time>2024-03-27T16:15:25Z</time>
      </trkpt>
      <trkpt lat="43.66035" lon="1.3311">
        <ele>157</ele>
        <time>2024-03-27T16:15:26Z</time>
      </trkpt>
      <trkpt lat="43.66038" lon="1.331">
        <ele>157</ele>
        <time>2024-03-27T16:15:27Z</time>
      </trkpt>
      <trkpt lat="43.66041" lon="1.33089">
        <ele>156.8</ele>
        <time>2024-03-27T16:15:28Z</time>
      </trkpt>
      <trkpt lat="43.66044" lon="1.33078">
        <ele>156.8</ele>
        <time>2024-03-27T16:15:29Z</time>
      </trkpt>
      <trkpt lat="43.66047" lon="1.33067">
        <ele>156.6</ele>
        <time>2024-03-27T16:15:30Z</time>
      </trkpt>
      <trkpt lat="43.6605" lon="1.33057">
        <ele>156.6</ele>
        <time>2024-03-27T16:15:31Z</time>
      </trkpt>
      <trkpt lat="43.66053" lon="1.33046">
        <ele>156.6</ele>
        <time>2024-03-27T16:15:32Z</time>
      </trkpt>
      <trkpt lat="43.66055" lon="1.33035">
        <ele>156.4</ele>
        <time>2024-03-27T16:15:33Z</time>
      </trkpt>
      <trkpt lat="43.66058" lon="1.33024">
        <ele>156.6</ele>
        <time>2024-03-27T16:15:34Z</time>
      </trkpt>
      <trkpt lat="43.6606" lon="1.33013">
        <ele>156.6</ele>
        <time>2024-03-27T16:15:35Z</time>
      </trkpt>
      <trkpt lat="43.66063" lon="1.33002">
        <ele>156.2</ele>
        <time>2024-03-27T16:15:36Z</time>
      </trkpt>
      <trkpt lat="43.66066" lon="1.32991">
        <ele>156.2</ele>
        <time>2024-03-27T16:15:37Z</time>
      </trkpt>
      <trkpt lat="43.66068" lon="1.32981">
        <ele>156</ele>
        <time>2024-03-27T16:15:38Z</time>
      </trkpt>
      <trkpt lat="43.6607" lon="1.3297">
        <ele>156</ele>
        <time>2024-03-27T16:15:39Z</time>
      </trkpt>
      <trkpt lat="43.66072" lon="1.32959">
        <ele>155.8</ele>
        <time>2024-03-27T16:15:40Z</time>
      </trkpt>
      <trkpt lat="43.66074" lon="1.32947">
        <ele>155.8</ele>
        <time>2024-03-27T16:15:41Z</time>
      </trkpt>
      <trkpt lat="43.66076" lon="1.32936">
        <ele>155.6</ele>
        <time>2024-03-27T16:15:42Z</time>
      </trkpt>
      <trkpt lat="43.66078" lon="1.32925">
        <ele>155.4</ele>
        <time>2024-03-27T16:15:43Z</time>
      </trkpt>
      <trkpt lat="43.66079" lon="1.32913">
        <ele>155.4</ele>
        <time>2024-03-27T16:15:44Z</time>
      </trkpt>
      <trkpt lat="43.66081" lon="1.32901">
        <ele>155.2</ele>
        <time>2024-03-27T16:15:45Z</time>
      </trkpt>
      <trkpt lat="43.66082" lon="1.3289">
        <ele>155</ele>
        <time>2024-03-27T16:15:46Z</time>
      </trkpt>
      <trkpt lat="43.66084" lon="1.32878">
        <ele>154.8</ele>
        <time>2024-03-27T16:15:47Z</time>
      </trkpt>
      <trkpt lat="43.66086" lon="1.32867">
        <ele>154.4</ele>
        <time>2024-03-27T16:15:48Z</time>
      </trkpt>
      <trkpt lat="43.66087" lon="1.32856">
        <ele>154.2</ele>
        <time>2024-03-27T16:15:49Z</time>
      </trkpt>
      <trkpt lat="43.66088" lon="1.32845">
        <ele>154</ele>
        <time>2024-03-27T16:15:50Z</time>
      </trkpt>
      <trkpt lat="43.66089" lon="1.32834">
        <ele>154</ele>
        <time>2024-03-27T16:15:51Z</time>
      </trkpt>
      <trkpt lat="43.66091" lon="1.32823">
        <ele>153.6</ele>
        <time>2024-03-27T16:15:52Z</time>
      </trkpt>
      <trkpt lat="43.66091" lon="1.32812">
        <ele>153.6</ele>
        <time>2024-03-27T16:15:53Z</time>
      </trkpt>
      <trkpt lat="43.66091" lon="1.32801">
        <ele>153.2</ele>
        <time>2024-03-27T16:15:54Z</time>
      </trkpt>
      <trkpt lat="43.66092" lon="1.32791">
        <ele>153</ele>
        <time>2024-03-27T16:15:55Z</time>
      </trkpt>
      <trkpt lat="43.66093" lon="1.3278">
        <ele>153</ele>
        <time>2024-03-27T16:15:56Z</time>
      </trkpt>
      <trkpt lat="43.66094" lon="1.3277">
        <ele>152.8</ele>
        <time>2024-03-27T16:15:57Z</time>
      </trkpt>
      <trkpt lat="43.66095" lon="1.3276">
        <ele>152.8</ele>
        <time>2024-03-27T16:15:58Z</time>
      </trkpt>
      <trkpt lat="43.66096" lon="1.3275">
        <ele>152.8</ele>
        <time>2024-03-27T16:15:59Z</time>
      </trkpt>
      <trkpt lat="43.66098" lon="1.3274">
        <ele>152.6</ele>
        <time>2024-03-27T16:16:00Z</time>
      </trkpt>
      <trkpt lat="43.66099" lon="1.3273">
        <ele>152.6</ele>
        <time>2024-03-27T16:16:01Z</time>
      </trkpt>
      <trkpt lat="43.661" lon="1.32721">
        <ele>152.6</ele>
        <time>2024-03-27T16:16:02Z</time>
      </trkpt>
      <trkpt lat="43.66101" lon="1.32711">
        <ele>152.6</ele>
        <time>2024-03-27T16:16:03Z</time>
      </trkpt>
      <trkpt lat="43.66103" lon="1.32702">
        <ele>152.8</ele>
        <time>2024-03-27T16:16:04Z</time>
      </trkpt>
      <trkpt lat="43.66104" lon="1.32693">
        <ele>152.8</ele>
        <time>2024-03-27T16:16:05Z</time>
      </trkpt>
      <trkpt lat="43.66105" lon="1.32685">
        <ele>152.8</ele>
        <time>2024-03-27T16:16:06Z</time>
      </trkpt>
      <trkpt lat="43.66107" lon="1.32676">
        <ele>153</ele>
        <time>2024-03-27T16:16:07Z</time>
      </trkpt>
      <trkpt lat="43.66108" lon="1.32667">
        <ele>153</ele>
        <time>2024-03-27T16:16:08Z</time>
      </trkpt>
      <trkpt lat="43.66109" lon="1.32658">
        <ele>153.2</ele>
        <time>2024-03-27T16:16:09Z</time>
      </trkpt>
      <trkpt lat="43.66111" lon="1.3265">
        <ele>153.2</ele>
        <time>2024-03-27T16:16:10Z</time>
      </trkpt>
      <trkpt lat="43.66112" lon="1.32641">
        <ele>153.4</ele>
        <time>2024-03-27T16:16:11Z</time>
      </trkpt>
      <trkpt lat="43.66113" lon="1.32632">
        <ele>153.4</ele>
        <time>2024-03-27T16:16:12Z</time>
      </trkpt>
      <trkpt lat="43.66116" lon="1.32616">
        <ele>153.8</ele>
        <time>2024-03-27T16:16:13Z</time>
      </trkpt>
      <trkpt lat="43.66116" lon="1.32616">
        <ele>153.8</ele>
        <time>2024-03-27T16:16:14Z</time>
      </trkpt>
      <trkpt lat="43.66118" lon="1.32601">
        <ele>154</ele>
        <time>2024-03-27T16:16:15Z</time>
      </trkpt>
      <trkpt lat="43.6612" lon="1.32591">
        <ele>154</ele>
        <time>2024-03-27T16:16:16Z</time>
      </trkpt>
      <trkpt lat="43.66121" lon="1.32583">
        <ele>154.2</ele>
        <time>2024-03-27T16:16:17Z</time>
      </trkpt>
      <trkpt lat="43.66122" lon="1.32576">
        <ele>154.4</ele>
        <time>2024-03-27T16:16:18Z</time>
      </trkpt>
      <trkpt lat="43.66123" lon="1.32569">
        <ele>154.6</ele>
        <time>2024-03-27T16:16:19Z</time>
      </trkpt>
      <trkpt lat="43.66124" lon="1.32562">
        <ele>154.8</ele>
        <time>2024-03-27T16:16:20Z</time>
      </trkpt>
      <trkpt lat="43.66124" lon="1.32555">
        <ele>154.8</ele>
        <time>2024-03-27T16:16:21Z</time>
      </trkpt>
      <trkpt lat="43.66124" lon="1.32549">
        <ele>155</ele>
        <time>2024-03-27T16:16:22Z</time>
      </trkpt>
      <trkpt lat="43.66122" lon="1.32543">
        <ele>155.2</ele>
        <time>2024-03-27T16:16:23Z</time>
      </trkpt>
      <trkpt lat="43.66121" lon="1.32537">
        <ele>155.6</ele>
        <time>2024-03-27T16:16:24Z</time>
      </trkpt>
      <trkpt lat="43.66121" lon="1.32537">
        <ele>155.8</ele>
        <time>2024-03-27T16:16:25Z</time>
      </trkpt>
      <trkpt lat="43.66115" lon="1.32527">
        <ele>156.2</ele>
        <time>2024-03-27T16:16:26Z</time>
      </trkpt>
      <trkpt lat="43.66111" lon="1.32525">
        <ele>156.4</ele>
        <time>2024-03-27T16:16:27Z</time>
      </trkpt>
      <trkpt lat="43.66107" lon="1.32524">
        <ele>156.6</ele>
        <time>2024-03-27T16:16:28Z</time>
      </trkpt>
      <trkpt lat="43.66103" lon="1.32525">
        <ele>156.8</ele>
        <time>2024-03-27T16:16:29Z</time>
      </trkpt>
      <trkpt lat="43.66098" lon="1.32526">
        <ele>157.2</ele>
        <time>2024-03-27T16:16:30Z</time>
      </trkpt>
      <trkpt lat="43.66098" lon="1.32526">
        <ele>157.4</ele>
        <time>2024-03-27T16:16:31Z</time>
      </trkpt>
      <trkpt lat="43.66087" lon="1.32529">
        <ele>157.4</ele>
        <time>2024-03-27T16:16:32Z</time>
      </trkpt>
      <trkpt lat="43.66082" lon="1.32531">
        <ele>157.6</ele>
        <time>2024-03-27T16:16:33Z</time>
      </trkpt>
      <trkpt lat="43.66082" lon="1.32531">
        <ele>157.6</ele>
        <time>2024-03-27T16:16:34Z</time>
      </trkpt>
      <trkpt lat="43.6607" lon="1.32534">
        <ele>157.6</ele>
        <time>2024-03-27T16:16:35Z</time>
      </trkpt>
      <trkpt lat="43.66064" lon="1.32536">
        <ele>157.6</ele>
        <time>2024-03-27T16:16:36Z</time>
      </trkpt>
      <trkpt lat="43.66058" lon="1.32538">
        <ele>157.6</ele>
        <time>2024-03-27T16:16:37Z</time>
      </trkpt>
      <trkpt lat="43.66052" lon="1.32541">
        <ele>157.6</ele>
        <time>2024-03-27T16:16:38Z</time>
      </trkpt>
      <trkpt lat="43.66046" lon="1.32543">
        <ele>157.6</ele>
        <time>2024-03-27T16:16:39Z</time>
      </trkpt>
      <trkpt lat="43.66039" lon="1.32546">
        <ele>157.6</ele>
        <time>2024-03-27T16:16:40Z</time>
      </trkpt>
      <trkpt lat="43.66033" lon="1.32549">
        <ele>157.4</ele>
        <time>2024-03-27T16:16:41Z</time>
      </trkpt>
      <trkpt lat="43.66026" lon="1.32552">
        <ele>157.4</ele>
        <time>2024-03-27T16:16:42Z</time>
      </trkpt>
      <trkpt lat="43.6602" lon="1.32556">
        <ele>157.2</ele>
        <time>2024-03-27T16:16:43Z</time>
      </trkpt>
      <trkpt lat="43.66013" lon="1.32559">
        <ele>157.2</ele>
        <time>2024-03-27T16:16:44Z</time>
      </trkpt>
      <trkpt lat="43.66007" lon="1.32563">
        <ele>157</ele>
        <time>2024-03-27T16:16:45Z</time>
      </trkpt>
      <trkpt lat="43.66" lon="1.32566">
        <ele>157</ele>
        <time>2024-03-27T16:16:46Z</time>
      </trkpt>
      <trkpt lat="43.65994" lon="1.32569">
        <ele>156.8</ele>
        <time>2024-03-27T16:16:47Z</time>
      </trkpt>
      <trkpt lat="43.65994" lon="1.32569">
        <ele>156.6</ele>
        <time>2024-03-27T16:16:48Z</time>
      </trkpt>
      <trkpt lat="43.65981" lon="1.32577">
        <ele>156.4</ele>
        <time>2024-03-27T16:16:49Z</time>
      </trkpt>
      <trkpt lat="43.65975" lon="1.3258">
        <ele>156.4</ele>
        <time>2024-03-27T16:16:50Z</time>
      </trkpt>
      <trkpt lat="43.65968" lon="1.32584">
        <ele>156.2</ele>
        <time>2024-03-27T16:16:51Z</time>
      </trkpt>
      <trkpt lat="43.65962" lon="1.32588">
        <ele>156.2</ele>
        <time>2024-03-27T16:16:52Z</time>
      </trkpt>
      <trkpt lat="43.65956" lon="1.32591">
        <ele>156.2</ele>
        <time>2024-03-27T16:16:53Z</time>
      </trkpt>
      <trkpt lat="43.65949" lon="1.32595">
        <ele>156</ele>
        <time>2024-03-27T16:16:54Z</time>
      </trkpt>
      <trkpt lat="43.65942" lon="1.32598">
        <ele>156</ele>
        <time>2024-03-27T16:16:55Z</time>
      </trkpt>
      <trkpt lat="43.65935" lon="1.32601">
        <ele>155.6</ele>
        <time>2024-03-27T16:16:56Z</time>
      </trkpt>
      <trkpt lat="43.65935" lon="1.32601">
        <ele>155.6</ele>
        <time>2024-03-27T16:16:57Z</time>
      </trkpt>
      <trkpt lat="43.65922" lon="1.32608">
        <ele>155.4</ele>
        <time>2024-03-27T16:16:58Z</time>
      </trkpt>
      <trkpt lat="43.65915" lon="1.32611">
        <ele>155.2</ele>
        <time>2024-03-27T16:16:59Z</time>
      </trkpt>
      <trkpt lat="43.65908" lon="1.32614">
        <ele>155.2</ele>
        <time>2024-03-27T16:17:00Z</time>
      </trkpt>
      <trkpt lat="43.65902" lon="1.32617">
        <ele>155.2</ele>
        <time>2024-03-27T16:17:01Z</time>
      </trkpt>
      <trkpt lat="43.65893" lon="1.32621">
        <ele>155</ele>
        <time>2024-03-27T16:17:02Z</time>
      </trkpt>
      <trkpt lat="43.65886" lon="1.32625">
        <ele>155</ele>
        <time>2024-03-27T16:17:03Z</time>
      </trkpt>
      <trkpt lat="43.65879" lon="1.32628">
        <ele>154.8</ele>
        <time>2024-03-27T16:17:04Z</time>
      </trkpt>
      <trkpt lat="43.65872" lon="1.32631">
        <ele>154.4</ele>
        <time>2024-03-27T16:17:05Z</time>
      </trkpt>
      <trkpt lat="43.65864" lon="1.32634">
        <ele>154.4</ele>
        <time>2024-03-27T16:17:06Z</time>
      </trkpt>
      <trkpt lat="43.65857" lon="1.32638">
        <ele>154.2</ele>
        <time>2024-03-27T16:17:07Z</time>
      </trkpt>
      <trkpt lat="43.65851" lon="1.32641">
        <ele>154</ele>
        <time>2024-03-27T16:17:08Z</time>
      </trkpt>
      <trkpt lat="43.65844" lon="1.32645">
        <ele>154</ele>
        <time>2024-03-27T16:17:09Z</time>
      </trkpt>
      <trkpt lat="43.65837" lon="1.32648">
        <ele>154</ele>
        <time>2024-03-27T16:17:10Z</time>
      </trkpt>
      <trkpt lat="43.6583" lon="1.32652">
        <ele>153.8</ele>
        <time>2024-03-27T16:17:11Z</time>
      </trkpt>
      <trkpt lat="43.65824" lon="1.32656">
        <ele>153.8</ele>
        <time>2024-03-27T16:17:12Z</time>
      </trkpt>
      <trkpt lat="43.65817" lon="1.3266">
        <ele>153.8</ele>
        <time>2024-03-27T16:17:13Z</time>
      </trkpt>
      <trkpt lat="43.65811" lon="1.32663">
        <ele>153.8</ele>
        <time>2024-03-27T16:17:14Z</time>
      </trkpt>
      <trkpt lat="43.65804" lon="1.32667">
        <ele>153.8</ele>
        <time>2024-03-27T16:17:15Z</time>
      </trkpt>
      <trkpt lat="43.65798" lon="1.3267">
        <ele>153.8</ele>
        <time>2024-03-27T16:17:16Z</time>
      </trkpt>
      <trkpt lat="43.65791" lon="1.32674">
        <ele>153.8</ele>
        <time>2024-03-27T16:17:17Z</time>
      </trkpt>
      <trkpt lat="43.65785" lon="1.32677">
        <ele>153.8</ele>
        <time>2024-03-27T16:17:18Z</time>
      </trkpt>
      <trkpt lat="43.65779" lon="1.32679">
        <ele>153.6</ele>
        <time>2024-03-27T16:17:19Z</time>
      </trkpt>
      <trkpt lat="43.65772" lon="1.32682">
        <ele>153.6</ele>
        <time>2024-03-27T16:17:20Z</time>
      </trkpt>
      <trkpt lat="43.65766" lon="1.32685">
        <ele>153.6</ele>
        <time>2024-03-27T16:17:21Z</time>
      </trkpt>
      <trkpt lat="43.65759" lon="1.32689">
        <ele>153.6</ele>
        <time>2024-03-27T16:17:22Z</time>
      </trkpt>
      <trkpt lat="43.65759" lon="1.32689">
        <ele>153.6</ele>
        <time>2024-03-27T16:17:23Z</time>
      </trkpt>
      <trkpt lat="43.65746" lon="1.32695">
        <ele>153.6</ele>
        <time>2024-03-27T16:17:24Z</time>
      </trkpt>
      <trkpt lat="43.65746" lon="1.32695">
        <ele>153.4</ele>
        <time>2024-03-27T16:17:25Z</time>
      </trkpt>
      <trkpt lat="43.65734" lon="1.32703">
        <ele>153.4</ele>
        <time>2024-03-27T16:17:26Z</time>
      </trkpt>
      <trkpt lat="43.65727" lon="1.32706">
        <ele>153.6</ele>
        <time>2024-03-27T16:17:27Z</time>
      </trkpt>
      <trkpt lat="43.65721" lon="1.3271">
        <ele>153.6</ele>
        <time>2024-03-27T16:17:28Z</time>
      </trkpt>
      <trkpt lat="43.65714" lon="1.32713">
        <ele>153.6</ele>
        <time>2024-03-27T16:17:29Z</time>
      </trkpt>
      <trkpt lat="43.65708" lon="1.32715">
        <ele>153.4</ele>
        <time>2024-03-27T16:17:30Z</time>
      </trkpt>
      <trkpt lat="43.65702" lon="1.32719">
        <ele>153.4</ele>
        <time>2024-03-27T16:17:31Z</time>
      </trkpt>
      <trkpt lat="43.65696" lon="1.32722">
        <ele>153.4</ele>
        <time>2024-03-27T16:17:32Z</time>
      </trkpt>
      <trkpt lat="43.6569" lon="1.32725">
        <ele>153.4</ele>
        <time>2024-03-27T16:17:33Z</time>
      </trkpt>
      <trkpt lat="43.6569" lon="1.32725">
        <ele>153.4</ele>
        <time>2024-03-27T16:17:34Z</time>
      </trkpt>
      <trkpt lat="43.65678" lon="1.32731">
        <ele>153.4</ele>
        <time>2024-03-27T16:17:35Z</time>
      </trkpt>
      <trkpt lat="43.65672" lon="1.32733">
        <ele>153.4</ele>
        <time>2024-03-27T16:17:36Z</time>
      </trkpt>
      <trkpt lat="43.65665" lon="1.32733">
        <ele>153.4</ele>
        <time>2024-03-27T16:17:37Z</time>
      </trkpt>
      <trkpt lat="43.65659" lon="1.3273">
        <ele>153.2</ele>
        <time>2024-03-27T16:17:38Z</time>
      </trkpt>
      <trkpt lat="43.65653" lon="1.32727">
        <ele>153.2</ele>
        <time>2024-03-27T16:17:39Z</time>
      </trkpt>
      <trkpt lat="43.65646" lon="1.32724">
        <ele>153.2</ele>
        <time>2024-03-27T16:17:40Z</time>
      </trkpt>
      <trkpt lat="43.6564" lon="1.32721">
        <ele>153</ele>
        <time>2024-03-27T16:17:41Z</time>
      </trkpt>
      <trkpt lat="43.65633" lon="1.32718">
        <ele>152.8</ele>
        <time>2024-03-27T16:17:42Z</time>
      </trkpt>
      <trkpt lat="43.65628" lon="1.32715">
        <ele>152.6</ele>
        <time>2024-03-27T16:17:43Z</time>
      </trkpt>
      <trkpt lat="43.65625" lon="1.32713">
        <ele>152.6</ele>
        <time>2024-03-27T16:17:44Z</time>
      </trkpt>
      <trkpt lat="43.65622" lon="1.32712">
        <ele>152.4</ele>
        <time>2024-03-27T16:17:45Z</time>
      </trkpt>
      <trkpt lat="43.6562" lon="1.32712">
        <ele>152.4</ele>
        <time>2024-03-27T16:17:46Z</time>
      </trkpt>
      <trkpt lat="43.65619" lon="1.32714">
        <ele>152.4</ele>
        <time>2024-03-27T16:17:47Z</time>
      </trkpt>
      <trkpt lat="43.65621" lon="1.32715">
        <ele>152.2</ele>
        <time>2024-03-27T16:17:48Z</time>
      </trkpt>
      <trkpt lat="43.65624" lon="1.32716">
        <ele>152.2</ele>
        <time>2024-03-27T16:17:49Z</time>
      </trkpt>
      <trkpt lat="43.65627" lon="1.32717">
        <ele>152</ele>
        <time>2024-03-27T16:17:50Z</time>
      </trkpt>
      <trkpt lat="43.6563" lon="1.32718">
        <ele>152</ele>
        <time>2024-03-27T16:17:51Z</time>
      </trkpt>
      <trkpt lat="43.65633" lon="1.32719">
        <ele>152</ele>
        <time>2024-03-27T16:17:52Z</time>
      </trkpt>
      <trkpt lat="43.65635" lon="1.32721">
        <ele>152</ele>
        <time>2024-03-27T16:17:53Z</time>
      </trkpt>
      <trkpt lat="43.65637" lon="1.32723">
        <ele>152</ele>
        <time>2024-03-27T16:17:54Z</time>
      </trkpt>
      <trkpt lat="43.65638" lon="1.32724">
        <ele>152</ele>
        <time>2024-03-27T16:17:55Z</time>
      </trkpt>
      <trkpt lat="43.65639" lon="1.32724">
        <ele>152</ele>
        <time>2024-03-27T16:17:56Z</time>
      </trkpt>
      <trkpt lat="43.6564" lon="1.32724">
        <ele>152</ele>
        <time>2024-03-27T16:17:57Z</time>
      </trkpt>
      <trkpt lat="43.65641" lon="1.32725">
        <ele>152</ele>
        <time>2024-03-27T16:17:58Z</time>
      </trkpt>
      <trkpt lat="43.65643" lon="1.32725">
        <ele>152</ele>
        <time>2024-03-27T16:17:59Z</time>
      </trkpt>
      <trkpt lat="43.65644" lon="1.32724">
        <ele>152</ele>
        <time>2024-03-27T16:18:00Z</time>
      </trkpt>
      <trkpt lat="43.65644" lon="1.32723">
        <ele>152</ele>
        <time>2024-03-27T16:18:01Z</time>
      </trkpt>
      <trkpt lat="43.65644" lon="1.32723">
        <ele>152</ele>
        <time>2024-03-27T16:18:02Z</time>
      </trkpt>
      <trkpt lat="43.65641" lon="1.32721">
        <ele>152</ele>
        <time>2024-03-27T16:18:03Z</time>
      </trkpt>
      <trkpt lat="43.65639" lon="1.3272">
        <ele>152</ele>
        <time>2024-03-27T16:18:04Z</time>
      </trkpt>
      <trkpt lat="43.65637" lon="1.3272">
        <ele>152</ele>
        <time>2024-03-27T16:18:05Z</time>
      </trkpt>
      <trkpt lat="43.65634" lon="1.32719">
        <ele>152</ele>
        <time>2024-03-27T16:18:06Z</time>
      </trkpt>
      <trkpt lat="43.65631" lon="1.32718">
        <ele>152</ele>
        <time>2024-03-27T16:18:07Z</time>
      </trkpt>
      <trkpt lat="43.65628" lon="1.32716">
        <ele>151.8</ele>
        <time>2024-03-27T16:18:08Z</time>
      </trkpt>
      <trkpt lat="43.65624" lon="1.32714">
        <ele>151.8</ele>
        <time>2024-03-27T16:18:09Z</time>
      </trkpt>
      <trkpt lat="43.65619" lon="1.32712">
        <ele>151.8</ele>
        <time>2024-03-27T16:18:10Z</time>
      </trkpt>
      <trkpt lat="43.65616" lon="1.32711">
        <ele>151.8</ele>
        <time>2024-03-27T16:18:11Z</time>
      </trkpt>
      <trkpt lat="43.6561" lon="1.32709">
        <ele>151.8</ele>
        <time>2024-03-27T16:18:12Z</time>
      </trkpt>
      <trkpt lat="43.65605" lon="1.32708">
        <ele>151.8</ele>
        <time>2024-03-27T16:18:13Z</time>
      </trkpt>
      <trkpt lat="43.656" lon="1.32706">
        <ele>151.8</ele>
        <time>2024-03-27T16:18:14Z</time>
      </trkpt>
      <trkpt lat="43.65595" lon="1.32705">
        <ele>151.8</ele>
        <time>2024-03-27T16:18:15Z</time>
      </trkpt>
      <trkpt lat="43.6559" lon="1.32704">
        <ele>151.8</ele>
        <time>2024-03-27T16:18:16Z</time>
      </trkpt>
      <trkpt lat="43.65584" lon="1.32702">
        <ele>151.8</ele>
        <time>2024-03-27T16:18:17Z</time>
      </trkpt>
      <trkpt lat="43.65579" lon="1.327">
        <ele>151.8</ele>
        <time>2024-03-27T16:18:18Z</time>
      </trkpt>
      <trkpt lat="43.65574" lon="1.32698">
        <ele>151.8</ele>
        <time>2024-03-27T16:18:19Z</time>
      </trkpt>
      <trkpt lat="43.65569" lon="1.32696">
        <ele>152</ele>
        <time>2024-03-27T16:18:20Z</time>
      </trkpt>
      <trkpt lat="43.65563" lon="1.32694">
        <ele>152</ele>
        <time>2024-03-27T16:18:21Z</time>
      </trkpt>
      <trkpt lat="43.65558" lon="1.32693">
        <ele>152</ele>
        <time>2024-03-27T16:18:22Z</time>
      </trkpt>
      <trkpt lat="43.65552" lon="1.32691">
        <ele>152.2</ele>
        <time>2024-03-27T16:18:23Z</time>
      </trkpt>
      <trkpt lat="43.65547" lon="1.3269">
        <ele>152.2</ele>
        <time>2024-03-27T16:18:24Z</time>
      </trkpt>
      <trkpt lat="43.65541" lon="1.32688">
        <ele>152.2</ele>
        <time>2024-03-27T16:18:25Z</time>
      </trkpt>
      <trkpt lat="43.65536" lon="1.32687">
        <ele>152.4</ele>
        <time>2024-03-27T16:18:26Z</time>
      </trkpt>
      <trkpt lat="43.6553" lon="1.32685">
        <ele>152.4</ele>
        <time>2024-03-27T16:18:27Z</time>
      </trkpt>
      <trkpt lat="43.65525" lon="1.32683">
        <ele>152.4</ele>
        <time>2024-03-27T16:18:28Z</time>
      </trkpt>
      <trkpt lat="43.6552" lon="1.3268">
        <ele>152.6</ele>
        <time>2024-03-27T16:18:29Z</time>
      </trkpt>
      <trkpt lat="43.65514" lon="1.32678">
        <ele>152.8</ele>
        <time>2024-03-27T16:18:30Z</time>
      </trkpt>
      <trkpt lat="43.65509" lon="1.32676">
        <ele>153</ele>
        <time>2024-03-27T16:18:31Z</time>
      </trkpt>
      <trkpt lat="43.65504" lon="1.32673">
        <ele>153</ele>
        <time>2024-03-27T16:18:32Z</time>
      </trkpt>
      <trkpt lat="43.65498" lon="1.32671">
        <ele>153</ele>
        <time>2024-03-27T16:18:33Z</time>
      </trkpt>
      <trkpt lat="43.65493" lon="1.32668">
        <ele>153.2</ele>
        <time>2024-03-27T16:18:34Z</time>
      </trkpt>
      <trkpt lat="43.65487" lon="1.32666">
        <ele>153.4</ele>
        <time>2024-03-27T16:18:35Z</time>
      </trkpt>
      <trkpt lat="43.65482" lon="1.32663">
        <ele>153.4</ele>
        <time>2024-03-27T16:18:36Z</time>
      </trkpt>
      <trkpt lat="43.65477" lon="1.32661">
        <ele>153.6</ele>
        <time>2024-03-27T16:18:37Z</time>
      </trkpt>
      <trkpt lat="43.65471" lon="1.32658">
        <ele>153.6</ele>
        <time>2024-03-27T16:18:38Z</time>
      </trkpt>
      <trkpt lat="43.65471" lon="1.32658">
        <ele>153.8</ele>
        <time>2024-03-27T16:18:39Z</time>
      </trkpt>
      <trkpt lat="43.6546" lon="1.32652">
        <ele>153.8</ele>
        <time>2024-03-27T16:18:40Z</time>
      </trkpt>
      <trkpt lat="43.65455" lon="1.32649">
        <ele>153.8</ele>
        <time>2024-03-27T16:18:41Z</time>
      </trkpt>
      <trkpt lat="43.6545" lon="1.32646">
        <ele>154</ele>
        <time>2024-03-27T16:18:42Z</time>
      </trkpt>
      <trkpt lat="43.65444" lon="1.32642">
        <ele>154.2</ele>
        <time>2024-03-27T16:18:43Z</time>
      </trkpt>
      <trkpt lat="43.65439" lon="1.32638">
        <ele>154.2</ele>
        <time>2024-03-27T16:18:44Z</time>
      </trkpt>
      <trkpt lat="43.65435" lon="1.32634">
        <ele>154.4</ele>
        <time>2024-03-27T16:18:45Z</time>
      </trkpt>
      <trkpt lat="43.65431" lon="1.3263">
        <ele>154.4</ele>
        <time>2024-03-27T16:18:46Z</time>
      </trkpt>
      <trkpt lat="43.65427" lon="1.32625">
        <ele>154.4</ele>
        <time>2024-03-27T16:18:47Z</time>
      </trkpt>
      <trkpt lat="43.65427" lon="1.32625">
        <ele>154.6</ele>
        <time>2024-03-27T16:18:48Z</time>
      </trkpt>
      <trkpt lat="43.6542" lon="1.32615">
        <ele>154.6</ele>
        <time>2024-03-27T16:18:49Z</time>
      </trkpt>
      <trkpt lat="43.65417" lon="1.32609">
        <ele>154.8</ele>
        <time>2024-03-27T16:18:50Z</time>
      </trkpt>
      <trkpt lat="43.65414" lon="1.32605">
        <ele>154.8</ele>
        <time>2024-03-27T16:18:51Z</time>
      </trkpt>
      <trkpt lat="43.65412" lon="1.32599">
        <ele>155</ele>
        <time>2024-03-27T16:18:52Z</time>
      </trkpt>
      <trkpt lat="43.65409" lon="1.32594">
        <ele>155</ele>
        <time>2024-03-27T16:18:53Z</time>
      </trkpt>
      <trkpt lat="43.65407" lon="1.32587">
        <ele>155.2</ele>
        <time>2024-03-27T16:18:54Z</time>
      </trkpt>
      <trkpt lat="43.65406" lon="1.3258">
        <ele>155.2</ele>
        <time>2024-03-27T16:18:55Z</time>
      </trkpt>
      <trkpt lat="43.65405" lon="1.32573">
        <ele>155.4</ele>
        <time>2024-03-27T16:18:56Z</time>
      </trkpt>
      <trkpt lat="43.65404" lon="1.32566">
        <ele>155.4</ele>
        <time>2024-03-27T16:18:57Z</time>
      </trkpt>
      <trkpt lat="43.65403" lon="1.3256">
        <ele>155.6</ele>
        <time>2024-03-27T16:18:58Z</time>
      </trkpt>
      <trkpt lat="43.65402" lon="1.32553">
        <ele>155.8</ele>
        <time>2024-03-27T16:18:59Z</time>
      </trkpt>
      <trkpt lat="43.654" lon="1.32547">
        <ele>156</ele>
        <time>2024-03-27T16:19:00Z</time>
      </trkpt>
      <trkpt lat="43.65399" lon="1.3254">
        <ele>156.2</ele>
        <time>2024-03-27T16:19:01Z</time>
      </trkpt>
      <trkpt lat="43.65399" lon="1.3254">
        <ele>156.2</ele>
        <time>2024-03-27T16:19:02Z</time>
      </trkpt>
      <trkpt lat="43.65395" lon="1.32529">
        <ele>156.4</ele>
        <time>2024-03-27T16:19:03Z</time>
      </trkpt>
      <trkpt lat="43.65394" lon="1.32525">
        <ele>156.4</ele>
        <time>2024-03-27T16:19:04Z</time>
      </trkpt>
      <trkpt lat="43.65394" lon="1.32521">
        <ele>156.4</ele>
        <time>2024-03-27T16:19:05Z</time>
      </trkpt>
      <trkpt lat="43.65395" lon="1.32518">
        <ele>156.4</ele>
        <time>2024-03-27T16:19:06Z</time>
      </trkpt>
      <trkpt lat="43.65396" lon="1.32516">
        <ele>156.6</ele>
        <time>2024-03-27T16:19:07Z</time>
      </trkpt>
      <trkpt lat="43.65397" lon="1.32513">
        <ele>156.6</ele>
        <time>2024-03-27T16:19:08Z</time>
      </trkpt>
      <trkpt lat="43.65398" lon="1.32512">
        <ele>156.6</ele>
        <time>2024-03-27T16:19:09Z</time>
      </trkpt>
      <trkpt lat="43.65398" lon="1.32511">
        <ele>156.6</ele>
        <time>2024-03-27T16:19:10Z</time>
      </trkpt>
      <trkpt lat="43.65397" lon="1.32511">
        <ele>156.6</ele>
        <time>2024-03-27T16:19:11Z</time>
      </trkpt>
      <trkpt lat="43.65396" lon="1.32511">
        <ele>156.6</ele>
        <time>2024-03-27T16:19:12Z</time>
      </trkpt>
      <trkpt lat="43.65396" lon="1.32511">
        <ele>156.6</ele>
        <time>2024-03-27T16:19:13Z</time>
      </trkpt>
      <trkpt lat="43.65391" lon="1.32506">
        <ele>156.6</ele>
        <time>2024-03-27T16:19:19Z</time>
      </trkpt>
      <trkpt lat="43.65388" lon="1.32506">
        <ele>156.6</ele>
        <time>2024-03-27T16:19:20Z</time>
      </trkpt>
      <trkpt lat="43.65387" lon="1.32507">
        <ele>156.6</ele>
        <time>2024-03-27T16:19:21Z</time>
      </trkpt>
      <trkpt lat="43.65384" lon="1.32506">
        <ele>156.6</ele>
        <time>2024-03-27T16:19:22Z</time>
      </trkpt>
      <trkpt lat="43.65383" lon="1.32503">
        <ele>156.6</ele>
        <time>2024-03-27T16:19:23Z</time>
      </trkpt>
      <trkpt lat="43.65382" lon="1.32498">
        <ele>156.6</ele>
        <time>2024-03-27T16:19:24Z</time>
      </trkpt>
      <trkpt lat="43.65382" lon="1.32498">
        <ele>156.6</ele>
        <time>2024-03-27T16:19:25Z</time>
      </trkpt>
      <trkpt lat="43.65379" lon="1.32486">
        <ele>156.4</ele>
        <time>2024-03-27T16:19:26Z</time>
      </trkpt>
      <trkpt lat="43.65375" lon="1.32478">
        <ele>156.4</ele>
        <time>2024-03-27T16:19:27Z</time>
      </trkpt>
      <trkpt lat="43.65375" lon="1.32478">
        <ele>156.4</ele>
        <time>2024-03-27T16:19:28Z</time>
      </trkpt>
      <trkpt lat="43.6537" lon="1.32465">
        <ele>156.2</ele>
        <time>2024-03-27T16:19:29Z</time>
      </trkpt>
      <trkpt lat="43.65368" lon="1.32458">
        <ele>156.2</ele>
        <time>2024-03-27T16:19:30Z</time>
      </trkpt>
      <trkpt lat="43.65366" lon="1.3245">
        <ele>156.2</ele>
        <time>2024-03-27T16:19:31Z</time>
      </trkpt>
      <trkpt lat="43.65365" lon="1.32443">
        <ele>156.2</ele>
        <time>2024-03-27T16:19:32Z</time>
      </trkpt>
      <trkpt lat="43.65362" lon="1.32434">
        <ele>156.2</ele>
        <time>2024-03-27T16:19:33Z</time>
      </trkpt>
      <trkpt lat="43.65362" lon="1.32434">
        <ele>156</ele>
        <time>2024-03-27T16:19:34Z</time>
      </trkpt>
      <trkpt lat="43.65357" lon="1.3242">
        <ele>156</ele>
        <time>2024-03-27T16:19:35Z</time>
      </trkpt>
      <trkpt lat="43.65354" lon="1.32412">
        <ele>156</ele>
        <time>2024-03-27T16:19:36Z</time>
      </trkpt>
      <trkpt lat="43.6535" lon="1.32405">
        <ele>156</ele>
        <time>2024-03-27T16:19:37Z</time>
      </trkpt>
      <trkpt lat="43.65347" lon="1.32399">
        <ele>156</ele>
        <time>2024-03-27T16:19:38Z</time>
      </trkpt>
      <trkpt lat="43.65344" lon="1.32391">
        <ele>156</ele>
        <time>2024-03-27T16:19:39Z</time>
      </trkpt>
      <trkpt lat="43.65341" lon="1.32384">
        <ele>156.2</ele>
        <time>2024-03-27T16:19:40Z</time>
      </trkpt>
      <trkpt lat="43.65338" lon="1.32377">
        <ele>156.2</ele>
        <time>2024-03-27T16:19:41Z</time>
      </trkpt>
      <trkpt lat="43.65336" lon="1.32371">
        <ele>156.2</ele>
        <time>2024-03-27T16:19:42Z</time>
      </trkpt>
      <trkpt lat="43.65333" lon="1.32365">
        <ele>156.2</ele>
        <time>2024-03-27T16:19:43Z</time>
      </trkpt>
      <trkpt lat="43.6533" lon="1.3236">
        <ele>156.2</ele>
        <time>2024-03-27T16:19:44Z</time>
      </trkpt>
      <trkpt lat="43.65326" lon="1.32359">
        <ele>156.2</ele>
        <time>2024-03-27T16:19:45Z</time>
      </trkpt>
      <trkpt lat="43.65322" lon="1.3236">
        <ele>156.2</ele>
        <time>2024-03-27T16:19:46Z</time>
      </trkpt>
      <trkpt lat="43.65318" lon="1.32363">
        <ele>156.2</ele>
        <time>2024-03-27T16:19:47Z</time>
      </trkpt>
      <trkpt lat="43.65318" lon="1.32363">
        <ele>156.2</ele>
        <time>2024-03-27T16:19:48Z</time>
      </trkpt>
      <trkpt lat="43.65309" lon="1.3237">
        <ele>156.2</ele>
        <time>2024-03-27T16:19:49Z</time>
      </trkpt>
      <trkpt lat="43.65303" lon="1.32374">
        <ele>156</ele>
        <time>2024-03-27T16:19:50Z</time>
      </trkpt>
      <trkpt lat="43.65298" lon="1.32378">
        <ele>155.8</ele>
        <time>2024-03-27T16:19:51Z</time>
      </trkpt>
      <trkpt lat="43.65293" lon="1.32383">
        <ele>155.6</ele>
        <time>2024-03-27T16:19:52Z</time>
      </trkpt>
      <trkpt lat="43.65287" lon="1.32387">
        <ele>155.4</ele>
        <time>2024-03-27T16:19:53Z</time>
      </trkpt>
      <trkpt lat="43.65282" lon="1.32391">
        <ele>155.4</ele>
        <time>2024-03-27T16:19:54Z</time>
      </trkpt>
      <trkpt lat="43.65277" lon="1.32396">
        <ele>155.2</ele>
        <time>2024-03-27T16:19:55Z</time>
      </trkpt>
      <trkpt lat="43.65271" lon="1.32401">
        <ele>155.2</ele>
        <time>2024-03-27T16:19:56Z</time>
      </trkpt>
      <trkpt lat="43.65266" lon="1.32406">
        <ele>155</ele>
        <time>2024-03-27T16:19:57Z</time>
      </trkpt>
      <trkpt lat="43.6526" lon="1.32411">
        <ele>155</ele>
        <time>2024-03-27T16:19:58Z</time>
      </trkpt>
      <trkpt lat="43.65254" lon="1.32416">
        <ele>155</ele>
        <time>2024-03-27T16:19:59Z</time>
      </trkpt>
      <trkpt lat="43.65247" lon="1.3242">
        <ele>154.8</ele>
        <time>2024-03-27T16:20:00Z</time>
      </trkpt>
      <trkpt lat="43.65242" lon="1.32423">
        <ele>154.8</ele>
        <time>2024-03-27T16:20:01Z</time>
      </trkpt>
      <trkpt lat="43.65242" lon="1.32423">
        <ele>154.8</ele>
        <time>2024-03-27T16:20:02Z</time>
      </trkpt>
      <trkpt lat="43.65231" lon="1.32421">
        <ele>154.6</ele>
        <time>2024-03-27T16:20:03Z</time>
      </trkpt>
      <trkpt lat="43.65224" lon="1.32418">
        <ele>154.4</ele>
        <time>2024-03-27T16:20:04Z</time>
      </trkpt>
      <trkpt lat="43.65218" lon="1.32414">
        <ele>154.2</ele>
        <time>2024-03-27T16:20:05Z</time>
      </trkpt>
      <trkpt lat="43.65212" lon="1.32412">
        <ele>153.8</ele>
        <time>2024-03-27T16:20:06Z</time>
      </trkpt>
      <trkpt lat="43.65205" lon="1.32409">
        <ele>153.6</ele>
        <time>2024-03-27T16:20:07Z</time>
      </trkpt>
      <trkpt lat="43.65197" lon="1.32408">
        <ele>153.4</ele>
        <time>2024-03-27T16:20:08Z</time>
      </trkpt>
      <trkpt lat="43.6519" lon="1.32408">
        <ele>153</ele>
        <time>2024-03-27T16:20:09Z</time>
      </trkpt>
      <trkpt lat="43.65185" lon="1.32408">
        <ele>153</ele>
        <time>2024-03-27T16:20:10Z</time>
      </trkpt>
      <trkpt lat="43.65185" lon="1.32408">
        <ele>152.8</ele>
        <time>2024-03-27T16:20:11Z</time>
      </trkpt>
      <trkpt lat="43.6518" lon="1.32411">
        <ele>152.8</ele>
        <time>2024-03-27T16:20:12Z</time>
      </trkpt>
      <trkpt lat="43.65181" lon="1.32414">
        <ele>152.8</ele>
        <time>2024-03-27T16:20:13Z</time>
      </trkpt>
      <trkpt lat="43.65181" lon="1.32418">
        <ele>152.8</ele>
        <time>2024-03-27T16:20:14Z</time>
      </trkpt>
      <trkpt lat="43.65181" lon="1.32422">
        <ele>152.8</ele>
        <time>2024-03-27T16:20:15Z</time>
      </trkpt>
      <trkpt lat="43.6518" lon="1.32427">
        <ele>152.8</ele>
        <time>2024-03-27T16:20:16Z</time>
      </trkpt>
      <trkpt lat="43.65178" lon="1.32431">
        <ele>152.8</ele>
        <time>2024-03-27T16:20:17Z</time>
      </trkpt>
      <trkpt lat="43.65175" lon="1.32434">
        <ele>152.8</ele>
        <time>2024-03-27T16:20:18Z</time>
      </trkpt>
      <trkpt lat="43.6517" lon="1.32437">
        <ele>152.8</ele>
        <time>2024-03-27T16:20:19Z</time>
      </trkpt>
      <trkpt lat="43.6517" lon="1.32437">
        <ele>153</ele>
        <time>2024-03-27T16:20:20Z</time>
      </trkpt>
      <trkpt lat="43.65162" lon="1.32438">
        <ele>153</ele>
        <time>2024-03-27T16:20:21Z</time>
      </trkpt>
      <trkpt lat="43.65158" lon="1.32439">
        <ele>153</ele>
        <time>2024-03-27T16:20:22Z</time>
      </trkpt>
      <trkpt lat="43.65155" lon="1.32441">
        <ele>153.2</ele>
        <time>2024-03-27T16:20:23Z</time>
      </trkpt>
      <trkpt lat="43.65154" lon="1.32445">
        <ele>153.4</ele>
        <time>2024-03-27T16:20:24Z</time>
      </trkpt>
      <trkpt lat="43.65152" lon="1.3245">
        <ele>153.8</ele>
        <time>2024-03-27T16:20:25Z</time>
      </trkpt>
      <trkpt lat="43.6515" lon="1.32455">
        <ele>154</ele>
        <time>2024-03-27T16:20:26Z</time>
      </trkpt>
      <trkpt lat="43.65148" lon="1.3246">
        <ele>154.4</ele>
        <time>2024-03-27T16:20:27Z</time>
      </trkpt>
      <trkpt lat="43.65146" lon="1.32464">
        <ele>154.4</ele>
        <time>2024-03-27T16:20:28Z</time>
      </trkpt>
      <trkpt lat="43.65145" lon="1.32467">
        <ele>154.6</ele>
        <time>2024-03-27T16:20:29Z</time>
      </trkpt>
      <trkpt lat="43.65143" lon="1.3247">
        <ele>154.8</ele>
        <time>2024-03-27T16:20:30Z</time>
      </trkpt>
      <trkpt lat="43.65143" lon="1.32473">
        <ele>154.8</ele>
        <time>2024-03-27T16:20:31Z</time>
      </trkpt>
      <trkpt lat="43.65144" lon="1.32476">
        <ele>154.8</ele>
        <time>2024-03-27T16:20:32Z</time>
      </trkpt>
      <trkpt lat="43.65146" lon="1.32479">
        <ele>154.8</ele>
        <time>2024-03-27T16:20:33Z</time>
      </trkpt>
      <trkpt lat="43.65146" lon="1.32479">
        <ele>155</ele>
        <time>2024-03-27T16:20:34Z</time>
      </trkpt>
      <trkpt lat="43.65153" lon="1.32486">
        <ele>155</ele>
        <time>2024-03-27T16:20:35Z</time>
      </trkpt>
      <trkpt lat="43.65156" lon="1.3249">
        <ele>155</ele>
        <time>2024-03-27T16:20:36Z</time>
      </trkpt>
      <trkpt lat="43.65156" lon="1.32494">
        <ele>155</ele>
        <time>2024-03-27T16:20:37Z</time>
      </trkpt>
      <trkpt lat="43.65154" lon="1.32497">
        <ele>155</ele>
        <time>2024-03-27T16:20:38Z</time>
      </trkpt>
      <trkpt lat="43.65151" lon="1.32499">
        <ele>154.8</ele>
        <time>2024-03-27T16:20:39Z</time>
      </trkpt>
      <trkpt lat="43.65146" lon="1.32498">
        <ele>154.8</ele>
        <time>2024-03-27T16:20:40Z</time>
      </trkpt>
      <trkpt lat="43.65141" lon="1.32496">
        <ele>154.4</ele>
        <time>2024-03-27T16:20:41Z</time>
      </trkpt>
      <trkpt lat="43.65137" lon="1.32492">
        <ele>154.2</ele>
        <time>2024-03-27T16:20:42Z</time>
      </trkpt>
      <trkpt lat="43.65137" lon="1.32492">
        <ele>154</ele>
        <time>2024-03-27T16:20:43Z</time>
      </trkpt>
      <trkpt lat="43.6513" lon="1.32481">
        <ele>153.8</ele>
        <time>2024-03-27T16:20:44Z</time>
      </trkpt>
      <trkpt lat="43.65127" lon="1.32475">
        <ele>153.6</ele>
        <time>2024-03-27T16:20:45Z</time>
      </trkpt>
      <trkpt lat="43.65126" lon="1.32468">
        <ele>153.6</ele>
        <time>2024-03-27T16:20:46Z</time>
      </trkpt>
      <trkpt lat="43.65125" lon="1.32461">
        <ele>153.2</ele>
        <time>2024-03-27T16:20:47Z</time>
      </trkpt>
      <trkpt lat="43.65124" lon="1.32454">
        <ele>153</ele>
        <time>2024-03-27T16:20:48Z</time>
      </trkpt>
      <trkpt lat="43.65122" lon="1.32447">
        <ele>152.8</ele>
        <time>2024-03-27T16:20:49Z</time>
      </trkpt>
      <trkpt lat="43.65119" lon="1.32442">
        <ele>152.6</ele>
        <time>2024-03-27T16:20:50Z</time>
      </trkpt>
      <trkpt lat="43.65114" lon="1.32437">
        <ele>152.6</ele>
        <time>2024-03-27T16:20:51Z</time>
      </trkpt>
      <trkpt lat="43.65109" lon="1.32433">
        <ele>152.6</ele>
        <time>2024-03-27T16:20:52Z</time>
      </trkpt>
      <trkpt lat="43.65101" lon="1.3243">
        <ele>152.6</ele>
        <time>2024-03-27T16:20:53Z</time>
      </trkpt>
      <trkpt lat="43.65095" lon="1.32427">
        <ele>152.6</ele>
        <time>2024-03-27T16:20:54Z</time>
      </trkpt>
      <trkpt lat="43.65089" lon="1.32424">
        <ele>152.6</ele>
        <time>2024-03-27T16:20:55Z</time>
      </trkpt>
      <trkpt lat="43.65089" lon="1.32424">
        <ele>152.4</ele>
        <time>2024-03-27T16:20:56Z</time>
      </trkpt>
      <trkpt lat="43.65083" lon="1.3242">
        <ele>152.4</ele>
        <time>2024-03-27T16:20:57Z</time>
      </trkpt>
      <trkpt lat="43.65071" lon="1.3241">
        <ele>152.4</ele>
        <time>2024-03-27T16:20:58Z</time>
      </trkpt>
      <trkpt lat="43.65067" lon="1.32405">
        <ele>152.4</ele>
        <time>2024-03-27T16:20:59Z</time>
      </trkpt>
      <trkpt lat="43.65064" lon="1.324">
        <ele>152.6</ele>
        <time>2024-03-27T16:21:00Z</time>
      </trkpt>
      <trkpt lat="43.65061" lon="1.32394">
        <ele>152.6</ele>
        <time>2024-03-27T16:21:01Z</time>
      </trkpt>
      <trkpt lat="43.65058" lon="1.32387">
        <ele>152.6</ele>
        <time>2024-03-27T16:21:02Z</time>
      </trkpt>
      <trkpt lat="43.65058" lon="1.32387">
        <ele>152.6</ele>
        <time>2024-03-27T16:21:03Z</time>
      </trkpt>
      <trkpt lat="43.65054" lon="1.32373">
        <ele>152.8</ele>
        <time>2024-03-27T16:21:04Z</time>
      </trkpt>
      <trkpt lat="43.65052" lon="1.32366">
        <ele>153</ele>
        <time>2024-03-27T16:21:05Z</time>
      </trkpt>
      <trkpt lat="43.65052" lon="1.32366">
        <ele>153.2</ele>
        <time>2024-03-27T16:21:06Z</time>
      </trkpt>
      <trkpt lat="43.65047" lon="1.32352">
        <ele>153.4</ele>
        <time>2024-03-27T16:21:07Z</time>
      </trkpt>
      <trkpt lat="43.65045" lon="1.32345">
        <ele>153.4</ele>
        <time>2024-03-27T16:21:08Z</time>
      </trkpt>
      <trkpt lat="43.65042" lon="1.32337">
        <ele>153.4</ele>
        <time>2024-03-27T16:21:09Z</time>
      </trkpt>
      <trkpt lat="43.65039" lon="1.32329">
        <ele>153.4</ele>
        <time>2024-03-27T16:21:10Z</time>
      </trkpt>
      <trkpt lat="43.65036" lon="1.32322">
        <ele>153.6</ele>
        <time>2024-03-27T16:21:11Z</time>
      </trkpt>
      <trkpt lat="43.65036" lon="1.32322">
        <ele>153.6</ele>
        <time>2024-03-27T16:21:12Z</time>
      </trkpt>
      <trkpt lat="43.6503" lon="1.32307">
        <ele>153.6</ele>
        <time>2024-03-27T16:21:13Z</time>
      </trkpt>
      <trkpt lat="43.65026" lon="1.323">
        <ele>153.6</ele>
        <time>2024-03-27T16:21:14Z</time>
      </trkpt>
      <trkpt lat="43.65026" lon="1.323">
        <ele>153.6</ele>
        <time>2024-03-27T16:21:15Z</time>
      </trkpt>
      <trkpt lat="43.65019" lon="1.32285">
        <ele>153.6</ele>
        <time>2024-03-27T16:21:16Z</time>
      </trkpt>
      <trkpt lat="43.65016" lon="1.32277">
        <ele>153.6</ele>
        <time>2024-03-27T16:21:17Z</time>
      </trkpt>
      <trkpt lat="43.65013" lon="1.3227">
        <ele>153.6</ele>
        <time>2024-03-27T16:21:18Z</time>
      </trkpt>
      <trkpt lat="43.65009" lon="1.32262">
        <ele>153.6</ele>
        <time>2024-03-27T16:21:19Z</time>
      </trkpt>
      <trkpt lat="43.65006" lon="1.32255">
        <ele>153.6</ele>
        <time>2024-03-27T16:21:20Z</time>
      </trkpt>
      <trkpt lat="43.65001" lon="1.32249">
        <ele>153.6</ele>
        <time>2024-03-27T16:21:21Z</time>
      </trkpt>
      <trkpt lat="43.64996" lon="1.32244">
        <ele>153.6</ele>
        <time>2024-03-27T16:21:22Z</time>
      </trkpt>
      <trkpt lat="43.6499" lon="1.32242">
        <ele>153.6</ele>
        <time>2024-03-27T16:21:23Z</time>
      </trkpt>
      <trkpt lat="43.64984" lon="1.32242">
        <ele>153.6</ele>
        <time>2024-03-27T16:21:24Z</time>
      </trkpt>
      <trkpt lat="43.64978" lon="1.32244">
        <ele>153.6</ele>
        <time>2024-03-27T16:21:25Z</time>
      </trkpt>
      <trkpt lat="43.64973" lon="1.32246">
        <ele>153.6</ele>
        <time>2024-03-27T16:21:26Z</time>
      </trkpt>
      <trkpt lat="43.64969" lon="1.3225">
        <ele>154</ele>
        <time>2024-03-27T16:21:27Z</time>
      </trkpt>
      <trkpt lat="43.64964" lon="1.32254">
        <ele>154</ele>
        <time>2024-03-27T16:21:28Z</time>
      </trkpt>
      <trkpt lat="43.6496" lon="1.32257">
        <ele>154</ele>
        <time>2024-03-27T16:21:29Z</time>
      </trkpt>
      <trkpt lat="43.64956" lon="1.3226">
        <ele>154</ele>
        <time>2024-03-27T16:21:30Z</time>
      </trkpt>
      <trkpt lat="43.64952" lon="1.32261">
        <ele>154</ele>
        <time>2024-03-27T16:21:31Z</time>
      </trkpt>
      <trkpt lat="43.64948" lon="1.32261">
        <ele>154.2</ele>
        <time>2024-03-27T16:21:32Z</time>
      </trkpt>
      <trkpt lat="43.64944" lon="1.32261">
        <ele>154.4</ele>
        <time>2024-03-27T16:21:33Z</time>
      </trkpt>
      <trkpt lat="43.64944" lon="1.32261">
        <ele>154.4</ele>
        <time>2024-03-27T16:21:34Z</time>
      </trkpt>
      <trkpt lat="43.64935" lon="1.32266">
        <ele>154.4</ele>
        <time>2024-03-27T16:21:35Z</time>
      </trkpt>
      <trkpt lat="43.64932" lon="1.32272">
        <ele>154.4</ele>
        <time>2024-03-27T16:21:36Z</time>
      </trkpt>
      <trkpt lat="43.64928" lon="1.32277">
        <ele>154.4</ele>
        <time>2024-03-27T16:21:37Z</time>
      </trkpt>
      <trkpt lat="43.64923" lon="1.3228">
        <ele>154.4</ele>
        <time>2024-03-27T16:21:38Z</time>
      </trkpt>
      <trkpt lat="43.64918" lon="1.32281">
        <ele>154.2</ele>
        <time>2024-03-27T16:21:39Z</time>
      </trkpt>
      <trkpt lat="43.64912" lon="1.32281">
        <ele>154.2</ele>
        <time>2024-03-27T16:21:40Z</time>
      </trkpt>
      <trkpt lat="43.64907" lon="1.32281">
        <ele>154.2</ele>
        <time>2024-03-27T16:21:41Z</time>
      </trkpt>
      <trkpt lat="43.64901" lon="1.32282">
        <ele>154.2</ele>
        <time>2024-03-27T16:21:42Z</time>
      </trkpt>
      <trkpt lat="43.64897" lon="1.32282">
        <ele>154.2</ele>
        <time>2024-03-27T16:21:43Z</time>
      </trkpt>
      <trkpt lat="43.6489" lon="1.32283">
        <ele>154</ele>
        <time>2024-03-27T16:21:44Z</time>
      </trkpt>
      <trkpt lat="43.64884" lon="1.32285">
        <ele>153.8</ele>
        <time>2024-03-27T16:21:45Z</time>
      </trkpt>
      <trkpt lat="43.64879" lon="1.32288">
        <ele>153.8</ele>
        <time>2024-03-27T16:21:46Z</time>
      </trkpt>
      <trkpt lat="43.64875" lon="1.32292">
        <ele>153.8</ele>
        <time>2024-03-27T16:21:47Z</time>
      </trkpt>
      <trkpt lat="43.64872" lon="1.32298">
        <ele>153.6</ele>
        <time>2024-03-27T16:21:48Z</time>
      </trkpt>
      <trkpt lat="43.64868" lon="1.32304">
        <ele>153.6</ele>
        <time>2024-03-27T16:21:49Z</time>
      </trkpt>
      <trkpt lat="43.64865" lon="1.3231">
        <ele>153.6</ele>
        <time>2024-03-27T16:21:50Z</time>
      </trkpt>
      <trkpt lat="43.64862" lon="1.32317">
        <ele>153.6</ele>
        <time>2024-03-27T16:21:51Z</time>
      </trkpt>
      <trkpt lat="43.6486" lon="1.32323">
        <ele>153.6</ele>
        <time>2024-03-27T16:21:52Z</time>
      </trkpt>
      <trkpt lat="43.64857" lon="1.32329">
        <ele>153.8</ele>
        <time>2024-03-27T16:21:53Z</time>
      </trkpt>
      <trkpt lat="43.64853" lon="1.32334">
        <ele>153.8</ele>
        <time>2024-03-27T16:21:54Z</time>
      </trkpt>
      <trkpt lat="43.6485" lon="1.32339">
        <ele>154</ele>
        <time>2024-03-27T16:21:55Z</time>
      </trkpt>
      <trkpt lat="43.64846" lon="1.32344">
        <ele>154</ele>
        <time>2024-03-27T16:21:56Z</time>
      </trkpt>
      <trkpt lat="43.64841" lon="1.32348">
        <ele>154.2</ele>
        <time>2024-03-27T16:21:57Z</time>
      </trkpt>
      <trkpt lat="43.64836" lon="1.32352">
        <ele>154.4</ele>
        <time>2024-03-27T16:21:58Z</time>
      </trkpt>
      <trkpt lat="43.64832" lon="1.32357">
        <ele>154.4</ele>
        <time>2024-03-27T16:21:59Z</time>
      </trkpt>
      <trkpt lat="43.64827" lon="1.32363">
        <ele>154.6</ele>
        <time>2024-03-27T16:22:00Z</time>
      </trkpt>
      <trkpt lat="43.64823" lon="1.32367">
        <ele>154.8</ele>
        <time>2024-03-27T16:22:01Z</time>
      </trkpt>
      <trkpt lat="43.64818" lon="1.32373">
        <ele>155</ele>
        <time>2024-03-27T16:22:02Z</time>
      </trkpt>
      <trkpt lat="43.64814" lon="1.32379">
        <ele>155</ele>
        <time>2024-03-27T16:22:03Z</time>
      </trkpt>
      <trkpt lat="43.64811" lon="1.32386">
        <ele>155</ele>
        <time>2024-03-27T16:22:04Z</time>
      </trkpt>
      <trkpt lat="43.64808" lon="1.32393">
        <ele>155</ele>
        <time>2024-03-27T16:22:05Z</time>
      </trkpt>
      <trkpt lat="43.64805" lon="1.324">
        <ele>155</ele>
        <time>2024-03-27T16:22:06Z</time>
      </trkpt>
      <trkpt lat="43.64802" lon="1.32407">
        <ele>155</ele>
        <time>2024-03-27T16:22:07Z</time>
      </trkpt>
      <trkpt lat="43.64801" lon="1.32414">
        <ele>155.2</ele>
        <time>2024-03-27T16:22:08Z</time>
      </trkpt>
      <trkpt lat="43.64799" lon="1.3242">
        <ele>155.2</ele>
        <time>2024-03-27T16:22:09Z</time>
      </trkpt>
      <trkpt lat="43.64798" lon="1.32427">
        <ele>155.2</ele>
        <time>2024-03-27T16:22:10Z</time>
      </trkpt>
      <trkpt lat="43.64797" lon="1.32433">
        <ele>155.2</ele>
        <time>2024-03-27T16:22:11Z</time>
      </trkpt>
      <trkpt lat="43.64796" lon="1.32438">
        <ele>155.2</ele>
        <time>2024-03-27T16:22:12Z</time>
      </trkpt>
      <trkpt lat="43.64794" lon="1.32444">
        <ele>155.2</ele>
        <time>2024-03-27T16:22:13Z</time>
      </trkpt>
      <trkpt lat="43.64793" lon="1.32449">
        <ele>155.4</ele>
        <time>2024-03-27T16:22:14Z</time>
      </trkpt>
      <trkpt lat="43.64792" lon="1.32454">
        <ele>155.6</ele>
        <time>2024-03-27T16:22:15Z</time>
      </trkpt>
      <trkpt lat="43.64791" lon="1.32458">
        <ele>155.8</ele>
        <time>2024-03-27T16:22:16Z</time>
      </trkpt>
      <trkpt lat="43.64791" lon="1.32464">
        <ele>156</ele>
        <time>2024-03-27T16:22:17Z</time>
      </trkpt>
      <trkpt lat="43.6479" lon="1.32468">
        <ele>156.2</ele>
        <time>2024-03-27T16:22:18Z</time>
      </trkpt>
      <trkpt lat="43.6479" lon="1.32473">
        <ele>156.4</ele>
        <time>2024-03-27T16:22:19Z</time>
      </trkpt>
      <trkpt lat="43.6479" lon="1.32478">
        <ele>156.8</ele>
        <time>2024-03-27T16:22:20Z</time>
      </trkpt>
      <trkpt lat="43.6479" lon="1.32483">
        <ele>157.2</ele>
        <time>2024-03-27T16:22:21Z</time>
      </trkpt>
      <trkpt lat="43.6479" lon="1.32488">
        <ele>157.6</ele>
        <time>2024-03-27T16:22:22Z</time>
      </trkpt>
      <trkpt lat="43.64788" lon="1.32493">
        <ele>157.8</ele>
        <time>2024-03-27T16:22:23Z</time>
      </trkpt>
      <trkpt lat="43.64787" lon="1.32498">
        <ele>158.2</ele>
        <time>2024-03-27T16:22:24Z</time>
      </trkpt>
      <trkpt lat="43.64786" lon="1.32503">
        <ele>158.4</ele>
        <time>2024-03-27T16:22:25Z</time>
      </trkpt>
      <trkpt lat="43.64784" lon="1.32507">
        <ele>158.4</ele>
        <time>2024-03-27T16:22:26Z</time>
      </trkpt>
      <trkpt lat="43.64782" lon="1.32508">
        <ele>158.6</ele>
        <time>2024-03-27T16:22:27Z</time>
      </trkpt>
      <trkpt lat="43.64778" lon="1.32508">
        <ele>158.6</ele>
        <time>2024-03-27T16:22:28Z</time>
      </trkpt>
      <trkpt lat="43.64773" lon="1.32507">
        <ele>158.6</ele>
        <time>2024-03-27T16:22:29Z</time>
      </trkpt>
      <trkpt lat="43.64773" lon="1.32507">
        <ele>158.4</ele>
        <time>2024-03-27T16:22:30Z</time>
      </trkpt>
      <trkpt lat="43.64761" lon="1.32504">
        <ele>158.2</ele>
        <time>2024-03-27T16:22:31Z</time>
      </trkpt>
      <trkpt lat="43.64756" lon="1.32503">
        <ele>158.2</ele>
        <time>2024-03-27T16:22:32Z</time>
      </trkpt>
      <trkpt lat="43.64752" lon="1.32502">
        <ele>158</ele>
        <time>2024-03-27T16:22:33Z</time>
      </trkpt>
      <trkpt lat="43.64748" lon="1.32501">
        <ele>157.2</ele>
        <time>2024-03-27T16:22:34Z</time>
      </trkpt>
      <trkpt lat="43.64744" lon="1.32501">
        <ele>156.8</ele>
        <time>2024-03-27T16:22:35Z</time>
      </trkpt>
      <trkpt lat="43.6474" lon="1.325">
        <ele>156.4</ele>
        <time>2024-03-27T16:22:36Z</time>
      </trkpt>
      <trkpt lat="43.64735" lon="1.32499">
        <ele>156.2</ele>
        <time>2024-03-27T16:22:37Z</time>
      </trkpt>
      <trkpt lat="43.6473" lon="1.32496">
        <ele>155.8</ele>
        <time>2024-03-27T16:22:38Z</time>
      </trkpt>
      <trkpt lat="43.64726" lon="1.3249">
        <ele>155.8</ele>
        <time>2024-03-27T16:22:39Z</time>
      </trkpt>
      <trkpt lat="43.64723" lon="1.32484">
        <ele>155.6</ele>
        <time>2024-03-27T16:22:40Z</time>
      </trkpt>
      <trkpt lat="43.64718" lon="1.32477">
        <ele>155.6</ele>
        <time>2024-03-27T16:22:41Z</time>
      </trkpt>
      <trkpt lat="43.64713" lon="1.32472">
        <ele>155.4</ele>
        <time>2024-03-27T16:22:42Z</time>
      </trkpt>
      <trkpt lat="43.64708" lon="1.32467">
        <ele>155.2</ele>
        <time>2024-03-27T16:22:43Z</time>
      </trkpt>
      <trkpt lat="43.64703" lon="1.32464">
        <ele>155.2</ele>
        <time>2024-03-27T16:22:44Z</time>
      </trkpt>
      <trkpt lat="43.64698" lon="1.32461">
        <ele>155.2</ele>
        <time>2024-03-27T16:22:45Z</time>
      </trkpt>
      <trkpt lat="43.64698" lon="1.32461">
        <ele>155.2</ele>
        <time>2024-03-27T16:22:46Z</time>
      </trkpt>
      <trkpt lat="43.64687" lon="1.32453">
        <ele>155</ele>
        <time>2024-03-27T16:22:47Z</time>
      </trkpt>
      <trkpt lat="43.64681" lon="1.32449">
        <ele>155</ele>
        <time>2024-03-27T16:22:48Z</time>
      </trkpt>
      <trkpt lat="43.64676" lon="1.32446">
        <ele>154.8</ele>
        <time>2024-03-27T16:22:49Z</time>
      </trkpt>
      <trkpt lat="43.6467" lon="1.32442">
        <ele>154.8</ele>
        <time>2024-03-27T16:22:50Z</time>
      </trkpt>
      <trkpt lat="43.64665" lon="1.32439">
        <ele>154.8</ele>
        <time>2024-03-27T16:22:51Z</time>
      </trkpt>
      <trkpt lat="43.6466" lon="1.32435">
        <ele>154.8</ele>
        <time>2024-03-27T16:22:52Z</time>
      </trkpt>
      <trkpt lat="43.64654" lon="1.32432">
        <ele>154.8</ele>
        <time>2024-03-27T16:22:53Z</time>
      </trkpt>
      <trkpt lat="43.64649" lon="1.32428">
        <ele>154.8</ele>
        <time>2024-03-27T16:22:54Z</time>
      </trkpt>
      <trkpt lat="43.64644" lon="1.32424">
        <ele>154.8</ele>
        <time>2024-03-27T16:22:55Z</time>
      </trkpt>
      <trkpt lat="43.64639" lon="1.3242">
        <ele>155</ele>
        <time>2024-03-27T16:22:56Z</time>
      </trkpt>
      <trkpt lat="43.64634" lon="1.32416">
        <ele>155</ele>
        <time>2024-03-27T16:22:57Z</time>
      </trkpt>
      <trkpt lat="43.64628" lon="1.32412">
        <ele>155</ele>
        <time>2024-03-27T16:22:58Z</time>
      </trkpt>
      <trkpt lat="43.64622" lon="1.32408">
        <ele>155.2</ele>
        <time>2024-03-27T16:22:59Z</time>
      </trkpt>
      <trkpt lat="43.64618" lon="1.32405">
        <ele>155.2</ele>
        <time>2024-03-27T16:23:00Z</time>
      </trkpt>
      <trkpt lat="43.64612" lon="1.32401">
        <ele>155.2</ele>
        <time>2024-03-27T16:23:01Z</time>
      </trkpt>
      <trkpt lat="43.64607" lon="1.32397">
        <ele>155.2</ele>
        <time>2024-03-27T16:23:02Z</time>
      </trkpt>
      <trkpt lat="43.64602" lon="1.32392">
        <ele>155.4</ele>
        <time>2024-03-27T16:23:03Z</time>
      </trkpt>
      <trkpt lat="43.64598" lon="1.32388">
        <ele>155.4</ele>
        <time>2024-03-27T16:23:04Z</time>
      </trkpt>
      <trkpt lat="43.64592" lon="1.32383">
        <ele>155.4</ele>
        <time>2024-03-27T16:23:05Z</time>
      </trkpt>
      <trkpt lat="43.64586" lon="1.32378">
        <ele>155.4</ele>
        <time>2024-03-27T16:23:06Z</time>
      </trkpt>
      <trkpt lat="43.64581" lon="1.32373">
        <ele>155.6</ele>
        <time>2024-03-27T16:23:07Z</time>
      </trkpt>
      <trkpt lat="43.64577" lon="1.3237">
        <ele>155.6</ele>
        <time>2024-03-27T16:23:08Z</time>
      </trkpt>
      <trkpt lat="43.64573" lon="1.32367">
        <ele>155.6</ele>
        <time>2024-03-27T16:23:09Z</time>
      </trkpt>
      <trkpt lat="43.64571" lon="1.32366">
        <ele>155.6</ele>
        <time>2024-03-27T16:23:10Z</time>
      </trkpt>
      <trkpt lat="43.64569" lon="1.32365">
        <ele>155.6</ele>
        <time>2024-03-27T16:23:11Z</time>
      </trkpt>
      <trkpt lat="43.64566" lon="1.32365">
        <ele>155.8</ele>
        <time>2024-03-27T16:23:12Z</time>
      </trkpt>
      <trkpt lat="43.64564" lon="1.32364">
        <ele>155.8</ele>
        <time>2024-03-27T16:23:13Z</time>
      </trkpt>
      <trkpt lat="43.64561" lon="1.32362">
        <ele>155.8</ele>
        <time>2024-03-27T16:23:14Z</time>
      </trkpt>
      <trkpt lat="43.64558" lon="1.3236">
        <ele>156</ele>
        <time>2024-03-27T16:23:15Z</time>
      </trkpt>
      <trkpt lat="43.64553" lon="1.32357">
        <ele>156</ele>
        <time>2024-03-27T16:23:16Z</time>
      </trkpt>
      <trkpt lat="43.6455" lon="1.32356">
        <ele>156</ele>
        <time>2024-03-27T16:23:17Z</time>
      </trkpt>
      <trkpt lat="43.64546" lon="1.32354">
        <ele>156</ele>
        <time>2024-03-27T16:23:18Z</time>
      </trkpt>
      <trkpt lat="43.64542" lon="1.32352">
        <ele>156</ele>
        <time>2024-03-27T16:23:19Z</time>
      </trkpt>
      <trkpt lat="43.64542" lon="1.32352">
        <ele>156</ele>
        <time>2024-03-27T16:23:20Z</time>
      </trkpt>
      <trkpt lat="43.64533" lon="1.32347">
        <ele>156.2</ele>
        <time>2024-03-27T16:23:21Z</time>
      </trkpt>
      <trkpt lat="43.64528" lon="1.32344">
        <ele>156.2</ele>
        <time>2024-03-27T16:23:22Z</time>
      </trkpt>
      <trkpt lat="43.64524" lon="1.32341">
        <ele>156.2</ele>
        <time>2024-03-27T16:23:23Z</time>
      </trkpt>
      <trkpt lat="43.64518" lon="1.32338">
        <ele>156.2</ele>
        <time>2024-03-27T16:23:24Z</time>
      </trkpt>
      <trkpt lat="43.64514" lon="1.32337">
        <ele>156.2</ele>
        <time>2024-03-27T16:23:25Z</time>
      </trkpt>
      <trkpt lat="43.6451" lon="1.32335">
        <ele>156.2</ele>
        <time>2024-03-27T16:23:26Z</time>
      </trkpt>
      <trkpt lat="43.64505" lon="1.32332">
        <ele>156.2</ele>
        <time>2024-03-27T16:23:27Z</time>
      </trkpt>
      <trkpt lat="43.645" lon="1.3233">
        <ele>156.2</ele>
        <time>2024-03-27T16:23:28Z</time>
      </trkpt>
      <trkpt lat="43.64494" lon="1.32326">
        <ele>156.4</ele>
        <time>2024-03-27T16:23:29Z</time>
      </trkpt>
      <trkpt lat="43.64491" lon="1.32324">
        <ele>156.4</ele>
        <time>2024-03-27T16:23:30Z</time>
      </trkpt>
      <trkpt lat="43.64486" lon="1.32321">
        <ele>156.6</ele>
        <time>2024-03-27T16:23:31Z</time>
      </trkpt>
      <trkpt lat="43.64482" lon="1.32317">
        <ele>156.6</ele>
        <time>2024-03-27T16:23:32Z</time>
      </trkpt>
      <trkpt lat="43.64478" lon="1.32314">
        <ele>156.6</ele>
        <time>2024-03-27T16:23:33Z</time>
      </trkpt>
      <trkpt lat="43.64473" lon="1.3231">
        <ele>156.8</ele>
        <time>2024-03-27T16:23:34Z</time>
      </trkpt>
      <trkpt lat="43.64469" lon="1.32306">
        <ele>156.8</ele>
        <time>2024-03-27T16:23:35Z</time>
      </trkpt>
      <trkpt lat="43.64464" lon="1.32303">
        <ele>156.8</ele>
        <time>2024-03-27T16:23:36Z</time>
      </trkpt>
      <trkpt lat="43.64459" lon="1.32299">
        <ele>156.8</ele>
        <time>2024-03-27T16:23:37Z</time>
      </trkpt>
      <trkpt lat="43.64459" lon="1.32299">
        <ele>156.8</ele>
        <time>2024-03-27T16:23:38Z</time>
      </trkpt>
      <trkpt lat="43.6445" lon="1.32291">
        <ele>157</ele>
        <time>2024-03-27T16:23:39Z</time>
      </trkpt>
      <trkpt lat="43.64445" lon="1.32287">
        <ele>157</ele>
        <time>2024-03-27T16:23:40Z</time>
      </trkpt>
      <trkpt lat="43.64441" lon="1.32282">
        <ele>157.2</ele>
        <time>2024-03-27T16:23:41Z</time>
      </trkpt>
      <trkpt lat="43.64437" lon="1.32277">
        <ele>157.2</ele>
        <time>2024-03-27T16:23:42Z</time>
      </trkpt>
      <trkpt lat="43.64433" lon="1.32271">
        <ele>157.2</ele>
        <time>2024-03-27T16:23:43Z</time>
      </trkpt>
      <trkpt lat="43.6443" lon="1.32266">
        <ele>157.4</ele>
        <time>2024-03-27T16:23:44Z</time>
      </trkpt>
      <trkpt lat="43.64427" lon="1.32261">
        <ele>157.4</ele>
        <time>2024-03-27T16:23:45Z</time>
      </trkpt>
      <trkpt lat="43.64424" lon="1.32256">
        <ele>157.6</ele>
        <time>2024-03-27T16:23:46Z</time>
      </trkpt>
      <trkpt lat="43.64424" lon="1.32256">
        <ele>157.6</ele>
        <time>2024-03-27T16:23:47Z</time>
      </trkpt>
      <trkpt lat="43.64418" lon="1.32245">
        <ele>157.8</ele>
        <time>2024-03-27T16:23:48Z</time>
      </trkpt>
      <trkpt lat="43.64415" lon="1.32239">
        <ele>157.8</ele>
        <time>2024-03-27T16:23:49Z</time>
      </trkpt>
      <trkpt lat="43.64411" lon="1.32234">
        <ele>158</ele>
        <time>2024-03-27T16:23:50Z</time>
      </trkpt>
      <trkpt lat="43.64408" lon="1.32229">
        <ele>158</ele>
        <time>2024-03-27T16:23:51Z</time>
      </trkpt>
      <trkpt lat="43.64405" lon="1.32223">
        <ele>158.2</ele>
        <time>2024-03-27T16:23:52Z</time>
      </trkpt>
      <trkpt lat="43.64401" lon="1.32218">
        <ele>158.4</ele>
        <time>2024-03-27T16:23:53Z</time>
      </trkpt>
      <trkpt lat="43.64401" lon="1.32218">
        <ele>158.4</ele>
        <time>2024-03-27T16:23:54Z</time>
      </trkpt>
      <trkpt lat="43.64393" lon="1.32206">
        <ele>158.8</ele>
        <time>2024-03-27T16:23:55Z</time>
      </trkpt>
      <trkpt lat="43.6439" lon="1.32201">
        <ele>159</ele>
        <time>2024-03-27T16:23:56Z</time>
      </trkpt>
      <trkpt lat="43.64387" lon="1.32197">
        <ele>159</ele>
        <time>2024-03-27T16:23:57Z</time>
      </trkpt>
      <trkpt lat="43.64383" lon="1.3219">
        <ele>159.2</ele>
        <time>2024-03-27T16:23:58Z</time>
      </trkpt>
      <trkpt lat="43.64383" lon="1.3219">
        <ele>159.6</ele>
        <time>2024-03-27T16:23:59Z</time>
      </trkpt>
      <trkpt lat="43.64377" lon="1.3218">
        <ele>159.6</ele>
        <time>2024-03-27T16:24:00Z</time>
      </trkpt>
      <trkpt lat="43.64374" lon="1.32174">
        <ele>159.8</ele>
        <time>2024-03-27T16:24:01Z</time>
      </trkpt>
      <trkpt lat="43.64371" lon="1.32169">
        <ele>159.8</ele>
        <time>2024-03-27T16:24:02Z</time>
      </trkpt>
      <trkpt lat="43.64368" lon="1.32164">
        <ele>160</ele>
        <time>2024-03-27T16:24:03Z</time>
      </trkpt>
      <trkpt lat="43.64368" lon="1.32164">
        <ele>160.6</ele>
        <time>2024-03-27T16:24:04Z</time>
      </trkpt>
      <trkpt lat="43.64362" lon="1.32153">
        <ele>160.6</ele>
        <time>2024-03-27T16:24:05Z</time>
      </trkpt>
      <trkpt lat="43.64359" lon="1.32147">
        <ele>161</ele>
        <time>2024-03-27T16:24:06Z</time>
      </trkpt>
      <trkpt lat="43.64355" lon="1.32141">
        <ele>161</ele>
        <time>2024-03-27T16:24:07Z</time>
      </trkpt>
      <trkpt lat="43.64352" lon="1.32134">
        <ele>161.4</ele>
        <time>2024-03-27T16:24:08Z</time>
      </trkpt>
      <trkpt lat="43.64352" lon="1.32134">
        <ele>161.4</ele>
        <time>2024-03-27T16:24:09Z</time>
      </trkpt>
      <trkpt lat="43.64346" lon="1.32122">
        <ele>161.6</ele>
        <time>2024-03-27T16:24:10Z</time>
      </trkpt>
      <trkpt lat="43.64342" lon="1.32115">
        <ele>161.8</ele>
        <time>2024-03-27T16:24:11Z</time>
      </trkpt>
      <trkpt lat="43.64339" lon="1.32108">
        <ele>161.8</ele>
        <time>2024-03-27T16:24:12Z</time>
      </trkpt>
      <trkpt lat="43.64336" lon="1.32103">
        <ele>162.2</ele>
        <time>2024-03-27T16:24:13Z</time>
      </trkpt>
      <trkpt lat="43.64332" lon="1.32096">
        <ele>162.2</ele>
        <time>2024-03-27T16:24:14Z</time>
      </trkpt>
      <trkpt lat="43.64329" lon="1.3209">
        <ele>162.4</ele>
        <time>2024-03-27T16:24:15Z</time>
      </trkpt>
      <trkpt lat="43.64326" lon="1.32082">
        <ele>162.4</ele>
        <time>2024-03-27T16:24:16Z</time>
      </trkpt>
      <trkpt lat="43.64324" lon="1.32075">
        <ele>162.4</ele>
        <time>2024-03-27T16:24:17Z</time>
      </trkpt>
      <trkpt lat="43.64321" lon="1.32069">
        <ele>162.4</ele>
        <time>2024-03-27T16:24:18Z</time>
      </trkpt>
      <trkpt lat="43.64317" lon="1.32061">
        <ele>162.4</ele>
        <time>2024-03-27T16:24:19Z</time>
      </trkpt>
      <trkpt lat="43.64315" lon="1.32055">
        <ele>162.8</ele>
        <time>2024-03-27T16:24:20Z</time>
      </trkpt>
      <trkpt lat="43.64313" lon="1.32049">
        <ele>162.8</ele>
        <time>2024-03-27T16:24:21Z</time>
      </trkpt>
      <trkpt lat="43.6431" lon="1.32041">
        <ele>162.8</ele>
        <time>2024-03-27T16:24:22Z</time>
      </trkpt>
      <trkpt lat="43.64308" lon="1.32034">
        <ele>162.8</ele>
        <time>2024-03-27T16:24:23Z</time>
      </trkpt>
      <trkpt lat="43.64306" lon="1.32027">
        <ele>163</ele>
        <time>2024-03-27T16:24:24Z</time>
      </trkpt>
      <trkpt lat="43.64303" lon="1.3202">
        <ele>163.2</ele>
        <time>2024-03-27T16:24:25Z</time>
      </trkpt>
      <trkpt lat="43.64301" lon="1.32011">
        <ele>163.2</ele>
        <time>2024-03-27T16:24:26Z</time>
      </trkpt>
      <trkpt lat="43.64298" lon="1.32005">
        <ele>163.4</ele>
        <time>2024-03-27T16:24:27Z</time>
      </trkpt>
      <trkpt lat="43.64296" lon="1.31998">
        <ele>163.4</ele>
        <time>2024-03-27T16:24:28Z</time>
      </trkpt>
      <trkpt lat="43.64293" lon="1.31991">
        <ele>163.6</ele>
        <time>2024-03-27T16:24:29Z</time>
      </trkpt>
      <trkpt lat="43.64291" lon="1.31983">
        <ele>163.6</ele>
        <time>2024-03-27T16:24:30Z</time>
      </trkpt>
      <trkpt lat="43.64288" lon="1.31976">
        <ele>163.8</ele>
        <time>2024-03-27T16:24:31Z</time>
      </trkpt>
      <trkpt lat="43.64285" lon="1.3197">
        <ele>163.8</ele>
        <time>2024-03-27T16:24:32Z</time>
      </trkpt>
      <trkpt lat="43.64284" lon="1.31962">
        <ele>163.8</ele>
        <time>2024-03-27T16:24:33Z</time>
      </trkpt>
      <trkpt lat="43.64282" lon="1.31954">
        <ele>163.8</ele>
        <time>2024-03-27T16:24:34Z</time>
      </trkpt>
      <trkpt lat="43.64281" lon="1.31947">
        <ele>163.8</ele>
        <time>2024-03-27T16:24:35Z</time>
      </trkpt>
      <trkpt lat="43.64278" lon="1.3194">
        <ele>163.8</ele>
        <time>2024-03-27T16:24:36Z</time>
      </trkpt>
      <trkpt lat="43.64274" lon="1.31934">
        <ele>163.8</ele>
        <time>2024-03-27T16:24:37Z</time>
      </trkpt>
      <trkpt lat="43.64268" lon="1.31929">
        <ele>163.8</ele>
        <time>2024-03-27T16:24:38Z</time>
      </trkpt>
      <trkpt lat="43.64262" lon="1.31924">
        <ele>163.6</ele>
        <time>2024-03-27T16:24:39Z</time>
      </trkpt>
      <trkpt lat="43.64254" lon="1.31917">
        <ele>163.6</ele>
        <time>2024-03-27T16:24:40Z</time>
      </trkpt>
      <trkpt lat="43.64247" lon="1.31911">
        <ele>163.6</ele>
        <time>2024-03-27T16:24:41Z</time>
      </trkpt>
      <trkpt lat="43.64241" lon="1.31907">
        <ele>163.2</ele>
        <time>2024-03-27T16:24:42Z</time>
      </trkpt>
      <trkpt lat="43.64233" lon="1.31901">
        <ele>163</ele>
        <time>2024-03-27T16:24:43Z</time>
      </trkpt>
      <trkpt lat="43.64226" lon="1.31895">
        <ele>162.8</ele>
        <time>2024-03-27T16:24:44Z</time>
      </trkpt>
      <trkpt lat="43.64218" lon="1.31889">
        <ele>162.2</ele>
        <time>2024-03-27T16:24:45Z</time>
      </trkpt>
      <trkpt lat="43.64213" lon="1.31885">
        <ele>161.8</ele>
        <time>2024-03-27T16:24:46Z</time>
      </trkpt>
      <trkpt lat="43.64206" lon="1.3188">
        <ele>161.4</ele>
        <time>2024-03-27T16:24:47Z</time>
      </trkpt>
      <trkpt lat="43.642" lon="1.31876">
        <ele>161</ele>
        <time>2024-03-27T16:24:48Z</time>
      </trkpt>
      <trkpt lat="43.64194" lon="1.31872">
        <ele>160.6</ele>
        <time>2024-03-27T16:24:49Z</time>
      </trkpt>
      <trkpt lat="43.64188" lon="1.31869">
        <ele>160.4</ele>
        <time>2024-03-27T16:24:50Z</time>
      </trkpt>
      <trkpt lat="43.64183" lon="1.31865">
        <ele>160.2</ele>
        <time>2024-03-27T16:24:51Z</time>
      </trkpt>
      <trkpt lat="43.64178" lon="1.31863">
        <ele>160</ele>
        <time>2024-03-27T16:24:52Z</time>
      </trkpt>
      <trkpt lat="43.64173" lon="1.31861">
        <ele>159.8</ele>
        <time>2024-03-27T16:24:53Z</time>
      </trkpt>
      <trkpt lat="43.64168" lon="1.31861">
        <ele>159.6</ele>
        <time>2024-03-27T16:24:54Z</time>
      </trkpt>
      <trkpt lat="43.64164" lon="1.31859">
        <ele>159.6</ele>
        <time>2024-03-27T16:24:55Z</time>
      </trkpt>
      <trkpt lat="43.64157" lon="1.31857">
        <ele>159.6</ele>
        <time>2024-03-27T16:24:56Z</time>
      </trkpt>
      <trkpt lat="43.64152" lon="1.31854">
        <ele>159.4</ele>
        <time>2024-03-27T16:24:57Z</time>
      </trkpt>
      <trkpt lat="43.64147" lon="1.31852">
        <ele>159.2</ele>
        <time>2024-03-27T16:24:58Z</time>
      </trkpt>
      <trkpt lat="43.6414" lon="1.31849">
        <ele>159.2</ele>
        <time>2024-03-27T16:24:59Z</time>
      </trkpt>
      <trkpt lat="43.64135" lon="1.31846">
        <ele>159.2</ele>
        <time>2024-03-27T16:25:00Z</time>
      </trkpt>
      <trkpt lat="43.64128" lon="1.31843">
        <ele>159</ele>
        <time>2024-03-27T16:25:01Z</time>
      </trkpt>
      <trkpt lat="43.64122" lon="1.3184">
        <ele>159</ele>
        <time>2024-03-27T16:25:02Z</time>
      </trkpt>
      <trkpt lat="43.64117" lon="1.31837">
        <ele>159</ele>
        <time>2024-03-27T16:25:03Z</time>
      </trkpt>
      <trkpt lat="43.6411" lon="1.31834">
        <ele>159</ele>
        <time>2024-03-27T16:25:04Z</time>
      </trkpt>
      <trkpt lat="43.64104" lon="1.31831">
        <ele>159</ele>
        <time>2024-03-27T16:25:05Z</time>
      </trkpt>
      <trkpt lat="43.64098" lon="1.31827">
        <ele>159</ele>
        <time>2024-03-27T16:25:06Z</time>
      </trkpt>
      <trkpt lat="43.64091" lon="1.31823">
        <ele>159</ele>
        <time>2024-03-27T16:25:07Z</time>
      </trkpt>
      <trkpt lat="43.64086" lon="1.3182">
        <ele>159</ele>
        <time>2024-03-27T16:25:08Z</time>
      </trkpt>
      <trkpt lat="43.64081" lon="1.31816">
        <ele>159</ele>
        <time>2024-03-27T16:25:09Z</time>
      </trkpt>
      <trkpt lat="43.64075" lon="1.31812">
        <ele>159</ele>
        <time>2024-03-27T16:25:10Z</time>
      </trkpt>
      <trkpt lat="43.64068" lon="1.31808">
        <ele>159</ele>
        <time>2024-03-27T16:25:11Z</time>
      </trkpt>
      <trkpt lat="43.6406" lon="1.31804">
        <ele>159</ele>
        <time>2024-03-27T16:25:12Z</time>
      </trkpt>
      <trkpt lat="43.64055" lon="1.318">
        <ele>159</ele>
        <time>2024-03-27T16:25:13Z</time>
      </trkpt>
      <trkpt lat="43.64047" lon="1.31796">
        <ele>159</ele>
        <time>2024-03-27T16:25:14Z</time>
      </trkpt>
      <trkpt lat="43.6404" lon="1.31792">
        <ele>159</ele>
        <time>2024-03-27T16:25:15Z</time>
      </trkpt>
      <trkpt lat="43.64032" lon="1.31788">
        <ele>159</ele>
        <time>2024-03-27T16:25:16Z</time>
      </trkpt>
      <trkpt lat="43.64025" lon="1.31784">
        <ele>159</ele>
        <time>2024-03-27T16:25:17Z</time>
      </trkpt>
      <trkpt lat="43.6402" lon="1.31781">
        <ele>159</ele>
        <time>2024-03-27T16:25:18Z</time>
      </trkpt>
      <trkpt lat="43.64013" lon="1.31777">
        <ele>159</ele>
        <time>2024-03-27T16:25:19Z</time>
      </trkpt>
      <trkpt lat="43.64006" lon="1.31774">
        <ele>159</ele>
        <time>2024-03-27T16:25:20Z</time>
      </trkpt>
      <trkpt lat="43.63999" lon="1.3177">
        <ele>159</ele>
        <time>2024-03-27T16:25:21Z</time>
      </trkpt>
      <trkpt lat="43.63993" lon="1.31766">
        <ele>159</ele>
        <time>2024-03-27T16:25:22Z</time>
      </trkpt>
      <trkpt lat="43.63988" lon="1.31763">
        <ele>159</ele>
        <time>2024-03-27T16:25:23Z</time>
      </trkpt>
      <trkpt lat="43.63981" lon="1.3176">
        <ele>159</ele>
        <time>2024-03-27T16:25:24Z</time>
      </trkpt>
      <trkpt lat="43.63974" lon="1.31757">
        <ele>159</ele>
        <time>2024-03-27T16:25:25Z</time>
      </trkpt>
      <trkpt lat="43.63974" lon="1.31757">
        <ele>159</ele>
        <time>2024-03-27T16:25:26Z</time>
      </trkpt>
      <trkpt lat="43.6396" lon="1.3175">
        <ele>159</ele>
        <time>2024-03-27T16:25:27Z</time>
      </trkpt>
      <trkpt lat="43.63954" lon="1.31746">
        <ele>159</ele>
        <time>2024-03-27T16:25:28Z</time>
      </trkpt>
      <trkpt lat="43.63949" lon="1.31743">
        <ele>159.2</ele>
        <time>2024-03-27T16:25:29Z</time>
      </trkpt>
      <trkpt lat="43.63944" lon="1.31738">
        <ele>159.2</ele>
        <time>2024-03-27T16:25:30Z</time>
      </trkpt>
      <trkpt lat="43.6394" lon="1.31735">
        <ele>159.2</ele>
        <time>2024-03-27T16:25:31Z</time>
      </trkpt>
      <trkpt lat="43.63936" lon="1.31732">
        <ele>159.2</ele>
        <time>2024-03-27T16:25:32Z</time>
      </trkpt>
      <trkpt lat="43.63931" lon="1.31728">
        <ele>159.2</ele>
        <time>2024-03-27T16:25:33Z</time>
      </trkpt>
      <trkpt lat="43.63926" lon="1.31723">
        <ele>159.2</ele>
        <time>2024-03-27T16:25:34Z</time>
      </trkpt>
      <trkpt lat="43.63921" lon="1.31719">
        <ele>159.2</ele>
        <time>2024-03-27T16:25:35Z</time>
      </trkpt>
      <trkpt lat="43.63915" lon="1.31714">
        <ele>159.2</ele>
        <time>2024-03-27T16:25:36Z</time>
      </trkpt>
      <trkpt lat="43.63909" lon="1.31709">
        <ele>159.2</ele>
        <time>2024-03-27T16:25:37Z</time>
      </trkpt>
      <trkpt lat="43.63904" lon="1.31704">
        <ele>159.4</ele>
        <time>2024-03-27T16:25:38Z</time>
      </trkpt>
      <trkpt lat="43.63899" lon="1.31699">
        <ele>159.4</ele>
        <time>2024-03-27T16:25:39Z</time>
      </trkpt>
      <trkpt lat="43.63893" lon="1.31693">
        <ele>159.4</ele>
        <time>2024-03-27T16:25:40Z</time>
      </trkpt>
      <trkpt lat="43.63888" lon="1.31689">
        <ele>159.4</ele>
        <time>2024-03-27T16:25:41Z</time>
      </trkpt>
      <trkpt lat="43.63883" lon="1.31684">
        <ele>159.4</ele>
        <time>2024-03-27T16:25:42Z</time>
      </trkpt>
      <trkpt lat="43.63878" lon="1.31679">
        <ele>159.4</ele>
        <time>2024-03-27T16:25:43Z</time>
      </trkpt>
      <trkpt lat="43.63873" lon="1.31675">
        <ele>159.4</ele>
        <time>2024-03-27T16:25:44Z</time>
      </trkpt>
      <trkpt lat="43.63869" lon="1.3167">
        <ele>159.4</ele>
        <time>2024-03-27T16:25:45Z</time>
      </trkpt>
      <trkpt lat="43.63865" lon="1.31665">
        <ele>159.4</ele>
        <time>2024-03-27T16:25:46Z</time>
      </trkpt>
      <trkpt lat="43.6386" lon="1.3166">
        <ele>159.4</ele>
        <time>2024-03-27T16:25:47Z</time>
      </trkpt>
      <trkpt lat="43.63855" lon="1.31654">
        <ele>159.4</ele>
        <time>2024-03-27T16:25:48Z</time>
      </trkpt>
      <trkpt lat="43.63852" lon="1.31649">
        <ele>159.4</ele>
        <time>2024-03-27T16:25:49Z</time>
      </trkpt>
      <trkpt lat="43.63847" lon="1.31643">
        <ele>159.4</ele>
        <time>2024-03-27T16:25:50Z</time>
      </trkpt>
      <trkpt lat="43.63842" lon="1.31637">
        <ele>159.4</ele>
        <time>2024-03-27T16:25:51Z</time>
      </trkpt>
      <trkpt lat="43.63838" lon="1.31632">
        <ele>159.4</ele>
        <time>2024-03-27T16:25:52Z</time>
      </trkpt>
      <trkpt lat="43.63833" lon="1.31626">
        <ele>159.4</ele>
        <time>2024-03-27T16:25:53Z</time>
      </trkpt>
      <trkpt lat="43.63829" lon="1.31619">
        <ele>159.4</ele>
        <time>2024-03-27T16:25:54Z</time>
      </trkpt>
      <trkpt lat="43.63824" lon="1.31611">
        <ele>159.4</ele>
        <time>2024-03-27T16:25:55Z</time>
      </trkpt>
      <trkpt lat="43.6382" lon="1.31604">
        <ele>159.4</ele>
        <time>2024-03-27T16:25:56Z</time>
      </trkpt>
      <trkpt lat="43.63817" lon="1.31595">
        <ele>159.2</ele>
        <time>2024-03-27T16:25:57Z</time>
      </trkpt>
      <trkpt lat="43.63814" lon="1.31588">
        <ele>159.2</ele>
        <time>2024-03-27T16:25:58Z</time>
      </trkpt>
      <trkpt lat="43.6381" lon="1.31582">
        <ele>159.4</ele>
        <time>2024-03-27T16:25:59Z</time>
      </trkpt>
      <trkpt lat="43.63806" lon="1.31574">
        <ele>159.4</ele>
        <time>2024-03-27T16:26:00Z</time>
      </trkpt>
      <trkpt lat="43.63802" lon="1.31567">
        <ele>159.4</ele>
        <time>2024-03-27T16:26:01Z</time>
      </trkpt>
      <trkpt lat="43.63798" lon="1.3156">
        <ele>159.4</ele>
        <time>2024-03-27T16:26:02Z</time>
      </trkpt>
      <trkpt lat="43.63795" lon="1.31553">
        <ele>159.6</ele>
        <time>2024-03-27T16:26:03Z</time>
      </trkpt>
      <trkpt lat="43.63791" lon="1.31545">
        <ele>159.6</ele>
        <time>2024-03-27T16:26:04Z</time>
      </trkpt>
      <trkpt lat="43.63787" lon="1.31538">
        <ele>159.6</ele>
        <time>2024-03-27T16:26:05Z</time>
      </trkpt>
      <trkpt lat="43.63783" lon="1.31531">
        <ele>159.8</ele>
        <time>2024-03-27T16:26:06Z</time>
      </trkpt>
      <trkpt lat="43.63779" lon="1.31524">
        <ele>159.8</ele>
        <time>2024-03-27T16:26:07Z</time>
      </trkpt>
      <trkpt lat="43.63775" lon="1.31516">
        <ele>160</ele>
        <time>2024-03-27T16:26:08Z</time>
      </trkpt>
      <trkpt lat="43.63771" lon="1.31509">
        <ele>160</ele>
        <time>2024-03-27T16:26:09Z</time>
      </trkpt>
      <trkpt lat="43.63767" lon="1.31501">
        <ele>160.2</ele>
        <time>2024-03-27T16:26:10Z</time>
      </trkpt>
      <trkpt lat="43.63762" lon="1.31494">
        <ele>160.2</ele>
        <time>2024-03-27T16:26:11Z</time>
      </trkpt>
      <trkpt lat="43.63757" lon="1.31486">
        <ele>160.4</ele>
        <time>2024-03-27T16:26:12Z</time>
      </trkpt>
      <trkpt lat="43.63753" lon="1.31479">
        <ele>160.4</ele>
        <time>2024-03-27T16:26:13Z</time>
      </trkpt>
      <trkpt lat="43.63749" lon="1.31472">
        <ele>160.6</ele>
        <time>2024-03-27T16:26:14Z</time>
      </trkpt>
      <trkpt lat="43.63745" lon="1.31465">
        <ele>160.8</ele>
        <time>2024-03-27T16:26:15Z</time>
      </trkpt>
      <trkpt lat="43.63742" lon="1.31457">
        <ele>160.8</ele>
        <time>2024-03-27T16:26:16Z</time>
      </trkpt>
      <trkpt lat="43.63738" lon="1.31451">
        <ele>161</ele>
        <time>2024-03-27T16:26:17Z</time>
      </trkpt>
      <trkpt lat="43.63735" lon="1.31443">
        <ele>161</ele>
        <time>2024-03-27T16:26:18Z</time>
      </trkpt>
      <trkpt lat="43.63733" lon="1.31437">
        <ele>161</ele>
        <time>2024-03-27T16:26:19Z</time>
      </trkpt>
      <trkpt lat="43.63729" lon="1.31429">
        <ele>161</ele>
        <time>2024-03-27T16:26:20Z</time>
      </trkpt>
      <trkpt lat="43.63726" lon="1.31422">
        <ele>161</ele>
        <time>2024-03-27T16:26:21Z</time>
      </trkpt>
      <trkpt lat="43.63723" lon="1.31416">
        <ele>161.4</ele>
        <time>2024-03-27T16:26:22Z</time>
      </trkpt>
      <trkpt lat="43.6372" lon="1.31408">
        <ele>161.4</ele>
        <time>2024-03-27T16:26:23Z</time>
      </trkpt>
      <trkpt lat="43.6372" lon="1.31408">
        <ele>161.4</ele>
        <time>2024-03-27T16:26:24Z</time>
      </trkpt>
      <trkpt lat="43.63716" lon="1.31394">
        <ele>161.4</ele>
        <time>2024-03-27T16:26:25Z</time>
      </trkpt>
      <trkpt lat="43.63713" lon="1.31387">
        <ele>161.4</ele>
        <time>2024-03-27T16:26:26Z</time>
      </trkpt>
      <trkpt lat="43.63711" lon="1.31379">
        <ele>161.6</ele>
        <time>2024-03-27T16:26:27Z</time>
      </trkpt>
      <trkpt lat="43.63709" lon="1.31371">
        <ele>161.6</ele>
        <time>2024-03-27T16:26:28Z</time>
      </trkpt>
      <trkpt lat="43.63706" lon="1.31363">
        <ele>161.6</ele>
        <time>2024-03-27T16:26:29Z</time>
      </trkpt>
      <trkpt lat="43.63703" lon="1.31355">
        <ele>161.6</ele>
        <time>2024-03-27T16:26:30Z</time>
      </trkpt>
      <trkpt lat="43.63701" lon="1.31347">
        <ele>161.6</ele>
        <time>2024-03-27T16:26:31Z</time>
      </trkpt>
      <trkpt lat="43.63701" lon="1.31347">
        <ele>161.6</ele>
        <time>2024-03-27T16:26:32Z</time>
      </trkpt>
      <trkpt lat="43.63698" lon="1.3133">
        <ele>161.8</ele>
        <time>2024-03-27T16:26:33Z</time>
      </trkpt>
      <trkpt lat="43.63696" lon="1.31322">
        <ele>161.8</ele>
        <time>2024-03-27T16:26:34Z</time>
      </trkpt>
      <trkpt lat="43.63693" lon="1.31315">
        <ele>161.8</ele>
        <time>2024-03-27T16:26:35Z</time>
      </trkpt>
      <trkpt lat="43.63691" lon="1.31307">
        <ele>161.8</ele>
        <time>2024-03-27T16:26:36Z</time>
      </trkpt>
      <trkpt lat="43.63688" lon="1.31299">
        <ele>162</ele>
        <time>2024-03-27T16:26:37Z</time>
      </trkpt>
      <trkpt lat="43.63686" lon="1.31291">
        <ele>162</ele>
        <time>2024-03-27T16:26:38Z</time>
      </trkpt>
      <trkpt lat="43.63683" lon="1.31281">
        <ele>162</ele>
        <time>2024-03-27T16:26:39Z</time>
      </trkpt>
      <trkpt lat="43.63681" lon="1.31274">
        <ele>162.2</ele>
        <time>2024-03-27T16:26:40Z</time>
      </trkpt>
      <trkpt lat="43.63678" lon="1.31266">
        <ele>162.2</ele>
        <time>2024-03-27T16:26:41Z</time>
      </trkpt>
      <trkpt lat="43.63676" lon="1.31258">
        <ele>162.2</ele>
        <time>2024-03-27T16:26:42Z</time>
      </trkpt>
      <trkpt lat="43.63673" lon="1.3125">
        <ele>162.2</ele>
        <time>2024-03-27T16:26:43Z</time>
      </trkpt>
      <trkpt lat="43.63671" lon="1.31243">
        <ele>162.4</ele>
        <time>2024-03-27T16:26:44Z</time>
      </trkpt>
      <trkpt lat="43.63668" lon="1.31237">
        <ele>162.4</ele>
        <time>2024-03-27T16:26:45Z</time>
      </trkpt>
      <trkpt lat="43.63665" lon="1.31231">
        <ele>162.4</ele>
        <time>2024-03-27T16:26:46Z</time>
      </trkpt>
      <trkpt lat="43.63661" lon="1.31225">
        <ele>162.4</ele>
        <time>2024-03-27T16:26:47Z</time>
      </trkpt>
      <trkpt lat="43.63656" lon="1.31219">
        <ele>162.4</ele>
        <time>2024-03-27T16:26:48Z</time>
      </trkpt>
      <trkpt lat="43.63652" lon="1.31214">
        <ele>162.6</ele>
        <time>2024-03-27T16:26:49Z</time>
      </trkpt>
      <trkpt lat="43.63648" lon="1.31208">
        <ele>162.6</ele>
        <time>2024-03-27T16:26:50Z</time>
      </trkpt>
      <trkpt lat="43.63644" lon="1.31201">
        <ele>162.8</ele>
        <time>2024-03-27T16:26:51Z</time>
      </trkpt>
      <trkpt lat="43.63641" lon="1.31195">
        <ele>163</ele>
        <time>2024-03-27T16:26:52Z</time>
      </trkpt>
      <trkpt lat="43.63638" lon="1.31188">
        <ele>163.2</ele>
        <time>2024-03-27T16:26:53Z</time>
      </trkpt>
      <trkpt lat="43.63635" lon="1.3118">
        <ele>163.2</ele>
        <time>2024-03-27T16:26:54Z</time>
      </trkpt>
      <trkpt lat="43.63632" lon="1.31172">
        <ele>163.4</ele>
        <time>2024-03-27T16:26:55Z</time>
      </trkpt>
      <trkpt lat="43.63629" lon="1.31165">
        <ele>163.4</ele>
        <time>2024-03-27T16:26:56Z</time>
      </trkpt>
      <trkpt lat="43.63626" lon="1.31158">
        <ele>163.4</ele>
        <time>2024-03-27T16:26:57Z</time>
      </trkpt>
      <trkpt lat="43.63624" lon="1.3115">
        <ele>163.4</ele>
        <time>2024-03-27T16:26:58Z</time>
      </trkpt>
      <trkpt lat="43.63622" lon="1.31142">
        <ele>163.2</ele>
        <time>2024-03-27T16:26:59Z</time>
      </trkpt>
      <trkpt lat="43.63617" lon="1.31133">
        <ele>163.2</ele>
        <time>2024-03-27T16:27:00Z</time>
      </trkpt>
      <trkpt lat="43.63614" lon="1.31127">
        <ele>163.2</ele>
        <time>2024-03-27T16:27:01Z</time>
      </trkpt>
      <trkpt lat="43.6361" lon="1.31119">
        <ele>163.2</ele>
        <time>2024-03-27T16:27:02Z</time>
      </trkpt>
      <trkpt lat="43.63605" lon="1.3111">
        <ele>163.2</ele>
        <time>2024-03-27T16:27:03Z</time>
      </trkpt>
      <trkpt lat="43.63598" lon="1.31104">
        <ele>163</ele>
        <time>2024-03-27T16:27:04Z</time>
      </trkpt>
      <trkpt lat="43.63593" lon="1.31096">
        <ele>162.8</ele>
        <time>2024-03-27T16:27:05Z</time>
      </trkpt>
      <trkpt lat="43.63588" lon="1.3109">
        <ele>162.8</ele>
        <time>2024-03-27T16:27:06Z</time>
      </trkpt>
      <trkpt lat="43.63583" lon="1.31082">
        <ele>162.8</ele>
        <time>2024-03-27T16:27:07Z</time>
      </trkpt>
      <trkpt lat="43.63579" lon="1.31075">
        <ele>162.8</ele>
        <time>2024-03-27T16:27:08Z</time>
      </trkpt>
      <trkpt lat="43.63573" lon="1.31068">
        <ele>162.8</ele>
        <time>2024-03-27T16:27:09Z</time>
      </trkpt>
      <trkpt lat="43.63567" lon="1.3106">
        <ele>162.8</ele>
        <time>2024-03-27T16:27:10Z</time>
      </trkpt>
      <trkpt lat="43.63563" lon="1.31052">
        <ele>162.8</ele>
        <time>2024-03-27T16:27:11Z</time>
      </trkpt>
      <trkpt lat="43.63561" lon="1.31046">
        <ele>162.8</ele>
        <time>2024-03-27T16:27:12Z</time>
      </trkpt>
      <trkpt lat="43.63559" lon="1.31038">
        <ele>162.6</ele>
        <time>2024-03-27T16:27:13Z</time>
      </trkpt>
      <trkpt lat="43.63554" lon="1.31031">
        <ele>162.6</ele>
        <time>2024-03-27T16:27:14Z</time>
      </trkpt>
      <trkpt lat="43.63549" lon="1.31024">
        <ele>162.6</ele>
        <time>2024-03-27T16:27:15Z</time>
      </trkpt>
      <trkpt lat="43.63544" lon="1.31016">
        <ele>162.6</ele>
        <time>2024-03-27T16:27:16Z</time>
      </trkpt>
      <trkpt lat="43.6354" lon="1.31007">
        <ele>162.6</ele>
        <time>2024-03-27T16:27:17Z</time>
      </trkpt>
      <trkpt lat="43.63537" lon="1.31">
        <ele>162.6</ele>
        <time>2024-03-27T16:27:18Z</time>
      </trkpt>
      <trkpt lat="43.63533" lon="1.30992">
        <ele>162.4</ele>
        <time>2024-03-27T16:27:19Z</time>
      </trkpt>
      <trkpt lat="43.63527" lon="1.30986">
        <ele>162.4</ele>
        <time>2024-03-27T16:27:20Z</time>
      </trkpt>
      <trkpt lat="43.63522" lon="1.30979">
        <ele>162.4</ele>
        <time>2024-03-27T16:27:21Z</time>
      </trkpt>
      <trkpt lat="43.63517" lon="1.30972">
        <ele>162.4</ele>
        <time>2024-03-27T16:27:22Z</time>
      </trkpt>
      <trkpt lat="43.6351" lon="1.30966">
        <ele>162.4</ele>
        <time>2024-03-27T16:27:23Z</time>
      </trkpt>
      <trkpt lat="43.63506" lon="1.30963">
        <ele>162.4</ele>
        <time>2024-03-27T16:27:24Z</time>
      </trkpt>
      <trkpt lat="43.63499" lon="1.30958">
        <ele>162.4</ele>
        <time>2024-03-27T16:27:25Z</time>
      </trkpt>
      <trkpt lat="43.63495" lon="1.30956">
        <ele>162.4</ele>
        <time>2024-03-27T16:27:26Z</time>
      </trkpt>
      <trkpt lat="43.63489" lon="1.30952">
        <ele>162.4</ele>
        <time>2024-03-27T16:27:27Z</time>
      </trkpt>
      <trkpt lat="43.63483" lon="1.30949">
        <ele>162.4</ele>
        <time>2024-03-27T16:27:28Z</time>
      </trkpt>
      <trkpt lat="43.63477" lon="1.30946">
        <ele>162.4</ele>
        <time>2024-03-27T16:27:29Z</time>
      </trkpt>
      <trkpt lat="43.63472" lon="1.30944">
        <ele>162.4</ele>
        <time>2024-03-27T16:27:30Z</time>
      </trkpt>
      <trkpt lat="43.63466" lon="1.30941">
        <ele>162.4</ele>
        <time>2024-03-27T16:27:31Z</time>
      </trkpt>
      <trkpt lat="43.6346" lon="1.30938">
        <ele>162.4</ele>
        <time>2024-03-27T16:27:32Z</time>
      </trkpt>
      <trkpt lat="43.63454" lon="1.30936">
        <ele>162.4</ele>
        <time>2024-03-27T16:27:33Z</time>
      </trkpt>
      <trkpt lat="43.63448" lon="1.30933">
        <ele>162.6</ele>
        <time>2024-03-27T16:27:34Z</time>
      </trkpt>
      <trkpt lat="43.63441" lon="1.3093">
        <ele>162.6</ele>
        <time>2024-03-27T16:27:35Z</time>
      </trkpt>
      <trkpt lat="43.63435" lon="1.30927">
        <ele>162.6</ele>
        <time>2024-03-27T16:27:36Z</time>
      </trkpt>
      <trkpt lat="43.6343" lon="1.30924">
        <ele>162.6</ele>
        <time>2024-03-27T16:27:37Z</time>
      </trkpt>
      <trkpt lat="43.63424" lon="1.3092">
        <ele>162.8</ele>
        <time>2024-03-27T16:27:38Z</time>
      </trkpt>
      <trkpt lat="43.63418" lon="1.30916">
        <ele>162.8</ele>
        <time>2024-03-27T16:27:39Z</time>
      </trkpt>
      <trkpt lat="43.63412" lon="1.30911">
        <ele>162.8</ele>
        <time>2024-03-27T16:27:40Z</time>
      </trkpt>
      <trkpt lat="43.63406" lon="1.30906">
        <ele>162.8</ele>
        <time>2024-03-27T16:27:41Z</time>
      </trkpt>
      <trkpt lat="43.63401" lon="1.309">
        <ele>162.8</ele>
        <time>2024-03-27T16:27:42Z</time>
      </trkpt>
      <trkpt lat="43.63395" lon="1.30892">
        <ele>162.8</ele>
        <time>2024-03-27T16:27:43Z</time>
      </trkpt>
      <trkpt lat="43.63391" lon="1.30886">
        <ele>163</ele>
        <time>2024-03-27T16:27:44Z</time>
      </trkpt>
      <trkpt lat="43.63387" lon="1.30881">
        <ele>163</ele>
        <time>2024-03-27T16:27:45Z</time>
      </trkpt>
      <trkpt lat="43.63382" lon="1.30874">
        <ele>163</ele>
        <time>2024-03-27T16:27:46Z</time>
      </trkpt>
      <trkpt lat="43.63377" lon="1.30868">
        <ele>163</ele>
        <time>2024-03-27T16:27:47Z</time>
      </trkpt>
      <trkpt lat="43.63372" lon="1.3086">
        <ele>163</ele>
        <time>2024-03-27T16:27:48Z</time>
      </trkpt>
      <trkpt lat="43.63368" lon="1.30855">
        <ele>163.2</ele>
        <time>2024-03-27T16:27:49Z</time>
      </trkpt>
      <trkpt lat="43.63364" lon="1.30848">
        <ele>163.2</ele>
        <time>2024-03-27T16:27:50Z</time>
      </trkpt>
      <trkpt lat="43.63359" lon="1.30841">
        <ele>163.4</ele>
        <time>2024-03-27T16:27:51Z</time>
      </trkpt>
      <trkpt lat="43.63355" lon="1.30835">
        <ele>163.4</ele>
        <time>2024-03-27T16:27:52Z</time>
      </trkpt>
      <trkpt lat="43.6335" lon="1.30828">
        <ele>163.4</ele>
        <time>2024-03-27T16:27:53Z</time>
      </trkpt>
      <trkpt lat="43.63345" lon="1.30821">
        <ele>163.4</ele>
        <time>2024-03-27T16:27:54Z</time>
      </trkpt>
      <trkpt lat="43.6334" lon="1.30814">
        <ele>163.4</ele>
        <time>2024-03-27T16:27:55Z</time>
      </trkpt>
      <trkpt lat="43.63336" lon="1.30808">
        <ele>163.4</ele>
        <time>2024-03-27T16:27:56Z</time>
      </trkpt>
      <trkpt lat="43.63331" lon="1.30801">
        <ele>163.4</ele>
        <time>2024-03-27T16:27:57Z</time>
      </trkpt>
      <trkpt lat="43.63327" lon="1.30794">
        <ele>163.4</ele>
        <time>2024-03-27T16:27:58Z</time>
      </trkpt>
      <trkpt lat="43.63327" lon="1.30794">
        <ele>163.4</ele>
        <time>2024-03-27T16:27:59Z</time>
      </trkpt>
      <trkpt lat="43.63319" lon="1.30781">
        <ele>163.4</ele>
        <time>2024-03-27T16:28:00Z</time>
      </trkpt>
      <trkpt lat="43.63314" lon="1.30775">
        <ele>163.4</ele>
        <time>2024-03-27T16:28:01Z</time>
      </trkpt>
      <trkpt lat="43.6331" lon="1.30769">
        <ele>163.4</ele>
        <time>2024-03-27T16:28:02Z</time>
      </trkpt>
      <trkpt lat="43.63307" lon="1.30764">
        <ele>163.4</ele>
        <time>2024-03-27T16:28:03Z</time>
      </trkpt>
      <trkpt lat="43.63303" lon="1.30759">
        <ele>163.4</ele>
        <time>2024-03-27T16:28:04Z</time>
      </trkpt>
      <trkpt lat="43.63301" lon="1.30756">
        <ele>163.4</ele>
        <time>2024-03-27T16:28:05Z</time>
      </trkpt>
      <trkpt lat="43.63298" lon="1.30753">
        <ele>163.6</ele>
        <time>2024-03-27T16:28:06Z</time>
      </trkpt>
      <trkpt lat="43.63296" lon="1.3075">
        <ele>163.6</ele>
        <time>2024-03-27T16:28:07Z</time>
      </trkpt>
      <trkpt lat="43.63294" lon="1.30745">
        <ele>163.6</ele>
        <time>2024-03-27T16:28:08Z</time>
      </trkpt>
      <trkpt lat="43.63292" lon="1.30743">
        <ele>163.6</ele>
        <time>2024-03-27T16:28:09Z</time>
      </trkpt>
      <trkpt lat="43.6329" lon="1.30743">
        <ele>163.6</ele>
        <time>2024-03-27T16:28:10Z</time>
      </trkpt>
      <trkpt lat="43.63287" lon="1.30743">
        <ele>163.6</ele>
        <time>2024-03-27T16:28:11Z</time>
      </trkpt>
      <trkpt lat="43.63284" lon="1.30743">
        <ele>163.6</ele>
        <time>2024-03-27T16:28:12Z</time>
      </trkpt>
      <trkpt lat="43.63281" lon="1.30746">
        <ele>163.6</ele>
        <time>2024-03-27T16:28:13Z</time>
      </trkpt>
      <trkpt lat="43.63279" lon="1.30749">
        <ele>163.6</ele>
        <time>2024-03-27T16:28:14Z</time>
      </trkpt>
      <trkpt lat="43.63276" lon="1.30753">
        <ele>163.8</ele>
        <time>2024-03-27T16:28:15Z</time>
      </trkpt>
      <trkpt lat="43.63274" lon="1.30757">
        <ele>163.8</ele>
        <time>2024-03-27T16:28:16Z</time>
      </trkpt>
      <trkpt lat="43.63271" lon="1.30761">
        <ele>163.8</ele>
        <time>2024-03-27T16:28:17Z</time>
      </trkpt>
      <trkpt lat="43.63269" lon="1.30764">
        <ele>163.8</ele>
        <time>2024-03-27T16:28:18Z</time>
      </trkpt>
      <trkpt lat="43.63267" lon="1.30767">
        <ele>163.8</ele>
        <time>2024-03-27T16:28:19Z</time>
      </trkpt>
      <trkpt lat="43.63267" lon="1.30767">
        <ele>163.8</ele>
        <time>2024-03-27T16:28:20Z</time>
      </trkpt>
      <trkpt lat="43.63262" lon="1.30772">
        <ele>163.8</ele>
        <time>2024-03-27T16:28:21Z</time>
      </trkpt>
      <trkpt lat="43.63262" lon="1.30773">
        <ele>163.8</ele>
        <time>2024-03-27T16:28:22Z</time>
      </trkpt>
      <trkpt lat="43.63261" lon="1.30771">
        <ele>163.8</ele>
        <time>2024-03-27T16:28:23Z</time>
      </trkpt>
      <trkpt lat="43.6326" lon="1.30768">
        <ele>163.8</ele>
        <time>2024-03-27T16:28:24Z</time>
      </trkpt>
      <trkpt lat="43.63258" lon="1.30764">
        <ele>163.8</ele>
        <time>2024-03-27T16:28:25Z</time>
      </trkpt>
      <trkpt lat="43.63255" lon="1.30759">
        <ele>163.8</ele>
        <time>2024-03-27T16:28:26Z</time>
      </trkpt>
      <trkpt lat="43.63249" lon="1.30754">
        <ele>163.8</ele>
        <time>2024-03-27T16:28:27Z</time>
      </trkpt>
      <trkpt lat="43.63245" lon="1.30749">
        <ele>163.8</ele>
        <time>2024-03-27T16:28:28Z</time>
      </trkpt>
      <trkpt lat="43.63242" lon="1.30744">
        <ele>163.8</ele>
        <time>2024-03-27T16:28:29Z</time>
      </trkpt>
      <trkpt lat="43.63239" lon="1.30738">
        <ele>163.8</ele>
        <time>2024-03-27T16:28:30Z</time>
      </trkpt>
      <trkpt lat="43.63239" lon="1.30733">
        <ele>163.6</ele>
        <time>2024-03-27T16:28:31Z</time>
      </trkpt>
      <trkpt lat="43.6324" lon="1.30727">
        <ele>163.6</ele>
        <time>2024-03-27T16:28:32Z</time>
      </trkpt>
      <trkpt lat="43.63241" lon="1.30721">
        <ele>163.4</ele>
        <time>2024-03-27T16:28:33Z</time>
      </trkpt>
      <trkpt lat="43.6324" lon="1.30715">
        <ele>163.4</ele>
        <time>2024-03-27T16:28:34Z</time>
      </trkpt>
      <trkpt lat="43.63239" lon="1.30708">
        <ele>163.4</ele>
        <time>2024-03-27T16:28:35Z</time>
      </trkpt>
      <trkpt lat="43.63234" lon="1.30704">
        <ele>163.4</ele>
        <time>2024-03-27T16:28:36Z</time>
      </trkpt>
      <trkpt lat="43.63229" lon="1.30699">
        <ele>163.4</ele>
        <time>2024-03-27T16:28:37Z</time>
      </trkpt>
      <trkpt lat="43.63221" lon="1.30694">
        <ele>163.2</ele>
        <time>2024-03-27T16:28:38Z</time>
      </trkpt>
      <trkpt lat="43.63215" lon="1.3069">
        <ele>163.2</ele>
        <time>2024-03-27T16:28:39Z</time>
      </trkpt>
      <trkpt lat="43.6321" lon="1.30688">
        <ele>163.2</ele>
        <time>2024-03-27T16:28:40Z</time>
      </trkpt>
      <trkpt lat="43.63205" lon="1.30686">
        <ele>163.2</ele>
        <time>2024-03-27T16:28:41Z</time>
      </trkpt>
      <trkpt lat="43.63201" lon="1.30687">
        <ele>163.2</ele>
        <time>2024-03-27T16:28:42Z</time>
      </trkpt>
      <trkpt lat="43.63196" lon="1.30689">
        <ele>163.2</ele>
        <time>2024-03-27T16:28:43Z</time>
      </trkpt>
      <trkpt lat="43.63193" lon="1.30692">
        <ele>163.2</ele>
        <time>2024-03-27T16:28:44Z</time>
      </trkpt>
      <trkpt lat="43.63189" lon="1.30695">
        <ele>163.2</ele>
        <time>2024-03-27T16:28:45Z</time>
      </trkpt>
      <trkpt lat="43.63186" lon="1.30698">
        <ele>163.4</ele>
        <time>2024-03-27T16:28:46Z</time>
      </trkpt>
      <trkpt lat="43.63181" lon="1.30702">
        <ele>163.4</ele>
        <time>2024-03-27T16:28:47Z</time>
      </trkpt>
      <trkpt lat="43.63178" lon="1.30705">
        <ele>163.4</ele>
        <time>2024-03-27T16:28:48Z</time>
      </trkpt>
      <trkpt lat="43.63175" lon="1.30707">
        <ele>163.6</ele>
        <time>2024-03-27T16:28:49Z</time>
      </trkpt>
      <trkpt lat="43.63173" lon="1.30709">
        <ele>163.6</ele>
        <time>2024-03-27T16:28:50Z</time>
      </trkpt>
      <trkpt lat="43.63171" lon="1.30711">
        <ele>163.6</ele>
        <time>2024-03-27T16:28:51Z</time>
      </trkpt>
      <trkpt lat="43.63169" lon="1.30713">
        <ele>163.6</ele>
        <time>2024-03-27T16:28:52Z</time>
      </trkpt>
      <trkpt lat="43.63166" lon="1.30715">
        <ele>163.6</ele>
        <time>2024-03-27T16:28:53Z</time>
      </trkpt>
      <trkpt lat="43.63163" lon="1.30717">
        <ele>163.6</ele>
        <time>2024-03-27T16:28:54Z</time>
      </trkpt>
      <trkpt lat="43.63161" lon="1.30718">
        <ele>163.6</ele>
        <time>2024-03-27T16:28:55Z</time>
      </trkpt>
      <trkpt lat="43.63159" lon="1.30719">
        <ele>163.6</ele>
        <time>2024-03-27T16:28:56Z</time>
      </trkpt>
      <trkpt lat="43.63156" lon="1.3072">
        <ele>163.6</ele>
        <time>2024-03-27T16:28:57Z</time>
      </trkpt>
      <trkpt lat="43.63153" lon="1.30721">
        <ele>163.6</ele>
        <time>2024-03-27T16:28:58Z</time>
      </trkpt>
      <trkpt lat="43.63148" lon="1.30722">
        <ele>163.6</ele>
        <time>2024-03-27T16:28:59Z</time>
      </trkpt>
      <trkpt lat="43.63143" lon="1.30722">
        <ele>163.6</ele>
        <time>2024-03-27T16:29:00Z</time>
      </trkpt>
      <trkpt lat="43.63137" lon="1.30723">
        <ele>163.8</ele>
        <time>2024-03-27T16:29:01Z</time>
      </trkpt>
      <trkpt lat="43.63131" lon="1.30722">
        <ele>163.8</ele>
        <time>2024-03-27T16:29:02Z</time>
      </trkpt>
      <trkpt lat="43.63124" lon="1.30722">
        <ele>163.8</ele>
        <time>2024-03-27T16:29:03Z</time>
      </trkpt>
      <trkpt lat="43.63117" lon="1.30722">
        <ele>163.8</ele>
        <time>2024-03-27T16:29:04Z</time>
      </trkpt>
      <trkpt lat="43.6311" lon="1.30724">
        <ele>163.8</ele>
        <time>2024-03-27T16:29:05Z</time>
      </trkpt>
      <trkpt lat="43.63105" lon="1.30726">
        <ele>163.8</ele>
        <time>2024-03-27T16:29:06Z</time>
      </trkpt>
      <trkpt lat="43.63099" lon="1.30728">
        <ele>164</ele>
        <time>2024-03-27T16:29:07Z</time>
      </trkpt>
      <trkpt lat="43.63093" lon="1.30731">
        <ele>164</ele>
        <time>2024-03-27T16:29:08Z</time>
      </trkpt>
      <trkpt lat="43.63087" lon="1.30733">
        <ele>164</ele>
        <time>2024-03-27T16:29:09Z</time>
      </trkpt>
      <trkpt lat="43.6308" lon="1.30736">
        <ele>164</ele>
        <time>2024-03-27T16:29:10Z</time>
      </trkpt>
      <trkpt lat="43.63075" lon="1.30739">
        <ele>164</ele>
        <time>2024-03-27T16:29:11Z</time>
      </trkpt>
      <trkpt lat="43.63069" lon="1.30742">
        <ele>164.2</ele>
        <time>2024-03-27T16:29:12Z</time>
      </trkpt>
      <trkpt lat="43.63064" lon="1.30745">
        <ele>164.2</ele>
        <time>2024-03-27T16:29:13Z</time>
      </trkpt>
      <trkpt lat="43.63058" lon="1.30747">
        <ele>164.2</ele>
        <time>2024-03-27T16:29:14Z</time>
      </trkpt>
      <trkpt lat="43.63051" lon="1.30749">
        <ele>164.2</ele>
        <time>2024-03-27T16:29:15Z</time>
      </trkpt>
      <trkpt lat="43.63046" lon="1.30752">
        <ele>164.4</ele>
        <time>2024-03-27T16:29:16Z</time>
      </trkpt>
      <trkpt lat="43.63041" lon="1.30755">
        <ele>164.4</ele>
        <time>2024-03-27T16:29:17Z</time>
      </trkpt>
      <trkpt lat="43.63036" lon="1.30758">
        <ele>164.6</ele>
        <time>2024-03-27T16:29:18Z</time>
      </trkpt>
      <trkpt lat="43.63031" lon="1.3076">
        <ele>164.6</ele>
        <time>2024-03-27T16:29:19Z</time>
      </trkpt>
      <trkpt lat="43.63026" lon="1.30763">
        <ele>164.8</ele>
        <time>2024-03-27T16:29:20Z</time>
      </trkpt>
      <trkpt lat="43.63021" lon="1.30767">
        <ele>164.8</ele>
        <time>2024-03-27T16:29:21Z</time>
      </trkpt>
      <trkpt lat="43.63016" lon="1.30771">
        <ele>165</ele>
        <time>2024-03-27T16:29:22Z</time>
      </trkpt>
      <trkpt lat="43.6301" lon="1.30775">
        <ele>165</ele>
        <time>2024-03-27T16:29:23Z</time>
      </trkpt>
      <trkpt lat="43.63006" lon="1.30778">
        <ele>165</ele>
        <time>2024-03-27T16:29:24Z</time>
      </trkpt>
      <trkpt lat="43.63001" lon="1.30782">
        <ele>165</ele>
        <time>2024-03-27T16:29:25Z</time>
      </trkpt>
      <trkpt lat="43.62996" lon="1.30787">
        <ele>165</ele>
        <time>2024-03-27T16:29:26Z</time>
      </trkpt>
      <trkpt lat="43.62991" lon="1.30792">
        <ele>165.2</ele>
        <time>2024-03-27T16:29:27Z</time>
      </trkpt>
      <trkpt lat="43.62986" lon="1.30796">
        <ele>165.2</ele>
        <time>2024-03-27T16:29:28Z</time>
      </trkpt>
      <trkpt lat="43.62981" lon="1.308">
        <ele>165.2</ele>
        <time>2024-03-27T16:29:29Z</time>
      </trkpt>
      <trkpt lat="43.62976" lon="1.30806">
        <ele>165.2</ele>
        <time>2024-03-27T16:29:30Z</time>
      </trkpt>
      <trkpt lat="43.62972" lon="1.3081">
        <ele>165.2</ele>
        <time>2024-03-27T16:29:31Z</time>
      </trkpt>
      <trkpt lat="43.62968" lon="1.30815">
        <ele>165.4</ele>
        <time>2024-03-27T16:29:32Z</time>
      </trkpt>
      <trkpt lat="43.62963" lon="1.3082">
        <ele>165.4</ele>
        <time>2024-03-27T16:29:33Z</time>
      </trkpt>
      <trkpt lat="43.62959" lon="1.30826">
        <ele>165.6</ele>
        <time>2024-03-27T16:29:34Z</time>
      </trkpt>
      <trkpt lat="43.62955" lon="1.30831">
        <ele>165.6</ele>
        <time>2024-03-27T16:29:35Z</time>
      </trkpt>
      <trkpt lat="43.6295" lon="1.30836">
        <ele>165.8</ele>
        <time>2024-03-27T16:29:36Z</time>
      </trkpt>
      <trkpt lat="43.62946" lon="1.30841">
        <ele>166</ele>
        <time>2024-03-27T16:29:37Z</time>
      </trkpt>
      <trkpt lat="43.62942" lon="1.30846">
        <ele>166</ele>
        <time>2024-03-27T16:29:38Z</time>
      </trkpt>
      <trkpt lat="43.62936" lon="1.30851">
        <ele>166</ele>
        <time>2024-03-27T16:29:39Z</time>
      </trkpt>
      <trkpt lat="43.62933" lon="1.30855">
        <ele>166</ele>
        <time>2024-03-27T16:29:40Z</time>
      </trkpt>
      <trkpt lat="43.62928" lon="1.30861">
        <ele>166</ele>
        <time>2024-03-27T16:29:41Z</time>
      </trkpt>
      <trkpt lat="43.62925" lon="1.30865">
        <ele>166</ele>
        <time>2024-03-27T16:29:42Z</time>
      </trkpt>
      <trkpt lat="43.6292" lon="1.30869">
        <ele>166</ele>
        <time>2024-03-27T16:29:43Z</time>
      </trkpt>
      <trkpt lat="43.62916" lon="1.30874">
        <ele>166.2</ele>
        <time>2024-03-27T16:29:44Z</time>
      </trkpt>
      <trkpt lat="43.62911" lon="1.30878">
        <ele>166.2</ele>
        <time>2024-03-27T16:29:45Z</time>
      </trkpt>
      <trkpt lat="43.62907" lon="1.30883">
        <ele>166.2</ele>
        <time>2024-03-27T16:29:46Z</time>
      </trkpt>
      <trkpt lat="43.62903" lon="1.30888">
        <ele>166.4</ele>
        <time>2024-03-27T16:29:47Z</time>
      </trkpt>
      <trkpt lat="43.62898" lon="1.30894">
        <ele>166.4</ele>
        <time>2024-03-27T16:29:48Z</time>
      </trkpt>
      <trkpt lat="43.62896" lon="1.30898">
        <ele>166.6</ele>
        <time>2024-03-27T16:29:49Z</time>
      </trkpt>
      <trkpt lat="43.62893" lon="1.30904">
        <ele>166.8</ele>
        <time>2024-03-27T16:29:50Z</time>
      </trkpt>
      <trkpt lat="43.6289" lon="1.30911">
        <ele>166.8</ele>
        <time>2024-03-27T16:29:51Z</time>
      </trkpt>
      <trkpt lat="43.62887" lon="1.30919">
        <ele>167</ele>
        <time>2024-03-27T16:29:52Z</time>
      </trkpt>
      <trkpt lat="43.62886" lon="1.30924">
        <ele>167</ele>
        <time>2024-03-27T16:29:53Z</time>
      </trkpt>
      <trkpt lat="43.62884" lon="1.30931">
        <ele>167</ele>
        <time>2024-03-27T16:29:54Z</time>
      </trkpt>
      <trkpt lat="43.62882" lon="1.30938">
        <ele>167</ele>
        <time>2024-03-27T16:29:55Z</time>
      </trkpt>
      <trkpt lat="43.6288" lon="1.30943">
        <ele>167.2</ele>
        <time>2024-03-27T16:29:56Z</time>
      </trkpt>
      <trkpt lat="43.62878" lon="1.30949">
        <ele>167.2</ele>
        <time>2024-03-27T16:29:57Z</time>
      </trkpt>
      <trkpt lat="43.62876" lon="1.30956">
        <ele>167.2</ele>
        <time>2024-03-27T16:29:58Z</time>
      </trkpt>
      <trkpt lat="43.62874" lon="1.30962">
        <ele>167.2</ele>
        <time>2024-03-27T16:29:59Z</time>
      </trkpt>
      <trkpt lat="43.62871" lon="1.30968">
        <ele>167.2</ele>
        <time>2024-03-27T16:30:00Z</time>
      </trkpt>
      <trkpt lat="43.62868" lon="1.30973">
        <ele>167.4</ele>
        <time>2024-03-27T16:30:01Z</time>
      </trkpt>
      <trkpt lat="43.62865" lon="1.30978">
        <ele>167.6</ele>
        <time>2024-03-27T16:30:02Z</time>
      </trkpt>
      <trkpt lat="43.62861" lon="1.30982">
        <ele>167.8</ele>
        <time>2024-03-27T16:30:03Z</time>
      </trkpt>
      <trkpt lat="43.62857" lon="1.30987">
        <ele>167.8</ele>
        <time>2024-03-27T16:30:04Z</time>
      </trkpt>
      <trkpt lat="43.62853" lon="1.30991">
        <ele>168</ele>
        <time>2024-03-27T16:30:05Z</time>
      </trkpt>
      <trkpt lat="43.62848" lon="1.30995">
        <ele>168.2</ele>
        <time>2024-03-27T16:30:06Z</time>
      </trkpt>
      <trkpt lat="43.62844" lon="1.30999">
        <ele>168.4</ele>
        <time>2024-03-27T16:30:07Z</time>
      </trkpt>
      <trkpt lat="43.6284" lon="1.31003">
        <ele>168.4</ele>
        <time>2024-03-27T16:30:08Z</time>
      </trkpt>
      <trkpt lat="43.62836" lon="1.31007">
        <ele>168.6</ele>
        <time>2024-03-27T16:30:09Z</time>
      </trkpt>
      <trkpt lat="43.62832" lon="1.31012">
        <ele>168.8</ele>
        <time>2024-03-27T16:30:10Z</time>
      </trkpt>
      <trkpt lat="43.62828" lon="1.31016">
        <ele>169</ele>
        <time>2024-03-27T16:30:11Z</time>
      </trkpt>
      <trkpt lat="43.62824" lon="1.3102">
        <ele>169.2</ele>
        <time>2024-03-27T16:30:12Z</time>
      </trkpt>
      <trkpt lat="43.6282" lon="1.31024">
        <ele>169.4</ele>
        <time>2024-03-27T16:30:13Z</time>
      </trkpt>
      <trkpt lat="43.62816" lon="1.31027">
        <ele>169.4</ele>
        <time>2024-03-27T16:30:14Z</time>
      </trkpt>
      <trkpt lat="43.62812" lon="1.31031">
        <ele>169.6</ele>
        <time>2024-03-27T16:30:15Z</time>
      </trkpt>
      <trkpt lat="43.62808" lon="1.31034">
        <ele>169.6</ele>
        <time>2024-03-27T16:30:16Z</time>
      </trkpt>
      <trkpt lat="43.62803" lon="1.31037">
        <ele>169.8</ele>
        <time>2024-03-27T16:30:17Z</time>
      </trkpt>
      <trkpt lat="43.62798" lon="1.3104">
        <ele>170</ele>
        <time>2024-03-27T16:30:18Z</time>
      </trkpt>
      <trkpt lat="43.62793" lon="1.31043">
        <ele>170</ele>
        <time>2024-03-27T16:30:19Z</time>
      </trkpt>
      <trkpt lat="43.62789" lon="1.31046">
        <ele>170.2</ele>
        <time>2024-03-27T16:30:20Z</time>
      </trkpt>
      <trkpt lat="43.62784" lon="1.31049">
        <ele>170.4</ele>
        <time>2024-03-27T16:30:21Z</time>
      </trkpt>
      <trkpt lat="43.62779" lon="1.31051">
        <ele>170.4</ele>
        <time>2024-03-27T16:30:22Z</time>
      </trkpt>
      <trkpt lat="43.62775" lon="1.31053">
        <ele>170.4</ele>
        <time>2024-03-27T16:30:23Z</time>
      </trkpt>
      <trkpt lat="43.62769" lon="1.31054">
        <ele>170.6</ele>
        <time>2024-03-27T16:30:24Z</time>
      </trkpt>
      <trkpt lat="43.62764" lon="1.31055">
        <ele>170.6</ele>
        <time>2024-03-27T16:30:25Z</time>
      </trkpt>
      <trkpt lat="43.62759" lon="1.31056">
        <ele>170.8</ele>
        <time>2024-03-27T16:30:26Z</time>
      </trkpt>
      <trkpt lat="43.62754" lon="1.31056">
        <ele>170.8</ele>
        <time>2024-03-27T16:30:27Z</time>
      </trkpt>
      <trkpt lat="43.62749" lon="1.31058">
        <ele>171</ele>
        <time>2024-03-27T16:30:28Z</time>
      </trkpt>
      <trkpt lat="43.62745" lon="1.31059">
        <ele>171</ele>
        <time>2024-03-27T16:30:29Z</time>
      </trkpt>
      <trkpt lat="43.6274" lon="1.31062">
        <ele>171.2</ele>
        <time>2024-03-27T16:30:30Z</time>
      </trkpt>
      <trkpt lat="43.62737" lon="1.31066">
        <ele>171.2</ele>
        <time>2024-03-27T16:30:31Z</time>
      </trkpt>
      <trkpt lat="43.62733" lon="1.31071">
        <ele>171.4</ele>
        <time>2024-03-27T16:30:32Z</time>
      </trkpt>
      <trkpt lat="43.6273" lon="1.31075">
        <ele>171.4</ele>
        <time>2024-03-27T16:30:33Z</time>
      </trkpt>
      <trkpt lat="43.62727" lon="1.31079">
        <ele>171.4</ele>
        <time>2024-03-27T16:30:34Z</time>
      </trkpt>
      <trkpt lat="43.62724" lon="1.31084">
        <ele>171.6</ele>
        <time>2024-03-27T16:30:35Z</time>
      </trkpt>
      <trkpt lat="43.6272" lon="1.31089">
        <ele>171.6</ele>
        <time>2024-03-27T16:30:36Z</time>
      </trkpt>
      <trkpt lat="43.62716" lon="1.31094">
        <ele>171.8</ele>
        <time>2024-03-27T16:30:37Z</time>
      </trkpt>
      <trkpt lat="43.62712" lon="1.31098">
        <ele>171.8</ele>
        <time>2024-03-27T16:30:38Z</time>
      </trkpt>
      <trkpt lat="43.62707" lon="1.31102">
        <ele>172</ele>
        <time>2024-03-27T16:30:39Z</time>
      </trkpt>
      <trkpt lat="43.62703" lon="1.31105">
        <ele>172</ele>
        <time>2024-03-27T16:30:40Z</time>
      </trkpt>
      <trkpt lat="43.62698" lon="1.31108">
        <ele>172</ele>
        <time>2024-03-27T16:30:41Z</time>
      </trkpt>
      <trkpt lat="43.62693" lon="1.31111">
        <ele>172.2</ele>
        <time>2024-03-27T16:30:42Z</time>
      </trkpt>
      <trkpt lat="43.62688" lon="1.31114">
        <ele>172.2</ele>
        <time>2024-03-27T16:30:43Z</time>
      </trkpt>
      <trkpt lat="43.62684" lon="1.31118">
        <ele>172.4</ele>
        <time>2024-03-27T16:30:44Z</time>
      </trkpt>
      <trkpt lat="43.62679" lon="1.31121">
        <ele>172.4</ele>
        <time>2024-03-27T16:30:45Z</time>
      </trkpt>
      <trkpt lat="43.62674" lon="1.31124">
        <ele>172.4</ele>
        <time>2024-03-27T16:30:46Z</time>
      </trkpt>
      <trkpt lat="43.62669" lon="1.31128">
        <ele>172.4</ele>
        <time>2024-03-27T16:30:47Z</time>
      </trkpt>
      <trkpt lat="43.62663" lon="1.31131">
        <ele>172.4</ele>
        <time>2024-03-27T16:30:48Z</time>
      </trkpt>
      <trkpt lat="43.62658" lon="1.31134">
        <ele>172.4</ele>
        <time>2024-03-27T16:30:49Z</time>
      </trkpt>
      <trkpt lat="43.62653" lon="1.31138">
        <ele>172.4</ele>
        <time>2024-03-27T16:30:50Z</time>
      </trkpt>
      <trkpt lat="43.62647" lon="1.31141">
        <ele>172.4</ele>
        <time>2024-03-27T16:30:51Z</time>
      </trkpt>
      <trkpt lat="43.62642" lon="1.31144">
        <ele>172.4</ele>
        <time>2024-03-27T16:30:52Z</time>
      </trkpt>
      <trkpt lat="43.62636" lon="1.31147">
        <ele>172.4</ele>
        <time>2024-03-27T16:30:53Z</time>
      </trkpt>
      <trkpt lat="43.62631" lon="1.3115">
        <ele>172.4</ele>
        <time>2024-03-27T16:30:54Z</time>
      </trkpt>
      <trkpt lat="43.62626" lon="1.31152">
        <ele>172.4</ele>
        <time>2024-03-27T16:30:55Z</time>
      </trkpt>
      <trkpt lat="43.62621" lon="1.31155">
        <ele>172.4</ele>
        <time>2024-03-27T16:30:56Z</time>
      </trkpt>
      <trkpt lat="43.62616" lon="1.31157">
        <ele>172.4</ele>
        <time>2024-03-27T16:30:57Z</time>
      </trkpt>
      <trkpt lat="43.62611" lon="1.3116">
        <ele>172.4</ele>
        <time>2024-03-27T16:30:58Z</time>
      </trkpt>
      <trkpt lat="43.62606" lon="1.31162">
        <ele>172.4</ele>
        <time>2024-03-27T16:30:59Z</time>
      </trkpt>
      <trkpt lat="43.626" lon="1.31163">
        <ele>172.6</ele>
        <time>2024-03-27T16:31:00Z</time>
      </trkpt>
      <trkpt lat="43.62595" lon="1.31165">
        <ele>172.6</ele>
        <time>2024-03-27T16:31:01Z</time>
      </trkpt>
      <trkpt lat="43.6259" lon="1.31167">
        <ele>172.8</ele>
        <time>2024-03-27T16:31:02Z</time>
      </trkpt>
      <trkpt lat="43.62585" lon="1.31169">
        <ele>172.8</ele>
        <time>2024-03-27T16:31:03Z</time>
      </trkpt>
      <trkpt lat="43.6258" lon="1.31172">
        <ele>173</ele>
        <time>2024-03-27T16:31:04Z</time>
      </trkpt>
      <trkpt lat="43.62574" lon="1.31174">
        <ele>173</ele>
        <time>2024-03-27T16:31:05Z</time>
      </trkpt>
      <trkpt lat="43.62569" lon="1.31176">
        <ele>173.2</ele>
        <time>2024-03-27T16:31:06Z</time>
      </trkpt>
      <trkpt lat="43.62564" lon="1.31178">
        <ele>173.2</ele>
        <time>2024-03-27T16:31:07Z</time>
      </trkpt>
      <trkpt lat="43.62558" lon="1.3118">
        <ele>173.2</ele>
        <time>2024-03-27T16:31:08Z</time>
      </trkpt>
      <trkpt lat="43.62553" lon="1.31183">
        <ele>173.4</ele>
        <time>2024-03-27T16:31:09Z</time>
      </trkpt>
      <trkpt lat="43.62548" lon="1.31185">
        <ele>173.6</ele>
        <time>2024-03-27T16:31:10Z</time>
      </trkpt>
      <trkpt lat="43.62542" lon="1.31188">
        <ele>173.8</ele>
        <time>2024-03-27T16:31:11Z</time>
      </trkpt>
      <trkpt lat="43.62537" lon="1.31191">
        <ele>173.8</ele>
        <time>2024-03-27T16:31:12Z</time>
      </trkpt>
      <trkpt lat="43.62533" lon="1.31195">
        <ele>173.8</ele>
        <time>2024-03-27T16:31:13Z</time>
      </trkpt>
      <trkpt lat="43.62528" lon="1.31198">
        <ele>173.8</ele>
        <time>2024-03-27T16:31:14Z</time>
      </trkpt>
      <trkpt lat="43.62523" lon="1.31201">
        <ele>173.8</ele>
        <time>2024-03-27T16:31:15Z</time>
      </trkpt>
      <trkpt lat="43.62518" lon="1.31204">
        <ele>173.8</ele>
        <time>2024-03-27T16:31:16Z</time>
      </trkpt>
      <trkpt lat="43.62513" lon="1.31207">
        <ele>174</ele>
        <time>2024-03-27T16:31:17Z</time>
      </trkpt>
      <trkpt lat="43.62508" lon="1.3121">
        <ele>174</ele>
        <time>2024-03-27T16:31:18Z</time>
      </trkpt>
      <trkpt lat="43.62503" lon="1.31212">
        <ele>174.2</ele>
        <time>2024-03-27T16:31:19Z</time>
      </trkpt>
      <trkpt lat="43.62497" lon="1.31214">
        <ele>174.4</ele>
        <time>2024-03-27T16:31:20Z</time>
      </trkpt>
      <trkpt lat="43.62492" lon="1.31215">
        <ele>174.4</ele>
        <time>2024-03-27T16:31:21Z</time>
      </trkpt>
      <trkpt lat="43.62487" lon="1.31215">
        <ele>174.6</ele>
        <time>2024-03-27T16:31:22Z</time>
      </trkpt>
      <trkpt lat="43.62482" lon="1.31215">
        <ele>174.8</ele>
        <time>2024-03-27T16:31:23Z</time>
      </trkpt>
      <trkpt lat="43.62477" lon="1.31215">
        <ele>174.8</ele>
        <time>2024-03-27T16:31:24Z</time>
      </trkpt>
      <trkpt lat="43.62471" lon="1.31215">
        <ele>175</ele>
        <time>2024-03-27T16:31:25Z</time>
      </trkpt>
      <trkpt lat="43.62466" lon="1.31216">
        <ele>175.2</ele>
        <time>2024-03-27T16:31:26Z</time>
      </trkpt>
      <trkpt lat="43.6246" lon="1.31217">
        <ele>175.4</ele>
        <time>2024-03-27T16:31:27Z</time>
      </trkpt>
      <trkpt lat="43.62455" lon="1.31218">
        <ele>175.4</ele>
        <time>2024-03-27T16:31:28Z</time>
      </trkpt>
      <trkpt lat="43.62449" lon="1.3122">
        <ele>175.6</ele>
        <time>2024-03-27T16:31:29Z</time>
      </trkpt>
      <trkpt lat="43.62443" lon="1.31221">
        <ele>175.6</ele>
        <time>2024-03-27T16:31:30Z</time>
      </trkpt>
      <trkpt lat="43.62438" lon="1.31223">
        <ele>175.8</ele>
        <time>2024-03-27T16:31:31Z</time>
      </trkpt>
      <trkpt lat="43.62432" lon="1.31226">
        <ele>175.8</ele>
        <time>2024-03-27T16:31:32Z</time>
      </trkpt>
      <trkpt lat="43.62427" lon="1.31228">
        <ele>176</ele>
        <time>2024-03-27T16:31:33Z</time>
      </trkpt>
      <trkpt lat="43.62421" lon="1.3123">
        <ele>176</ele>
        <time>2024-03-27T16:31:34Z</time>
      </trkpt>
      <trkpt lat="43.62416" lon="1.31232">
        <ele>176</ele>
        <time>2024-03-27T16:31:35Z</time>
      </trkpt>
      <trkpt lat="43.6241" lon="1.31234">
        <ele>176</ele>
        <time>2024-03-27T16:31:36Z</time>
      </trkpt>
      <trkpt lat="43.62405" lon="1.31236">
        <ele>176</ele>
        <time>2024-03-27T16:31:37Z</time>
      </trkpt>
      <trkpt lat="43.62399" lon="1.31238">
        <ele>176</ele>
        <time>2024-03-27T16:31:38Z</time>
      </trkpt>
      <trkpt lat="43.62394" lon="1.3124">
        <ele>176</ele>
        <time>2024-03-27T16:31:39Z</time>
      </trkpt>
      <trkpt lat="43.62389" lon="1.31242">
        <ele>176.2</ele>
        <time>2024-03-27T16:31:40Z</time>
      </trkpt>
      <trkpt lat="43.62383" lon="1.31245">
        <ele>176.2</ele>
        <time>2024-03-27T16:31:41Z</time>
      </trkpt>
      <trkpt lat="43.62378" lon="1.31248">
        <ele>176</ele>
        <time>2024-03-27T16:31:42Z</time>
      </trkpt>
      <trkpt lat="43.62374" lon="1.31251">
        <ele>176</ele>
        <time>2024-03-27T16:31:43Z</time>
      </trkpt>
      <trkpt lat="43.62369" lon="1.31255">
        <ele>176</ele>
        <time>2024-03-27T16:31:44Z</time>
      </trkpt>
      <trkpt lat="43.62364" lon="1.31258">
        <ele>176</ele>
        <time>2024-03-27T16:31:45Z</time>
      </trkpt>
      <trkpt lat="43.6236" lon="1.31262">
        <ele>176</ele>
        <time>2024-03-27T16:31:46Z</time>
      </trkpt>
      <trkpt lat="43.62355" lon="1.31266">
        <ele>176</ele>
        <time>2024-03-27T16:31:47Z</time>
      </trkpt>
      <trkpt lat="43.62351" lon="1.3127">
        <ele>176</ele>
        <time>2024-03-27T16:31:48Z</time>
      </trkpt>
      <trkpt lat="43.62346" lon="1.31273">
        <ele>176.2</ele>
        <time>2024-03-27T16:31:49Z</time>
      </trkpt>
      <trkpt lat="43.62341" lon="1.31276">
        <ele>176.2</ele>
        <time>2024-03-27T16:31:50Z</time>
      </trkpt>
      <trkpt lat="43.62336" lon="1.31279">
        <ele>176.2</ele>
        <time>2024-03-27T16:31:51Z</time>
      </trkpt>
      <trkpt lat="43.62332" lon="1.31281">
        <ele>176.4</ele>
        <time>2024-03-27T16:31:52Z</time>
      </trkpt>
      <trkpt lat="43.62327" lon="1.31283">
        <ele>176.4</ele>
        <time>2024-03-27T16:31:53Z</time>
      </trkpt>
      <trkpt lat="43.62322" lon="1.31285">
        <ele>176.6</ele>
        <time>2024-03-27T16:31:54Z</time>
      </trkpt>
      <trkpt lat="43.62317" lon="1.31286">
        <ele>176.6</ele>
        <time>2024-03-27T16:31:55Z</time>
      </trkpt>
      <trkpt lat="43.62312" lon="1.31288">
        <ele>176.8</ele>
        <time>2024-03-27T16:31:56Z</time>
      </trkpt>
      <trkpt lat="43.62307" lon="1.31289">
        <ele>176.8</ele>
        <time>2024-03-27T16:31:57Z</time>
      </trkpt>
      <trkpt lat="43.62302" lon="1.31291">
        <ele>176.8</ele>
        <time>2024-03-27T16:31:58Z</time>
      </trkpt>
      <trkpt lat="43.62297" lon="1.31292">
        <ele>177</ele>
        <time>2024-03-27T16:31:59Z</time>
      </trkpt>
      <trkpt lat="43.62292" lon="1.31293">
        <ele>177</ele>
        <time>2024-03-27T16:32:00Z</time>
      </trkpt>
      <trkpt lat="43.62287" lon="1.31294">
        <ele>177</ele>
        <time>2024-03-27T16:32:01Z</time>
      </trkpt>
      <trkpt lat="43.62282" lon="1.31295">
        <ele>177.2</ele>
        <time>2024-03-27T16:32:02Z</time>
      </trkpt>
      <trkpt lat="43.62277" lon="1.31297">
        <ele>177.4</ele>
        <time>2024-03-27T16:32:03Z</time>
      </trkpt>
      <trkpt lat="43.62272" lon="1.31298">
        <ele>177.4</ele>
        <time>2024-03-27T16:32:04Z</time>
      </trkpt>
      <trkpt lat="43.62267" lon="1.313">
        <ele>177.6</ele>
        <time>2024-03-27T16:32:05Z</time>
      </trkpt>
      <trkpt lat="43.62261" lon="1.31303">
        <ele>177.6</ele>
        <time>2024-03-27T16:32:06Z</time>
      </trkpt>
      <trkpt lat="43.62256" lon="1.31305">
        <ele>178</ele>
        <time>2024-03-27T16:32:07Z</time>
      </trkpt>
      <trkpt lat="43.62251" lon="1.31307">
        <ele>178</ele>
        <time>2024-03-27T16:32:08Z</time>
      </trkpt>
      <trkpt lat="43.62246" lon="1.3131">
        <ele>178</ele>
        <time>2024-03-27T16:32:09Z</time>
      </trkpt>
      <trkpt lat="43.62241" lon="1.31312">
        <ele>178.2</ele>
        <time>2024-03-27T16:32:10Z</time>
      </trkpt>
      <trkpt lat="43.62236" lon="1.31314">
        <ele>178.2</ele>
        <time>2024-03-27T16:32:11Z</time>
      </trkpt>
      <trkpt lat="43.62231" lon="1.31317">
        <ele>178.2</ele>
        <time>2024-03-27T16:32:12Z</time>
      </trkpt>
      <trkpt lat="43.62226" lon="1.31319">
        <ele>178.4</ele>
        <time>2024-03-27T16:32:13Z</time>
      </trkpt>
      <trkpt lat="43.62221" lon="1.31321">
        <ele>178.4</ele>
        <time>2024-03-27T16:32:14Z</time>
      </trkpt>
      <trkpt lat="43.62215" lon="1.31323">
        <ele>178.2</ele>
        <time>2024-03-27T16:32:15Z</time>
      </trkpt>
      <trkpt lat="43.6221" lon="1.31325">
        <ele>178.6</ele>
        <time>2024-03-27T16:32:16Z</time>
      </trkpt>
      <trkpt lat="43.62205" lon="1.31327">
        <ele>178.6</ele>
        <time>2024-03-27T16:32:17Z</time>
      </trkpt>
      <trkpt lat="43.622" lon="1.31329">
        <ele>178.8</ele>
        <time>2024-03-27T16:32:18Z</time>
      </trkpt>
      <trkpt lat="43.62194" lon="1.31331">
        <ele>178.8</ele>
        <time>2024-03-27T16:32:19Z</time>
      </trkpt>
      <trkpt lat="43.62189" lon="1.31332">
        <ele>178.8</ele>
        <time>2024-03-27T16:32:20Z</time>
      </trkpt>
      <trkpt lat="43.62183" lon="1.31332">
        <ele>178.8</ele>
        <time>2024-03-27T16:32:21Z</time>
      </trkpt>
      <trkpt lat="43.62177" lon="1.31332">
        <ele>179</ele>
        <time>2024-03-27T16:32:22Z</time>
      </trkpt>
      <trkpt lat="43.62171" lon="1.31333">
        <ele>179</ele>
        <time>2024-03-27T16:32:23Z</time>
      </trkpt>
      <trkpt lat="43.62166" lon="1.31333">
        <ele>179</ele>
        <time>2024-03-27T16:32:24Z</time>
      </trkpt>
      <trkpt lat="43.62161" lon="1.31334">
        <ele>179</ele>
        <time>2024-03-27T16:32:25Z</time>
      </trkpt>
      <trkpt lat="43.62155" lon="1.31334">
        <ele>179</ele>
        <time>2024-03-27T16:32:26Z</time>
      </trkpt>
      <trkpt lat="43.6215" lon="1.31336">
        <ele>179</ele>
        <time>2024-03-27T16:32:27Z</time>
      </trkpt>
      <trkpt lat="43.62145" lon="1.31337">
        <ele>179.2</ele>
        <time>2024-03-27T16:32:28Z</time>
      </trkpt>
      <trkpt lat="43.6214" lon="1.31339">
        <ele>179.2</ele>
        <time>2024-03-27T16:32:29Z</time>
      </trkpt>
      <trkpt lat="43.62135" lon="1.31341">
        <ele>179.2</ele>
        <time>2024-03-27T16:32:30Z</time>
      </trkpt>
      <trkpt lat="43.6213" lon="1.31342">
        <ele>179.2</ele>
        <time>2024-03-27T16:32:31Z</time>
      </trkpt>
      <trkpt lat="43.62125" lon="1.31344">
        <ele>179.4</ele>
        <time>2024-03-27T16:32:32Z</time>
      </trkpt>
      <trkpt lat="43.6212" lon="1.31346">
        <ele>179.4</ele>
        <time>2024-03-27T16:32:33Z</time>
      </trkpt>
      <trkpt lat="43.62115" lon="1.31348">
        <ele>179.6</ele>
        <time>2024-03-27T16:32:34Z</time>
      </trkpt>
      <trkpt lat="43.62111" lon="1.3135">
        <ele>179.6</ele>
        <time>2024-03-27T16:32:35Z</time>
      </trkpt>
      <trkpt lat="43.62106" lon="1.31352">
        <ele>179.8</ele>
        <time>2024-03-27T16:32:36Z</time>
      </trkpt>
      <trkpt lat="43.62101" lon="1.31354">
        <ele>179.8</ele>
        <time>2024-03-27T16:32:37Z</time>
      </trkpt>
      <trkpt lat="43.62097" lon="1.31357">
        <ele>180</ele>
        <time>2024-03-27T16:32:38Z</time>
      </trkpt>
      <trkpt lat="43.62092" lon="1.31359">
        <ele>180</ele>
        <time>2024-03-27T16:32:39Z</time>
      </trkpt>
      <trkpt lat="43.62088" lon="1.31361">
        <ele>180</ele>
        <time>2024-03-27T16:32:40Z</time>
      </trkpt>
      <trkpt lat="43.62083" lon="1.31364">
        <ele>180</ele>
        <time>2024-03-27T16:32:41Z</time>
      </trkpt>
      <trkpt lat="43.62079" lon="1.31366">
        <ele>180</ele>
        <time>2024-03-27T16:32:42Z</time>
      </trkpt>
      <trkpt lat="43.62076" lon="1.31369">
        <ele>180</ele>
        <time>2024-03-27T16:32:43Z</time>
      </trkpt>
      <trkpt lat="43.62072" lon="1.31371">
        <ele>180.2</ele>
        <time>2024-03-27T16:32:44Z</time>
      </trkpt>
      <trkpt lat="43.62069" lon="1.31373">
        <ele>180.2</ele>
        <time>2024-03-27T16:32:45Z</time>
      </trkpt>
      <trkpt lat="43.62066" lon="1.31374">
        <ele>180.2</ele>
        <time>2024-03-27T16:32:46Z</time>
      </trkpt>
      <trkpt lat="43.62063" lon="1.31376">
        <ele>180.2</ele>
        <time>2024-03-27T16:32:47Z</time>
      </trkpt>
      <trkpt lat="43.6206" lon="1.31378">
        <ele>180.4</ele>
        <time>2024-03-27T16:32:48Z</time>
      </trkpt>
      <trkpt lat="43.62057" lon="1.31381">
        <ele>180.4</ele>
        <time>2024-03-27T16:32:49Z</time>
      </trkpt>
      <trkpt lat="43.62055" lon="1.31383">
        <ele>180.6</ele>
        <time>2024-03-27T16:32:50Z</time>
      </trkpt>
      <trkpt lat="43.62053" lon="1.31387">
        <ele>180.8</ele>
        <time>2024-03-27T16:32:51Z</time>
      </trkpt>
      <trkpt lat="43.62051" lon="1.31392">
        <ele>180.8</ele>
        <time>2024-03-27T16:32:52Z</time>
      </trkpt>
      <trkpt lat="43.6205" lon="1.31397">
        <ele>181</ele>
        <time>2024-03-27T16:32:53Z</time>
      </trkpt>
      <trkpt lat="43.62048" lon="1.31403">
        <ele>181</ele>
        <time>2024-03-27T16:32:54Z</time>
      </trkpt>
      <trkpt lat="43.62047" lon="1.31408">
        <ele>181</ele>
        <time>2024-03-27T16:32:55Z</time>
      </trkpt>
      <trkpt lat="43.62046" lon="1.31414">
        <ele>181</ele>
        <time>2024-03-27T16:32:56Z</time>
      </trkpt>
      <trkpt lat="43.62043" lon="1.31418">
        <ele>181</ele>
        <time>2024-03-27T16:32:57Z</time>
      </trkpt>
      <trkpt lat="43.6204" lon="1.31421">
        <ele>181.2</ele>
        <time>2024-03-27T16:32:58Z</time>
      </trkpt>
      <trkpt lat="43.62036" lon="1.31422">
        <ele>181.2</ele>
        <time>2024-03-27T16:32:59Z</time>
      </trkpt>
      <trkpt lat="43.62032" lon="1.31424">
        <ele>181.2</ele>
        <time>2024-03-27T16:33:00Z</time>
      </trkpt>
      <trkpt lat="43.62028" lon="1.31425">
        <ele>181.2</ele>
        <time>2024-03-27T16:33:01Z</time>
      </trkpt>
      <trkpt lat="43.62023" lon="1.31427">
        <ele>181.2</ele>
        <time>2024-03-27T16:33:02Z</time>
      </trkpt>
      <trkpt lat="43.62019" lon="1.31428">
        <ele>181.4</ele>
        <time>2024-03-27T16:33:03Z</time>
      </trkpt>
      <trkpt lat="43.62014" lon="1.31429">
        <ele>181.4</ele>
        <time>2024-03-27T16:33:04Z</time>
      </trkpt>
      <trkpt lat="43.62009" lon="1.3143">
        <ele>181.6</ele>
        <time>2024-03-27T16:33:05Z</time>
      </trkpt>
      <trkpt lat="43.62004" lon="1.31432">
        <ele>181.6</ele>
        <time>2024-03-27T16:33:06Z</time>
      </trkpt>
      <trkpt lat="43.61999" lon="1.31432">
        <ele>181.8</ele>
        <time>2024-03-27T16:33:07Z</time>
      </trkpt>
      <trkpt lat="43.61994" lon="1.31433">
        <ele>181.8</ele>
        <time>2024-03-27T16:33:08Z</time>
      </trkpt>
      <trkpt lat="43.61989" lon="1.31433">
        <ele>181.8</ele>
        <time>2024-03-27T16:33:09Z</time>
      </trkpt>
      <trkpt lat="43.61983" lon="1.31432">
        <ele>181.8</ele>
        <time>2024-03-27T16:33:10Z</time>
      </trkpt>
      <trkpt lat="43.61978" lon="1.31432">
        <ele>182</ele>
        <time>2024-03-27T16:33:11Z</time>
      </trkpt>
      <trkpt lat="43.61973" lon="1.31432">
        <ele>182</ele>
        <time>2024-03-27T16:33:12Z</time>
      </trkpt>
      <trkpt lat="43.61967" lon="1.31431">
        <ele>182</ele>
        <time>2024-03-27T16:33:13Z</time>
      </trkpt>
      <trkpt lat="43.61962" lon="1.31431">
        <ele>182</ele>
        <time>2024-03-27T16:33:14Z</time>
      </trkpt>
      <trkpt lat="43.61956" lon="1.31431">
        <ele>182</ele>
        <time>2024-03-27T16:33:15Z</time>
      </trkpt>
      <trkpt lat="43.61951" lon="1.31431">
        <ele>182</ele>
        <time>2024-03-27T16:33:16Z</time>
      </trkpt>
      <trkpt lat="43.61945" lon="1.31431">
        <ele>182</ele>
        <time>2024-03-27T16:33:17Z</time>
      </trkpt>
      <trkpt lat="43.61939" lon="1.31432">
        <ele>182</ele>
        <time>2024-03-27T16:33:18Z</time>
      </trkpt>
      <trkpt lat="43.61939" lon="1.31432">
        <ele>182.2</ele>
        <time>2024-03-27T16:33:19Z</time>
      </trkpt>
      <trkpt lat="43.61929" lon="1.31437">
        <ele>182.4</ele>
        <time>2024-03-27T16:33:20Z</time>
      </trkpt>
      <trkpt lat="43.61924" lon="1.3144">
        <ele>182.4</ele>
        <time>2024-03-27T16:33:21Z</time>
      </trkpt>
      <trkpt lat="43.61919" lon="1.31444">
        <ele>182.4</ele>
        <time>2024-03-27T16:33:22Z</time>
      </trkpt>
      <trkpt lat="43.61914" lon="1.31448">
        <ele>182.4</ele>
        <time>2024-03-27T16:33:23Z</time>
      </trkpt>
      <trkpt lat="43.61909" lon="1.31451">
        <ele>182.6</ele>
        <time>2024-03-27T16:33:24Z</time>
      </trkpt>
      <trkpt lat="43.61904" lon="1.31455">
        <ele>182.6</ele>
        <time>2024-03-27T16:33:25Z</time>
      </trkpt>
      <trkpt lat="43.619" lon="1.31458">
        <ele>182.6</ele>
        <time>2024-03-27T16:33:26Z</time>
      </trkpt>
      <trkpt lat="43.61895" lon="1.31462">
        <ele>182.6</ele>
        <time>2024-03-27T16:33:27Z</time>
      </trkpt>
      <trkpt lat="43.6189" lon="1.31465">
        <ele>182.6</ele>
        <time>2024-03-27T16:33:28Z</time>
      </trkpt>
      <trkpt lat="43.61885" lon="1.31468">
        <ele>182.8</ele>
        <time>2024-03-27T16:33:29Z</time>
      </trkpt>
      <trkpt lat="43.6188" lon="1.31471">
        <ele>182.8</ele>
        <time>2024-03-27T16:33:30Z</time>
      </trkpt>
      <trkpt lat="43.61875" lon="1.31473">
        <ele>183</ele>
        <time>2024-03-27T16:33:31Z</time>
      </trkpt>
      <trkpt lat="43.6187" lon="1.31476">
        <ele>183.2</ele>
        <time>2024-03-27T16:33:32Z</time>
      </trkpt>
      <trkpt lat="43.61865" lon="1.31479">
        <ele>183.2</ele>
        <time>2024-03-27T16:33:33Z</time>
      </trkpt>
      <trkpt lat="43.6186" lon="1.31481">
        <ele>183.2</ele>
        <time>2024-03-27T16:33:34Z</time>
      </trkpt>
      <trkpt lat="43.61855" lon="1.31484">
        <ele>183.2</ele>
        <time>2024-03-27T16:33:35Z</time>
      </trkpt>
      <trkpt lat="43.6185" lon="1.31487">
        <ele>183.4</ele>
        <time>2024-03-27T16:33:36Z</time>
      </trkpt>
      <trkpt lat="43.61845" lon="1.3149">
        <ele>183.6</ele>
        <time>2024-03-27T16:33:37Z</time>
      </trkpt>
      <trkpt lat="43.6184" lon="1.31492">
        <ele>183.6</ele>
        <time>2024-03-27T16:33:38Z</time>
      </trkpt>
      <trkpt lat="43.61835" lon="1.31495">
        <ele>183.8</ele>
        <time>2024-03-27T16:33:39Z</time>
      </trkpt>
      <trkpt lat="43.6183" lon="1.31498">
        <ele>184</ele>
        <time>2024-03-27T16:33:40Z</time>
      </trkpt>
      <trkpt lat="43.61825" lon="1.315">
        <ele>184.2</ele>
        <time>2024-03-27T16:33:41Z</time>
      </trkpt>
      <trkpt lat="43.6182" lon="1.31503">
        <ele>184.4</ele>
        <time>2024-03-27T16:33:42Z</time>
      </trkpt>
      <trkpt lat="43.61815" lon="1.31506">
        <ele>184.6</ele>
        <time>2024-03-27T16:33:43Z</time>
      </trkpt>
      <trkpt lat="43.6181" lon="1.31508">
        <ele>184.6</ele>
        <time>2024-03-27T16:33:44Z</time>
      </trkpt>
      <trkpt lat="43.61805" lon="1.3151">
        <ele>184.6</ele>
        <time>2024-03-27T16:33:45Z</time>
      </trkpt>
      <trkpt lat="43.618" lon="1.31512">
        <ele>184.8</ele>
        <time>2024-03-27T16:33:46Z</time>
      </trkpt>
      <trkpt lat="43.61795" lon="1.31514">
        <ele>185</ele>
        <time>2024-03-27T16:33:47Z</time>
      </trkpt>
      <trkpt lat="43.6179" lon="1.31516">
        <ele>185</ele>
        <time>2024-03-27T16:33:48Z</time>
      </trkpt>
      <trkpt lat="43.61786" lon="1.31518">
        <ele>185.2</ele>
        <time>2024-03-27T16:33:49Z</time>
      </trkpt>
      <trkpt lat="43.61781" lon="1.31521">
        <ele>185.2</ele>
        <time>2024-03-27T16:33:50Z</time>
      </trkpt>
      <trkpt lat="43.61777" lon="1.31523">
        <ele>185.4</ele>
        <time>2024-03-27T16:33:51Z</time>
      </trkpt>
      <trkpt lat="43.61773" lon="1.31524">
        <ele>185.6</ele>
        <time>2024-03-27T16:33:52Z</time>
      </trkpt>
      <trkpt lat="43.61769" lon="1.31525">
        <ele>185.6</ele>
        <time>2024-03-27T16:33:53Z</time>
      </trkpt>
      <trkpt lat="43.61766" lon="1.31526">
        <ele>185.8</ele>
        <time>2024-03-27T16:33:54Z</time>
      </trkpt>
      <trkpt lat="43.61761" lon="1.31528">
        <ele>185.8</ele>
        <time>2024-03-27T16:33:55Z</time>
      </trkpt>
      <trkpt lat="43.61757" lon="1.31529">
        <ele>185.6</ele>
        <time>2024-03-27T16:33:56Z</time>
      </trkpt>
      <trkpt lat="43.61752" lon="1.31529">
        <ele>185.6</ele>
        <time>2024-03-27T16:33:57Z</time>
      </trkpt>
      <trkpt lat="43.61747" lon="1.3153">
        <ele>185.6</ele>
        <time>2024-03-27T16:33:58Z</time>
      </trkpt>
      <trkpt lat="43.61742" lon="1.31531">
        <ele>185.6</ele>
        <time>2024-03-27T16:33:59Z</time>
      </trkpt>
      <trkpt lat="43.61737" lon="1.31533">
        <ele>185.6</ele>
        <time>2024-03-27T16:34:00Z</time>
      </trkpt>
      <trkpt lat="43.61733" lon="1.31535">
        <ele>185.6</ele>
        <time>2024-03-27T16:34:01Z</time>
      </trkpt>
      <trkpt lat="43.61729" lon="1.31537">
        <ele>185.6</ele>
        <time>2024-03-27T16:34:02Z</time>
      </trkpt>
      <trkpt lat="43.61725" lon="1.31538">
        <ele>185.6</ele>
        <time>2024-03-27T16:34:03Z</time>
      </trkpt>
      <trkpt lat="43.6172" lon="1.31539">
        <ele>185.6</ele>
        <time>2024-03-27T16:34:04Z</time>
      </trkpt>
      <trkpt lat="43.61715" lon="1.3154">
        <ele>185.6</ele>
        <time>2024-03-27T16:34:05Z</time>
      </trkpt>
      <trkpt lat="43.6171" lon="1.31541">
        <ele>185.6</ele>
        <time>2024-03-27T16:34:06Z</time>
      </trkpt>
      <trkpt lat="43.61704" lon="1.31542">
        <ele>185.4</ele>
        <time>2024-03-27T16:34:07Z</time>
      </trkpt>
      <trkpt lat="43.61698" lon="1.31543">
        <ele>185.6</ele>
        <time>2024-03-27T16:34:08Z</time>
      </trkpt>
      <trkpt lat="43.61693" lon="1.31545">
        <ele>185.6</ele>
        <time>2024-03-27T16:34:09Z</time>
      </trkpt>
      <trkpt lat="43.61689" lon="1.31547">
        <ele>185.6</ele>
        <time>2024-03-27T16:34:10Z</time>
      </trkpt>
      <trkpt lat="43.61684" lon="1.31549">
        <ele>185.6</ele>
        <time>2024-03-27T16:34:11Z</time>
      </trkpt>
      <trkpt lat="43.61679" lon="1.3155">
        <ele>185.8</ele>
        <time>2024-03-27T16:34:12Z</time>
      </trkpt>
      <trkpt lat="43.61675" lon="1.31551">
        <ele>185.8</ele>
        <time>2024-03-27T16:34:13Z</time>
      </trkpt>
      <trkpt lat="43.61671" lon="1.31552">
        <ele>186</ele>
        <time>2024-03-27T16:34:14Z</time>
      </trkpt>
      <trkpt lat="43.61666" lon="1.31554">
        <ele>186</ele>
        <time>2024-03-27T16:34:15Z</time>
      </trkpt>
      <trkpt lat="43.61661" lon="1.31555">
        <ele>186.2</ele>
        <time>2024-03-27T16:34:16Z</time>
      </trkpt>
      <trkpt lat="43.61656" lon="1.31557">
        <ele>186.4</ele>
        <time>2024-03-27T16:34:17Z</time>
      </trkpt>
      <trkpt lat="43.61651" lon="1.31559">
        <ele>186.4</ele>
        <time>2024-03-27T16:34:18Z</time>
      </trkpt>
      <trkpt lat="43.61651" lon="1.31559">
        <ele>186.6</ele>
        <time>2024-03-27T16:34:19Z</time>
      </trkpt>
      <trkpt lat="43.61644" lon="1.31567">
        <ele>186.8</ele>
        <time>2024-03-27T16:34:20Z</time>
      </trkpt>
      <trkpt lat="43.61639" lon="1.3157">
        <ele>186.8</ele>
        <time>2024-03-27T16:34:21Z</time>
      </trkpt>
      <trkpt lat="43.61635" lon="1.31574">
        <ele>186.8</ele>
        <time>2024-03-27T16:34:22Z</time>
      </trkpt>
      <trkpt lat="43.6163" lon="1.31577">
        <ele>187</ele>
        <time>2024-03-27T16:34:23Z</time>
      </trkpt>
      <trkpt lat="43.61626" lon="1.31581">
        <ele>187</ele>
        <time>2024-03-27T16:34:24Z</time>
      </trkpt>
      <trkpt lat="43.61622" lon="1.31585">
        <ele>187.2</ele>
        <time>2024-03-27T16:34:25Z</time>
      </trkpt>
      <trkpt lat="43.61617" lon="1.31588">
        <ele>187.2</ele>
        <time>2024-03-27T16:34:26Z</time>
      </trkpt>
      <trkpt lat="43.61613" lon="1.31592">
        <ele>187.2</ele>
        <time>2024-03-27T16:34:27Z</time>
      </trkpt>
      <trkpt lat="43.61609" lon="1.31596">
        <ele>187.4</ele>
        <time>2024-03-27T16:34:28Z</time>
      </trkpt>
      <trkpt lat="43.61605" lon="1.31601">
        <ele>187.4</ele>
        <time>2024-03-27T16:34:29Z</time>
      </trkpt>
      <trkpt lat="43.616" lon="1.31605">
        <ele>187.4</ele>
        <time>2024-03-27T16:34:30Z</time>
      </trkpt>
      <trkpt lat="43.61596" lon="1.31609">
        <ele>187.4</ele>
        <time>2024-03-27T16:34:31Z</time>
      </trkpt>
      <trkpt lat="43.61592" lon="1.31613">
        <ele>187.6</ele>
        <time>2024-03-27T16:34:32Z</time>
      </trkpt>
      <trkpt lat="43.61587" lon="1.31616">
        <ele>187.6</ele>
        <time>2024-03-27T16:34:33Z</time>
      </trkpt>
      <trkpt lat="43.61583" lon="1.31619">
        <ele>187.6</ele>
        <time>2024-03-27T16:34:34Z</time>
      </trkpt>
      <trkpt lat="43.61578" lon="1.31622">
        <ele>187.6</ele>
        <time>2024-03-27T16:34:35Z</time>
      </trkpt>
      <trkpt lat="43.61573" lon="1.31625">
        <ele>187.8</ele>
        <time>2024-03-27T16:34:36Z</time>
      </trkpt>
      <trkpt lat="43.61567" lon="1.31628">
        <ele>187.8</ele>
        <time>2024-03-27T16:34:37Z</time>
      </trkpt>
      <trkpt lat="43.61562" lon="1.31631">
        <ele>187.8</ele>
        <time>2024-03-27T16:34:38Z</time>
      </trkpt>
      <trkpt lat="43.61556" lon="1.31634">
        <ele>187.8</ele>
        <time>2024-03-27T16:34:39Z</time>
      </trkpt>
      <trkpt lat="43.61551" lon="1.31638">
        <ele>188</ele>
        <time>2024-03-27T16:34:40Z</time>
      </trkpt>
      <trkpt lat="43.61547" lon="1.31641">
        <ele>188.2</ele>
        <time>2024-03-27T16:34:41Z</time>
      </trkpt>
      <trkpt lat="43.61543" lon="1.31643">
        <ele>188.2</ele>
        <time>2024-03-27T16:34:42Z</time>
      </trkpt>
      <trkpt lat="43.61538" lon="1.31645">
        <ele>188.2</ele>
        <time>2024-03-27T16:34:43Z</time>
      </trkpt>
      <trkpt lat="43.61533" lon="1.31647">
        <ele>188.4</ele>
        <time>2024-03-27T16:34:44Z</time>
      </trkpt>
      <trkpt lat="43.61529" lon="1.31648">
        <ele>188.4</ele>
        <time>2024-03-27T16:34:45Z</time>
      </trkpt>
      <trkpt lat="43.61529" lon="1.31648">
        <ele>188.4</ele>
        <time>2024-03-27T16:34:46Z</time>
      </trkpt>
      <trkpt lat="43.6152" lon="1.31652">
        <ele>188.8</ele>
        <time>2024-03-27T16:34:47Z</time>
      </trkpt>
      <trkpt lat="43.61516" lon="1.31654">
        <ele>188.4</ele>
        <time>2024-03-27T16:34:48Z</time>
      </trkpt>
      <trkpt lat="43.61513" lon="1.31656">
        <ele>188.4</ele>
        <time>2024-03-27T16:34:49Z</time>
      </trkpt>
      <trkpt lat="43.6151" lon="1.31657">
        <ele>188.4</ele>
        <time>2024-03-27T16:34:50Z</time>
      </trkpt>
      <trkpt lat="43.61507" lon="1.31658">
        <ele>188.4</ele>
        <time>2024-03-27T16:34:51Z</time>
      </trkpt>
      <trkpt lat="43.61505" lon="1.3166">
        <ele>188.4</ele>
        <time>2024-03-27T16:34:52Z</time>
      </trkpt>
      <trkpt lat="43.61503" lon="1.31663">
        <ele>188.4</ele>
        <time>2024-03-27T16:34:53Z</time>
      </trkpt>
      <trkpt lat="43.61501" lon="1.31666">
        <ele>188.4</ele>
        <time>2024-03-27T16:34:54Z</time>
      </trkpt>
      <trkpt lat="43.61498" lon="1.3167">
        <ele>188.4</ele>
        <time>2024-03-27T16:34:55Z</time>
      </trkpt>
      <trkpt lat="43.61495" lon="1.31673">
        <ele>188.4</ele>
        <time>2024-03-27T16:34:56Z</time>
      </trkpt>
      <trkpt lat="43.61492" lon="1.31676">
        <ele>188.4</ele>
        <time>2024-03-27T16:34:57Z</time>
      </trkpt>
      <trkpt lat="43.61488" lon="1.31679">
        <ele>188.4</ele>
        <time>2024-03-27T16:34:58Z</time>
      </trkpt>
      <trkpt lat="43.61485" lon="1.31683">
        <ele>188.4</ele>
        <time>2024-03-27T16:34:59Z</time>
      </trkpt>
      <trkpt lat="43.61483" lon="1.31687">
        <ele>188.4</ele>
        <time>2024-03-27T16:35:00Z</time>
      </trkpt>
      <trkpt lat="43.61481" lon="1.31692">
        <ele>188.4</ele>
        <time>2024-03-27T16:35:01Z</time>
      </trkpt>
      <trkpt lat="43.61479" lon="1.31697">
        <ele>188.4</ele>
        <time>2024-03-27T16:35:02Z</time>
      </trkpt>
      <trkpt lat="43.61478" lon="1.31703">
        <ele>188.4</ele>
        <time>2024-03-27T16:35:03Z</time>
      </trkpt>
      <trkpt lat="43.61476" lon="1.31708">
        <ele>188.4</ele>
        <time>2024-03-27T16:35:04Z</time>
      </trkpt>
      <trkpt lat="43.61475" lon="1.31713">
        <ele>188.8</ele>
        <time>2024-03-27T16:35:05Z</time>
      </trkpt>
      <trkpt lat="43.61473" lon="1.31718">
        <ele>189</ele>
        <time>2024-03-27T16:35:06Z</time>
      </trkpt>
      <trkpt lat="43.61473" lon="1.31724">
        <ele>189</ele>
        <time>2024-03-27T16:35:07Z</time>
      </trkpt>
      <trkpt lat="43.61472" lon="1.31729">
        <ele>189.2</ele>
        <time>2024-03-27T16:35:08Z</time>
      </trkpt>
      <trkpt lat="43.6147" lon="1.31735">
        <ele>189.2</ele>
        <time>2024-03-27T16:35:09Z</time>
      </trkpt>
      <trkpt lat="43.61469" lon="1.3174">
        <ele>189.4</ele>
        <time>2024-03-27T16:35:10Z</time>
      </trkpt>
      <trkpt lat="43.61467" lon="1.31745">
        <ele>189.4</ele>
        <time>2024-03-27T16:35:11Z</time>
      </trkpt>
      <trkpt lat="43.61466" lon="1.3175">
        <ele>189.4</ele>
        <time>2024-03-27T16:35:12Z</time>
      </trkpt>
      <trkpt lat="43.61465" lon="1.31755">
        <ele>189.6</ele>
        <time>2024-03-27T16:35:13Z</time>
      </trkpt>
      <trkpt lat="43.61463" lon="1.3176">
        <ele>189.6</ele>
        <time>2024-03-27T16:35:14Z</time>
      </trkpt>
      <trkpt lat="43.61462" lon="1.31765">
        <ele>189.8</ele>
        <time>2024-03-27T16:35:15Z</time>
      </trkpt>
      <trkpt lat="43.61461" lon="1.31769">
        <ele>189.8</ele>
        <time>2024-03-27T16:35:16Z</time>
      </trkpt>
      <trkpt lat="43.6146" lon="1.31774">
        <ele>190.4</ele>
        <time>2024-03-27T16:35:17Z</time>
      </trkpt>
      <trkpt lat="43.61458" lon="1.31779">
        <ele>190.8</ele>
        <time>2024-03-27T16:35:18Z</time>
      </trkpt>
      <trkpt lat="43.61457" lon="1.31784">
        <ele>190.8</ele>
        <time>2024-03-27T16:35:19Z</time>
      </trkpt>
      <trkpt lat="43.61455" lon="1.31788">
        <ele>191.2</ele>
        <time>2024-03-27T16:35:20Z</time>
      </trkpt>
      <trkpt lat="43.61454" lon="1.31793">
        <ele>191</ele>
        <time>2024-03-27T16:35:21Z</time>
      </trkpt>
      <trkpt lat="43.61452" lon="1.31798">
        <ele>191.6</ele>
        <time>2024-03-27T16:35:22Z</time>
      </trkpt>
      <trkpt lat="43.61451" lon="1.31803">
        <ele>191.6</ele>
        <time>2024-03-27T16:35:23Z</time>
      </trkpt>
      <trkpt lat="43.61449" lon="1.31809">
        <ele>192</ele>
        <time>2024-03-27T16:35:24Z</time>
      </trkpt>
      <trkpt lat="43.61448" lon="1.31814">
        <ele>192.2</ele>
        <time>2024-03-27T16:35:25Z</time>
      </trkpt>
      <trkpt lat="43.61446" lon="1.31819">
        <ele>192.4</ele>
        <time>2024-03-27T16:35:26Z</time>
      </trkpt>
      <trkpt lat="43.61445" lon="1.31824">
        <ele>192.6</ele>
        <time>2024-03-27T16:35:27Z</time>
      </trkpt>
      <trkpt lat="43.61444" lon="1.31829">
        <ele>192.8</ele>
        <time>2024-03-27T16:35:28Z</time>
      </trkpt>
      <trkpt lat="43.61443" lon="1.31834">
        <ele>193</ele>
        <time>2024-03-27T16:35:29Z</time>
      </trkpt>
      <trkpt lat="43.61441" lon="1.31838">
        <ele>193.2</ele>
        <time>2024-03-27T16:35:30Z</time>
      </trkpt>
      <trkpt lat="43.6144" lon="1.31843">
        <ele>193.4</ele>
        <time>2024-03-27T16:35:31Z</time>
      </trkpt>
      <trkpt lat="43.61438" lon="1.31846">
        <ele>193.6</ele>
        <time>2024-03-27T16:35:32Z</time>
      </trkpt>
      <trkpt lat="43.61435" lon="1.3185">
        <ele>194</ele>
        <time>2024-03-27T16:35:33Z</time>
      </trkpt>
      <trkpt lat="43.61433" lon="1.31854">
        <ele>194</ele>
        <time>2024-03-27T16:35:34Z</time>
      </trkpt>
      <trkpt lat="43.61432" lon="1.31859">
        <ele>194.2</ele>
        <time>2024-03-27T16:35:35Z</time>
      </trkpt>
      <trkpt lat="43.61431" lon="1.31865">
        <ele>194.6</ele>
        <time>2024-03-27T16:35:36Z</time>
      </trkpt>
      <trkpt lat="43.6143" lon="1.3187">
        <ele>194.8</ele>
        <time>2024-03-27T16:35:37Z</time>
      </trkpt>
      <trkpt lat="43.61429" lon="1.31875">
        <ele>195</ele>
        <time>2024-03-27T16:35:38Z</time>
      </trkpt>
      <trkpt lat="43.61428" lon="1.3188">
        <ele>195.2</ele>
        <time>2024-03-27T16:35:39Z</time>
      </trkpt>
      <trkpt lat="43.61427" lon="1.31886">
        <ele>195.4</ele>
        <time>2024-03-27T16:35:40Z</time>
      </trkpt>
      <trkpt lat="43.61426" lon="1.31891">
        <ele>195.6</ele>
        <time>2024-03-27T16:35:41Z</time>
      </trkpt>
      <trkpt lat="43.61425" lon="1.31897">
        <ele>195.8</ele>
        <time>2024-03-27T16:35:42Z</time>
      </trkpt>
      <trkpt lat="43.61423" lon="1.31902">
        <ele>196</ele>
        <time>2024-03-27T16:35:43Z</time>
      </trkpt>
      <trkpt lat="43.61422" lon="1.31908">
        <ele>196</ele>
        <time>2024-03-27T16:35:44Z</time>
      </trkpt>
      <trkpt lat="43.61421" lon="1.31912">
        <ele>196.2</ele>
        <time>2024-03-27T16:35:45Z</time>
      </trkpt>
      <trkpt lat="43.6142" lon="1.31916">
        <ele>196.2</ele>
        <time>2024-03-27T16:35:46Z</time>
      </trkpt>
      <trkpt lat="43.61419" lon="1.31919">
        <ele>196.4</ele>
        <time>2024-03-27T16:35:47Z</time>
      </trkpt>
      <trkpt lat="43.61417" lon="1.31921">
        <ele>196.4</ele>
        <time>2024-03-27T16:35:48Z</time>
      </trkpt>
      <trkpt lat="43.61415" lon="1.31921">
        <ele>196.4</ele>
        <time>2024-03-27T16:35:49Z</time>
      </trkpt>
      <trkpt lat="43.61412" lon="1.31922">
        <ele>196.6</ele>
        <time>2024-03-27T16:35:50Z</time>
      </trkpt>
      <trkpt lat="43.61409" lon="1.31923">
        <ele>196.6</ele>
        <time>2024-03-27T16:35:51Z</time>
      </trkpt>
      <trkpt lat="43.61405" lon="1.31924">
        <ele>196.6</ele>
        <time>2024-03-27T16:35:52Z</time>
      </trkpt>
      <trkpt lat="43.614" lon="1.31926">
        <ele>196.6</ele>
        <time>2024-03-27T16:35:53Z</time>
      </trkpt>
      <trkpt lat="43.61395" lon="1.31929">
        <ele>196.6</ele>
        <time>2024-03-27T16:35:54Z</time>
      </trkpt>
      <trkpt lat="43.61391" lon="1.31933">
        <ele>196.6</ele>
        <time>2024-03-27T16:35:55Z</time>
      </trkpt>
      <trkpt lat="43.61388" lon="1.31938">
        <ele>196.6</ele>
        <time>2024-03-27T16:35:56Z</time>
      </trkpt>
      <trkpt lat="43.61385" lon="1.31943">
        <ele>196.6</ele>
        <time>2024-03-27T16:35:57Z</time>
      </trkpt>
      <trkpt lat="43.61382" lon="1.31947">
        <ele>196.6</ele>
        <time>2024-03-27T16:35:58Z</time>
      </trkpt>
      <trkpt lat="43.6138" lon="1.31951">
        <ele>196.6</ele>
        <time>2024-03-27T16:35:59Z</time>
      </trkpt>
      <trkpt lat="43.6138" lon="1.31956">
        <ele>196.6</ele>
        <time>2024-03-27T16:36:00Z</time>
      </trkpt>
      <trkpt lat="43.61378" lon="1.31962">
        <ele>196.6</ele>
        <time>2024-03-27T16:36:01Z</time>
      </trkpt>
      <trkpt lat="43.61377" lon="1.31969">
        <ele>196.6</ele>
        <time>2024-03-27T16:36:02Z</time>
      </trkpt>
      <trkpt lat="43.61376" lon="1.31974">
        <ele>196.6</ele>
        <time>2024-03-27T16:36:03Z</time>
      </trkpt>
      <trkpt lat="43.61375" lon="1.31981">
        <ele>196.6</ele>
        <time>2024-03-27T16:36:04Z</time>
      </trkpt>
      <trkpt lat="43.61375" lon="1.31987">
        <ele>196.6</ele>
        <time>2024-03-27T16:36:05Z</time>
      </trkpt>
      <trkpt lat="43.61373" lon="1.31994">
        <ele>196.6</ele>
        <time>2024-03-27T16:36:06Z</time>
      </trkpt>
      <trkpt lat="43.61372" lon="1.32">
        <ele>196.6</ele>
        <time>2024-03-27T16:36:07Z</time>
      </trkpt>
      <trkpt lat="43.61369" lon="1.32005">
        <ele>196.6</ele>
        <time>2024-03-27T16:36:08Z</time>
      </trkpt>
      <trkpt lat="43.61367" lon="1.32012">
        <ele>196.8</ele>
        <time>2024-03-27T16:36:09Z</time>
      </trkpt>
      <trkpt lat="43.61366" lon="1.32019">
        <ele>196.8</ele>
        <time>2024-03-27T16:36:10Z</time>
      </trkpt>
      <trkpt lat="43.61364" lon="1.32025">
        <ele>196.8</ele>
        <time>2024-03-27T16:36:11Z</time>
      </trkpt>
      <trkpt lat="43.61362" lon="1.32031">
        <ele>197</ele>
        <time>2024-03-27T16:36:12Z</time>
      </trkpt>
      <trkpt lat="43.6136" lon="1.32037">
        <ele>197</ele>
        <time>2024-03-27T16:36:13Z</time>
      </trkpt>
      <trkpt lat="43.61358" lon="1.32043">
        <ele>197.2</ele>
        <time>2024-03-27T16:36:14Z</time>
      </trkpt>
      <trkpt lat="43.61356" lon="1.3205">
        <ele>197.4</ele>
        <time>2024-03-27T16:36:15Z</time>
      </trkpt>
      <trkpt lat="43.61354" lon="1.32056">
        <ele>197.4</ele>
        <time>2024-03-27T16:36:16Z</time>
      </trkpt>
      <trkpt lat="43.61352" lon="1.32063">
        <ele>197.4</ele>
        <time>2024-03-27T16:36:17Z</time>
      </trkpt>
      <trkpt lat="43.6135" lon="1.32069">
        <ele>197.6</ele>
        <time>2024-03-27T16:36:18Z</time>
      </trkpt>
      <trkpt lat="43.61348" lon="1.32075">
        <ele>197.6</ele>
        <time>2024-03-27T16:36:19Z</time>
      </trkpt>
      <trkpt lat="43.61346" lon="1.32082">
        <ele>197.8</ele>
        <time>2024-03-27T16:36:20Z</time>
      </trkpt>
      <trkpt lat="43.61344" lon="1.32088">
        <ele>198</ele>
        <time>2024-03-27T16:36:21Z</time>
      </trkpt>
      <trkpt lat="43.61342" lon="1.32094">
        <ele>198</ele>
        <time>2024-03-27T16:36:22Z</time>
      </trkpt>
      <trkpt lat="43.6134" lon="1.321">
        <ele>198.2</ele>
        <time>2024-03-27T16:36:23Z</time>
      </trkpt>
      <trkpt lat="43.61338" lon="1.32107">
        <ele>198.2</ele>
        <time>2024-03-27T16:36:24Z</time>
      </trkpt>
      <trkpt lat="43.61337" lon="1.32112">
        <ele>198.2</ele>
        <time>2024-03-27T16:36:25Z</time>
      </trkpt>
      <trkpt lat="43.61335" lon="1.32118">
        <ele>198.2</ele>
        <time>2024-03-27T16:36:26Z</time>
      </trkpt>
      <trkpt lat="43.61333" lon="1.32125">
        <ele>198.4</ele>
        <time>2024-03-27T16:36:27Z</time>
      </trkpt>
      <trkpt lat="43.61332" lon="1.32131">
        <ele>198.4</ele>
        <time>2024-03-27T16:36:28Z</time>
      </trkpt>
      <trkpt lat="43.61332" lon="1.32137">
        <ele>198.4</ele>
        <time>2024-03-27T16:36:29Z</time>
      </trkpt>
      <trkpt lat="43.61332" lon="1.32144">
        <ele>198.4</ele>
        <time>2024-03-27T16:36:30Z</time>
      </trkpt>
      <trkpt lat="43.61331" lon="1.3215">
        <ele>198.4</ele>
        <time>2024-03-27T16:36:31Z</time>
      </trkpt>
      <trkpt lat="43.6133" lon="1.32158">
        <ele>198.6</ele>
        <time>2024-03-27T16:36:32Z</time>
      </trkpt>
      <trkpt lat="43.61329" lon="1.32165">
        <ele>198.6</ele>
        <time>2024-03-27T16:36:33Z</time>
      </trkpt>
      <trkpt lat="43.61328" lon="1.32172">
        <ele>198.6</ele>
        <time>2024-03-27T16:36:34Z</time>
      </trkpt>
      <trkpt lat="43.61327" lon="1.32179">
        <ele>198.6</ele>
        <time>2024-03-27T16:36:35Z</time>
      </trkpt>
      <trkpt lat="43.61326" lon="1.32186">
        <ele>198.6</ele>
        <time>2024-03-27T16:36:36Z</time>
      </trkpt>
      <trkpt lat="43.61324" lon="1.32193">
        <ele>198.6</ele>
        <time>2024-03-27T16:36:37Z</time>
      </trkpt>
      <trkpt lat="43.61322" lon="1.32198">
        <ele>198.6</ele>
        <time>2024-03-27T16:36:38Z</time>
      </trkpt>
      <trkpt lat="43.61321" lon="1.32202">
        <ele>198.6</ele>
        <time>2024-03-27T16:36:39Z</time>
      </trkpt>
      <trkpt lat="43.6132" lon="1.32207">
        <ele>198.6</ele>
        <time>2024-03-27T16:36:40Z</time>
      </trkpt>
      <trkpt lat="43.61319" lon="1.3221">
        <ele>198.6</ele>
        <time>2024-03-27T16:36:41Z</time>
      </trkpt>
      <trkpt lat="43.61319" lon="1.32214">
        <ele>198.6</ele>
        <time>2024-03-27T16:36:42Z</time>
      </trkpt>
      <trkpt lat="43.61317" lon="1.32216">
        <ele>198.6</ele>
        <time>2024-03-27T16:36:43Z</time>
      </trkpt>
      <trkpt lat="43.61316" lon="1.32219">
        <ele>198.6</ele>
        <time>2024-03-27T16:36:44Z</time>
      </trkpt>
      <trkpt lat="43.61314" lon="1.32221">
        <ele>198.6</ele>
        <time>2024-03-27T16:36:45Z</time>
      </trkpt>
      <trkpt lat="43.61313" lon="1.32223">
        <ele>198.6</ele>
        <time>2024-03-27T16:36:46Z</time>
      </trkpt>
      <trkpt lat="43.61313" lon="1.32227">
        <ele>198.6</ele>
        <time>2024-03-27T16:36:47Z</time>
      </trkpt>
      <trkpt lat="43.61313" lon="1.3223">
        <ele>198.6</ele>
        <time>2024-03-27T16:36:48Z</time>
      </trkpt>
      <trkpt lat="43.61313" lon="1.32232">
        <ele>198.6</ele>
        <time>2024-03-27T16:36:49Z</time>
      </trkpt>
      <trkpt lat="43.61313" lon="1.32234">
        <ele>198.4</ele>
        <time>2024-03-27T16:36:50Z</time>
      </trkpt>
      <trkpt lat="43.61312" lon="1.32234">
        <ele>198.4</ele>
        <time>2024-03-27T16:36:51Z</time>
      </trkpt>
      <trkpt lat="43.61312" lon="1.32234">
        <ele>198.2</ele>
        <time>2024-03-27T16:36:52Z</time>
      </trkpt>
      <trkpt lat="43.61312" lon="1.32234">
        <ele>198.2</ele>
        <time>2024-03-27T16:36:53Z</time>
      </trkpt>
      <trkpt lat="43.61307" lon="1.32237">
        <ele>198</ele>
        <time>2024-03-27T16:36:57Z</time>
      </trkpt>
      <trkpt lat="43.61304" lon="1.32239">
        <ele>198</ele>
        <time>2024-03-27T16:36:58Z</time>
      </trkpt>
      <trkpt lat="43.61303" lon="1.32242">
        <ele>198</ele>
        <time>2024-03-27T16:36:59Z</time>
      </trkpt>
      <trkpt lat="43.61302" lon="1.32246">
        <ele>198</ele>
        <time>2024-03-27T16:37:00Z</time>
      </trkpt>
      <trkpt lat="43.61302" lon="1.3225">
        <ele>198</ele>
        <time>2024-03-27T16:37:01Z</time>
      </trkpt>
      <trkpt lat="43.61303" lon="1.32254">
        <ele>198</ele>
        <time>2024-03-27T16:37:02Z</time>
      </trkpt>
      <trkpt lat="43.61303" lon="1.32259">
        <ele>198</ele>
        <time>2024-03-27T16:37:03Z</time>
      </trkpt>
      <trkpt lat="43.61302" lon="1.32263">
        <ele>198</ele>
        <time>2024-03-27T16:37:04Z</time>
      </trkpt>
      <trkpt lat="43.613" lon="1.32266">
        <ele>198</ele>
        <time>2024-03-27T16:37:05Z</time>
      </trkpt>
      <trkpt lat="43.61297" lon="1.32267">
        <ele>197.8</ele>
        <time>2024-03-27T16:37:06Z</time>
      </trkpt>
      <trkpt lat="43.61294" lon="1.32266">
        <ele>197.8</ele>
        <time>2024-03-27T16:37:07Z</time>
      </trkpt>
      <trkpt lat="43.61291" lon="1.32265">
        <ele>197.8</ele>
        <time>2024-03-27T16:37:08Z</time>
      </trkpt>
      <trkpt lat="43.61287" lon="1.32263">
        <ele>197.8</ele>
        <time>2024-03-27T16:37:09Z</time>
      </trkpt>
      <trkpt lat="43.61283" lon="1.32261">
        <ele>197.8</ele>
        <time>2024-03-27T16:37:10Z</time>
      </trkpt>
      <trkpt lat="43.61279" lon="1.32259">
        <ele>198</ele>
        <time>2024-03-27T16:37:11Z</time>
      </trkpt>
      <trkpt lat="43.61276" lon="1.32257">
        <ele>197.8</ele>
        <time>2024-03-27T16:37:12Z</time>
      </trkpt>
      <trkpt lat="43.61272" lon="1.32256">
        <ele>197.8</ele>
        <time>2024-03-27T16:37:13Z</time>
      </trkpt>
      <trkpt lat="43.61268" lon="1.32254">
        <ele>197.8</ele>
        <time>2024-03-27T16:37:14Z</time>
      </trkpt>
      <trkpt lat="43.61265" lon="1.32253">
        <ele>197.8</ele>
        <time>2024-03-27T16:37:15Z</time>
      </trkpt>
      <trkpt lat="43.61261" lon="1.32251">
        <ele>197.8</ele>
        <time>2024-03-27T16:37:16Z</time>
      </trkpt>
      <trkpt lat="43.61257" lon="1.32249">
        <ele>198</ele>
        <time>2024-03-27T16:37:17Z</time>
      </trkpt>
      <trkpt lat="43.61252" lon="1.32247">
        <ele>198</ele>
        <time>2024-03-27T16:37:18Z</time>
      </trkpt>
      <trkpt lat="43.61248" lon="1.32245">
        <ele>198</ele>
        <time>2024-03-27T16:37:19Z</time>
      </trkpt>
      <trkpt lat="43.61244" lon="1.32243">
        <ele>197.8</ele>
        <time>2024-03-27T16:37:20Z</time>
      </trkpt>
      <trkpt lat="43.6124" lon="1.3224">
        <ele>197.8</ele>
        <time>2024-03-27T16:37:21Z</time>
      </trkpt>
      <trkpt lat="43.61238" lon="1.32235">
        <ele>197.8</ele>
        <time>2024-03-27T16:37:22Z</time>
      </trkpt>
      <trkpt lat="43.61238" lon="1.3223">
        <ele>197.8</ele>
        <time>2024-03-27T16:37:23Z</time>
      </trkpt>
      <trkpt lat="43.61238" lon="1.32224">
        <ele>197.8</ele>
        <time>2024-03-27T16:37:24Z</time>
      </trkpt>
      <trkpt lat="43.61239" lon="1.32219">
        <ele>197.8</ele>
        <time>2024-03-27T16:37:25Z</time>
      </trkpt>
      <trkpt lat="43.6124" lon="1.32213">
        <ele>197.8</ele>
        <time>2024-03-27T16:37:26Z</time>
      </trkpt>
      <trkpt lat="43.61241" lon="1.32207">
        <ele>197.8</ele>
        <time>2024-03-27T16:37:27Z</time>
      </trkpt>
      <trkpt lat="43.61243" lon="1.322">
        <ele>197.8</ele>
        <time>2024-03-27T16:37:28Z</time>
      </trkpt>
      <trkpt lat="43.61243" lon="1.32194">
        <ele>197.8</ele>
        <time>2024-03-27T16:37:29Z</time>
      </trkpt>
      <trkpt lat="43.61242" lon="1.32188">
        <ele>197.8</ele>
        <time>2024-03-27T16:37:30Z</time>
      </trkpt>
      <trkpt lat="43.61241" lon="1.32183">
        <ele>197.8</ele>
        <time>2024-03-27T16:37:31Z</time>
      </trkpt>
      <trkpt lat="43.61239" lon="1.32179">
        <ele>197.8</ele>
        <time>2024-03-27T16:37:32Z</time>
      </trkpt>
      <trkpt lat="43.61238" lon="1.32173">
        <ele>197.6</ele>
        <time>2024-03-27T16:37:33Z</time>
      </trkpt>
      <trkpt lat="43.61238" lon="1.32167">
        <ele>197.6</ele>
        <time>2024-03-27T16:37:34Z</time>
      </trkpt>
      <trkpt lat="43.61238" lon="1.32159">
        <ele>197.6</ele>
        <time>2024-03-27T16:37:35Z</time>
      </trkpt>
      <trkpt lat="43.61239" lon="1.32151">
        <ele>197.6</ele>
        <time>2024-03-27T16:37:36Z</time>
      </trkpt>
      <trkpt lat="43.61241" lon="1.32143">
        <ele>197.6</ele>
        <time>2024-03-27T16:37:37Z</time>
      </trkpt>
      <trkpt lat="43.61242" lon="1.32134">
        <ele>197.4</ele>
        <time>2024-03-27T16:37:38Z</time>
      </trkpt>
      <trkpt lat="43.61244" lon="1.32125">
        <ele>197.4</ele>
        <time>2024-03-27T16:37:39Z</time>
      </trkpt>
      <trkpt lat="43.61244" lon="1.32116">
        <ele>197.2</ele>
        <time>2024-03-27T16:37:40Z</time>
      </trkpt>
      <trkpt lat="43.61244" lon="1.32107">
        <ele>197</ele>
        <time>2024-03-27T16:37:41Z</time>
      </trkpt>
      <trkpt lat="43.61244" lon="1.32098">
        <ele>196.4</ele>
        <time>2024-03-27T16:37:42Z</time>
      </trkpt>
      <trkpt lat="43.61244" lon="1.32089">
        <ele>196.2</ele>
        <time>2024-03-27T16:37:43Z</time>
      </trkpt>
      <trkpt lat="43.61243" lon="1.3208">
        <ele>195.8</ele>
        <time>2024-03-27T16:37:44Z</time>
      </trkpt>
      <trkpt lat="43.61243" lon="1.32071">
        <ele>195.6</ele>
        <time>2024-03-27T16:37:45Z</time>
      </trkpt>
      <trkpt lat="43.61242" lon="1.32062">
        <ele>195.6</ele>
        <time>2024-03-27T16:37:46Z</time>
      </trkpt>
      <trkpt lat="43.61241" lon="1.32054">
        <ele>195.4</ele>
        <time>2024-03-27T16:37:47Z</time>
      </trkpt>
      <trkpt lat="43.6124" lon="1.32045">
        <ele>195.4</ele>
        <time>2024-03-27T16:37:48Z</time>
      </trkpt>
      <trkpt lat="43.61238" lon="1.32038">
        <ele>195.2</ele>
        <time>2024-03-27T16:37:49Z</time>
      </trkpt>
      <trkpt lat="43.61237" lon="1.32032">
        <ele>195.2</ele>
        <time>2024-03-27T16:37:50Z</time>
      </trkpt>
      <trkpt lat="43.61235" lon="1.32027">
        <ele>195.2</ele>
        <time>2024-03-27T16:37:51Z</time>
      </trkpt>
      <trkpt lat="43.61233" lon="1.32022">
        <ele>195.2</ele>
        <time>2024-03-27T16:37:52Z</time>
      </trkpt>
      <trkpt lat="43.61231" lon="1.32018">
        <ele>195.2</ele>
        <time>2024-03-27T16:37:53Z</time>
      </trkpt>
      <trkpt lat="43.61229" lon="1.32015">
        <ele>195.2</ele>
        <time>2024-03-27T16:37:54Z</time>
      </trkpt>
      <trkpt lat="43.61228" lon="1.32011">
        <ele>195.2</ele>
        <time>2024-03-27T16:37:55Z</time>
      </trkpt>
      <trkpt lat="43.61228" lon="1.32005">
        <ele>195.2</ele>
        <time>2024-03-27T16:37:56Z</time>
      </trkpt>
      <trkpt lat="43.61228" lon="1.31999">
        <ele>195.2</ele>
        <time>2024-03-27T16:37:57Z</time>
      </trkpt>
      <trkpt lat="43.61227" lon="1.31991">
        <ele>195.4</ele>
        <time>2024-03-27T16:37:58Z</time>
      </trkpt>
      <trkpt lat="43.61226" lon="1.31985">
        <ele>195.4</ele>
        <time>2024-03-27T16:37:59Z</time>
      </trkpt>
      <trkpt lat="43.61223" lon="1.31977">
        <ele>195.4</ele>
        <time>2024-03-27T16:38:00Z</time>
      </trkpt>
      <trkpt lat="43.61222" lon="1.31967">
        <ele>195.4</ele>
        <time>2024-03-27T16:38:01Z</time>
      </trkpt>
      <trkpt lat="43.61221" lon="1.31958">
        <ele>195.4</ele>
        <time>2024-03-27T16:38:02Z</time>
      </trkpt>
      <trkpt lat="43.6122" lon="1.31949">
        <ele>195.4</ele>
        <time>2024-03-27T16:38:03Z</time>
      </trkpt>
      <trkpt lat="43.61221" lon="1.31941">
        <ele>195.4</ele>
        <time>2024-03-27T16:38:04Z</time>
      </trkpt>
      <trkpt lat="43.61221" lon="1.31932">
        <ele>195.2</ele>
        <time>2024-03-27T16:38:05Z</time>
      </trkpt>
      <trkpt lat="43.61221" lon="1.31921">
        <ele>195.2</ele>
        <time>2024-03-27T16:38:06Z</time>
      </trkpt>
      <trkpt lat="43.61221" lon="1.31911">
        <ele>195</ele>
        <time>2024-03-27T16:38:07Z</time>
      </trkpt>
      <trkpt lat="43.61221" lon="1.31902">
        <ele>195</ele>
        <time>2024-03-27T16:38:08Z</time>
      </trkpt>
      <trkpt lat="43.6122" lon="1.31894">
        <ele>194.8</ele>
        <time>2024-03-27T16:38:09Z</time>
      </trkpt>
      <trkpt lat="43.6122" lon="1.31885">
        <ele>194.6</ele>
        <time>2024-03-27T16:38:10Z</time>
      </trkpt>
      <trkpt lat="43.61219" lon="1.31875">
        <ele>194.4</ele>
        <time>2024-03-27T16:38:11Z</time>
      </trkpt>
      <trkpt lat="43.6122" lon="1.31869">
        <ele>194</ele>
        <time>2024-03-27T16:38:12Z</time>
      </trkpt>
      <trkpt lat="43.61221" lon="1.31865">
        <ele>193.8</ele>
        <time>2024-03-27T16:38:13Z</time>
      </trkpt>
      <trkpt lat="43.61222" lon="1.31862">
        <ele>193.6</ele>
        <time>2024-03-27T16:38:14Z</time>
      </trkpt>
      <trkpt lat="43.61224" lon="1.31861">
        <ele>193.4</ele>
        <time>2024-03-27T16:38:15Z</time>
      </trkpt>
      <trkpt lat="43.61226" lon="1.31859">
        <ele>193.4</ele>
        <time>2024-03-27T16:38:16Z</time>
      </trkpt>
      <trkpt lat="43.61229" lon="1.31856">
        <ele>193.2</ele>
        <time>2024-03-27T16:38:17Z</time>
      </trkpt>
      <trkpt lat="43.6123" lon="1.31852">
        <ele>193.2</ele>
        <time>2024-03-27T16:38:18Z</time>
      </trkpt>
      <trkpt lat="43.61232" lon="1.31846">
        <ele>193</ele>
        <time>2024-03-27T16:38:19Z</time>
      </trkpt>
      <trkpt lat="43.61233" lon="1.31838">
        <ele>193</ele>
        <time>2024-03-27T16:38:20Z</time>
      </trkpt>
      <trkpt lat="43.61234" lon="1.31832">
        <ele>193</ele>
        <time>2024-03-27T16:38:21Z</time>
      </trkpt>
      <trkpt lat="43.61236" lon="1.31826">
        <ele>193</ele>
        <time>2024-03-27T16:38:22Z</time>
      </trkpt>
      <trkpt lat="43.61236" lon="1.31821">
        <ele>193</ele>
        <time>2024-03-27T16:38:23Z</time>
      </trkpt>
      <trkpt lat="43.61238" lon="1.31813">
        <ele>193</ele>
        <time>2024-03-27T16:38:24Z</time>
      </trkpt>
      <trkpt lat="43.61239" lon="1.31805">
        <ele>193</ele>
        <time>2024-03-27T16:38:25Z</time>
      </trkpt>
      <trkpt lat="43.6124" lon="1.31798">
        <ele>193</ele>
        <time>2024-03-27T16:38:26Z</time>
      </trkpt>
      <trkpt lat="43.61241" lon="1.31791">
        <ele>193</ele>
        <time>2024-03-27T16:38:27Z</time>
      </trkpt>
      <trkpt lat="43.61243" lon="1.31783">
        <ele>192.8</ele>
        <time>2024-03-27T16:38:28Z</time>
      </trkpt>
      <trkpt lat="43.61244" lon="1.31775">
        <ele>192.8</ele>
        <time>2024-03-27T16:38:29Z</time>
      </trkpt>
      <trkpt lat="43.61244" lon="1.31766">
        <ele>192.8</ele>
        <time>2024-03-27T16:38:30Z</time>
      </trkpt>
      <trkpt lat="43.61245" lon="1.31758">
        <ele>192.8</ele>
        <time>2024-03-27T16:38:31Z</time>
      </trkpt>
      <trkpt lat="43.61246" lon="1.3175">
        <ele>192.8</ele>
        <time>2024-03-27T16:38:32Z</time>
      </trkpt>
      <trkpt lat="43.61247" lon="1.31743">
        <ele>192.8</ele>
        <time>2024-03-27T16:38:33Z</time>
      </trkpt>
      <trkpt lat="43.61248" lon="1.31733">
        <ele>192.8</ele>
        <time>2024-03-27T16:38:34Z</time>
      </trkpt>
      <trkpt lat="43.61249" lon="1.31724">
        <ele>192.8</ele>
        <time>2024-03-27T16:38:35Z</time>
      </trkpt>
      <trkpt lat="43.6125" lon="1.31716">
        <ele>192.8</ele>
        <time>2024-03-27T16:38:36Z</time>
      </trkpt>
      <trkpt lat="43.61251" lon="1.31708">
        <ele>192.8</ele>
        <time>2024-03-27T16:38:37Z</time>
      </trkpt>
      <trkpt lat="43.61253" lon="1.317">
        <ele>192.6</ele>
        <time>2024-03-27T16:38:38Z</time>
      </trkpt>
      <trkpt lat="43.61254" lon="1.31692">
        <ele>192.6</ele>
        <time>2024-03-27T16:38:39Z</time>
      </trkpt>
      <trkpt lat="43.61256" lon="1.31684">
        <ele>192.6</ele>
        <time>2024-03-27T16:38:40Z</time>
      </trkpt>
      <trkpt lat="43.61257" lon="1.31676">
        <ele>192.6</ele>
        <time>2024-03-27T16:38:41Z</time>
      </trkpt>
      <trkpt lat="43.61258" lon="1.31668">
        <ele>192.6</ele>
        <time>2024-03-27T16:38:42Z</time>
      </trkpt>
      <trkpt lat="43.61258" lon="1.31659">
        <ele>192.6</ele>
        <time>2024-03-27T16:38:43Z</time>
      </trkpt>
      <trkpt lat="43.61258" lon="1.31651">
        <ele>192.6</ele>
        <time>2024-03-27T16:38:44Z</time>
      </trkpt>
      <trkpt lat="43.61258" lon="1.31642">
        <ele>192.6</ele>
        <time>2024-03-27T16:38:45Z</time>
      </trkpt>
      <trkpt lat="43.61258" lon="1.31634">
        <ele>192.6</ele>
        <time>2024-03-27T16:38:46Z</time>
      </trkpt>
      <trkpt lat="43.61258" lon="1.31626">
        <ele>192.6</ele>
        <time>2024-03-27T16:38:47Z</time>
      </trkpt>
      <trkpt lat="43.61258" lon="1.31618">
        <ele>192.6</ele>
        <time>2024-03-27T16:38:48Z</time>
      </trkpt>
      <trkpt lat="43.61257" lon="1.31611">
        <ele>192.8</ele>
        <time>2024-03-27T16:38:49Z</time>
      </trkpt>
      <trkpt lat="43.61257" lon="1.31604">
        <ele>192.8</ele>
        <time>2024-03-27T16:38:50Z</time>
      </trkpt>
      <trkpt lat="43.61256" lon="1.31598">
        <ele>192.8</ele>
        <time>2024-03-27T16:38:51Z</time>
      </trkpt>
      <trkpt lat="43.61255" lon="1.3159">
        <ele>193</ele>
        <time>2024-03-27T16:38:52Z</time>
      </trkpt>
      <trkpt lat="43.61254" lon="1.31584">
        <ele>193.2</ele>
        <time>2024-03-27T16:38:53Z</time>
      </trkpt>
      <trkpt lat="43.61254" lon="1.31577">
        <ele>193.6</ele>
        <time>2024-03-27T16:38:54Z</time>
      </trkpt>
      <trkpt lat="43.61252" lon="1.3157">
        <ele>194</ele>
        <time>2024-03-27T16:38:55Z</time>
      </trkpt>
      <trkpt lat="43.61251" lon="1.31564">
        <ele>194.2</ele>
        <time>2024-03-27T16:38:56Z</time>
      </trkpt>
      <trkpt lat="43.61249" lon="1.31558">
        <ele>194.6</ele>
        <time>2024-03-27T16:38:57Z</time>
      </trkpt>
      <trkpt lat="43.61248" lon="1.31551">
        <ele>194.6</ele>
        <time>2024-03-27T16:38:58Z</time>
      </trkpt>
      <trkpt lat="43.61247" lon="1.31545">
        <ele>195</ele>
        <time>2024-03-27T16:38:59Z</time>
      </trkpt>
      <trkpt lat="43.61246" lon="1.31538">
        <ele>195</ele>
        <time>2024-03-27T16:39:00Z</time>
      </trkpt>
      <trkpt lat="43.61245" lon="1.31531">
        <ele>195.2</ele>
        <time>2024-03-27T16:39:01Z</time>
      </trkpt>
      <trkpt lat="43.61244" lon="1.31525">
        <ele>195.4</ele>
        <time>2024-03-27T16:39:02Z</time>
      </trkpt>
      <trkpt lat="43.61242" lon="1.31518">
        <ele>195.6</ele>
        <time>2024-03-27T16:39:03Z</time>
      </trkpt>
      <trkpt lat="43.61241" lon="1.31513">
        <ele>196</ele>
        <time>2024-03-27T16:39:04Z</time>
      </trkpt>
      <trkpt lat="43.6124" lon="1.31506">
        <ele>196.2</ele>
        <time>2024-03-27T16:39:05Z</time>
      </trkpt>
      <trkpt lat="43.61238" lon="1.31498">
        <ele>196.6</ele>
        <time>2024-03-27T16:39:06Z</time>
      </trkpt>
      <trkpt lat="43.61236" lon="1.31491">
        <ele>196.6</ele>
        <time>2024-03-27T16:39:07Z</time>
      </trkpt>
      <trkpt lat="43.61235" lon="1.31483">
        <ele>197</ele>
        <time>2024-03-27T16:39:08Z</time>
      </trkpt>
      <trkpt lat="43.61234" lon="1.31476">
        <ele>197.2</ele>
        <time>2024-03-27T16:39:09Z</time>
      </trkpt>
      <trkpt lat="43.61233" lon="1.3147">
        <ele>197.4</ele>
        <time>2024-03-27T16:39:10Z</time>
      </trkpt>
      <trkpt lat="43.61232" lon="1.3146">
        <ele>197.4</ele>
        <time>2024-03-27T16:39:11Z</time>
      </trkpt>
      <trkpt lat="43.61231" lon="1.31453">
        <ele>197.6</ele>
        <time>2024-03-27T16:39:12Z</time>
      </trkpt>
      <trkpt lat="43.6123" lon="1.31445">
        <ele>197.6</ele>
        <time>2024-03-27T16:39:13Z</time>
      </trkpt>
      <trkpt lat="43.6123" lon="1.31438">
        <ele>197.6</ele>
        <time>2024-03-27T16:39:14Z</time>
      </trkpt>
      <trkpt lat="43.61229" lon="1.31429">
        <ele>197.8</ele>
        <time>2024-03-27T16:39:15Z</time>
      </trkpt>
      <trkpt lat="43.61229" lon="1.31421">
        <ele>197.8</ele>
        <time>2024-03-27T16:39:16Z</time>
      </trkpt>
      <trkpt lat="43.61229" lon="1.31413">
        <ele>198</ele>
        <time>2024-03-27T16:39:17Z</time>
      </trkpt>
      <trkpt lat="43.61229" lon="1.31405">
        <ele>198</ele>
        <time>2024-03-27T16:39:18Z</time>
      </trkpt>
      <trkpt lat="43.61229" lon="1.31397">
        <ele>198</ele>
        <time>2024-03-27T16:39:19Z</time>
      </trkpt>
      <trkpt lat="43.61229" lon="1.31389">
        <ele>198</ele>
        <time>2024-03-27T16:39:20Z</time>
      </trkpt>
      <trkpt lat="43.61229" lon="1.31381">
        <ele>198.2</ele>
        <time>2024-03-27T16:39:21Z</time>
      </trkpt>
      <trkpt lat="43.6123" lon="1.31373">
        <ele>198.2</ele>
        <time>2024-03-27T16:39:22Z</time>
      </trkpt>
      <trkpt lat="43.6123" lon="1.31366">
        <ele>198.2</ele>
        <time>2024-03-27T16:39:23Z</time>
      </trkpt>
      <trkpt lat="43.61231" lon="1.31356">
        <ele>198.2</ele>
        <time>2024-03-27T16:39:24Z</time>
      </trkpt>
      <trkpt lat="43.61232" lon="1.31348">
        <ele>198.2</ele>
        <time>2024-03-27T16:39:25Z</time>
      </trkpt>
      <trkpt lat="43.61233" lon="1.3134">
        <ele>198.2</ele>
        <time>2024-03-27T16:39:26Z</time>
      </trkpt>
      <trkpt lat="43.61233" lon="1.31333">
        <ele>198.2</ele>
        <time>2024-03-27T16:39:27Z</time>
      </trkpt>
      <trkpt lat="43.61233" lon="1.31323">
        <ele>198.2</ele>
        <time>2024-03-27T16:39:28Z</time>
      </trkpt>
      <trkpt lat="43.61234" lon="1.31315">
        <ele>198.2</ele>
        <time>2024-03-27T16:39:29Z</time>
      </trkpt>
      <trkpt lat="43.61235" lon="1.31306">
        <ele>198.2</ele>
        <time>2024-03-27T16:39:30Z</time>
      </trkpt>
      <trkpt lat="43.61236" lon="1.31299">
        <ele>198.2</ele>
        <time>2024-03-27T16:39:31Z</time>
      </trkpt>
      <trkpt lat="43.61237" lon="1.31292">
        <ele>198.2</ele>
        <time>2024-03-27T16:39:32Z</time>
      </trkpt>
      <trkpt lat="43.61239" lon="1.31287">
        <ele>198.2</ele>
        <time>2024-03-27T16:39:33Z</time>
      </trkpt>
      <trkpt lat="43.61243" lon="1.31284">
        <ele>198.2</ele>
        <time>2024-03-27T16:39:34Z</time>
      </trkpt>
      <trkpt lat="43.61248" lon="1.31282">
        <ele>198.2</ele>
        <time>2024-03-27T16:39:35Z</time>
      </trkpt>
      <trkpt lat="43.61252" lon="1.31281">
        <ele>198.2</ele>
        <time>2024-03-27T16:39:36Z</time>
      </trkpt>
      <trkpt lat="43.61256" lon="1.31279">
        <ele>198</ele>
        <time>2024-03-27T16:39:37Z</time>
      </trkpt>
      <trkpt lat="43.61262" lon="1.31276">
        <ele>197.8</ele>
        <time>2024-03-27T16:39:38Z</time>
      </trkpt>
      <trkpt lat="43.61268" lon="1.31275">
        <ele>197.6</ele>
        <time>2024-03-27T16:39:39Z</time>
      </trkpt>
      <trkpt lat="43.61274" lon="1.31276">
        <ele>197.6</ele>
        <time>2024-03-27T16:39:40Z</time>
      </trkpt>
      <trkpt lat="43.6128" lon="1.31278">
        <ele>197.4</ele>
        <time>2024-03-27T16:39:41Z</time>
      </trkpt>
      <trkpt lat="43.61285" lon="1.31281">
        <ele>197.2</ele>
        <time>2024-03-27T16:39:42Z</time>
      </trkpt>
      <trkpt lat="43.61293" lon="1.31287">
        <ele>197.4</ele>
        <time>2024-03-27T16:39:43Z</time>
      </trkpt>
      <trkpt lat="43.61299" lon="1.31294">
        <ele>197.2</ele>
        <time>2024-03-27T16:39:44Z</time>
      </trkpt>
      <trkpt lat="43.61305" lon="1.31302">
        <ele>197</ele>
        <time>2024-03-27T16:39:45Z</time>
      </trkpt>
      <trkpt lat="43.61311" lon="1.3131">
        <ele>196.8</ele>
        <time>2024-03-27T16:39:46Z</time>
      </trkpt>
      <trkpt lat="43.61318" lon="1.31317">
        <ele>196.6</ele>
        <time>2024-03-27T16:39:47Z</time>
      </trkpt>
      <trkpt lat="43.61325" lon="1.31325">
        <ele>196</ele>
        <time>2024-03-27T16:39:48Z</time>
      </trkpt>
      <trkpt lat="43.61332" lon="1.31332">
        <ele>195.2</ele>
        <time>2024-03-27T16:39:49Z</time>
      </trkpt>
      <trkpt lat="43.61338" lon="1.31338">
        <ele>194.8</ele>
        <time>2024-03-27T16:39:50Z</time>
      </trkpt>
      <trkpt lat="43.61345" lon="1.31343">
        <ele>194.2</ele>
        <time>2024-03-27T16:39:51Z</time>
      </trkpt>
      <trkpt lat="43.61352" lon="1.31348">
        <ele>193.8</ele>
        <time>2024-03-27T16:39:52Z</time>
      </trkpt>
      <trkpt lat="43.61359" lon="1.31352">
        <ele>193.2</ele>
        <time>2024-03-27T16:39:53Z</time>
      </trkpt>
      <trkpt lat="43.61365" lon="1.31355">
        <ele>192.8</ele>
        <time>2024-03-27T16:39:54Z</time>
      </trkpt>
      <trkpt lat="43.61371" lon="1.31358">
        <ele>192.6</ele>
        <time>2024-03-27T16:39:55Z</time>
      </trkpt>
      <trkpt lat="43.61379" lon="1.31361">
        <ele>192.2</ele>
        <time>2024-03-27T16:39:56Z</time>
      </trkpt>
      <trkpt lat="43.61385" lon="1.31362">
        <ele>192</ele>
        <time>2024-03-27T16:39:57Z</time>
      </trkpt>
      <trkpt lat="43.61392" lon="1.31363">
        <ele>191.8</ele>
        <time>2024-03-27T16:39:58Z</time>
      </trkpt>
      <trkpt lat="43.61398" lon="1.31364">
        <ele>191.6</ele>
        <time>2024-03-27T16:39:59Z</time>
      </trkpt>
      <trkpt lat="43.61403" lon="1.31364">
        <ele>191.6</ele>
        <time>2024-03-27T16:40:00Z</time>
      </trkpt>
      <trkpt lat="43.6141" lon="1.31363">
        <ele>191.6</ele>
        <time>2024-03-27T16:40:01Z</time>
      </trkpt>
      <trkpt lat="43.61415" lon="1.31361">
        <ele>191.6</ele>
        <time>2024-03-27T16:40:02Z</time>
      </trkpt>
      <trkpt lat="43.61419" lon="1.31358">
        <ele>191.6</ele>
        <time>2024-03-27T16:40:03Z</time>
      </trkpt>
      <trkpt lat="43.61423" lon="1.31355">
        <ele>191.6</ele>
        <time>2024-03-27T16:40:04Z</time>
      </trkpt>
      <trkpt lat="43.61425" lon="1.31352">
        <ele>191.6</ele>
        <time>2024-03-27T16:40:05Z</time>
      </trkpt>
      <trkpt lat="43.61428" lon="1.31347">
        <ele>191.8</ele>
        <time>2024-03-27T16:40:06Z</time>
      </trkpt>
      <trkpt lat="43.6143" lon="1.31341">
        <ele>192.2</ele>
        <time>2024-03-27T16:40:07Z</time>
      </trkpt>
      <trkpt lat="43.61432" lon="1.31336">
        <ele>192.4</ele>
        <time>2024-03-27T16:40:08Z</time>
      </trkpt>
      <trkpt lat="43.61435" lon="1.3133">
        <ele>192.4</ele>
        <time>2024-03-27T16:40:09Z</time>
      </trkpt>
      <trkpt lat="43.61437" lon="1.31322">
        <ele>192.6</ele>
        <time>2024-03-27T16:40:10Z</time>
      </trkpt>
      <trkpt lat="43.61438" lon="1.31312">
        <ele>192.6</ele>
        <time>2024-03-27T16:40:11Z</time>
      </trkpt>
      <trkpt lat="43.61437" lon="1.31305">
        <ele>192.4</ele>
        <time>2024-03-27T16:40:12Z</time>
      </trkpt>
      <trkpt lat="43.61435" lon="1.31297">
        <ele>192.4</ele>
        <time>2024-03-27T16:40:13Z</time>
      </trkpt>
      <trkpt lat="43.61431" lon="1.3129">
        <ele>192.4</ele>
        <time>2024-03-27T16:40:14Z</time>
      </trkpt>
      <trkpt lat="43.61427" lon="1.31284">
        <ele>192.4</ele>
        <time>2024-03-27T16:40:15Z</time>
      </trkpt>
      <trkpt lat="43.61421" lon="1.31279">
        <ele>192.4</ele>
        <time>2024-03-27T16:40:16Z</time>
      </trkpt>
      <trkpt lat="43.61415" lon="1.31277">
        <ele>192.2</ele>
        <time>2024-03-27T16:40:17Z</time>
      </trkpt>
      <trkpt lat="43.61409" lon="1.31278">
        <ele>192</ele>
        <time>2024-03-27T16:40:18Z</time>
      </trkpt>
      <trkpt lat="43.61403" lon="1.3128">
        <ele>191.8</ele>
        <time>2024-03-27T16:40:19Z</time>
      </trkpt>
      <trkpt lat="43.61398" lon="1.31284">
        <ele>191.6</ele>
        <time>2024-03-27T16:40:20Z</time>
      </trkpt>
      <trkpt lat="43.61392" lon="1.31289">
        <ele>191.4</ele>
        <time>2024-03-27T16:40:21Z</time>
      </trkpt>
      <trkpt lat="43.61387" lon="1.31292">
        <ele>191.4</ele>
        <time>2024-03-27T16:40:22Z</time>
      </trkpt>
      <trkpt lat="43.61383" lon="1.31292">
        <ele>191.2</ele>
        <time>2024-03-27T16:40:23Z</time>
      </trkpt>
      <trkpt lat="43.61377" lon="1.31288">
        <ele>191.2</ele>
        <time>2024-03-27T16:40:24Z</time>
      </trkpt>
      <trkpt lat="43.61373" lon="1.31282">
        <ele>191</ele>
        <time>2024-03-27T16:40:25Z</time>
      </trkpt>
      <trkpt lat="43.61369" lon="1.31276">
        <ele>191</ele>
        <time>2024-03-27T16:40:26Z</time>
      </trkpt>
      <trkpt lat="43.61366" lon="1.31271">
        <ele>191</ele>
        <time>2024-03-27T16:40:27Z</time>
      </trkpt>
      <trkpt lat="43.61362" lon="1.31264">
        <ele>191</ele>
        <time>2024-03-27T16:40:28Z</time>
      </trkpt>
      <trkpt lat="43.61358" lon="1.31258">
        <ele>191</ele>
        <time>2024-03-27T16:40:29Z</time>
      </trkpt>
      <trkpt lat="43.61353" lon="1.31251">
        <ele>191</ele>
        <time>2024-03-27T16:40:30Z</time>
      </trkpt>
      <trkpt lat="43.61348" lon="1.31245">
        <ele>191</ele>
        <time>2024-03-27T16:40:31Z</time>
      </trkpt>
      <trkpt lat="43.61345" lon="1.3124">
        <ele>191</ele>
        <time>2024-03-27T16:40:32Z</time>
      </trkpt>
      <trkpt lat="43.61341" lon="1.31233">
        <ele>191</ele>
        <time>2024-03-27T16:40:33Z</time>
      </trkpt>
      <trkpt lat="43.61338" lon="1.31225">
        <ele>191.2</ele>
        <time>2024-03-27T16:40:34Z</time>
      </trkpt>
      <trkpt lat="43.61336" lon="1.31218">
        <ele>191.4</ele>
        <time>2024-03-27T16:40:35Z</time>
      </trkpt>
      <trkpt lat="43.61335" lon="1.31212">
        <ele>191.6</ele>
        <time>2024-03-27T16:40:36Z</time>
      </trkpt>
      <trkpt lat="43.61335" lon="1.31207">
        <ele>191.8</ele>
        <time>2024-03-27T16:40:37Z</time>
      </trkpt>
      <trkpt lat="43.61334" lon="1.31201">
        <ele>192</ele>
        <time>2024-03-27T16:40:38Z</time>
      </trkpt>
      <trkpt lat="43.61332" lon="1.31194">
        <ele>192</ele>
        <time>2024-03-27T16:40:39Z</time>
      </trkpt>
      <trkpt lat="43.6133" lon="1.31188">
        <ele>192.2</ele>
        <time>2024-03-27T16:40:40Z</time>
      </trkpt>
      <trkpt lat="43.61328" lon="1.31184">
        <ele>192.6</ele>
        <time>2024-03-27T16:40:41Z</time>
      </trkpt>
      <trkpt lat="43.61325" lon="1.31178">
        <ele>192.6</ele>
        <time>2024-03-27T16:40:42Z</time>
      </trkpt>
      <trkpt lat="43.61322" lon="1.31172">
        <ele>192.8</ele>
        <time>2024-03-27T16:40:43Z</time>
      </trkpt>
      <trkpt lat="43.61319" lon="1.31167">
        <ele>193</ele>
        <time>2024-03-27T16:40:44Z</time>
      </trkpt>
      <trkpt lat="43.61316" lon="1.31163">
        <ele>193.2</ele>
        <time>2024-03-27T16:40:45Z</time>
      </trkpt>
      <trkpt lat="43.61312" lon="1.31161">
        <ele>193.6</ele>
        <time>2024-03-27T16:40:46Z</time>
      </trkpt>
      <trkpt lat="43.61308" lon="1.31158">
        <ele>193.6</ele>
        <time>2024-03-27T16:40:47Z</time>
      </trkpt>
      <trkpt lat="43.61302" lon="1.31158">
        <ele>193.8</ele>
        <time>2024-03-27T16:40:48Z</time>
      </trkpt>
      <trkpt lat="43.61297" lon="1.31159">
        <ele>193.8</ele>
        <time>2024-03-27T16:40:49Z</time>
      </trkpt>
      <trkpt lat="43.61292" lon="1.31161">
        <ele>193.8</ele>
        <time>2024-03-27T16:40:50Z</time>
      </trkpt>
      <trkpt lat="43.61287" lon="1.31162">
        <ele>193.8</ele>
        <time>2024-03-27T16:40:51Z</time>
      </trkpt>
      <trkpt lat="43.61281" lon="1.31164">
        <ele>193.8</ele>
        <time>2024-03-27T16:40:52Z</time>
      </trkpt>
      <trkpt lat="43.61274" lon="1.31165">
        <ele>194</ele>
        <time>2024-03-27T16:40:53Z</time>
      </trkpt>
      <trkpt lat="43.61269" lon="1.31165">
        <ele>194</ele>
        <time>2024-03-27T16:40:54Z</time>
      </trkpt>
      <trkpt lat="43.61263" lon="1.31166">
        <ele>194.2</ele>
        <time>2024-03-27T16:40:55Z</time>
      </trkpt>
      <trkpt lat="43.6126" lon="1.31166">
        <ele>194.2</ele>
        <time>2024-03-27T16:40:56Z</time>
      </trkpt>
      <trkpt lat="43.61256" lon="1.31167">
        <ele>194.2</ele>
        <time>2024-03-27T16:40:57Z</time>
      </trkpt>
      <trkpt lat="43.61251" lon="1.31167">
        <ele>194.2</ele>
        <time>2024-03-27T16:40:58Z</time>
      </trkpt>
      <trkpt lat="43.61247" lon="1.31167">
        <ele>194.4</ele>
        <time>2024-03-27T16:40:59Z</time>
      </trkpt>
      <trkpt lat="43.61245" lon="1.31167">
        <ele>194.4</ele>
        <time>2024-03-27T16:41:00Z</time>
      </trkpt>
      <trkpt lat="43.61242" lon="1.31167">
        <ele>194.4</ele>
        <time>2024-03-27T16:41:01Z</time>
      </trkpt>
      <trkpt lat="43.61238" lon="1.31166">
        <ele>194.4</ele>
        <time>2024-03-27T16:41:02Z</time>
      </trkpt>
      <trkpt lat="43.61236" lon="1.31166">
        <ele>194.6</ele>
        <time>2024-03-27T16:41:03Z</time>
      </trkpt>
      <trkpt lat="43.61234" lon="1.31166">
        <ele>194.6</ele>
        <time>2024-03-27T16:41:04Z</time>
      </trkpt>
      <trkpt lat="43.61233" lon="1.31166">
        <ele>194.6</ele>
        <time>2024-03-27T16:41:05Z</time>
      </trkpt>
      <trkpt lat="43.61231" lon="1.31165">
        <ele>195</ele>
        <time>2024-03-27T16:41:06Z</time>
      </trkpt>
      <trkpt lat="43.61227" lon="1.31164">
        <ele>195</ele>
        <time>2024-03-27T16:41:07Z</time>
      </trkpt>
      <trkpt lat="43.61224" lon="1.31163">
        <ele>195.2</ele>
        <time>2024-03-27T16:41:08Z</time>
      </trkpt>
      <trkpt lat="43.61221" lon="1.31163">
        <ele>195.2</ele>
        <time>2024-03-27T16:41:09Z</time>
      </trkpt>
      <trkpt lat="43.61217" lon="1.31162">
        <ele>195.4</ele>
        <time>2024-03-27T16:41:10Z</time>
      </trkpt>
      <trkpt lat="43.61212" lon="1.3116">
        <ele>195.6</ele>
        <time>2024-03-27T16:41:11Z</time>
      </trkpt>
      <trkpt lat="43.61208" lon="1.31158">
        <ele>195.6</ele>
        <time>2024-03-27T16:41:12Z</time>
      </trkpt>
      <trkpt lat="43.61205" lon="1.31156">
        <ele>195.8</ele>
        <time>2024-03-27T16:41:13Z</time>
      </trkpt>
      <trkpt lat="43.61203" lon="1.31155">
        <ele>196</ele>
        <time>2024-03-27T16:41:14Z</time>
      </trkpt>
      <trkpt lat="43.612" lon="1.31153">
        <ele>196.2</ele>
        <time>2024-03-27T16:41:15Z</time>
      </trkpt>
      <trkpt lat="43.61197" lon="1.3115">
        <ele>196.2</ele>
        <time>2024-03-27T16:41:16Z</time>
      </trkpt>
      <trkpt lat="43.61194" lon="1.31149">
        <ele>196.4</ele>
        <time>2024-03-27T16:41:17Z</time>
      </trkpt>
      <trkpt lat="43.61191" lon="1.31148">
        <ele>196.4</ele>
        <time>2024-03-27T16:41:18Z</time>
      </trkpt>
      <trkpt lat="43.61188" lon="1.31147">
        <ele>196.8</ele>
        <time>2024-03-27T16:41:19Z</time>
      </trkpt>
      <trkpt lat="43.61184" lon="1.31147">
        <ele>197.2</ele>
        <time>2024-03-27T16:41:20Z</time>
      </trkpt>
      <trkpt lat="43.6118" lon="1.31146">
        <ele>197.4</ele>
        <time>2024-03-27T16:41:21Z</time>
      </trkpt>
      <trkpt lat="43.61177" lon="1.31147">
        <ele>197.8</ele>
        <time>2024-03-27T16:41:22Z</time>
      </trkpt>
      <trkpt lat="43.61174" lon="1.31147">
        <ele>197.8</ele>
        <time>2024-03-27T16:41:23Z</time>
      </trkpt>
      <trkpt lat="43.6117" lon="1.31148">
        <ele>198</ele>
        <time>2024-03-27T16:41:24Z</time>
      </trkpt>
      <trkpt lat="43.61166" lon="1.31149">
        <ele>198.2</ele>
        <time>2024-03-27T16:41:25Z</time>
      </trkpt>
      <trkpt lat="43.61162" lon="1.3115">
        <ele>198.4</ele>
        <time>2024-03-27T16:41:26Z</time>
      </trkpt>
      <trkpt lat="43.61159" lon="1.31151">
        <ele>198.6</ele>
        <time>2024-03-27T16:41:27Z</time>
      </trkpt>
      <trkpt lat="43.61157" lon="1.31152">
        <ele>198.8</ele>
        <time>2024-03-27T16:41:28Z</time>
      </trkpt>
      <trkpt lat="43.61154" lon="1.31153">
        <ele>199.2</ele>
        <time>2024-03-27T16:41:29Z</time>
      </trkpt>
      <trkpt lat="43.6115" lon="1.31155">
        <ele>199.6</ele>
        <time>2024-03-27T16:41:30Z</time>
      </trkpt>
      <trkpt lat="43.61147" lon="1.31156">
        <ele>200</ele>
        <time>2024-03-27T16:41:31Z</time>
      </trkpt>
      <trkpt lat="43.61145" lon="1.31157">
        <ele>200.2</ele>
        <time>2024-03-27T16:41:32Z</time>
      </trkpt>
      <trkpt lat="43.61142" lon="1.31157">
        <ele>200.6</ele>
        <time>2024-03-27T16:41:33Z</time>
      </trkpt>
      <trkpt lat="43.61139" lon="1.31157">
        <ele>200.8</ele>
        <time>2024-03-27T16:41:34Z</time>
      </trkpt>
      <trkpt lat="43.61135" lon="1.31157">
        <ele>201.2</ele>
        <time>2024-03-27T16:41:35Z</time>
      </trkpt>
      <trkpt lat="43.61131" lon="1.31156">
        <ele>201.6</ele>
        <time>2024-03-27T16:41:36Z</time>
      </trkpt>
      <trkpt lat="43.61128" lon="1.31155">
        <ele>201.8</ele>
        <time>2024-03-27T16:41:37Z</time>
      </trkpt>
      <trkpt lat="43.61124" lon="1.31154">
        <ele>202.2</ele>
        <time>2024-03-27T16:41:38Z</time>
      </trkpt>
      <trkpt lat="43.61121" lon="1.31152">
        <ele>202.4</ele>
        <time>2024-03-27T16:41:39Z</time>
      </trkpt>
      <trkpt lat="43.61116" lon="1.3115">
        <ele>202.6</ele>
        <time>2024-03-27T16:41:40Z</time>
      </trkpt>
      <trkpt lat="43.61112" lon="1.31149">
        <ele>202.8</ele>
        <time>2024-03-27T16:41:41Z</time>
      </trkpt>
      <trkpt lat="43.61108" lon="1.31148">
        <ele>203</ele>
        <time>2024-03-27T16:41:42Z</time>
      </trkpt>
      <trkpt lat="43.61104" lon="1.31146">
        <ele>203</ele>
        <time>2024-03-27T16:41:43Z</time>
      </trkpt>
      <trkpt lat="43.61098" lon="1.31144">
        <ele>203.2</ele>
        <time>2024-03-27T16:41:44Z</time>
      </trkpt>
      <trkpt lat="43.61094" lon="1.31143">
        <ele>203.4</ele>
        <time>2024-03-27T16:41:45Z</time>
      </trkpt>
      <trkpt lat="43.61089" lon="1.31142">
        <ele>203.4</ele>
        <time>2024-03-27T16:41:46Z</time>
      </trkpt>
      <trkpt lat="43.61085" lon="1.31142">
        <ele>203.6</ele>
        <time>2024-03-27T16:41:47Z</time>
      </trkpt>
      <trkpt lat="43.6108" lon="1.31143">
        <ele>203.6</ele>
        <time>2024-03-27T16:41:48Z</time>
      </trkpt>
      <trkpt lat="43.61074" lon="1.31145">
        <ele>203.6</ele>
        <time>2024-03-27T16:41:49Z</time>
      </trkpt>
      <trkpt lat="43.6107" lon="1.31148">
        <ele>203.6</ele>
        <time>2024-03-27T16:41:50Z</time>
      </trkpt>
      <trkpt lat="43.61066" lon="1.31151">
        <ele>203.6</ele>
        <time>2024-03-27T16:41:51Z</time>
      </trkpt>
      <trkpt lat="43.61062" lon="1.31155">
        <ele>203.6</ele>
        <time>2024-03-27T16:41:52Z</time>
      </trkpt>
      <trkpt lat="43.61057" lon="1.3116">
        <ele>203.8</ele>
        <time>2024-03-27T16:41:53Z</time>
      </trkpt>
      <trkpt lat="43.61053" lon="1.31165">
        <ele>203.8</ele>
        <time>2024-03-27T16:41:54Z</time>
      </trkpt>
      <trkpt lat="43.6105" lon="1.3117">
        <ele>203.8</ele>
        <time>2024-03-27T16:41:55Z</time>
      </trkpt>
      <trkpt lat="43.61047" lon="1.31174">
        <ele>203.8</ele>
        <time>2024-03-27T16:41:56Z</time>
      </trkpt>
      <trkpt lat="43.61044" lon="1.3118">
        <ele>203.8</ele>
        <time>2024-03-27T16:41:57Z</time>
      </trkpt>
      <trkpt lat="43.61039" lon="1.31186">
        <ele>203.8</ele>
        <time>2024-03-27T16:41:58Z</time>
      </trkpt>
      <trkpt lat="43.61035" lon="1.31192">
        <ele>203.8</ele>
        <time>2024-03-27T16:41:59Z</time>
      </trkpt>
      <trkpt lat="43.61032" lon="1.31197">
        <ele>203.8</ele>
        <time>2024-03-27T16:42:00Z</time>
      </trkpt>
      <trkpt lat="43.61029" lon="1.31202">
        <ele>203.8</ele>
        <time>2024-03-27T16:42:01Z</time>
      </trkpt>
      <trkpt lat="43.61024" lon="1.31208">
        <ele>203.8</ele>
        <time>2024-03-27T16:42:02Z</time>
      </trkpt>
      <trkpt lat="43.6102" lon="1.31214">
        <ele>203.8</ele>
        <time>2024-03-27T16:42:03Z</time>
      </trkpt>
      <trkpt lat="43.61017" lon="1.31219">
        <ele>203.8</ele>
        <time>2024-03-27T16:42:04Z</time>
      </trkpt>
      <trkpt lat="43.61014" lon="1.31224">
        <ele>203.8</ele>
        <time>2024-03-27T16:42:05Z</time>
      </trkpt>
      <trkpt lat="43.6101" lon="1.3123">
        <ele>203.8</ele>
        <time>2024-03-27T16:42:06Z</time>
      </trkpt>
      <trkpt lat="43.61006" lon="1.31237">
        <ele>203.8</ele>
        <time>2024-03-27T16:42:07Z</time>
      </trkpt>
      <trkpt lat="43.61002" lon="1.31242">
        <ele>204</ele>
        <time>2024-03-27T16:42:08Z</time>
      </trkpt>
      <trkpt lat="43.61" lon="1.31248">
        <ele>204</ele>
        <time>2024-03-27T16:42:09Z</time>
      </trkpt>
      <trkpt lat="43.60997" lon="1.31252">
        <ele>204</ele>
        <time>2024-03-27T16:42:10Z</time>
      </trkpt>
      <trkpt lat="43.60994" lon="1.31259">
        <ele>204</ele>
        <time>2024-03-27T16:42:11Z</time>
      </trkpt>
      <trkpt lat="43.6099" lon="1.31264">
        <ele>204</ele>
        <time>2024-03-27T16:42:12Z</time>
      </trkpt>
      <trkpt lat="43.60986" lon="1.3127">
        <ele>204</ele>
        <time>2024-03-27T16:42:13Z</time>
      </trkpt>
      <trkpt lat="43.60982" lon="1.31274">
        <ele>204</ele>
        <time>2024-03-27T16:42:14Z</time>
      </trkpt>
      <trkpt lat="43.60978" lon="1.31279">
        <ele>204</ele>
        <time>2024-03-27T16:42:15Z</time>
      </trkpt>
      <trkpt lat="43.60972" lon="1.31286">
        <ele>204</ele>
        <time>2024-03-27T16:42:16Z</time>
      </trkpt>
      <trkpt lat="43.60968" lon="1.31291">
        <ele>204</ele>
        <time>2024-03-27T16:42:17Z</time>
      </trkpt>
      <trkpt lat="43.60965" lon="1.31296">
        <ele>204</ele>
        <time>2024-03-27T16:42:18Z</time>
      </trkpt>
      <trkpt lat="43.60962" lon="1.313">
        <ele>203.8</ele>
        <time>2024-03-27T16:42:19Z</time>
      </trkpt>
      <trkpt lat="43.60959" lon="1.31303">
        <ele>203.8</ele>
        <time>2024-03-27T16:42:20Z</time>
      </trkpt>
      <trkpt lat="43.60955" lon="1.31307">
        <ele>203.8</ele>
        <time>2024-03-27T16:42:21Z</time>
      </trkpt>
      <trkpt lat="43.60952" lon="1.31308">
        <ele>203.8</ele>
        <time>2024-03-27T16:42:22Z</time>
      </trkpt>
      <trkpt lat="43.60947" lon="1.31309">
        <ele>203.8</ele>
        <time>2024-03-27T16:42:23Z</time>
      </trkpt>
      <trkpt lat="43.60943" lon="1.31309">
        <ele>203.6</ele>
        <time>2024-03-27T16:42:24Z</time>
      </trkpt>
      <trkpt lat="43.60937" lon="1.31309">
        <ele>203.6</ele>
        <time>2024-03-27T16:42:25Z</time>
      </trkpt>
      <trkpt lat="43.60932" lon="1.31309">
        <ele>203.4</ele>
        <time>2024-03-27T16:42:26Z</time>
      </trkpt>
      <trkpt lat="43.60926" lon="1.31309">
        <ele>203.4</ele>
        <time>2024-03-27T16:42:27Z</time>
      </trkpt>
      <trkpt lat="43.6092" lon="1.3131">
        <ele>203.2</ele>
        <time>2024-03-27T16:42:28Z</time>
      </trkpt>
      <trkpt lat="43.60913" lon="1.31313">
        <ele>203.2</ele>
        <time>2024-03-27T16:42:29Z</time>
      </trkpt>
      <trkpt lat="43.60907" lon="1.31313">
        <ele>203</ele>
        <time>2024-03-27T16:42:30Z</time>
      </trkpt>
      <trkpt lat="43.609" lon="1.31312">
        <ele>202.8</ele>
        <time>2024-03-27T16:42:31Z</time>
      </trkpt>
      <trkpt lat="43.60891" lon="1.3131">
        <ele>201.4</ele>
        <time>2024-03-27T16:42:32Z</time>
      </trkpt>
      <trkpt lat="43.60885" lon="1.31308">
        <ele>200.6</ele>
        <time>2024-03-27T16:42:33Z</time>
      </trkpt>
      <trkpt lat="43.60881" lon="1.31308">
        <ele>199.6</ele>
        <time>2024-03-27T16:42:34Z</time>
      </trkpt>
      <trkpt lat="43.60876" lon="1.3131">
        <ele>199.4</ele>
        <time>2024-03-27T16:42:35Z</time>
      </trkpt>
      <trkpt lat="43.60873" lon="1.31313">
        <ele>198.2</ele>
        <time>2024-03-27T16:42:36Z</time>
      </trkpt>
      <trkpt lat="43.60871" lon="1.31316">
        <ele>197.4</ele>
        <time>2024-03-27T16:42:37Z</time>
      </trkpt>
      <trkpt lat="43.60869" lon="1.31317">
        <ele>197</ele>
        <time>2024-03-27T16:42:38Z</time>
      </trkpt>
      <trkpt lat="43.60866" lon="1.31316">
        <ele>196.4</ele>
        <time>2024-03-27T16:42:39Z</time>
      </trkpt>
      <trkpt lat="43.60863" lon="1.31314">
        <ele>196.2</ele>
        <time>2024-03-27T16:42:40Z</time>
      </trkpt>
      <trkpt lat="43.60861" lon="1.31311">
        <ele>195.6</ele>
        <time>2024-03-27T16:42:41Z</time>
      </trkpt>
      <trkpt lat="43.60859" lon="1.31309">
        <ele>195.6</ele>
        <time>2024-03-27T16:42:42Z</time>
      </trkpt>
      <trkpt lat="43.60857" lon="1.31306">
        <ele>195.4</ele>
        <time>2024-03-27T16:42:43Z</time>
      </trkpt>
      <trkpt lat="43.60853" lon="1.31302">
        <ele>195.2</ele>
        <time>2024-03-27T16:42:44Z</time>
      </trkpt>
      <trkpt lat="43.60849" lon="1.31298">
        <ele>195.2</ele>
        <time>2024-03-27T16:42:45Z</time>
      </trkpt>
      <trkpt lat="43.60845" lon="1.31295">
        <ele>195.2</ele>
        <time>2024-03-27T16:42:46Z</time>
      </trkpt>
      <trkpt lat="43.60841" lon="1.31292">
        <ele>195.2</ele>
        <time>2024-03-27T16:42:47Z</time>
      </trkpt>
      <trkpt lat="43.60837" lon="1.31289">
        <ele>195</ele>
        <time>2024-03-27T16:42:48Z</time>
      </trkpt>
      <trkpt lat="43.60833" lon="1.31286">
        <ele>195</ele>
        <time>2024-03-27T16:42:49Z</time>
      </trkpt>
      <trkpt lat="43.6083" lon="1.31283">
        <ele>195</ele>
        <time>2024-03-27T16:42:50Z</time>
      </trkpt>
      <trkpt lat="43.60826" lon="1.31281">
        <ele>195</ele>
        <time>2024-03-27T16:42:51Z</time>
      </trkpt>
      <trkpt lat="43.60822" lon="1.31278">
        <ele>195</ele>
        <time>2024-03-27T16:42:52Z</time>
      </trkpt>
      <trkpt lat="43.60816" lon="1.31275">
        <ele>195</ele>
        <time>2024-03-27T16:42:53Z</time>
      </trkpt>
      <trkpt lat="43.60811" lon="1.31273">
        <ele>195</ele>
        <time>2024-03-27T16:42:54Z</time>
      </trkpt>
      <trkpt lat="43.60806" lon="1.31271">
        <ele>195</ele>
        <time>2024-03-27T16:42:55Z</time>
      </trkpt>
      <trkpt lat="43.60801" lon="1.31268">
        <ele>195</ele>
        <time>2024-03-27T16:42:56Z</time>
      </trkpt>
      <trkpt lat="43.60797" lon="1.31266">
        <ele>195</ele>
        <time>2024-03-27T16:42:57Z</time>
      </trkpt>
      <trkpt lat="43.60791" lon="1.31263">
        <ele>195</ele>
        <time>2024-03-27T16:42:58Z</time>
      </trkpt>
      <trkpt lat="43.60787" lon="1.31261">
        <ele>195</ele>
        <time>2024-03-27T16:42:59Z</time>
      </trkpt>
      <trkpt lat="43.60782" lon="1.31259">
        <ele>195.2</ele>
        <time>2024-03-27T16:43:00Z</time>
      </trkpt>
      <trkpt lat="43.60777" lon="1.31257">
        <ele>195.2</ele>
        <time>2024-03-27T16:43:01Z</time>
      </trkpt>
      <trkpt lat="43.60773" lon="1.31255">
        <ele>195.2</ele>
        <time>2024-03-27T16:43:02Z</time>
      </trkpt>
      <trkpt lat="43.60769" lon="1.31253">
        <ele>195.2</ele>
        <time>2024-03-27T16:43:03Z</time>
      </trkpt>
      <trkpt lat="43.60765" lon="1.31251">
        <ele>195.2</ele>
        <time>2024-03-27T16:43:04Z</time>
      </trkpt>
      <trkpt lat="43.60761" lon="1.31248">
        <ele>195.2</ele>
        <time>2024-03-27T16:43:05Z</time>
      </trkpt>
      <trkpt lat="43.60757" lon="1.31246">
        <ele>195.2</ele>
        <time>2024-03-27T16:43:06Z</time>
      </trkpt>
      <trkpt lat="43.6075" lon="1.31241">
        <ele>195.2</ele>
        <time>2024-03-27T16:43:07Z</time>
      </trkpt>
      <trkpt lat="43.60744" lon="1.31238">
        <ele>195.2</ele>
        <time>2024-03-27T16:43:08Z</time>
      </trkpt>
      <trkpt lat="43.60738" lon="1.31234">
        <ele>195.2</ele>
        <time>2024-03-27T16:43:09Z</time>
      </trkpt>
      <trkpt lat="43.60734" lon="1.31232">
        <ele>195.2</ele>
        <time>2024-03-27T16:43:10Z</time>
      </trkpt>
      <trkpt lat="43.60728" lon="1.31229">
        <ele>195</ele>
        <time>2024-03-27T16:43:11Z</time>
      </trkpt>
      <trkpt lat="43.60722" lon="1.31226">
        <ele>195.4</ele>
        <time>2024-03-27T16:43:12Z</time>
      </trkpt>
      <trkpt lat="43.60716" lon="1.31225">
        <ele>195</ele>
        <time>2024-03-27T16:43:13Z</time>
      </trkpt>
      <trkpt lat="43.60712" lon="1.31223">
        <ele>195</ele>
        <time>2024-03-27T16:43:14Z</time>
      </trkpt>
      <trkpt lat="43.60707" lon="1.31221">
        <ele>195.2</ele>
        <time>2024-03-27T16:43:15Z</time>
      </trkpt>
      <trkpt lat="43.607" lon="1.31219">
        <ele>195.2</ele>
        <time>2024-03-27T16:43:16Z</time>
      </trkpt>
      <trkpt lat="43.60695" lon="1.31218">
        <ele>195.2</ele>
        <time>2024-03-27T16:43:17Z</time>
      </trkpt>
      <trkpt lat="43.60689" lon="1.31217">
        <ele>195.2</ele>
        <time>2024-03-27T16:43:18Z</time>
      </trkpt>
      <trkpt lat="43.60686" lon="1.31217">
        <ele>195.2</ele>
        <time>2024-03-27T16:43:19Z</time>
      </trkpt>
      <trkpt lat="43.60682" lon="1.31219">
        <ele>195.2</ele>
        <time>2024-03-27T16:43:20Z</time>
      </trkpt>
      <trkpt lat="43.60679" lon="1.31222">
        <ele>195.2</ele>
        <time>2024-03-27T16:43:21Z</time>
      </trkpt>
      <trkpt lat="43.60678" lon="1.31225">
        <ele>195.4</ele>
        <time>2024-03-27T16:43:22Z</time>
      </trkpt>
      <trkpt lat="43.60677" lon="1.31228">
        <ele>195.4</ele>
        <time>2024-03-27T16:43:23Z</time>
      </trkpt>
      <trkpt lat="43.60676" lon="1.31231">
        <ele>195.4</ele>
        <time>2024-03-27T16:43:24Z</time>
      </trkpt>
      <trkpt lat="43.60676" lon="1.31236">
        <ele>195.6</ele>
        <time>2024-03-27T16:43:25Z</time>
      </trkpt>
      <trkpt lat="43.60675" lon="1.31239">
        <ele>196.2</ele>
        <time>2024-03-27T16:43:26Z</time>
      </trkpt>
      <trkpt lat="43.60676" lon="1.31243">
        <ele>196.4</ele>
        <time>2024-03-27T16:43:27Z</time>
      </trkpt>
      <trkpt lat="43.60676" lon="1.31247">
        <ele>197</ele>
        <time>2024-03-27T16:43:28Z</time>
      </trkpt>
      <trkpt lat="43.60675" lon="1.3125">
        <ele>197.2</ele>
        <time>2024-03-27T16:43:29Z</time>
      </trkpt>
      <trkpt lat="43.60675" lon="1.31255">
        <ele>197.4</ele>
        <time>2024-03-27T16:43:30Z</time>
      </trkpt>
      <trkpt lat="43.60675" lon="1.31258">
        <ele>198</ele>
        <time>2024-03-27T16:43:31Z</time>
      </trkpt>
      <trkpt lat="43.60676" lon="1.31261">
        <ele>198.2</ele>
        <time>2024-03-27T16:43:32Z</time>
      </trkpt>
      <trkpt lat="43.60677" lon="1.31265">
        <ele>198.4</ele>
        <time>2024-03-27T16:43:33Z</time>
      </trkpt>
      <trkpt lat="43.60679" lon="1.31268">
        <ele>198.4</ele>
        <time>2024-03-27T16:43:34Z</time>
      </trkpt>
      <trkpt lat="43.60683" lon="1.3127">
        <ele>198.6</ele>
        <time>2024-03-27T16:43:35Z</time>
      </trkpt>
      <trkpt lat="43.60687" lon="1.31272">
        <ele>198.8</ele>
        <time>2024-03-27T16:43:36Z</time>
      </trkpt>
      <trkpt lat="43.60691" lon="1.31274">
        <ele>198.8</ele>
        <time>2024-03-27T16:43:37Z</time>
      </trkpt>
      <trkpt lat="43.60694" lon="1.31275">
        <ele>199</ele>
        <time>2024-03-27T16:43:38Z</time>
      </trkpt>
      <trkpt lat="43.607" lon="1.31278">
        <ele>199</ele>
        <time>2024-03-27T16:43:39Z</time>
      </trkpt>
      <trkpt lat="43.60704" lon="1.3128">
        <ele>199</ele>
        <time>2024-03-27T16:43:40Z</time>
      </trkpt>
      <trkpt lat="43.60709" lon="1.31282">
        <ele>199</ele>
        <time>2024-03-27T16:43:41Z</time>
      </trkpt>
      <trkpt lat="43.60713" lon="1.31284">
        <ele>199</ele>
        <time>2024-03-27T16:43:42Z</time>
      </trkpt>
      <trkpt lat="43.60717" lon="1.31286">
        <ele>198.8</ele>
        <time>2024-03-27T16:43:43Z</time>
      </trkpt>
      <trkpt lat="43.60724" lon="1.31288">
        <ele>198.8</ele>
        <time>2024-03-27T16:43:44Z</time>
      </trkpt>
      <trkpt lat="43.60729" lon="1.31291">
        <ele>198.8</ele>
        <time>2024-03-27T16:43:45Z</time>
      </trkpt>
      <trkpt lat="43.60732" lon="1.31295">
        <ele>198.6</ele>
        <time>2024-03-27T16:43:46Z</time>
      </trkpt>
      <trkpt lat="43.60733" lon="1.313">
        <ele>198.6</ele>
        <time>2024-03-27T16:43:47Z</time>
      </trkpt>
      <trkpt lat="43.60732" lon="1.31306">
        <ele>198.6</ele>
        <time>2024-03-27T16:43:48Z</time>
      </trkpt>
      <trkpt lat="43.60731" lon="1.31314">
        <ele>198.6</ele>
        <time>2024-03-27T16:43:49Z</time>
      </trkpt>
      <trkpt lat="43.60729" lon="1.31321">
        <ele>198.6</ele>
        <time>2024-03-27T16:43:50Z</time>
      </trkpt>
      <trkpt lat="43.60728" lon="1.31327">
        <ele>198.6</ele>
        <time>2024-03-27T16:43:51Z</time>
      </trkpt>
      <trkpt lat="43.60727" lon="1.31334">
        <ele>198.6</ele>
        <time>2024-03-27T16:43:52Z</time>
      </trkpt>
      <trkpt lat="43.60724" lon="1.31342">
        <ele>198.4</ele>
        <time>2024-03-27T16:43:53Z</time>
      </trkpt>
      <trkpt lat="43.60722" lon="1.31348">
        <ele>198.4</ele>
        <time>2024-03-27T16:43:54Z</time>
      </trkpt>
      <trkpt lat="43.60718" lon="1.31352">
        <ele>198.4</ele>
        <time>2024-03-27T16:43:55Z</time>
      </trkpt>
      <trkpt lat="43.60714" lon="1.31354">
        <ele>198.4</ele>
        <time>2024-03-27T16:43:56Z</time>
      </trkpt>
      <trkpt lat="43.6071" lon="1.31354">
        <ele>198.4</ele>
        <time>2024-03-27T16:43:57Z</time>
      </trkpt>
      <trkpt lat="43.60705" lon="1.31354">
        <ele>198.6</ele>
        <time>2024-03-27T16:43:58Z</time>
      </trkpt>
      <trkpt lat="43.607" lon="1.31352">
        <ele>198.6</ele>
        <time>2024-03-27T16:43:59Z</time>
      </trkpt>
      <trkpt lat="43.60696" lon="1.3135">
        <ele>198.6</ele>
        <time>2024-03-27T16:44:00Z</time>
      </trkpt>
      <trkpt lat="43.60694" lon="1.31346">
        <ele>198.6</ele>
        <time>2024-03-27T16:44:01Z</time>
      </trkpt>
      <trkpt lat="43.60692" lon="1.31339">
        <ele>198.6</ele>
        <time>2024-03-27T16:44:02Z</time>
      </trkpt>
      <trkpt lat="43.60692" lon="1.31333">
        <ele>198.6</ele>
        <time>2024-03-27T16:44:03Z</time>
      </trkpt>
      <trkpt lat="43.60692" lon="1.31326">
        <ele>198.6</ele>
        <time>2024-03-27T16:44:04Z</time>
      </trkpt>
      <trkpt lat="43.60691" lon="1.3132">
        <ele>198.6</ele>
        <time>2024-03-27T16:44:05Z</time>
      </trkpt>
      <trkpt lat="43.6069" lon="1.31315">
        <ele>198.4</ele>
        <time>2024-03-27T16:44:06Z</time>
      </trkpt>
      <trkpt lat="43.60686" lon="1.31309">
        <ele>198.4</ele>
        <time>2024-03-27T16:44:07Z</time>
      </trkpt>
      <trkpt lat="43.60681" lon="1.31307">
        <ele>198.4</ele>
        <time>2024-03-27T16:44:08Z</time>
      </trkpt>
      <trkpt lat="43.60675" lon="1.31307">
        <ele>198.2</ele>
        <time>2024-03-27T16:44:09Z</time>
      </trkpt>
      <trkpt lat="43.6067" lon="1.31308">
        <ele>198.2</ele>
        <time>2024-03-27T16:44:10Z</time>
      </trkpt>
      <trkpt lat="43.60663" lon="1.31309">
        <ele>198</ele>
        <time>2024-03-27T16:44:11Z</time>
      </trkpt>
      <trkpt lat="43.60627" lon="1.31309">
        <ele>196.8</ele>
        <time>2024-03-27T16:44:18Z</time>
      </trkpt>
      <trkpt lat="43.60627" lon="1.31311">
        <ele>196.6</ele>
        <time>2024-03-27T16:44:19Z</time>
      </trkpt>
      <trkpt lat="43.60623" lon="1.31309">
        <ele>196.8</ele>
        <time>2024-03-27T16:44:20Z</time>
      </trkpt>
      <trkpt lat="43.60622" lon="1.31306">
        <ele>196.6</ele>
        <time>2024-03-27T16:44:21Z</time>
      </trkpt>
      <trkpt lat="43.6062" lon="1.31303">
        <ele>196.6</ele>
        <time>2024-03-27T16:44:22Z</time>
      </trkpt>
      <trkpt lat="43.60618" lon="1.31301">
        <ele>197</ele>
        <time>2024-03-27T16:44:23Z</time>
      </trkpt>
      <trkpt lat="43.60616" lon="1.31299">
        <ele>197</ele>
        <time>2024-03-27T16:44:24Z</time>
      </trkpt>
      <trkpt lat="43.60612" lon="1.31298">
        <ele>197.6</ele>
        <time>2024-03-27T16:44:25Z</time>
      </trkpt>
      <trkpt lat="43.60608" lon="1.31297">
        <ele>197.8</ele>
        <time>2024-03-27T16:44:26Z</time>
      </trkpt>
      <trkpt lat="43.60603" lon="1.31297">
        <ele>198</ele>
        <time>2024-03-27T16:44:27Z</time>
      </trkpt>
      <trkpt lat="43.60599" lon="1.31296">
        <ele>198</ele>
        <time>2024-03-27T16:44:28Z</time>
      </trkpt>
      <trkpt lat="43.60594" lon="1.31296">
        <ele>198</ele>
        <time>2024-03-27T16:44:29Z</time>
      </trkpt>
      <trkpt lat="43.60589" lon="1.31294">
        <ele>198.2</ele>
        <time>2024-03-27T16:44:30Z</time>
      </trkpt>
      <trkpt lat="43.60584" lon="1.31293">
        <ele>198.2</ele>
        <time>2024-03-27T16:44:31Z</time>
      </trkpt>
      <trkpt lat="43.6058" lon="1.3129">
        <ele>198.2</ele>
        <time>2024-03-27T16:44:32Z</time>
      </trkpt>
      <trkpt lat="43.60576" lon="1.31288">
        <ele>198.2</ele>
        <time>2024-03-27T16:44:33Z</time>
      </trkpt>
      <trkpt lat="43.60572" lon="1.31286">
        <ele>198.2</ele>
        <time>2024-03-27T16:44:34Z</time>
      </trkpt>
      <trkpt lat="43.60568" lon="1.31283">
        <ele>198.2</ele>
        <time>2024-03-27T16:44:35Z</time>
      </trkpt>
      <trkpt lat="43.60563" lon="1.31279">
        <ele>198.2</ele>
        <time>2024-03-27T16:44:36Z</time>
      </trkpt>
      <trkpt lat="43.60559" lon="1.31275">
        <ele>198.2</ele>
        <time>2024-03-27T16:44:37Z</time>
      </trkpt>
      <trkpt lat="43.60556" lon="1.31271">
        <ele>198.2</ele>
        <time>2024-03-27T16:44:38Z</time>
      </trkpt>
      <trkpt lat="43.60554" lon="1.31267">
        <ele>198.4</ele>
        <time>2024-03-27T16:44:39Z</time>
      </trkpt>
      <trkpt lat="43.60551" lon="1.31262">
        <ele>198.4</ele>
        <time>2024-03-27T16:44:40Z</time>
      </trkpt>
      <trkpt lat="43.60547" lon="1.31255">
        <ele>198.4</ele>
        <time>2024-03-27T16:44:41Z</time>
      </trkpt>
      <trkpt lat="43.60545" lon="1.31249">
        <ele>198.4</ele>
        <time>2024-03-27T16:44:42Z</time>
      </trkpt>
      <trkpt lat="43.60543" lon="1.31244">
        <ele>198.6</ele>
        <time>2024-03-27T16:44:43Z</time>
      </trkpt>
      <trkpt lat="43.6054" lon="1.31238">
        <ele>198.6</ele>
        <time>2024-03-27T16:44:44Z</time>
      </trkpt>
      <trkpt lat="43.60537" lon="1.31232">
        <ele>198.6</ele>
        <time>2024-03-27T16:44:45Z</time>
      </trkpt>
      <trkpt lat="43.60533" lon="1.31227">
        <ele>198.6</ele>
        <time>2024-03-27T16:44:46Z</time>
      </trkpt>
      <trkpt lat="43.60528" lon="1.31224">
        <ele>198.6</ele>
        <time>2024-03-27T16:44:47Z</time>
      </trkpt>
      <trkpt lat="43.60523" lon="1.31224">
        <ele>198.6</ele>
        <time>2024-03-27T16:44:48Z</time>
      </trkpt>
      <trkpt lat="43.60518" lon="1.31225">
        <ele>198.6</ele>
        <time>2024-03-27T16:44:49Z</time>
      </trkpt>
      <trkpt lat="43.60513" lon="1.31228">
        <ele>198.6</ele>
        <time>2024-03-27T16:44:50Z</time>
      </trkpt>
      <trkpt lat="43.60508" lon="1.31232">
        <ele>198.6</ele>
        <time>2024-03-27T16:44:51Z</time>
      </trkpt>
      <trkpt lat="43.60503" lon="1.31237">
        <ele>198.6</ele>
        <time>2024-03-27T16:44:52Z</time>
      </trkpt>
      <trkpt lat="43.60499" lon="1.31242">
        <ele>198.6</ele>
        <time>2024-03-27T16:44:53Z</time>
      </trkpt>
      <trkpt lat="43.60495" lon="1.31247">
        <ele>198.6</ele>
        <time>2024-03-27T16:44:54Z</time>
      </trkpt>
      <trkpt lat="43.6049" lon="1.31253">
        <ele>198.6</ele>
        <time>2024-03-27T16:44:55Z</time>
      </trkpt>
      <trkpt lat="43.60485" lon="1.31258">
        <ele>198.6</ele>
        <time>2024-03-27T16:44:56Z</time>
      </trkpt>
      <trkpt lat="43.60481" lon="1.31264">
        <ele>198.6</ele>
        <time>2024-03-27T16:44:57Z</time>
      </trkpt>
      <trkpt lat="43.60476" lon="1.31269">
        <ele>198.6</ele>
        <time>2024-03-27T16:44:58Z</time>
      </trkpt>
      <trkpt lat="43.60472" lon="1.31275">
        <ele>198.8</ele>
        <time>2024-03-27T16:44:59Z</time>
      </trkpt>
      <trkpt lat="43.60468" lon="1.31281">
        <ele>198.8</ele>
        <time>2024-03-27T16:45:00Z</time>
      </trkpt>
      <trkpt lat="43.60463" lon="1.31287">
        <ele>198.8</ele>
        <time>2024-03-27T16:45:01Z</time>
      </trkpt>
      <trkpt lat="43.60458" lon="1.31292">
        <ele>198.8</ele>
        <time>2024-03-27T16:45:02Z</time>
      </trkpt>
      <trkpt lat="43.60454" lon="1.31298">
        <ele>198.8</ele>
        <time>2024-03-27T16:45:03Z</time>
      </trkpt>
      <trkpt lat="43.6045" lon="1.31304">
        <ele>198.8</ele>
        <time>2024-03-27T16:45:04Z</time>
      </trkpt>
      <trkpt lat="43.60446" lon="1.31309">
        <ele>198.6</ele>
        <time>2024-03-27T16:45:05Z</time>
      </trkpt>
      <trkpt lat="43.60441" lon="1.31315">
        <ele>198.6</ele>
        <time>2024-03-27T16:45:06Z</time>
      </trkpt>
      <trkpt lat="43.60437" lon="1.31321">
        <ele>198.8</ele>
        <time>2024-03-27T16:45:07Z</time>
      </trkpt>
      <trkpt lat="43.60433" lon="1.31326">
        <ele>198.8</ele>
        <time>2024-03-27T16:45:08Z</time>
      </trkpt>
      <trkpt lat="43.60429" lon="1.31332">
        <ele>198.8</ele>
        <time>2024-03-27T16:45:09Z</time>
      </trkpt>
      <trkpt lat="43.60425" lon="1.31337">
        <ele>198.8</ele>
        <time>2024-03-27T16:45:10Z</time>
      </trkpt>
      <trkpt lat="43.60421" lon="1.31342">
        <ele>198.8</ele>
        <time>2024-03-27T16:45:11Z</time>
      </trkpt>
      <trkpt lat="43.60418" lon="1.31347">
        <ele>199</ele>
        <time>2024-03-27T16:45:12Z</time>
      </trkpt>
      <trkpt lat="43.60413" lon="1.31352">
        <ele>199</ele>
        <time>2024-03-27T16:45:13Z</time>
      </trkpt>
      <trkpt lat="43.60409" lon="1.31357">
        <ele>199</ele>
        <time>2024-03-27T16:45:14Z</time>
      </trkpt>
      <trkpt lat="43.60405" lon="1.31363">
        <ele>199</ele>
        <time>2024-03-27T16:45:15Z</time>
      </trkpt>
      <trkpt lat="43.604" lon="1.31367">
        <ele>199</ele>
        <time>2024-03-27T16:45:16Z</time>
      </trkpt>
      <trkpt lat="43.60395" lon="1.31372">
        <ele>199</ele>
        <time>2024-03-27T16:45:17Z</time>
      </trkpt>
      <trkpt lat="43.60389" lon="1.31375">
        <ele>199</ele>
        <time>2024-03-27T16:45:18Z</time>
      </trkpt>
      <trkpt lat="43.60384" lon="1.31378">
        <ele>199</ele>
        <time>2024-03-27T16:45:19Z</time>
      </trkpt>
      <trkpt lat="43.60378" lon="1.31378">
        <ele>199</ele>
        <time>2024-03-27T16:45:20Z</time>
      </trkpt>
      <trkpt lat="43.60372" lon="1.31378">
        <ele>199</ele>
        <time>2024-03-27T16:45:21Z</time>
      </trkpt>
      <trkpt lat="43.60367" lon="1.31375">
        <ele>199</ele>
        <time>2024-03-27T16:45:22Z</time>
      </trkpt>
      <trkpt lat="43.60361" lon="1.31372">
        <ele>199</ele>
        <time>2024-03-27T16:45:23Z</time>
      </trkpt>
      <trkpt lat="43.60357" lon="1.31366">
        <ele>199</ele>
        <time>2024-03-27T16:45:24Z</time>
      </trkpt>
      <trkpt lat="43.60353" lon="1.3136">
        <ele>199</ele>
        <time>2024-03-27T16:45:25Z</time>
      </trkpt>
      <trkpt lat="43.6035" lon="1.31353">
        <ele>199</ele>
        <time>2024-03-27T16:45:26Z</time>
      </trkpt>
      <trkpt lat="43.60347" lon="1.31345">
        <ele>199</ele>
        <time>2024-03-27T16:45:27Z</time>
      </trkpt>
      <trkpt lat="43.60345" lon="1.31338">
        <ele>199</ele>
        <time>2024-03-27T16:45:28Z</time>
      </trkpt>
      <trkpt lat="43.60342" lon="1.3133">
        <ele>199</ele>
        <time>2024-03-27T16:45:29Z</time>
      </trkpt>
      <trkpt lat="43.6034" lon="1.31321">
        <ele>199</ele>
        <time>2024-03-27T16:45:30Z</time>
      </trkpt>
      <trkpt lat="43.60337" lon="1.31313">
        <ele>199</ele>
        <time>2024-03-27T16:45:31Z</time>
      </trkpt>
      <trkpt lat="43.60334" lon="1.31305">
        <ele>199</ele>
        <time>2024-03-27T16:45:32Z</time>
      </trkpt>
      <trkpt lat="43.60332" lon="1.31297">
        <ele>199</ele>
        <time>2024-03-27T16:45:33Z</time>
      </trkpt>
      <trkpt lat="43.60329" lon="1.31289">
        <ele>199</ele>
        <time>2024-03-27T16:45:34Z</time>
      </trkpt>
      <trkpt lat="43.60326" lon="1.3128">
        <ele>199</ele>
        <time>2024-03-27T16:45:35Z</time>
      </trkpt>
      <trkpt lat="43.60323" lon="1.31272">
        <ele>199</ele>
        <time>2024-03-27T16:45:36Z</time>
      </trkpt>
      <trkpt lat="43.6032" lon="1.31264">
        <ele>199</ele>
        <time>2024-03-27T16:45:37Z</time>
      </trkpt>
      <trkpt lat="43.60318" lon="1.31255">
        <ele>199</ele>
        <time>2024-03-27T16:45:38Z</time>
      </trkpt>
      <trkpt lat="43.60315" lon="1.31247">
        <ele>199</ele>
        <time>2024-03-27T16:45:39Z</time>
      </trkpt>
      <trkpt lat="43.60313" lon="1.31239">
        <ele>199</ele>
        <time>2024-03-27T16:45:40Z</time>
      </trkpt>
      <trkpt lat="43.6031" lon="1.31231">
        <ele>199</ele>
        <time>2024-03-27T16:45:41Z</time>
      </trkpt>
      <trkpt lat="43.60307" lon="1.31222">
        <ele>199</ele>
        <time>2024-03-27T16:45:42Z</time>
      </trkpt>
      <trkpt lat="43.60305" lon="1.31214">
        <ele>199</ele>
        <time>2024-03-27T16:45:43Z</time>
      </trkpt>
      <trkpt lat="43.60303" lon="1.31206">
        <ele>198.8</ele>
        <time>2024-03-27T16:45:44Z</time>
      </trkpt>
      <trkpt lat="43.603" lon="1.31198">
        <ele>198.8</ele>
        <time>2024-03-27T16:45:45Z</time>
      </trkpt>
      <trkpt lat="43.60298" lon="1.3119">
        <ele>198.8</ele>
        <time>2024-03-27T16:45:46Z</time>
      </trkpt>
      <trkpt lat="43.60295" lon="1.31181">
        <ele>198.8</ele>
        <time>2024-03-27T16:45:47Z</time>
      </trkpt>
      <trkpt lat="43.60292" lon="1.31173">
        <ele>198.8</ele>
        <time>2024-03-27T16:45:48Z</time>
      </trkpt>
      <trkpt lat="43.6029" lon="1.31165">
        <ele>198.8</ele>
        <time>2024-03-27T16:45:49Z</time>
      </trkpt>
      <trkpt lat="43.60287" lon="1.31156">
        <ele>198.8</ele>
        <time>2024-03-27T16:45:50Z</time>
      </trkpt>
      <trkpt lat="43.60284" lon="1.31146">
        <ele>199</ele>
        <time>2024-03-27T16:45:51Z</time>
      </trkpt>
      <trkpt lat="43.60282" lon="1.31139">
        <ele>199</ele>
        <time>2024-03-27T16:45:52Z</time>
      </trkpt>
      <trkpt lat="43.6028" lon="1.31131">
        <ele>199</ele>
        <time>2024-03-27T16:45:53Z</time>
      </trkpt>
      <trkpt lat="43.60277" lon="1.31121">
        <ele>199</ele>
        <time>2024-03-27T16:45:54Z</time>
      </trkpt>
      <trkpt lat="43.60274" lon="1.31113">
        <ele>199.2</ele>
        <time>2024-03-27T16:45:55Z</time>
      </trkpt>
      <trkpt lat="43.60271" lon="1.31104">
        <ele>199.2</ele>
        <time>2024-03-27T16:45:56Z</time>
      </trkpt>
      <trkpt lat="43.60269" lon="1.31097">
        <ele>199.2</ele>
        <time>2024-03-27T16:45:57Z</time>
      </trkpt>
      <trkpt lat="43.60266" lon="1.31089">
        <ele>199.2</ele>
        <time>2024-03-27T16:45:58Z</time>
      </trkpt>
      <trkpt lat="43.60263" lon="1.31079">
        <ele>199.4</ele>
        <time>2024-03-27T16:45:59Z</time>
      </trkpt>
      <trkpt lat="43.6026" lon="1.31071">
        <ele>199.4</ele>
        <time>2024-03-27T16:46:00Z</time>
      </trkpt>
      <trkpt lat="43.60257" lon="1.31062">
        <ele>199.4</ele>
        <time>2024-03-27T16:46:01Z</time>
      </trkpt>
      <trkpt lat="43.60255" lon="1.31056">
        <ele>199.4</ele>
        <time>2024-03-27T16:46:02Z</time>
      </trkpt>
      <trkpt lat="43.60252" lon="1.31047">
        <ele>199.4</ele>
        <time>2024-03-27T16:46:03Z</time>
      </trkpt>
      <trkpt lat="43.60249" lon="1.31038">
        <ele>199.4</ele>
        <time>2024-03-27T16:46:04Z</time>
      </trkpt>
      <trkpt lat="43.60247" lon="1.3103">
        <ele>199.4</ele>
        <time>2024-03-27T16:46:05Z</time>
      </trkpt>
      <trkpt lat="43.60244" lon="1.31022">
        <ele>199.4</ele>
        <time>2024-03-27T16:46:06Z</time>
      </trkpt>
      <trkpt lat="43.60242" lon="1.31015">
        <ele>199.4</ele>
        <time>2024-03-27T16:46:07Z</time>
      </trkpt>
      <trkpt lat="43.6024" lon="1.31007">
        <ele>199.4</ele>
        <time>2024-03-27T16:46:08Z</time>
      </trkpt>
      <trkpt lat="43.60237" lon="1.30998">
        <ele>199.4</ele>
        <time>2024-03-27T16:46:09Z</time>
      </trkpt>
      <trkpt lat="43.60234" lon="1.30988">
        <ele>199.4</ele>
        <time>2024-03-27T16:46:10Z</time>
      </trkpt>
      <trkpt lat="43.60231" lon="1.3098">
        <ele>199.4</ele>
        <time>2024-03-27T16:46:11Z</time>
      </trkpt>
      <trkpt lat="43.60229" lon="1.30973">
        <ele>199.4</ele>
        <time>2024-03-27T16:46:12Z</time>
      </trkpt>
      <trkpt lat="43.60226" lon="1.30964">
        <ele>199.4</ele>
        <time>2024-03-27T16:46:13Z</time>
      </trkpt>
      <trkpt lat="43.60222" lon="1.30953">
        <ele>199.4</ele>
        <time>2024-03-27T16:46:14Z</time>
      </trkpt>
      <trkpt lat="43.60219" lon="1.30945">
        <ele>199.4</ele>
        <time>2024-03-27T16:46:15Z</time>
      </trkpt>
      <trkpt lat="43.60216" lon="1.30937">
        <ele>199.4</ele>
        <time>2024-03-27T16:46:16Z</time>
      </trkpt>
      <trkpt lat="43.60214" lon="1.3093">
        <ele>199.4</ele>
        <time>2024-03-27T16:46:17Z</time>
      </trkpt>
      <trkpt lat="43.60211" lon="1.30921">
        <ele>199.4</ele>
        <time>2024-03-27T16:46:18Z</time>
      </trkpt>
      <trkpt lat="43.60209" lon="1.30911">
        <ele>199.4</ele>
        <time>2024-03-27T16:46:19Z</time>
      </trkpt>
      <trkpt lat="43.60206" lon="1.30903">
        <ele>199.4</ele>
        <time>2024-03-27T16:46:20Z</time>
      </trkpt>
      <trkpt lat="43.60204" lon="1.30896">
        <ele>199.4</ele>
        <time>2024-03-27T16:46:21Z</time>
      </trkpt>
      <trkpt lat="43.60201" lon="1.30888">
        <ele>199.4</ele>
        <time>2024-03-27T16:46:22Z</time>
      </trkpt>
      <trkpt lat="43.60198" lon="1.30878">
        <ele>199.4</ele>
        <time>2024-03-27T16:46:23Z</time>
      </trkpt>
      <trkpt lat="43.60196" lon="1.30872">
        <ele>199.4</ele>
        <time>2024-03-27T16:46:24Z</time>
      </trkpt>
      <trkpt lat="43.60193" lon="1.30862">
        <ele>199.4</ele>
        <time>2024-03-27T16:46:25Z</time>
      </trkpt>
      <trkpt lat="43.60192" lon="1.30855">
        <ele>199.6</ele>
        <time>2024-03-27T16:46:26Z</time>
      </trkpt>
      <trkpt lat="43.60189" lon="1.30847">
        <ele>199.6</ele>
        <time>2024-03-27T16:46:27Z</time>
      </trkpt>
      <trkpt lat="43.60186" lon="1.30837">
        <ele>199.6</ele>
        <time>2024-03-27T16:46:28Z</time>
      </trkpt>
      <trkpt lat="43.60183" lon="1.30829">
        <ele>199.6</ele>
        <time>2024-03-27T16:46:29Z</time>
      </trkpt>
      <trkpt lat="43.60181" lon="1.30822">
        <ele>199.6</ele>
        <time>2024-03-27T16:46:30Z</time>
      </trkpt>
      <trkpt lat="43.60178" lon="1.30812">
        <ele>199.6</ele>
        <time>2024-03-27T16:46:31Z</time>
      </trkpt>
      <trkpt lat="43.60175" lon="1.30803">
        <ele>199.6</ele>
        <time>2024-03-27T16:46:32Z</time>
      </trkpt>
      <trkpt lat="43.60173" lon="1.30795">
        <ele>199.6</ele>
        <time>2024-03-27T16:46:33Z</time>
      </trkpt>
      <trkpt lat="43.6017" lon="1.30787">
        <ele>199.6</ele>
        <time>2024-03-27T16:46:34Z</time>
      </trkpt>
      <trkpt lat="43.60168" lon="1.30778">
        <ele>199.6</ele>
        <time>2024-03-27T16:46:35Z</time>
      </trkpt>
      <trkpt lat="43.60165" lon="1.3077">
        <ele>199.6</ele>
        <time>2024-03-27T16:46:36Z</time>
      </trkpt>
      <trkpt lat="43.60163" lon="1.30762">
        <ele>199.6</ele>
        <time>2024-03-27T16:46:37Z</time>
      </trkpt>
      <trkpt lat="43.6016" lon="1.30753">
        <ele>199.6</ele>
        <time>2024-03-27T16:46:38Z</time>
      </trkpt>
      <trkpt lat="43.60157" lon="1.30745">
        <ele>199.6</ele>
        <time>2024-03-27T16:46:39Z</time>
      </trkpt>
      <trkpt lat="43.60155" lon="1.30737">
        <ele>199.6</ele>
        <time>2024-03-27T16:46:40Z</time>
      </trkpt>
      <trkpt lat="43.60152" lon="1.3073">
        <ele>199.6</ele>
        <time>2024-03-27T16:46:41Z</time>
      </trkpt>
      <trkpt lat="43.60149" lon="1.30721">
        <ele>199.6</ele>
        <time>2024-03-27T16:46:42Z</time>
      </trkpt>
      <trkpt lat="43.60147" lon="1.30713">
        <ele>199.6</ele>
        <time>2024-03-27T16:46:43Z</time>
      </trkpt>
      <trkpt lat="43.60143" lon="1.30704">
        <ele>199.6</ele>
        <time>2024-03-27T16:46:44Z</time>
      </trkpt>
      <trkpt lat="43.6014" lon="1.30695">
        <ele>199.8</ele>
        <time>2024-03-27T16:46:45Z</time>
      </trkpt>
      <trkpt lat="43.60137" lon="1.30686">
        <ele>199.8</ele>
        <time>2024-03-27T16:46:46Z</time>
      </trkpt>
      <trkpt lat="43.60134" lon="1.30677">
        <ele>199.8</ele>
        <time>2024-03-27T16:46:47Z</time>
      </trkpt>
      <trkpt lat="43.60131" lon="1.30669">
        <ele>199.8</ele>
        <time>2024-03-27T16:46:48Z</time>
      </trkpt>
      <trkpt lat="43.60128" lon="1.30661">
        <ele>199.8</ele>
        <time>2024-03-27T16:46:49Z</time>
      </trkpt>
      <trkpt lat="43.60125" lon="1.30653">
        <ele>199.8</ele>
        <time>2024-03-27T16:46:50Z</time>
      </trkpt>
      <trkpt lat="43.60121" lon="1.30646">
        <ele>200</ele>
        <time>2024-03-27T16:46:51Z</time>
      </trkpt>
      <trkpt lat="43.60117" lon="1.3064">
        <ele>200</ele>
        <time>2024-03-27T16:46:52Z</time>
      </trkpt>
      <trkpt lat="43.60112" lon="1.30634">
        <ele>200</ele>
        <time>2024-03-27T16:46:53Z</time>
      </trkpt>
      <trkpt lat="43.60107" lon="1.30629">
        <ele>200</ele>
        <time>2024-03-27T16:46:54Z</time>
      </trkpt>
      <trkpt lat="43.60102" lon="1.30624">
        <ele>200</ele>
        <time>2024-03-27T16:46:55Z</time>
      </trkpt>
      <trkpt lat="43.60092" lon="1.30615">
        <ele>200</ele>
        <time>2024-03-27T16:46:57Z</time>
      </trkpt>
      <trkpt lat="43.60089" lon="1.30613">
        <ele>200</ele>
        <time>2024-03-27T16:46:58Z</time>
      </trkpt>
      <trkpt lat="43.60086" lon="1.30611">
        <ele>200</ele>
        <time>2024-03-27T16:46:59Z</time>
      </trkpt>
      <trkpt lat="43.60085" lon="1.3061">
        <ele>200</ele>
        <time>2024-03-27T16:47:00Z</time>
      </trkpt>
      <trkpt lat="43.60083" lon="1.30609">
        <ele>200</ele>
        <time>2024-03-27T16:47:01Z</time>
      </trkpt>
      <trkpt lat="43.60083" lon="1.30609">
        <ele>199.8</ele>
        <time>2024-03-27T16:47:02Z</time>
      </trkpt>
      <trkpt lat="43.60081" lon="1.30609">
        <ele>199.8</ele>
        <time>2024-03-27T16:47:03Z</time>
      </trkpt>
      <trkpt lat="43.60079" lon="1.3061">
        <ele>199.8</ele>
        <time>2024-03-27T16:47:04Z</time>
      </trkpt>
      <trkpt lat="43.60077" lon="1.30612">
        <ele>199.8</ele>
        <time>2024-03-27T16:47:05Z</time>
      </trkpt>
      <trkpt lat="43.60075" lon="1.30615">
        <ele>199.8</ele>
        <time>2024-03-27T16:47:06Z</time>
      </trkpt>
      <trkpt lat="43.60074" lon="1.30619">
        <ele>199.8</ele>
        <time>2024-03-27T16:47:07Z</time>
      </trkpt>
      <trkpt lat="43.60072" lon="1.30624">
        <ele>199.8</ele>
        <time>2024-03-27T16:47:08Z</time>
      </trkpt>
      <trkpt lat="43.60071" lon="1.30629">
        <ele>199.8</ele>
        <time>2024-03-27T16:47:09Z</time>
      </trkpt>
      <trkpt lat="43.60069" lon="1.30634">
        <ele>199.8</ele>
        <time>2024-03-27T16:47:10Z</time>
      </trkpt>
      <trkpt lat="43.60068" lon="1.3064">
        <ele>199.8</ele>
        <time>2024-03-27T16:47:11Z</time>
      </trkpt>
      <trkpt lat="43.60067" lon="1.30646">
        <ele>199.8</ele>
        <time>2024-03-27T16:47:12Z</time>
      </trkpt>
      <trkpt lat="43.60065" lon="1.30652">
        <ele>199.8</ele>
        <time>2024-03-27T16:47:13Z</time>
      </trkpt>
      <trkpt lat="43.60064" lon="1.30659">
        <ele>199.8</ele>
        <time>2024-03-27T16:47:14Z</time>
      </trkpt>
      <trkpt lat="43.60063" lon="1.30665">
        <ele>199.8</ele>
        <time>2024-03-27T16:47:15Z</time>
      </trkpt>
      <trkpt lat="43.60062" lon="1.30672">
        <ele>199.8</ele>
        <time>2024-03-27T16:47:16Z</time>
      </trkpt>
      <trkpt lat="43.60061" lon="1.3068">
        <ele>199.8</ele>
        <time>2024-03-27T16:47:17Z</time>
      </trkpt>
      <trkpt lat="43.6006" lon="1.30687">
        <ele>199.8</ele>
        <time>2024-03-27T16:47:18Z</time>
      </trkpt>
      <trkpt lat="43.60058" lon="1.30694">
        <ele>199.8</ele>
        <time>2024-03-27T16:47:19Z</time>
      </trkpt>
      <trkpt lat="43.60057" lon="1.30701">
        <ele>199.8</ele>
        <time>2024-03-27T16:47:20Z</time>
      </trkpt>
      <trkpt lat="43.60055" lon="1.30708">
        <ele>200</ele>
        <time>2024-03-27T16:47:21Z</time>
      </trkpt>
      <trkpt lat="43.60054" lon="1.30715">
        <ele>200</ele>
        <time>2024-03-27T16:47:22Z</time>
      </trkpt>
      <trkpt lat="43.60053" lon="1.30723">
        <ele>200.4</ele>
        <time>2024-03-27T16:47:23Z</time>
      </trkpt>
      <trkpt lat="43.60052" lon="1.3073">
        <ele>200.2</ele>
        <time>2024-03-27T16:47:24Z</time>
      </trkpt>
      <trkpt lat="43.6005" lon="1.30737">
        <ele>200.4</ele>
        <time>2024-03-27T16:47:25Z</time>
      </trkpt>
      <trkpt lat="43.60048" lon="1.30745">
        <ele>200.4</ele>
        <time>2024-03-27T16:47:26Z</time>
      </trkpt>
      <trkpt lat="43.60046" lon="1.30752">
        <ele>200.4</ele>
        <time>2024-03-27T16:47:27Z</time>
      </trkpt>
      <trkpt lat="43.60043" lon="1.30758">
        <ele>200.4</ele>
        <time>2024-03-27T16:47:28Z</time>
      </trkpt>
      <trkpt lat="43.60041" lon="1.30765">
        <ele>200.6</ele>
        <time>2024-03-27T16:47:29Z</time>
      </trkpt>
      <trkpt lat="43.60039" lon="1.30773">
        <ele>200.6</ele>
        <time>2024-03-27T16:47:30Z</time>
      </trkpt>
      <trkpt lat="43.60037" lon="1.30781">
        <ele>200.6</ele>
        <time>2024-03-27T16:47:31Z</time>
      </trkpt>
      <trkpt lat="43.60036" lon="1.30789">
        <ele>200.6</ele>
        <time>2024-03-27T16:47:32Z</time>
      </trkpt>
      <trkpt lat="43.60036" lon="1.30797">
        <ele>200.6</ele>
        <time>2024-03-27T16:47:33Z</time>
      </trkpt>
      <trkpt lat="43.60036" lon="1.30805">
        <ele>200.8</ele>
        <time>2024-03-27T16:47:34Z</time>
      </trkpt>
      <trkpt lat="43.60036" lon="1.30814">
        <ele>200.8</ele>
        <time>2024-03-27T16:47:35Z</time>
      </trkpt>
      <trkpt lat="43.60035" lon="1.30822">
        <ele>200.8</ele>
        <time>2024-03-27T16:47:36Z</time>
      </trkpt>
      <trkpt lat="43.60035" lon="1.30831">
        <ele>200.8</ele>
        <time>2024-03-27T16:47:37Z</time>
      </trkpt>
      <trkpt lat="43.60033" lon="1.3084">
        <ele>200.8</ele>
        <time>2024-03-27T16:47:38Z</time>
      </trkpt>
      <trkpt lat="43.60032" lon="1.30848">
        <ele>200.8</ele>
        <time>2024-03-27T16:47:39Z</time>
      </trkpt>
      <trkpt lat="43.6003" lon="1.30857">
        <ele>200.8</ele>
        <time>2024-03-27T16:47:40Z</time>
      </trkpt>
      <trkpt lat="43.60029" lon="1.30865">
        <ele>200.8</ele>
        <time>2024-03-27T16:47:41Z</time>
      </trkpt>
      <trkpt lat="43.60028" lon="1.30873">
        <ele>200.8</ele>
        <time>2024-03-27T16:47:42Z</time>
      </trkpt>
      <trkpt lat="43.60026" lon="1.30882">
        <ele>200.8</ele>
        <time>2024-03-27T16:47:43Z</time>
      </trkpt>
      <trkpt lat="43.60024" lon="1.3089">
        <ele>200.8</ele>
        <time>2024-03-27T16:47:44Z</time>
      </trkpt>
      <trkpt lat="43.60023" lon="1.30899">
        <ele>200.8</ele>
        <time>2024-03-27T16:47:45Z</time>
      </trkpt>
      <trkpt lat="43.60021" lon="1.30908">
        <ele>200.8</ele>
        <time>2024-03-27T16:47:46Z</time>
      </trkpt>
      <trkpt lat="43.6002" lon="1.30916">
        <ele>200.8</ele>
        <time>2024-03-27T16:47:47Z</time>
      </trkpt>
      <trkpt lat="43.60018" lon="1.30924">
        <ele>200.8</ele>
        <time>2024-03-27T16:47:48Z</time>
      </trkpt>
      <trkpt lat="43.60017" lon="1.30933">
        <ele>200.8</ele>
        <time>2024-03-27T16:47:49Z</time>
      </trkpt>
      <trkpt lat="43.60015" lon="1.30941">
        <ele>200.8</ele>
        <time>2024-03-27T16:47:50Z</time>
      </trkpt>
      <trkpt lat="43.60014" lon="1.30949">
        <ele>200.8</ele>
        <time>2024-03-27T16:47:51Z</time>
      </trkpt>
      <trkpt lat="43.60012" lon="1.30957">
        <ele>200.8</ele>
        <time>2024-03-27T16:47:52Z</time>
      </trkpt>
      <trkpt lat="43.6001" lon="1.30965">
        <ele>200.8</ele>
        <time>2024-03-27T16:47:53Z</time>
      </trkpt>
      <trkpt lat="43.60008" lon="1.30973">
        <ele>200.8</ele>
        <time>2024-03-27T16:47:54Z</time>
      </trkpt>
      <trkpt lat="43.60006" lon="1.3098">
        <ele>200.8</ele>
        <time>2024-03-27T16:47:55Z</time>
      </trkpt>
      <trkpt lat="43.60004" lon="1.30988">
        <ele>200.8</ele>
        <time>2024-03-27T16:47:56Z</time>
      </trkpt>
      <trkpt lat="43.60002" lon="1.30996">
        <ele>200.8</ele>
        <time>2024-03-27T16:47:57Z</time>
      </trkpt>
      <trkpt lat="43.60001" lon="1.31004">
        <ele>200.8</ele>
        <time>2024-03-27T16:47:58Z</time>
      </trkpt>
      <trkpt lat="43.59999" lon="1.31012">
        <ele>200.8</ele>
        <time>2024-03-27T16:47:59Z</time>
      </trkpt>
      <trkpt lat="43.59998" lon="1.31021">
        <ele>200.6</ele>
        <time>2024-03-27T16:48:00Z</time>
      </trkpt>
      <trkpt lat="43.59996" lon="1.31029">
        <ele>200.6</ele>
        <time>2024-03-27T16:48:01Z</time>
      </trkpt>
      <trkpt lat="43.59994" lon="1.31037">
        <ele>200.4</ele>
        <time>2024-03-27T16:48:02Z</time>
      </trkpt>
      <trkpt lat="43.59993" lon="1.31046">
        <ele>200.4</ele>
        <time>2024-03-27T16:48:03Z</time>
      </trkpt>
      <trkpt lat="43.59991" lon="1.31054">
        <ele>200.4</ele>
        <time>2024-03-27T16:48:04Z</time>
      </trkpt>
      <trkpt lat="43.5999" lon="1.31063">
        <ele>200</ele>
        <time>2024-03-27T16:48:05Z</time>
      </trkpt>
      <trkpt lat="43.59988" lon="1.31072">
        <ele>200</ele>
        <time>2024-03-27T16:48:06Z</time>
      </trkpt>
      <trkpt lat="43.59987" lon="1.3108">
        <ele>200</ele>
        <time>2024-03-27T16:48:07Z</time>
      </trkpt>
      <trkpt lat="43.59985" lon="1.31089">
        <ele>200</ele>
        <time>2024-03-27T16:48:08Z</time>
      </trkpt>
      <trkpt lat="43.59984" lon="1.31097">
        <ele>200</ele>
        <time>2024-03-27T16:48:09Z</time>
      </trkpt>
      <trkpt lat="43.59982" lon="1.31106">
        <ele>200</ele>
        <time>2024-03-27T16:48:10Z</time>
      </trkpt>
      <trkpt lat="43.59981" lon="1.31114">
        <ele>200</ele>
        <time>2024-03-27T16:48:11Z</time>
      </trkpt>
      <trkpt lat="43.59979" lon="1.31122">
        <ele>200</ele>
        <time>2024-03-27T16:48:12Z</time>
      </trkpt>
      <trkpt lat="43.59978" lon="1.31131">
        <ele>200</ele>
        <time>2024-03-27T16:48:13Z</time>
      </trkpt>
      <trkpt lat="43.59976" lon="1.31139">
        <ele>200</ele>
        <time>2024-03-27T16:48:14Z</time>
      </trkpt>
      <trkpt lat="43.59975" lon="1.31148">
        <ele>200</ele>
        <time>2024-03-27T16:48:15Z</time>
      </trkpt>
      <trkpt lat="43.59974" lon="1.31156">
        <ele>200</ele>
        <time>2024-03-27T16:48:16Z</time>
      </trkpt>
      <trkpt lat="43.59972" lon="1.31164">
        <ele>200</ele>
        <time>2024-03-27T16:48:17Z</time>
      </trkpt>
      <trkpt lat="43.5997" lon="1.31172">
        <ele>200</ele>
        <time>2024-03-27T16:48:18Z</time>
      </trkpt>
      <trkpt lat="43.59968" lon="1.3118">
        <ele>200</ele>
        <time>2024-03-27T16:48:19Z</time>
      </trkpt>
      <trkpt lat="43.59964" lon="1.31186">
        <ele>200</ele>
        <time>2024-03-27T16:48:20Z</time>
      </trkpt>
      <trkpt lat="43.59959" lon="1.3119">
        <ele>200</ele>
        <time>2024-03-27T16:48:21Z</time>
      </trkpt>
      <trkpt lat="43.59954" lon="1.31193">
        <ele>200</ele>
        <time>2024-03-27T16:48:22Z</time>
      </trkpt>
      <trkpt lat="43.59948" lon="1.31194">
        <ele>200</ele>
        <time>2024-03-27T16:48:23Z</time>
      </trkpt>
      <trkpt lat="43.59943" lon="1.31193">
        <ele>200</ele>
        <time>2024-03-27T16:48:24Z</time>
      </trkpt>
      <trkpt lat="43.59937" lon="1.3119">
        <ele>200</ele>
        <time>2024-03-27T16:48:25Z</time>
      </trkpt>
      <trkpt lat="43.59932" lon="1.31186">
        <ele>200</ele>
        <time>2024-03-27T16:48:26Z</time>
      </trkpt>
      <trkpt lat="43.59927" lon="1.31181">
        <ele>200</ele>
        <time>2024-03-27T16:48:27Z</time>
      </trkpt>
      <trkpt lat="43.59922" lon="1.31176">
        <ele>200</ele>
        <time>2024-03-27T16:48:28Z</time>
      </trkpt>
      <trkpt lat="43.59917" lon="1.31172">
        <ele>199.8</ele>
        <time>2024-03-27T16:48:29Z</time>
      </trkpt>
      <trkpt lat="43.59912" lon="1.31167">
        <ele>200</ele>
        <time>2024-03-27T16:48:30Z</time>
      </trkpt>
      <trkpt lat="43.59908" lon="1.31162">
        <ele>200.2</ele>
        <time>2024-03-27T16:48:31Z</time>
      </trkpt>
      <trkpt lat="43.59903" lon="1.31158">
        <ele>200.2</ele>
        <time>2024-03-27T16:48:32Z</time>
      </trkpt>
      <trkpt lat="43.59898" lon="1.31153">
        <ele>200.2</ele>
        <time>2024-03-27T16:48:33Z</time>
      </trkpt>
      <trkpt lat="43.59893" lon="1.31148">
        <ele>200.2</ele>
        <time>2024-03-27T16:48:34Z</time>
      </trkpt>
      <trkpt lat="43.59888" lon="1.31143">
        <ele>200.2</ele>
        <time>2024-03-27T16:48:35Z</time>
      </trkpt>
      <trkpt lat="43.59883" lon="1.31139">
        <ele>200.2</ele>
        <time>2024-03-27T16:48:36Z</time>
      </trkpt>
      <trkpt lat="43.59878" lon="1.31134">
        <ele>200.4</ele>
        <time>2024-03-27T16:48:37Z</time>
      </trkpt>
      <trkpt lat="43.59873" lon="1.3113">
        <ele>200.4</ele>
        <time>2024-03-27T16:48:38Z</time>
      </trkpt>
      <trkpt lat="43.59868" lon="1.31125">
        <ele>200.4</ele>
        <time>2024-03-27T16:48:39Z</time>
      </trkpt>
      <trkpt lat="43.59863" lon="1.3112">
        <ele>200.4</ele>
        <time>2024-03-27T16:48:40Z</time>
      </trkpt>
      <trkpt lat="43.59858" lon="1.31116">
        <ele>200.4</ele>
        <time>2024-03-27T16:48:41Z</time>
      </trkpt>
      <trkpt lat="43.59852" lon="1.31111">
        <ele>200.4</ele>
        <time>2024-03-27T16:48:42Z</time>
      </trkpt>
      <trkpt lat="43.59847" lon="1.31106">
        <ele>200.4</ele>
        <time>2024-03-27T16:48:43Z</time>
      </trkpt>
      <trkpt lat="43.59842" lon="1.31102">
        <ele>200.4</ele>
        <time>2024-03-27T16:48:44Z</time>
      </trkpt>
      <trkpt lat="43.59836" lon="1.31097">
        <ele>200.4</ele>
        <time>2024-03-27T16:48:45Z</time>
      </trkpt>
      <trkpt lat="43.59831" lon="1.31092">
        <ele>200.4</ele>
        <time>2024-03-27T16:48:46Z</time>
      </trkpt>
      <trkpt lat="43.59826" lon="1.31087">
        <ele>200.4</ele>
        <time>2024-03-27T16:48:47Z</time>
      </trkpt>
      <trkpt lat="43.59821" lon="1.31082">
        <ele>200.4</ele>
        <time>2024-03-27T16:48:48Z</time>
      </trkpt>
      <trkpt lat="43.59816" lon="1.31076">
        <ele>200.6</ele>
        <time>2024-03-27T16:48:49Z</time>
      </trkpt>
      <trkpt lat="43.59811" lon="1.31071">
        <ele>200.6</ele>
        <time>2024-03-27T16:48:50Z</time>
      </trkpt>
      <trkpt lat="43.59806" lon="1.31066">
        <ele>200.6</ele>
        <time>2024-03-27T16:48:51Z</time>
      </trkpt>
      <trkpt lat="43.59801" lon="1.31061">
        <ele>200.6</ele>
        <time>2024-03-27T16:48:52Z</time>
      </trkpt>
      <trkpt lat="43.59796" lon="1.31056">
        <ele>200.6</ele>
        <time>2024-03-27T16:48:53Z</time>
      </trkpt>
      <trkpt lat="43.5979" lon="1.31051">
        <ele>200.6</ele>
        <time>2024-03-27T16:48:54Z</time>
      </trkpt>
      <trkpt lat="43.59785" lon="1.31047">
        <ele>200.6</ele>
        <time>2024-03-27T16:48:55Z</time>
      </trkpt>
      <trkpt lat="43.5978" lon="1.31042">
        <ele>200.6</ele>
        <time>2024-03-27T16:48:56Z</time>
      </trkpt>
      <trkpt lat="43.59774" lon="1.31036">
        <ele>200.6</ele>
        <time>2024-03-27T16:48:57Z</time>
      </trkpt>
      <trkpt lat="43.59769" lon="1.31031">
        <ele>200.8</ele>
        <time>2024-03-27T16:48:58Z</time>
      </trkpt>
      <trkpt lat="43.59764" lon="1.31026">
        <ele>200.8</ele>
        <time>2024-03-27T16:48:59Z</time>
      </trkpt>
      <trkpt lat="43.59759" lon="1.31021">
        <ele>200.8</ele>
        <time>2024-03-27T16:49:00Z</time>
      </trkpt>
      <trkpt lat="43.59754" lon="1.31015">
        <ele>200.8</ele>
        <time>2024-03-27T16:49:01Z</time>
      </trkpt>
      <trkpt lat="43.59749" lon="1.31011">
        <ele>201</ele>
        <time>2024-03-27T16:49:02Z</time>
      </trkpt>
      <trkpt lat="43.59744" lon="1.31005">
        <ele>201</ele>
        <time>2024-03-27T16:49:03Z</time>
      </trkpt>
      <trkpt lat="43.59739" lon="1.31">
        <ele>201</ele>
        <time>2024-03-27T16:49:04Z</time>
      </trkpt>
      <trkpt lat="43.59733" lon="1.30995">
        <ele>201</ele>
        <time>2024-03-27T16:49:05Z</time>
      </trkpt>
      <trkpt lat="43.59728" lon="1.3099">
        <ele>201.2</ele>
        <time>2024-03-27T16:49:06Z</time>
      </trkpt>
      <trkpt lat="43.59722" lon="1.30983">
        <ele>201.2</ele>
        <time>2024-03-27T16:49:07Z</time>
      </trkpt>
      <trkpt lat="43.59718" lon="1.30978">
        <ele>201.2</ele>
        <time>2024-03-27T16:49:08Z</time>
      </trkpt>
      <trkpt lat="43.59713" lon="1.30973">
        <ele>201.2</ele>
        <time>2024-03-27T16:49:09Z</time>
      </trkpt>
      <trkpt lat="43.59709" lon="1.30969">
        <ele>201.2</ele>
        <time>2024-03-27T16:49:10Z</time>
      </trkpt>
      <trkpt lat="43.59704" lon="1.30964">
        <ele>201.2</ele>
        <time>2024-03-27T16:49:11Z</time>
      </trkpt>
      <trkpt lat="43.59698" lon="1.30958">
        <ele>201.4</ele>
        <time>2024-03-27T16:49:12Z</time>
      </trkpt>
      <trkpt lat="43.59693" lon="1.30954">
        <ele>201.4</ele>
        <time>2024-03-27T16:49:13Z</time>
      </trkpt>
      <trkpt lat="43.59688" lon="1.30949">
        <ele>201.4</ele>
        <time>2024-03-27T16:49:14Z</time>
      </trkpt>
      <trkpt lat="43.59685" lon="1.30946">
        <ele>201.4</ele>
        <time>2024-03-27T16:49:15Z</time>
      </trkpt>
      <trkpt lat="43.59679" lon="1.30941">
        <ele>201.6</ele>
        <time>2024-03-27T16:49:16Z</time>
      </trkpt>
      <trkpt lat="43.59675" lon="1.30936">
        <ele>201.6</ele>
        <time>2024-03-27T16:49:17Z</time>
      </trkpt>
      <trkpt lat="43.59671" lon="1.30932">
        <ele>201.6</ele>
        <time>2024-03-27T16:49:18Z</time>
      </trkpt>
      <trkpt lat="43.59669" lon="1.30927">
        <ele>201.6</ele>
        <time>2024-03-27T16:49:19Z</time>
      </trkpt>
      <trkpt lat="43.59668" lon="1.30923">
        <ele>201.8</ele>
        <time>2024-03-27T16:49:20Z</time>
      </trkpt>
      <trkpt lat="43.59668" lon="1.30915">
        <ele>201.8</ele>
        <time>2024-03-27T16:49:21Z</time>
      </trkpt>
      <trkpt lat="43.59668" lon="1.30909">
        <ele>201.8</ele>
        <time>2024-03-27T16:49:22Z</time>
      </trkpt>
      <trkpt lat="43.59669" lon="1.30902">
        <ele>201.8</ele>
        <time>2024-03-27T16:49:23Z</time>
      </trkpt>
      <trkpt lat="43.5967" lon="1.30896">
        <ele>201.8</ele>
        <time>2024-03-27T16:49:24Z</time>
      </trkpt>
      <trkpt lat="43.59672" lon="1.30889">
        <ele>201.8</ele>
        <time>2024-03-27T16:49:25Z</time>
      </trkpt>
      <trkpt lat="43.59673" lon="1.3088">
        <ele>201.8</ele>
        <time>2024-03-27T16:49:26Z</time>
      </trkpt>
      <trkpt lat="43.59674" lon="1.30873">
        <ele>201.8</ele>
        <time>2024-03-27T16:49:27Z</time>
      </trkpt>
      <trkpt lat="43.59676" lon="1.30867">
        <ele>201.8</ele>
        <time>2024-03-27T16:49:28Z</time>
      </trkpt>
      <trkpt lat="43.59677" lon="1.30862">
        <ele>201.8</ele>
        <time>2024-03-27T16:49:29Z</time>
      </trkpt>
      <trkpt lat="43.59679" lon="1.30856">
        <ele>201.8</ele>
        <time>2024-03-27T16:49:30Z</time>
      </trkpt>
      <trkpt lat="43.59682" lon="1.30852">
        <ele>201.8</ele>
        <time>2024-03-27T16:49:31Z</time>
      </trkpt>
      <trkpt lat="43.59685" lon="1.30851">
        <ele>202</ele>
        <time>2024-03-27T16:49:32Z</time>
      </trkpt>
      <trkpt lat="43.59687" lon="1.30849">
        <ele>202</ele>
        <time>2024-03-27T16:49:33Z</time>
      </trkpt>
      <trkpt lat="43.59689" lon="1.30847">
        <ele>202.2</ele>
        <time>2024-03-27T16:49:34Z</time>
      </trkpt>
      <trkpt lat="43.59692" lon="1.30845">
        <ele>202.2</ele>
        <time>2024-03-27T16:49:35Z</time>
      </trkpt>
      <trkpt lat="43.59695" lon="1.30843">
        <ele>202.2</ele>
        <time>2024-03-27T16:49:36Z</time>
      </trkpt>
      <trkpt lat="43.59699" lon="1.30841">
        <ele>202.2</ele>
        <time>2024-03-27T16:49:37Z</time>
      </trkpt>
      <trkpt lat="43.59702" lon="1.30839">
        <ele>202.2</ele>
        <time>2024-03-27T16:49:38Z</time>
      </trkpt>
      <trkpt lat="43.59705" lon="1.30835">
        <ele>202.2</ele>
        <time>2024-03-27T16:49:39Z</time>
      </trkpt>
      <trkpt lat="43.59706" lon="1.30829">
        <ele>202.2</ele>
        <time>2024-03-27T16:49:40Z</time>
      </trkpt>
      <trkpt lat="43.59707" lon="1.30824">
        <ele>202.2</ele>
        <time>2024-03-27T16:49:41Z</time>
      </trkpt>
      <trkpt lat="43.59708" lon="1.30821">
        <ele>202</ele>
        <time>2024-03-27T16:49:42Z</time>
      </trkpt>
      <trkpt lat="43.5971" lon="1.3082">
        <ele>202</ele>
        <time>2024-03-27T16:49:43Z</time>
      </trkpt>
      <trkpt lat="43.59712" lon="1.30821">
        <ele>201.8</ele>
        <time>2024-03-27T16:49:44Z</time>
      </trkpt>
      <trkpt lat="43.59713" lon="1.30821">
        <ele>201.8</ele>
        <time>2024-03-27T16:49:45Z</time>
      </trkpt>
      <trkpt lat="43.59713" lon="1.30821">
        <ele>201.8</ele>
        <time>2024-03-27T16:49:46Z</time>
      </trkpt>
      <trkpt lat="43.59713" lon="1.30821">
        <ele>201.8</ele>
        <time>2024-03-27T16:49:47Z</time>
      </trkpt>
      <trkpt lat="43.59713" lon="1.30821">
        <ele>201.8</ele>
        <time>2024-03-27T16:49:48Z</time>
      </trkpt>
      <trkpt lat="43.59713" lon="1.30821">
        <ele>201.8</ele>
        <time>2024-03-27T16:49:49Z</time>
      </trkpt>
      <trkpt lat="43.59709" lon="1.30821">
        <ele>201.8</ele>
        <time>2024-03-27T16:53:24Z</time>
      </trkpt>
      <trkpt lat="43.59707" lon="1.30822">
        <ele>201.8</ele>
        <time>2024-03-27T16:53:25Z</time>
      </trkpt>
      <trkpt lat="43.59706" lon="1.30825">
        <ele>201.8</ele>
        <time>2024-03-27T16:53:26Z</time>
      </trkpt>
      <trkpt lat="43.59706" lon="1.30829">
        <ele>201.8</ele>
        <time>2024-03-27T16:53:27Z</time>
      </trkpt>
      <trkpt lat="43.59705" lon="1.30833">
        <ele>201.6</ele>
        <time>2024-03-27T16:53:28Z</time>
      </trkpt>
      <trkpt lat="43.59704" lon="1.30837">
        <ele>201.6</ele>
        <time>2024-03-27T16:53:29Z</time>
      </trkpt>
      <trkpt lat="43.597" lon="1.30839">
        <ele>201.6</ele>
        <time>2024-03-27T16:53:30Z</time>
      </trkpt>
      <trkpt lat="43.59697" lon="1.30839">
        <ele>201.6</ele>
        <time>2024-03-27T16:53:31Z</time>
      </trkpt>
      <trkpt lat="43.59693" lon="1.3084">
        <ele>201.6</ele>
        <time>2024-03-27T16:53:32Z</time>
      </trkpt>
      <trkpt lat="43.5969" lon="1.3084">
        <ele>201.6</ele>
        <time>2024-03-27T16:53:33Z</time>
      </trkpt>
      <trkpt lat="43.59686" lon="1.30841">
        <ele>201.6</ele>
        <time>2024-03-27T16:53:34Z</time>
      </trkpt>
      <trkpt lat="43.59682" lon="1.30843">
        <ele>201.6</ele>
        <time>2024-03-27T16:53:35Z</time>
      </trkpt>
      <trkpt lat="43.59678" lon="1.30846">
        <ele>201.6</ele>
        <time>2024-03-27T16:53:36Z</time>
      </trkpt>
      <trkpt lat="43.59675" lon="1.30849">
        <ele>201.6</ele>
        <time>2024-03-27T16:53:37Z</time>
      </trkpt>
      <trkpt lat="43.59672" lon="1.30853">
        <ele>201.6</ele>
        <time>2024-03-27T16:53:38Z</time>
      </trkpt>
      <trkpt lat="43.59669" lon="1.30859">
        <ele>201.8</ele>
        <time>2024-03-27T16:53:39Z</time>
      </trkpt>
      <trkpt lat="43.59667" lon="1.30865">
        <ele>201.8</ele>
        <time>2024-03-27T16:53:40Z</time>
      </trkpt>
      <trkpt lat="43.59666" lon="1.30872">
        <ele>201.8</ele>
        <time>2024-03-27T16:53:41Z</time>
      </trkpt>
      <trkpt lat="43.59664" lon="1.30878">
        <ele>201.8</ele>
        <time>2024-03-27T16:53:42Z</time>
      </trkpt>
      <trkpt lat="43.59663" lon="1.30886">
        <ele>201.8</ele>
        <time>2024-03-27T16:53:43Z</time>
      </trkpt>
      <trkpt lat="43.59661" lon="1.30893">
        <ele>201.8</ele>
        <time>2024-03-27T16:53:44Z</time>
      </trkpt>
      <trkpt lat="43.5966" lon="1.30901">
        <ele>201.8</ele>
        <time>2024-03-27T16:53:45Z</time>
      </trkpt>
      <trkpt lat="43.59658" lon="1.30908">
        <ele>202</ele>
        <time>2024-03-27T16:53:46Z</time>
      </trkpt>
      <trkpt lat="43.59656" lon="1.30914">
        <ele>201.8</ele>
        <time>2024-03-27T16:53:47Z</time>
      </trkpt>
      <trkpt lat="43.59653" lon="1.3092">
        <ele>201.8</ele>
        <time>2024-03-27T16:53:48Z</time>
      </trkpt>
      <trkpt lat="43.5965" lon="1.30924">
        <ele>201.8</ele>
        <time>2024-03-27T16:53:49Z</time>
      </trkpt>
      <trkpt lat="43.59647" lon="1.30927">
        <ele>201.6</ele>
        <time>2024-03-27T16:53:50Z</time>
      </trkpt>
      <trkpt lat="43.59643" lon="1.30928">
        <ele>201.6</ele>
        <time>2024-03-27T16:53:51Z</time>
      </trkpt>
      <trkpt lat="43.59639" lon="1.30927">
        <ele>201.6</ele>
        <time>2024-03-27T16:53:52Z</time>
      </trkpt>
      <trkpt lat="43.59633" lon="1.30926">
        <ele>201.6</ele>
        <time>2024-03-27T16:53:53Z</time>
      </trkpt>
      <trkpt lat="43.59627" lon="1.30925">
        <ele>201.6</ele>
        <time>2024-03-27T16:53:54Z</time>
      </trkpt>
      <trkpt lat="43.59621" lon="1.30924">
        <ele>201.6</ele>
        <time>2024-03-27T16:53:55Z</time>
      </trkpt>
      <trkpt lat="43.59615" lon="1.30923">
        <ele>201.8</ele>
        <time>2024-03-27T16:53:56Z</time>
      </trkpt>
      <trkpt lat="43.59609" lon="1.30922">
        <ele>201.8</ele>
        <time>2024-03-27T16:53:57Z</time>
      </trkpt>
      <trkpt lat="43.59603" lon="1.30921">
        <ele>201.8</ele>
        <time>2024-03-27T16:53:58Z</time>
      </trkpt>
      <trkpt lat="43.59597" lon="1.3092">
        <ele>201.8</ele>
        <time>2024-03-27T16:53:59Z</time>
      </trkpt>
      <trkpt lat="43.59591" lon="1.30919">
        <ele>201.6</ele>
        <time>2024-03-27T16:54:00Z</time>
      </trkpt>
      <trkpt lat="43.59584" lon="1.30918">
        <ele>201.6</ele>
        <time>2024-03-27T16:54:01Z</time>
      </trkpt>
      <trkpt lat="43.59579" lon="1.30917">
        <ele>201.6</ele>
        <time>2024-03-27T16:54:02Z</time>
      </trkpt>
      <trkpt lat="43.59572" lon="1.30916">
        <ele>201.6</ele>
        <time>2024-03-27T16:54:03Z</time>
      </trkpt>
      <trkpt lat="43.59566" lon="1.30915">
        <ele>201.6</ele>
        <time>2024-03-27T16:54:04Z</time>
      </trkpt>
      <trkpt lat="43.5956" lon="1.30914">
        <ele>201.6</ele>
        <time>2024-03-27T16:54:05Z</time>
      </trkpt>
      <trkpt lat="43.59554" lon="1.30914">
        <ele>201.6</ele>
        <time>2024-03-27T16:54:06Z</time>
      </trkpt>
      <trkpt lat="43.59549" lon="1.30913">
        <ele>201.6</ele>
        <time>2024-03-27T16:54:07Z</time>
      </trkpt>
      <trkpt lat="43.59543" lon="1.30912">
        <ele>201.6</ele>
        <time>2024-03-27T16:54:08Z</time>
      </trkpt>
      <trkpt lat="43.59537" lon="1.3091">
        <ele>201.6</ele>
        <time>2024-03-27T16:54:09Z</time>
      </trkpt>
      <trkpt lat="43.59531" lon="1.30909">
        <ele>201.6</ele>
        <time>2024-03-27T16:54:10Z</time>
      </trkpt>
      <trkpt lat="43.59524" lon="1.30908">
        <ele>201.6</ele>
        <time>2024-03-27T16:54:11Z</time>
      </trkpt>
      <trkpt lat="43.59518" lon="1.30907">
        <ele>201.6</ele>
        <time>2024-03-27T16:54:12Z</time>
      </trkpt>
      <trkpt lat="43.59513" lon="1.30906">
        <ele>201.6</ele>
        <time>2024-03-27T16:54:13Z</time>
      </trkpt>
      <trkpt lat="43.59507" lon="1.30905">
        <ele>201.6</ele>
        <time>2024-03-27T16:54:14Z</time>
      </trkpt>
      <trkpt lat="43.59501" lon="1.30904">
        <ele>201.6</ele>
        <time>2024-03-27T16:54:15Z</time>
      </trkpt>
      <trkpt lat="43.59495" lon="1.30903">
        <ele>201.8</ele>
        <time>2024-03-27T16:54:16Z</time>
      </trkpt>
      <trkpt lat="43.59489" lon="1.30902">
        <ele>201.8</ele>
        <time>2024-03-27T16:54:17Z</time>
      </trkpt>
      <trkpt lat="43.59483" lon="1.30901">
        <ele>201.8</ele>
        <time>2024-03-27T16:54:18Z</time>
      </trkpt>
      <trkpt lat="43.59477" lon="1.309">
        <ele>201.8</ele>
        <time>2024-03-27T16:54:19Z</time>
      </trkpt>
      <trkpt lat="43.59471" lon="1.30899">
        <ele>201.8</ele>
        <time>2024-03-27T16:54:20Z</time>
      </trkpt>
      <trkpt lat="43.59465" lon="1.30898">
        <ele>201.8</ele>
        <time>2024-03-27T16:54:21Z</time>
      </trkpt>
      <trkpt lat="43.59459" lon="1.30897">
        <ele>202</ele>
        <time>2024-03-27T16:54:22Z</time>
      </trkpt>
      <trkpt lat="43.59453" lon="1.30896">
        <ele>202</ele>
        <time>2024-03-27T16:54:23Z</time>
      </trkpt>
      <trkpt lat="43.59446" lon="1.30895">
        <ele>202</ele>
        <time>2024-03-27T16:54:24Z</time>
      </trkpt>
      <trkpt lat="43.5944" lon="1.30894">
        <ele>202</ele>
        <time>2024-03-27T16:54:25Z</time>
      </trkpt>
      <trkpt lat="43.59434" lon="1.30893">
        <ele>202.2</ele>
        <time>2024-03-27T16:54:26Z</time>
      </trkpt>
      <trkpt lat="43.59427" lon="1.30891">
        <ele>202.2</ele>
        <time>2024-03-27T16:54:27Z</time>
      </trkpt>
      <trkpt lat="43.59421" lon="1.3089">
        <ele>202.2</ele>
        <time>2024-03-27T16:54:28Z</time>
      </trkpt>
      <trkpt lat="43.59415" lon="1.30889">
        <ele>202.2</ele>
        <time>2024-03-27T16:54:29Z</time>
      </trkpt>
      <trkpt lat="43.59409" lon="1.30888">
        <ele>202.2</ele>
        <time>2024-03-27T16:54:30Z</time>
      </trkpt>
      <trkpt lat="43.59402" lon="1.30887">
        <ele>202.2</ele>
        <time>2024-03-27T16:54:31Z</time>
      </trkpt>
      <trkpt lat="43.59396" lon="1.30886">
        <ele>202.2</ele>
        <time>2024-03-27T16:54:32Z</time>
      </trkpt>
      <trkpt lat="43.59389" lon="1.30885">
        <ele>202.2</ele>
        <time>2024-03-27T16:54:33Z</time>
      </trkpt>
      <trkpt lat="43.59383" lon="1.30884">
        <ele>202.2</ele>
        <time>2024-03-27T16:54:34Z</time>
      </trkpt>
      <trkpt lat="43.59377" lon="1.30882">
        <ele>202.2</ele>
        <time>2024-03-27T16:54:35Z</time>
      </trkpt>
      <trkpt lat="43.59371" lon="1.30881">
        <ele>202.2</ele>
        <time>2024-03-27T16:54:36Z</time>
      </trkpt>
      <trkpt lat="43.59365" lon="1.3088">
        <ele>202.2</ele>
        <time>2024-03-27T16:54:37Z</time>
      </trkpt>
      <trkpt lat="43.59358" lon="1.30879">
        <ele>202.4</ele>
        <time>2024-03-27T16:54:38Z</time>
      </trkpt>
      <trkpt lat="43.59352" lon="1.30878">
        <ele>202.4</ele>
        <time>2024-03-27T16:54:39Z</time>
      </trkpt>
      <trkpt lat="43.59345" lon="1.30877">
        <ele>202.4</ele>
        <time>2024-03-27T16:54:40Z</time>
      </trkpt>
      <trkpt lat="43.59339" lon="1.30876">
        <ele>202.4</ele>
        <time>2024-03-27T16:54:41Z</time>
      </trkpt>
      <trkpt lat="43.59333" lon="1.30875">
        <ele>202.4</ele>
        <time>2024-03-27T16:54:42Z</time>
      </trkpt>
      <trkpt lat="43.59327" lon="1.30874">
        <ele>202.4</ele>
        <time>2024-03-27T16:54:43Z</time>
      </trkpt>
      <trkpt lat="43.59321" lon="1.30873">
        <ele>202.4</ele>
        <time>2024-03-27T16:54:44Z</time>
      </trkpt>
      <trkpt lat="43.59315" lon="1.30872">
        <ele>202.4</ele>
        <time>2024-03-27T16:54:45Z</time>
      </trkpt>
      <trkpt lat="43.59308" lon="1.30871">
        <ele>202.4</ele>
        <time>2024-03-27T16:54:46Z</time>
      </trkpt>
      <trkpt lat="43.59302" lon="1.3087">
        <ele>202.6</ele>
        <time>2024-03-27T16:54:47Z</time>
      </trkpt>
      <trkpt lat="43.59295" lon="1.30869">
        <ele>202.6</ele>
        <time>2024-03-27T16:54:48Z</time>
      </trkpt>
      <trkpt lat="43.59289" lon="1.30868">
        <ele>202.6</ele>
        <time>2024-03-27T16:54:49Z</time>
      </trkpt>
      <trkpt lat="43.59282" lon="1.30867">
        <ele>202.6</ele>
        <time>2024-03-27T16:54:50Z</time>
      </trkpt>
      <trkpt lat="43.59276" lon="1.30866">
        <ele>202.8</ele>
        <time>2024-03-27T16:54:51Z</time>
      </trkpt>
      <trkpt lat="43.59269" lon="1.30865">
        <ele>202.8</ele>
        <time>2024-03-27T16:54:52Z</time>
      </trkpt>
      <trkpt lat="43.59263" lon="1.30864">
        <ele>203</ele>
        <time>2024-03-27T16:54:53Z</time>
      </trkpt>
      <trkpt lat="43.59257" lon="1.30863">
        <ele>203</ele>
        <time>2024-03-27T16:54:54Z</time>
      </trkpt>
      <trkpt lat="43.59251" lon="1.30864">
        <ele>203</ele>
        <time>2024-03-27T16:54:55Z</time>
      </trkpt>
      <trkpt lat="43.59246" lon="1.30866">
        <ele>203</ele>
        <time>2024-03-27T16:54:56Z</time>
      </trkpt>
      <trkpt lat="43.5924" lon="1.30869">
        <ele>203</ele>
        <time>2024-03-27T16:54:57Z</time>
      </trkpt>
      <trkpt lat="43.59235" lon="1.30874">
        <ele>203</ele>
        <time>2024-03-27T16:54:58Z</time>
      </trkpt>
      <trkpt lat="43.5923" lon="1.30879">
        <ele>203</ele>
        <time>2024-03-27T16:54:59Z</time>
      </trkpt>
      <trkpt lat="43.59226" lon="1.30886">
        <ele>203</ele>
        <time>2024-03-27T16:55:00Z</time>
      </trkpt>
      <trkpt lat="43.59222" lon="1.30893">
        <ele>203</ele>
        <time>2024-03-27T16:55:01Z</time>
      </trkpt>
      <trkpt lat="43.59218" lon="1.309">
        <ele>203</ele>
        <time>2024-03-27T16:55:02Z</time>
      </trkpt>
      <trkpt lat="43.59214" lon="1.30907">
        <ele>202.8</ele>
        <time>2024-03-27T16:55:03Z</time>
      </trkpt>
      <trkpt lat="43.59209" lon="1.30912">
        <ele>202.8</ele>
        <time>2024-03-27T16:55:04Z</time>
      </trkpt>
      <trkpt lat="43.59204" lon="1.30916">
        <ele>202.8</ele>
        <time>2024-03-27T16:55:05Z</time>
      </trkpt>
      <trkpt lat="43.59199" lon="1.30918">
        <ele>202.6</ele>
        <time>2024-03-27T16:55:06Z</time>
      </trkpt>
      <trkpt lat="43.59199" lon="1.30918">
        <ele>202.6</ele>
        <time>2024-03-27T16:55:07Z</time>
      </trkpt>
      <trkpt lat="43.59187" lon="1.30923">
        <ele>202.6</ele>
        <time>2024-03-27T16:55:08Z</time>
      </trkpt>
      <trkpt lat="43.59182" lon="1.30928">
        <ele>202.6</ele>
        <time>2024-03-27T16:55:09Z</time>
      </trkpt>
      <trkpt lat="43.59179" lon="1.30935">
        <ele>202.6</ele>
        <time>2024-03-27T16:55:10Z</time>
      </trkpt>
      <trkpt lat="43.59177" lon="1.30943">
        <ele>202.6</ele>
        <time>2024-03-27T16:55:11Z</time>
      </trkpt>
      <trkpt lat="43.59177" lon="1.30952">
        <ele>202.6</ele>
        <time>2024-03-27T16:55:12Z</time>
      </trkpt>
      <trkpt lat="43.59177" lon="1.3096">
        <ele>202.8</ele>
        <time>2024-03-27T16:55:13Z</time>
      </trkpt>
      <trkpt lat="43.59177" lon="1.30968">
        <ele>202.8</ele>
        <time>2024-03-27T16:55:14Z</time>
      </trkpt>
      <trkpt lat="43.59175" lon="1.30976">
        <ele>202.8</ele>
        <time>2024-03-27T16:55:15Z</time>
      </trkpt>
      <trkpt lat="43.59171" lon="1.30983">
        <ele>202.8</ele>
        <time>2024-03-27T16:55:16Z</time>
      </trkpt>
      <trkpt lat="43.59168" lon="1.30989">
        <ele>202.8</ele>
        <time>2024-03-27T16:55:17Z</time>
      </trkpt>
      <trkpt lat="43.59164" lon="1.30996">
        <ele>203</ele>
        <time>2024-03-27T16:55:18Z</time>
      </trkpt>
      <trkpt lat="43.5916" lon="1.31003">
        <ele>203</ele>
        <time>2024-03-27T16:55:19Z</time>
      </trkpt>
      <trkpt lat="43.59157" lon="1.31011">
        <ele>203</ele>
        <time>2024-03-27T16:55:20Z</time>
      </trkpt>
      <trkpt lat="43.59154" lon="1.31019">
        <ele>203</ele>
        <time>2024-03-27T16:55:21Z</time>
      </trkpt>
      <trkpt lat="43.5915" lon="1.31027">
        <ele>203</ele>
        <time>2024-03-27T16:55:22Z</time>
      </trkpt>
      <trkpt lat="43.59147" lon="1.31035">
        <ele>203</ele>
        <time>2024-03-27T16:55:23Z</time>
      </trkpt>
      <trkpt lat="43.59145" lon="1.31043">
        <ele>203</ele>
        <time>2024-03-27T16:55:24Z</time>
      </trkpt>
      <trkpt lat="43.59142" lon="1.31051">
        <ele>202.8</ele>
        <time>2024-03-27T16:55:25Z</time>
      </trkpt>
      <trkpt lat="43.59138" lon="1.31059">
        <ele>202.8</ele>
        <time>2024-03-27T16:55:26Z</time>
      </trkpt>
      <trkpt lat="43.59135" lon="1.31066">
        <ele>202.8</ele>
        <time>2024-03-27T16:55:27Z</time>
      </trkpt>
      <trkpt lat="43.59131" lon="1.31073">
        <ele>202.8</ele>
        <time>2024-03-27T16:55:28Z</time>
      </trkpt>
      <trkpt lat="43.59128" lon="1.3108">
        <ele>202.8</ele>
        <time>2024-03-27T16:55:29Z</time>
      </trkpt>
      <trkpt lat="43.59124" lon="1.31088">
        <ele>202.8</ele>
        <time>2024-03-27T16:55:30Z</time>
      </trkpt>
      <trkpt lat="43.5912" lon="1.31095">
        <ele>202.6</ele>
        <time>2024-03-27T16:55:31Z</time>
      </trkpt>
      <trkpt lat="43.59116" lon="1.31103">
        <ele>202.6</ele>
        <time>2024-03-27T16:55:32Z</time>
      </trkpt>
      <trkpt lat="43.59112" lon="1.31109">
        <ele>202.6</ele>
        <time>2024-03-27T16:55:33Z</time>
      </trkpt>
      <trkpt lat="43.59109" lon="1.31116">
        <ele>202.6</ele>
        <time>2024-03-27T16:55:34Z</time>
      </trkpt>
      <trkpt lat="43.59105" lon="1.31123">
        <ele>202.6</ele>
        <time>2024-03-27T16:55:35Z</time>
      </trkpt>
      <trkpt lat="43.59101" lon="1.31129">
        <ele>202.6</ele>
        <time>2024-03-27T16:55:36Z</time>
      </trkpt>
      <trkpt lat="43.59097" lon="1.31135">
        <ele>202.8</ele>
        <time>2024-03-27T16:55:37Z</time>
      </trkpt>
      <trkpt lat="43.59092" lon="1.31138">
        <ele>202.8</ele>
        <time>2024-03-27T16:55:38Z</time>
      </trkpt>
      <trkpt lat="43.59086" lon="1.31142">
        <ele>202.8</ele>
        <time>2024-03-27T16:55:39Z</time>
      </trkpt>
      <trkpt lat="43.59082" lon="1.31147">
        <ele>202.8</ele>
        <time>2024-03-27T16:55:40Z</time>
      </trkpt>
      <trkpt lat="43.59078" lon="1.31153">
        <ele>203</ele>
        <time>2024-03-27T16:55:41Z</time>
      </trkpt>
      <trkpt lat="43.59077" lon="1.3116">
        <ele>203</ele>
        <time>2024-03-27T16:55:42Z</time>
      </trkpt>
      <trkpt lat="43.59079" lon="1.31168">
        <ele>203</ele>
        <time>2024-03-27T16:55:43Z</time>
      </trkpt>
      <trkpt lat="43.59082" lon="1.31174">
        <ele>203</ele>
        <time>2024-03-27T16:55:44Z</time>
      </trkpt>
      <trkpt lat="43.59088" lon="1.31178">
        <ele>203</ele>
        <time>2024-03-27T16:55:45Z</time>
      </trkpt>
      <trkpt lat="43.59094" lon="1.31179">
        <ele>203</ele>
        <time>2024-03-27T16:55:46Z</time>
      </trkpt>
      <trkpt lat="43.59101" lon="1.3118">
        <ele>203</ele>
        <time>2024-03-27T16:55:47Z</time>
      </trkpt>
      <trkpt lat="43.59106" lon="1.31182">
        <ele>203</ele>
        <time>2024-03-27T16:55:48Z</time>
      </trkpt>
      <trkpt lat="43.59112" lon="1.31185">
        <ele>203</ele>
        <time>2024-03-27T16:55:49Z</time>
      </trkpt>
      <trkpt lat="43.59117" lon="1.3119">
        <ele>203</ele>
        <time>2024-03-27T16:55:50Z</time>
      </trkpt>
      <trkpt lat="43.59122" lon="1.31195">
        <ele>203</ele>
        <time>2024-03-27T16:55:51Z</time>
      </trkpt>
      <trkpt lat="43.59127" lon="1.312">
        <ele>203</ele>
        <time>2024-03-27T16:55:52Z</time>
      </trkpt>
      <trkpt lat="43.59133" lon="1.31206">
        <ele>203</ele>
        <time>2024-03-27T16:55:53Z</time>
      </trkpt>
      <trkpt lat="43.59139" lon="1.31211">
        <ele>203</ele>
        <time>2024-03-27T16:55:54Z</time>
      </trkpt>
      <trkpt lat="43.59144" lon="1.31216">
        <ele>203</ele>
        <time>2024-03-27T16:55:55Z</time>
      </trkpt>
      <trkpt lat="43.5915" lon="1.31222">
        <ele>203</ele>
        <time>2024-03-27T16:55:56Z</time>
      </trkpt>
      <trkpt lat="43.59155" lon="1.31227">
        <ele>203.2</ele>
        <time>2024-03-27T16:55:57Z</time>
      </trkpt>
      <trkpt lat="43.59161" lon="1.31232">
        <ele>203</ele>
        <time>2024-03-27T16:55:58Z</time>
      </trkpt>
      <trkpt lat="43.59167" lon="1.31238">
        <ele>203</ele>
        <time>2024-03-27T16:55:59Z</time>
      </trkpt>
      <trkpt lat="43.59172" lon="1.31243">
        <ele>203</ele>
        <time>2024-03-27T16:56:00Z</time>
      </trkpt>
      <trkpt lat="43.59178" lon="1.31249">
        <ele>203</ele>
        <time>2024-03-27T16:56:01Z</time>
      </trkpt>
      <trkpt lat="43.59184" lon="1.31254">
        <ele>203</ele>
        <time>2024-03-27T16:56:02Z</time>
      </trkpt>
      <trkpt lat="43.5919" lon="1.3126">
        <ele>203.2</ele>
        <time>2024-03-27T16:56:03Z</time>
      </trkpt>
      <trkpt lat="43.59196" lon="1.31266">
        <ele>202.8</ele>
        <time>2024-03-27T16:56:04Z</time>
      </trkpt>
      <trkpt lat="43.59202" lon="1.31271">
        <ele>202.8</ele>
        <time>2024-03-27T16:56:05Z</time>
      </trkpt>
      <trkpt lat="43.59208" lon="1.31277">
        <ele>202.8</ele>
        <time>2024-03-27T16:56:06Z</time>
      </trkpt>
      <trkpt lat="43.59214" lon="1.31283">
        <ele>202.8</ele>
        <time>2024-03-27T16:56:07Z</time>
      </trkpt>
      <trkpt lat="43.59214" lon="1.31283">
        <ele>202.8</ele>
        <time>2024-03-27T16:56:08Z</time>
      </trkpt>
      <trkpt lat="43.59226" lon="1.31294">
        <ele>202.8</ele>
        <time>2024-03-27T16:56:09Z</time>
      </trkpt>
      <trkpt lat="43.59232" lon="1.313">
        <ele>202.8</ele>
        <time>2024-03-27T16:56:10Z</time>
      </trkpt>
      <trkpt lat="43.59238" lon="1.31306">
        <ele>202.8</ele>
        <time>2024-03-27T16:56:11Z</time>
      </trkpt>
      <trkpt lat="43.59244" lon="1.31312">
        <ele>202.6</ele>
        <time>2024-03-27T16:56:12Z</time>
      </trkpt>
      <trkpt lat="43.5925" lon="1.31317">
        <ele>202.4</ele>
        <time>2024-03-27T16:56:13Z</time>
      </trkpt>
      <trkpt lat="43.59256" lon="1.31323">
        <ele>202.4</ele>
        <time>2024-03-27T16:56:14Z</time>
      </trkpt>
      <trkpt lat="43.59262" lon="1.31329">
        <ele>202.6</ele>
        <time>2024-03-27T16:56:15Z</time>
      </trkpt>
      <trkpt lat="43.59268" lon="1.31334">
        <ele>202.6</ele>
        <time>2024-03-27T16:56:16Z</time>
      </trkpt>
      <trkpt lat="43.59274" lon="1.3134">
        <ele>202.6</ele>
        <time>2024-03-27T16:56:17Z</time>
      </trkpt>
      <trkpt lat="43.5928" lon="1.31345">
        <ele>202.6</ele>
        <time>2024-03-27T16:56:18Z</time>
      </trkpt>
      <trkpt lat="43.59285" lon="1.31351">
        <ele>202.6</ele>
        <time>2024-03-27T16:56:19Z</time>
      </trkpt>
      <trkpt lat="43.5929" lon="1.31357">
        <ele>202.4</ele>
        <time>2024-03-27T16:56:20Z</time>
      </trkpt>
      <trkpt lat="43.59295" lon="1.31364">
        <ele>202.4</ele>
        <time>2024-03-27T16:56:21Z</time>
      </trkpt>
      <trkpt lat="43.59298" lon="1.31372">
        <ele>202.6</ele>
        <time>2024-03-27T16:56:22Z</time>
      </trkpt>
      <trkpt lat="43.59301" lon="1.31381">
        <ele>202.6</ele>
        <time>2024-03-27T16:56:23Z</time>
      </trkpt>
      <trkpt lat="43.59303" lon="1.3139">
        <ele>202.6</ele>
        <time>2024-03-27T16:56:24Z</time>
      </trkpt>
      <trkpt lat="43.59306" lon="1.314">
        <ele>202.6</ele>
        <time>2024-03-27T16:56:25Z</time>
      </trkpt>
      <trkpt lat="43.59308" lon="1.31409">
        <ele>202.6</ele>
        <time>2024-03-27T16:56:26Z</time>
      </trkpt>
      <trkpt lat="43.59309" lon="1.31419">
        <ele>202.6</ele>
        <time>2024-03-27T16:56:27Z</time>
      </trkpt>
      <trkpt lat="43.59309" lon="1.31428">
        <ele>202.6</ele>
        <time>2024-03-27T16:56:28Z</time>
      </trkpt>
      <trkpt lat="43.59307" lon="1.31438">
        <ele>202.6</ele>
        <time>2024-03-27T16:56:29Z</time>
      </trkpt>
      <trkpt lat="43.59305" lon="1.31447">
        <ele>202.6</ele>
        <time>2024-03-27T16:56:30Z</time>
      </trkpt>
      <trkpt lat="43.59303" lon="1.31456">
        <ele>202.6</ele>
        <time>2024-03-27T16:56:31Z</time>
      </trkpt>
      <trkpt lat="43.59301" lon="1.31464">
        <ele>202.6</ele>
        <time>2024-03-27T16:56:32Z</time>
      </trkpt>
      <trkpt lat="43.59298" lon="1.31474">
        <ele>202.4</ele>
        <time>2024-03-27T16:56:33Z</time>
      </trkpt>
      <trkpt lat="43.59296" lon="1.31483">
        <ele>202.4</ele>
        <time>2024-03-27T16:56:34Z</time>
      </trkpt>
      <trkpt lat="43.59294" lon="1.31492">
        <ele>202.4</ele>
        <time>2024-03-27T16:56:35Z</time>
      </trkpt>
      <trkpt lat="43.59294" lon="1.31502">
        <ele>202.4</ele>
        <time>2024-03-27T16:56:36Z</time>
      </trkpt>
      <trkpt lat="43.59294" lon="1.31511">
        <ele>202.4</ele>
        <time>2024-03-27T16:56:37Z</time>
      </trkpt>
      <trkpt lat="43.59294" lon="1.3152">
        <ele>202.4</ele>
        <time>2024-03-27T16:56:38Z</time>
      </trkpt>
      <trkpt lat="43.59292" lon="1.31529">
        <ele>202.4</ele>
        <time>2024-03-27T16:56:39Z</time>
      </trkpt>
      <trkpt lat="43.59289" lon="1.31536">
        <ele>202.4</ele>
        <time>2024-03-27T16:56:40Z</time>
      </trkpt>
      <trkpt lat="43.59284" lon="1.3154">
        <ele>202.2</ele>
        <time>2024-03-27T16:56:41Z</time>
      </trkpt>
      <trkpt lat="43.59279" lon="1.31544">
        <ele>202.2</ele>
        <time>2024-03-27T16:56:42Z</time>
      </trkpt>
      <trkpt lat="43.59272" lon="1.31546">
        <ele>202.2</ele>
        <time>2024-03-27T16:56:43Z</time>
      </trkpt>
      <trkpt lat="43.59266" lon="1.31549">
        <ele>202</ele>
        <time>2024-03-27T16:56:44Z</time>
      </trkpt>
      <trkpt lat="43.5926" lon="1.31552">
        <ele>202</ele>
        <time>2024-03-27T16:56:45Z</time>
      </trkpt>
      <trkpt lat="43.59253" lon="1.31555">
        <ele>202</ele>
        <time>2024-03-27T16:56:46Z</time>
      </trkpt>
      <trkpt lat="43.59247" lon="1.31558">
        <ele>202</ele>
        <time>2024-03-27T16:56:47Z</time>
      </trkpt>
      <trkpt lat="43.59241" lon="1.31561">
        <ele>202</ele>
        <time>2024-03-27T16:56:48Z</time>
      </trkpt>
      <trkpt lat="43.59234" lon="1.31565">
        <ele>202</ele>
        <time>2024-03-27T16:56:49Z</time>
      </trkpt>
      <trkpt lat="43.59228" lon="1.31568">
        <ele>202</ele>
        <time>2024-03-27T16:56:50Z</time>
      </trkpt>
      <trkpt lat="43.59222" lon="1.31571">
        <ele>202</ele>
        <time>2024-03-27T16:56:51Z</time>
      </trkpt>
      <trkpt lat="43.59216" lon="1.31575">
        <ele>202</ele>
        <time>2024-03-27T16:56:52Z</time>
      </trkpt>
      <trkpt lat="43.59211" lon="1.31579">
        <ele>202</ele>
        <time>2024-03-27T16:56:53Z</time>
      </trkpt>
      <trkpt lat="43.59204" lon="1.31582">
        <ele>202</ele>
        <time>2024-03-27T16:56:54Z</time>
      </trkpt>
      <trkpt lat="43.59198" lon="1.31585">
        <ele>202</ele>
        <time>2024-03-27T16:56:55Z</time>
      </trkpt>
      <trkpt lat="43.59192" lon="1.31588">
        <ele>201.8</ele>
        <time>2024-03-27T16:56:56Z</time>
      </trkpt>
      <trkpt lat="43.59186" lon="1.31592">
        <ele>201.8</ele>
        <time>2024-03-27T16:56:57Z</time>
      </trkpt>
      <trkpt lat="43.5918" lon="1.31595">
        <ele>201.8</ele>
        <time>2024-03-27T16:56:58Z</time>
      </trkpt>
      <trkpt lat="43.59174" lon="1.31599">
        <ele>201.8</ele>
        <time>2024-03-27T16:56:59Z</time>
      </trkpt>
      <trkpt lat="43.59167" lon="1.31602">
        <ele>201.8</ele>
        <time>2024-03-27T16:57:00Z</time>
      </trkpt>
      <trkpt lat="43.59161" lon="1.31606">
        <ele>201.8</ele>
        <time>2024-03-27T16:57:01Z</time>
      </trkpt>
      <trkpt lat="43.59155" lon="1.31609">
        <ele>201.8</ele>
        <time>2024-03-27T16:57:02Z</time>
      </trkpt>
      <trkpt lat="43.59148" lon="1.31612">
        <ele>201.8</ele>
        <time>2024-03-27T16:57:03Z</time>
      </trkpt>
      <trkpt lat="43.59142" lon="1.31616">
        <ele>201.6</ele>
        <time>2024-03-27T16:57:04Z</time>
      </trkpt>
      <trkpt lat="43.59136" lon="1.3162">
        <ele>201.6</ele>
        <time>2024-03-27T16:57:05Z</time>
      </trkpt>
      <trkpt lat="43.5913" lon="1.31623">
        <ele>201.6</ele>
        <time>2024-03-27T16:57:06Z</time>
      </trkpt>
      <trkpt lat="43.59125" lon="1.31626">
        <ele>201.6</ele>
        <time>2024-03-27T16:57:07Z</time>
      </trkpt>
      <trkpt lat="43.59119" lon="1.31629">
        <ele>201.6</ele>
        <time>2024-03-27T16:57:08Z</time>
      </trkpt>
      <trkpt lat="43.59113" lon="1.31632">
        <ele>201.6</ele>
        <time>2024-03-27T16:57:09Z</time>
      </trkpt>
      <trkpt lat="43.59109" lon="1.31635">
        <ele>201.6</ele>
        <time>2024-03-27T16:57:10Z</time>
      </trkpt>
      <trkpt lat="43.59105" lon="1.31636">
        <ele>201.6</ele>
        <time>2024-03-27T16:57:11Z</time>
      </trkpt>
      <trkpt lat="43.59103" lon="1.31638">
        <ele>201.8</ele>
        <time>2024-03-27T16:57:12Z</time>
      </trkpt>
      <trkpt lat="43.591" lon="1.31639">
        <ele>201.8</ele>
        <time>2024-03-27T16:57:13Z</time>
      </trkpt>
      <trkpt lat="43.59097" lon="1.31641">
        <ele>201.8</ele>
        <time>2024-03-27T16:57:14Z</time>
      </trkpt>
      <trkpt lat="43.59094" lon="1.31643">
        <ele>201.8</ele>
        <time>2024-03-27T16:57:15Z</time>
      </trkpt>
      <trkpt lat="43.59091" lon="1.31645">
        <ele>201.8</ele>
        <time>2024-03-27T16:57:16Z</time>
      </trkpt>
      <trkpt lat="43.59087" lon="1.31647">
        <ele>201.8</ele>
        <time>2024-03-27T16:57:17Z</time>
      </trkpt>
      <trkpt lat="43.59082" lon="1.31649">
        <ele>201.8</ele>
        <time>2024-03-27T16:57:18Z</time>
      </trkpt>
      <trkpt lat="43.59078" lon="1.31652">
        <ele>201.8</ele>
        <time>2024-03-27T16:57:19Z</time>
      </trkpt>
      <trkpt lat="43.59073" lon="1.31654">
        <ele>201.8</ele>
        <time>2024-03-27T16:57:20Z</time>
      </trkpt>
      <trkpt lat="43.59069" lon="1.31657">
        <ele>201.8</ele>
        <time>2024-03-27T16:57:21Z</time>
      </trkpt>
      <trkpt lat="43.59064" lon="1.31659">
        <ele>201.8</ele>
        <time>2024-03-27T16:57:22Z</time>
      </trkpt>
      <trkpt lat="43.59059" lon="1.31662">
        <ele>201.8</ele>
        <time>2024-03-27T16:57:23Z</time>
      </trkpt>
      <trkpt lat="43.59055" lon="1.31665">
        <ele>201.8</ele>
        <time>2024-03-27T16:57:24Z</time>
      </trkpt>
      <trkpt lat="43.5905" lon="1.31668">
        <ele>201.8</ele>
        <time>2024-03-27T16:57:25Z</time>
      </trkpt>
      <trkpt lat="43.59045" lon="1.31671">
        <ele>201.8</ele>
        <time>2024-03-27T16:57:26Z</time>
      </trkpt>
      <trkpt lat="43.59039" lon="1.31674">
        <ele>201.8</ele>
        <time>2024-03-27T16:57:27Z</time>
      </trkpt>
      <trkpt lat="43.59034" lon="1.31677">
        <ele>201.8</ele>
        <time>2024-03-27T16:57:28Z</time>
      </trkpt>
      <trkpt lat="43.59028" lon="1.3168">
        <ele>202</ele>
        <time>2024-03-27T16:57:29Z</time>
      </trkpt>
      <trkpt lat="43.59023" lon="1.31683">
        <ele>202</ele>
        <time>2024-03-27T16:57:30Z</time>
      </trkpt>
      <trkpt lat="43.59023" lon="1.31683">
        <ele>202</ele>
        <time>2024-03-27T16:57:31Z</time>
      </trkpt>
      <trkpt lat="43.59011" lon="1.3169">
        <ele>202</ele>
        <time>2024-03-27T16:57:32Z</time>
      </trkpt>
      <trkpt lat="43.59006" lon="1.31693">
        <ele>202</ele>
        <time>2024-03-27T16:57:33Z</time>
      </trkpt>
      <trkpt lat="43.59" lon="1.31696">
        <ele>202</ele>
        <time>2024-03-27T16:57:34Z</time>
      </trkpt>
      <trkpt lat="43.58994" lon="1.31699">
        <ele>202</ele>
        <time>2024-03-27T16:57:35Z</time>
      </trkpt>
      <trkpt lat="43.58989" lon="1.31702">
        <ele>202</ele>
        <time>2024-03-27T16:57:36Z</time>
      </trkpt>
      <trkpt lat="43.58983" lon="1.31705">
        <ele>202</ele>
        <time>2024-03-27T16:57:37Z</time>
      </trkpt>
      <trkpt lat="43.58977" lon="1.31707">
        <ele>202</ele>
        <time>2024-03-27T16:57:38Z</time>
      </trkpt>
      <trkpt lat="43.58972" lon="1.31711">
        <ele>202</ele>
        <time>2024-03-27T16:57:39Z</time>
      </trkpt>
      <trkpt lat="43.58966" lon="1.31714">
        <ele>202</ele>
        <time>2024-03-27T16:57:40Z</time>
      </trkpt>
      <trkpt lat="43.58961" lon="1.31717">
        <ele>202.2</ele>
        <time>2024-03-27T16:57:41Z</time>
      </trkpt>
      <trkpt lat="43.58955" lon="1.3172">
        <ele>202.2</ele>
        <time>2024-03-27T16:57:42Z</time>
      </trkpt>
      <trkpt lat="43.58949" lon="1.31724">
        <ele>202.2</ele>
        <time>2024-03-27T16:57:43Z</time>
      </trkpt>
      <trkpt lat="43.58944" lon="1.31727">
        <ele>202.2</ele>
        <time>2024-03-27T16:57:44Z</time>
      </trkpt>
      <trkpt lat="43.58944" lon="1.31727">
        <ele>202.2</ele>
        <time>2024-03-27T16:57:45Z</time>
      </trkpt>
      <trkpt lat="43.58933" lon="1.31733">
        <ele>202.2</ele>
        <time>2024-03-27T16:57:46Z</time>
      </trkpt>
      <trkpt lat="43.58927" lon="1.31736">
        <ele>202.2</ele>
        <time>2024-03-27T16:57:47Z</time>
      </trkpt>
      <trkpt lat="43.58921" lon="1.31739">
        <ele>202.2</ele>
        <time>2024-03-27T16:57:48Z</time>
      </trkpt>
      <trkpt lat="43.58916" lon="1.31742">
        <ele>202.2</ele>
        <time>2024-03-27T16:57:49Z</time>
      </trkpt>
      <trkpt lat="43.5891" lon="1.31745">
        <ele>202.2</ele>
        <time>2024-03-27T16:57:50Z</time>
      </trkpt>
      <trkpt lat="43.58904" lon="1.31748">
        <ele>202.2</ele>
        <time>2024-03-27T16:57:51Z</time>
      </trkpt>
      <trkpt lat="43.58899" lon="1.31751">
        <ele>202.2</ele>
        <time>2024-03-27T16:57:52Z</time>
      </trkpt>
      <trkpt lat="43.58894" lon="1.31754">
        <ele>202.2</ele>
        <time>2024-03-27T16:57:53Z</time>
      </trkpt>
      <trkpt lat="43.58888" lon="1.31757">
        <ele>202.4</ele>
        <time>2024-03-27T16:57:54Z</time>
      </trkpt>
      <trkpt lat="43.58882" lon="1.31759">
        <ele>202.4</ele>
        <time>2024-03-27T16:57:55Z</time>
      </trkpt>
      <trkpt lat="43.58876" lon="1.3176">
        <ele>202.4</ele>
        <time>2024-03-27T16:57:56Z</time>
      </trkpt>
      <trkpt lat="43.5887" lon="1.31758">
        <ele>202.4</ele>
        <time>2024-03-27T16:57:57Z</time>
      </trkpt>
      <trkpt lat="43.58863" lon="1.31754">
        <ele>202.4</ele>
        <time>2024-03-27T16:57:58Z</time>
      </trkpt>
      <trkpt lat="43.58859" lon="1.31748">
        <ele>202.4</ele>
        <time>2024-03-27T16:57:59Z</time>
      </trkpt>
      <trkpt lat="43.58854" lon="1.31742">
        <ele>202.4</ele>
        <time>2024-03-27T16:58:00Z</time>
      </trkpt>
      <trkpt lat="43.5885" lon="1.31736">
        <ele>202.4</ele>
        <time>2024-03-27T16:58:01Z</time>
      </trkpt>
      <trkpt lat="43.58845" lon="1.3173">
        <ele>202.4</ele>
        <time>2024-03-27T16:58:02Z</time>
      </trkpt>
      <trkpt lat="43.58841" lon="1.31725">
        <ele>202.4</ele>
        <time>2024-03-27T16:58:03Z</time>
      </trkpt>
      <trkpt lat="43.58837" lon="1.31719">
        <ele>202.4</ele>
        <time>2024-03-27T16:58:04Z</time>
      </trkpt>
      <trkpt lat="43.58832" lon="1.31714">
        <ele>202.4</ele>
        <time>2024-03-27T16:58:05Z</time>
      </trkpt>
      <trkpt lat="43.58828" lon="1.31708">
        <ele>202.2</ele>
        <time>2024-03-27T16:58:06Z</time>
      </trkpt>
      <trkpt lat="43.58823" lon="1.31702">
        <ele>202.2</ele>
        <time>2024-03-27T16:58:07Z</time>
      </trkpt>
      <trkpt lat="43.58819" lon="1.31697">
        <ele>202.2</ele>
        <time>2024-03-27T16:58:08Z</time>
      </trkpt>
      <trkpt lat="43.58814" lon="1.31691">
        <ele>202.2</ele>
        <time>2024-03-27T16:58:09Z</time>
      </trkpt>
      <trkpt lat="43.5881" lon="1.31685">
        <ele>202.2</ele>
        <time>2024-03-27T16:58:10Z</time>
      </trkpt>
      <trkpt lat="43.58805" lon="1.3168">
        <ele>202.2</ele>
        <time>2024-03-27T16:58:11Z</time>
      </trkpt>
      <trkpt lat="43.58805" lon="1.3168">
        <ele>202.2</ele>
        <time>2024-03-27T16:58:12Z</time>
      </trkpt>
      <trkpt lat="43.58796" lon="1.31669">
        <ele>202.4</ele>
        <time>2024-03-27T16:58:13Z</time>
      </trkpt>
      <trkpt lat="43.58791" lon="1.31664">
        <ele>202.4</ele>
        <time>2024-03-27T16:58:14Z</time>
      </trkpt>
      <trkpt lat="43.58786" lon="1.31661">
        <ele>202.4</ele>
        <time>2024-03-27T16:58:15Z</time>
      </trkpt>
      <trkpt lat="43.58781" lon="1.31662">
        <ele>202.4</ele>
        <time>2024-03-27T16:58:16Z</time>
      </trkpt>
      <trkpt lat="43.58777" lon="1.31665">
        <ele>202.4</ele>
        <time>2024-03-27T16:58:17Z</time>
      </trkpt>
      <trkpt lat="43.58773" lon="1.31669">
        <ele>202.4</ele>
        <time>2024-03-27T16:58:18Z</time>
      </trkpt>
      <trkpt lat="43.58769" lon="1.31674">
        <ele>202.4</ele>
        <time>2024-03-27T16:58:19Z</time>
      </trkpt>
      <trkpt lat="43.58765" lon="1.3168">
        <ele>202.4</ele>
        <time>2024-03-27T16:58:20Z</time>
      </trkpt>
      <trkpt lat="43.58761" lon="1.31686">
        <ele>202.4</ele>
        <time>2024-03-27T16:58:21Z</time>
      </trkpt>
      <trkpt lat="43.58758" lon="1.31691">
        <ele>202.4</ele>
        <time>2024-03-27T16:58:22Z</time>
      </trkpt>
      <trkpt lat="43.58755" lon="1.31697">
        <ele>202.4</ele>
        <time>2024-03-27T16:58:23Z</time>
      </trkpt>
      <trkpt lat="43.58752" lon="1.31702">
        <ele>202.4</ele>
        <time>2024-03-27T16:58:24Z</time>
      </trkpt>
      <trkpt lat="43.58748" lon="1.31708">
        <ele>202.4</ele>
        <time>2024-03-27T16:58:25Z</time>
      </trkpt>
      <trkpt lat="43.58745" lon="1.31715">
        <ele>202.4</ele>
        <time>2024-03-27T16:58:26Z</time>
      </trkpt>
      <trkpt lat="43.58741" lon="1.31721">
        <ele>202.4</ele>
        <time>2024-03-27T16:58:27Z</time>
      </trkpt>
      <trkpt lat="43.58738" lon="1.31727">
        <ele>202.4</ele>
        <time>2024-03-27T16:58:28Z</time>
      </trkpt>
      <trkpt lat="43.58735" lon="1.31732">
        <ele>202.4</ele>
        <time>2024-03-27T16:58:29Z</time>
      </trkpt>
      <trkpt lat="43.58732" lon="1.31737">
        <ele>202.4</ele>
        <time>2024-03-27T16:58:30Z</time>
      </trkpt>
      <trkpt lat="43.58729" lon="1.31742">
        <ele>202.4</ele>
        <time>2024-03-27T16:58:31Z</time>
      </trkpt>
      <trkpt lat="43.58725" lon="1.31749">
        <ele>202.6</ele>
        <time>2024-03-27T16:58:32Z</time>
      </trkpt>
      <trkpt lat="43.58722" lon="1.31755">
        <ele>202.6</ele>
        <time>2024-03-27T16:58:33Z</time>
      </trkpt>
      <trkpt lat="43.58719" lon="1.31761">
        <ele>202.4</ele>
        <time>2024-03-27T16:58:34Z</time>
      </trkpt>
      <trkpt lat="43.58716" lon="1.31768">
        <ele>202.4</ele>
        <time>2024-03-27T16:58:35Z</time>
      </trkpt>
      <trkpt lat="43.58712" lon="1.31774">
        <ele>202.4</ele>
        <time>2024-03-27T16:58:36Z</time>
      </trkpt>
      <trkpt lat="43.58709" lon="1.3178">
        <ele>202.4</ele>
        <time>2024-03-27T16:58:37Z</time>
      </trkpt>
      <trkpt lat="43.58706" lon="1.31786">
        <ele>202.4</ele>
        <time>2024-03-27T16:58:38Z</time>
      </trkpt>
      <trkpt lat="43.58703" lon="1.31791">
        <ele>202.2</ele>
        <time>2024-03-27T16:58:39Z</time>
      </trkpt>
      <trkpt lat="43.587" lon="1.31796">
        <ele>202.2</ele>
        <time>2024-03-27T16:58:40Z</time>
      </trkpt>
      <trkpt lat="43.58697" lon="1.31801">
        <ele>202.2</ele>
        <time>2024-03-27T16:58:41Z</time>
      </trkpt>
      <trkpt lat="43.58696" lon="1.31806">
        <ele>202.2</ele>
        <time>2024-03-27T16:58:42Z</time>
      </trkpt>
      <trkpt lat="43.58694" lon="1.31811">
        <ele>202.4</ele>
        <time>2024-03-27T16:58:43Z</time>
      </trkpt>
      <trkpt lat="43.58692" lon="1.31815">
        <ele>202.2</ele>
        <time>2024-03-27T16:58:44Z</time>
      </trkpt>
      <trkpt lat="43.58689" lon="1.31819">
        <ele>202.2</ele>
        <time>2024-03-27T16:58:45Z</time>
      </trkpt>
      <trkpt lat="43.58686" lon="1.31824">
        <ele>202.4</ele>
        <time>2024-03-27T16:58:46Z</time>
      </trkpt>
      <trkpt lat="43.58683" lon="1.3183">
        <ele>202.4</ele>
        <time>2024-03-27T16:58:47Z</time>
      </trkpt>
      <trkpt lat="43.58679" lon="1.31836">
        <ele>202.4</ele>
        <time>2024-03-27T16:58:48Z</time>
      </trkpt>
      <trkpt lat="43.58676" lon="1.31842">
        <ele>202.4</ele>
        <time>2024-03-27T16:58:49Z</time>
      </trkpt>
      <trkpt lat="43.58674" lon="1.31849">
        <ele>202.4</ele>
        <time>2024-03-27T16:58:50Z</time>
      </trkpt>
      <trkpt lat="43.58672" lon="1.31856">
        <ele>202.4</ele>
        <time>2024-03-27T16:58:51Z</time>
      </trkpt>
      <trkpt lat="43.58671" lon="1.31863">
        <ele>202.2</ele>
        <time>2024-03-27T16:58:52Z</time>
      </trkpt>
      <trkpt lat="43.58671" lon="1.31871">
        <ele>202.2</ele>
        <time>2024-03-27T16:58:53Z</time>
      </trkpt>
      <trkpt lat="43.5867" lon="1.31879">
        <ele>202</ele>
        <time>2024-03-27T16:58:54Z</time>
      </trkpt>
      <trkpt lat="43.58671" lon="1.31888">
        <ele>202</ele>
        <time>2024-03-27T16:58:55Z</time>
      </trkpt>
      <trkpt lat="43.58672" lon="1.31896">
        <ele>202</ele>
        <time>2024-03-27T16:58:56Z</time>
      </trkpt>
      <trkpt lat="43.58673" lon="1.31904">
        <ele>201.8</ele>
        <time>2024-03-27T16:58:57Z</time>
      </trkpt>
      <trkpt lat="43.58674" lon="1.31912">
        <ele>201.8</ele>
        <time>2024-03-27T16:58:58Z</time>
      </trkpt>
      <trkpt lat="43.58676" lon="1.31919">
        <ele>201.8</ele>
        <time>2024-03-27T16:58:59Z</time>
      </trkpt>
      <trkpt lat="43.58677" lon="1.31925">
        <ele>201.6</ele>
        <time>2024-03-27T16:59:00Z</time>
      </trkpt>
      <trkpt lat="43.58679" lon="1.31931">
        <ele>201.6</ele>
        <time>2024-03-27T16:59:01Z</time>
      </trkpt>
      <trkpt lat="43.58679" lon="1.31935">
        <ele>201.4</ele>
        <time>2024-03-27T16:59:02Z</time>
      </trkpt>
      <trkpt lat="43.58679" lon="1.31937">
        <ele>201.4</ele>
        <time>2024-03-27T16:59:03Z</time>
      </trkpt>
      <trkpt lat="43.58678" lon="1.31939">
        <ele>201.2</ele>
        <time>2024-03-27T16:59:04Z</time>
      </trkpt>
      <trkpt lat="43.58675" lon="1.31942">
        <ele>201.2</ele>
        <time>2024-03-27T16:59:05Z</time>
      </trkpt>
      <trkpt lat="43.58673" lon="1.31945">
        <ele>201.2</ele>
        <time>2024-03-27T16:59:06Z</time>
      </trkpt>
      <trkpt lat="43.5867" lon="1.31949">
        <ele>201</ele>
        <time>2024-03-27T16:59:07Z</time>
      </trkpt>
      <trkpt lat="43.58668" lon="1.31953">
        <ele>201</ele>
        <time>2024-03-27T16:59:08Z</time>
      </trkpt>
      <trkpt lat="43.58666" lon="1.31957">
        <ele>201</ele>
        <time>2024-03-27T16:59:09Z</time>
      </trkpt>
      <trkpt lat="43.58667" lon="1.31962">
        <ele>200.8</ele>
        <time>2024-03-27T16:59:10Z</time>
      </trkpt>
      <trkpt lat="43.58669" lon="1.31965">
        <ele>200.8</ele>
        <time>2024-03-27T16:59:11Z</time>
      </trkpt>
      <trkpt lat="43.58671" lon="1.3197">
        <ele>200.8</ele>
        <time>2024-03-27T16:59:12Z</time>
      </trkpt>
      <trkpt lat="43.58674" lon="1.31975">
        <ele>200.8</ele>
        <time>2024-03-27T16:59:13Z</time>
      </trkpt>
      <trkpt lat="43.58677" lon="1.31979">
        <ele>200.8</ele>
        <time>2024-03-27T16:59:14Z</time>
      </trkpt>
      <trkpt lat="43.5868" lon="1.31984">
        <ele>200.8</ele>
        <time>2024-03-27T16:59:15Z</time>
      </trkpt>
      <trkpt lat="43.58681" lon="1.31991">
        <ele>200.8</ele>
        <time>2024-03-27T16:59:16Z</time>
      </trkpt>
      <trkpt lat="43.58682" lon="1.31998">
        <ele>200.6</ele>
        <time>2024-03-27T16:59:17Z</time>
      </trkpt>
      <trkpt lat="43.58684" lon="1.32007">
        <ele>200.6</ele>
        <time>2024-03-27T16:59:18Z</time>
      </trkpt>
      <trkpt lat="43.58684" lon="1.32015">
        <ele>200.4</ele>
        <time>2024-03-27T16:59:19Z</time>
      </trkpt>
      <trkpt lat="43.58685" lon="1.32024">
        <ele>200.2</ele>
        <time>2024-03-27T16:59:20Z</time>
      </trkpt>
      <trkpt lat="43.58685" lon="1.32033">
        <ele>200.4</ele>
        <time>2024-03-27T16:59:21Z</time>
      </trkpt>
      <trkpt lat="43.58686" lon="1.32042">
        <ele>200.2</ele>
        <time>2024-03-27T16:59:22Z</time>
      </trkpt>
      <trkpt lat="43.58686" lon="1.32051">
        <ele>200.2</ele>
        <time>2024-03-27T16:59:23Z</time>
      </trkpt>
      <trkpt lat="43.58686" lon="1.3206">
        <ele>200</ele>
        <time>2024-03-27T16:59:24Z</time>
      </trkpt>
      <trkpt lat="43.58686" lon="1.32069">
        <ele>200</ele>
        <time>2024-03-27T16:59:25Z</time>
      </trkpt>
      <trkpt lat="43.58686" lon="1.32078">
        <ele>200</ele>
        <time>2024-03-27T16:59:26Z</time>
      </trkpt>
      <trkpt lat="43.58686" lon="1.32086">
        <ele>200</ele>
        <time>2024-03-27T16:59:27Z</time>
      </trkpt>
      <trkpt lat="43.58686" lon="1.32095">
        <ele>199.8</ele>
        <time>2024-03-27T16:59:28Z</time>
      </trkpt>
      <trkpt lat="43.58685" lon="1.32104">
        <ele>199.8</ele>
        <time>2024-03-27T16:59:29Z</time>
      </trkpt>
      <trkpt lat="43.58685" lon="1.32112">
        <ele>199.8</ele>
        <time>2024-03-27T16:59:30Z</time>
      </trkpt>
      <trkpt lat="43.58684" lon="1.3212">
        <ele>200</ele>
        <time>2024-03-27T16:59:31Z</time>
      </trkpt>
      <trkpt lat="43.58684" lon="1.3212">
        <ele>200</ele>
        <time>2024-03-27T16:59:32Z</time>
      </trkpt>
      <trkpt lat="43.58683" lon="1.32137">
        <ele>200</ele>
        <time>2024-03-27T16:59:33Z</time>
      </trkpt>
      <trkpt lat="43.58682" lon="1.32145">
        <ele>200.2</ele>
        <time>2024-03-27T16:59:34Z</time>
      </trkpt>
      <trkpt lat="43.58682" lon="1.32153">
        <ele>200.4</ele>
        <time>2024-03-27T16:59:35Z</time>
      </trkpt>
      <trkpt lat="43.58681" lon="1.32161">
        <ele>200.6</ele>
        <time>2024-03-27T16:59:36Z</time>
      </trkpt>
      <trkpt lat="43.5868" lon="1.32168">
        <ele>200.6</ele>
        <time>2024-03-27T16:59:37Z</time>
      </trkpt>
      <trkpt lat="43.58679" lon="1.32176">
        <ele>200.8</ele>
        <time>2024-03-27T16:59:38Z</time>
      </trkpt>
      <trkpt lat="43.58678" lon="1.32183">
        <ele>200.8</ele>
        <time>2024-03-27T16:59:39Z</time>
      </trkpt>
      <trkpt lat="43.58678" lon="1.3219">
        <ele>200.8</ele>
        <time>2024-03-27T16:59:40Z</time>
      </trkpt>
      <trkpt lat="43.58677" lon="1.32198">
        <ele>200.8</ele>
        <time>2024-03-27T16:59:41Z</time>
      </trkpt>
      <trkpt lat="43.58677" lon="1.32205">
        <ele>200.8</ele>
        <time>2024-03-27T16:59:42Z</time>
      </trkpt>
      <trkpt lat="43.58676" lon="1.32212">
        <ele>200.8</ele>
        <time>2024-03-27T16:59:43Z</time>
      </trkpt>
      <trkpt lat="43.58676" lon="1.32218">
        <ele>200.8</ele>
        <time>2024-03-27T16:59:44Z</time>
      </trkpt>
      <trkpt lat="43.58675" lon="1.32223">
        <ele>200.8</ele>
        <time>2024-03-27T16:59:45Z</time>
      </trkpt>
      <trkpt lat="43.58674" lon="1.32226">
        <ele>200.6</ele>
        <time>2024-03-27T16:59:46Z</time>
      </trkpt>
      <trkpt lat="43.58674" lon="1.32229">
        <ele>200.4</ele>
        <time>2024-03-27T16:59:47Z</time>
      </trkpt>
      <trkpt lat="43.58674" lon="1.32231">
        <ele>200.4</ele>
        <time>2024-03-27T16:59:48Z</time>
      </trkpt>
      <trkpt lat="43.58674" lon="1.32232">
        <ele>200.4</ele>
        <time>2024-03-27T16:59:49Z</time>
      </trkpt>
      <trkpt lat="43.58676" lon="1.32232">
        <ele>200.2</ele>
        <time>2024-03-27T16:59:50Z</time>
      </trkpt>
      <trkpt lat="43.58677" lon="1.32232">
        <ele>200.2</ele>
        <time>2024-03-27T16:59:51Z</time>
      </trkpt>
      <trkpt lat="43.58678" lon="1.3223">
        <ele>200</ele>
        <time>2024-03-27T16:59:52Z</time>
      </trkpt>
      <trkpt lat="43.58678" lon="1.32229">
        <ele>200</ele>
        <time>2024-03-27T16:59:53Z</time>
      </trkpt>
      <trkpt lat="43.58678" lon="1.32228">
        <ele>199.8</ele>
        <time>2024-03-27T16:59:54Z</time>
      </trkpt>
      <trkpt lat="43.58678" lon="1.32228">
        <ele>199.6</ele>
        <time>2024-03-27T16:59:55Z</time>
      </trkpt>
      <trkpt lat="43.58678" lon="1.32228">
        <ele>199.4</ele>
        <time>2024-03-27T16:59:56Z</time>
      </trkpt>
      <trkpt lat="43.58678" lon="1.32228">
        <ele>199.4</ele>
        <time>2024-03-27T16:59:57Z</time>
      </trkpt>
    </trkseg>
  </trk>
</gpx>